<?xml version="1.0" encoding="UTF-8" standalone="no" ?>
<gpx xmlns="http://www.topografix.com/GPX/1/1" xmlns:xsi="http://www.w3.org/2001/XMLSchema-instance" xsi:schemaLocation="http://www.topografix.com/GPX/1/1 http://www.topografix.com/GPX/1/1/gpx.xsd" version="1.1" creator="VisuGPX - https://www.visugpx.com">
  <metadata>
    <name>Riviera/Côte d'Azur Day 4: Cannes -&amp;gt; Saint-Aygulf</name>
  </metadata>
  <trk>
    <name><![CDATA[Riviera/Côte d'Azur Day 4: Cannes -> Saint-Aygulf]]></name>
    <extensions>
      <line xmlns="http://www.topografix.com/GPX/gpx_style/0/2">
        <color>0000FF</color>
        <width>4</width>
      </line>
    </extensions>
    <trkseg>
      <trkpt lat="43.55177" lon="7.00855">
        <ele>79.657221</ele>
        <time>2024-01-31T08:59:46.202Z</time>
      </trkpt>
      <trkpt lat="43.55184" lon="7.00841">
        <ele>79.657221</ele>
        <time>2024-01-31T08:59:48.639Z</time>
      </trkpt>
      <trkpt lat="43.5519" lon="7.00827">
        <ele>79.657221</ele>
        <time>2024-01-31T08:59:51.950Z</time>
      </trkpt>
      <trkpt lat="43.55199" lon="7.00827">
        <ele>79.657221</ele>
        <time>2024-01-31T09:00:59.964Z</time>
      </trkpt>
      <trkpt lat="43.55208" lon="7.00821">
        <ele>79.657221</ele>
        <time>2024-01-31T09:01:28.934Z</time>
      </trkpt>
      <trkpt lat="43.55217" lon="7.00822">
        <ele>79.657221</ele>
        <time>2024-01-31T09:01:34.941Z</time>
      </trkpt>
      <trkpt lat="43.55222" lon="7.00833">
        <ele>79.657221</ele>
        <time>2024-01-31T09:01:41.946Z</time>
      </trkpt>
      <trkpt lat="43.55222" lon="7.00847">
        <ele>79.657221</ele>
        <time>2024-01-31T09:01:55.930Z</time>
      </trkpt>
      <trkpt lat="43.55215" lon="7.00861">
        <ele>79.657221</ele>
        <time>2024-01-31T09:01:59.939Z</time>
      </trkpt>
      <trkpt lat="43.55208" lon="7.0087">
        <ele>79.347534</ele>
        <time>2024-01-31T09:02:02.010Z</time>
      </trkpt>
      <trkpt lat="43.55201" lon="7.00881">
        <ele>78.497226</ele>
        <time>2024-01-31T09:02:03.923Z</time>
      </trkpt>
      <trkpt lat="43.55192" lon="7.00892">
        <ele>77.620312</ele>
        <time>2024-01-31T09:02:05.969Z</time>
      </trkpt>
      <trkpt lat="43.55185" lon="7.00904">
        <ele>76.732875</ele>
        <time>2024-01-31T09:02:08.923Z</time>
      </trkpt>
      <trkpt lat="43.55176" lon="7.00912">
        <ele>75.887642</ele>
        <time>2024-01-31T09:02:11.954Z</time>
      </trkpt>
      <trkpt lat="43.55168" lon="7.00919">
        <ele>75.174679</ele>
        <time>2024-01-31T09:02:23.944Z</time>
      </trkpt>
      <trkpt lat="43.55162" lon="7.00934">
        <ele>74.209935</ele>
        <time>2024-01-31T09:02:27.923Z</time>
      </trkpt>
      <trkpt lat="43.55152" lon="7.00945">
        <ele>73.208525</ele>
        <time>2024-01-31T09:02:30.944Z</time>
      </trkpt>
      <trkpt lat="43.55144" lon="7.00951">
        <ele>72.495461</ele>
        <time>2024-01-31T09:02:32.934Z</time>
      </trkpt>
      <trkpt lat="43.55134" lon="7.0095">
        <ele>71.792386</ele>
        <time>2024-01-31T09:02:34.945Z</time>
      </trkpt>
      <trkpt lat="43.55123" lon="7.00947">
        <ele>70.896444</ele>
        <time>2024-01-31T09:02:38.932Z</time>
      </trkpt>
      <trkpt lat="43.55113" lon="7.00946">
        <ele>70.084611</ele>
        <time>2024-01-31T09:02:41.935Z</time>
      </trkpt>
      <trkpt lat="43.55103" lon="7.00946">
        <ele>69.358394</ele>
        <time>2024-01-31T09:02:44.949Z</time>
      </trkpt>
      <trkpt lat="43.55094" lon="7.00946">
        <ele>68.63263</ele>
        <time>2024-01-31T09:02:47.949Z</time>
      </trkpt>
      <trkpt lat="43.55084" lon="7.00944">
        <ele>67.879103</ele>
        <time>2024-01-31T09:02:50.931Z</time>
      </trkpt>
      <trkpt lat="43.55073" lon="7.00942">
        <ele>67.000951</ele>
        <time>2024-01-31T09:02:54.963Z</time>
      </trkpt>
      <trkpt lat="43.55069" lon="7.00928">
        <ele>66.16451</ele>
        <time>2024-01-31T09:03:00.924Z</time>
      </trkpt>
      <trkpt lat="43.55071" lon="7.00913">
        <ele>65.491471</ele>
        <time>2024-01-31T09:03:03.953Z</time>
      </trkpt>
      <trkpt lat="43.55065" lon="7.00898">
        <ele>64.910161</ele>
        <time>2024-01-31T09:03:06.935Z</time>
      </trkpt>
      <trkpt lat="43.55057" lon="7.00891">
        <ele>64.465288</ele>
        <time>2024-01-31T09:03:08.928Z</time>
      </trkpt>
      <trkpt lat="43.55048" lon="7.00884">
        <ele>64.010763</ele>
        <time>2024-01-31T09:03:10.919Z</time>
      </trkpt>
      <trkpt lat="43.5504" lon="7.00876">
        <ele>63.556417</ele>
        <time>2024-01-31T09:03:12.932Z</time>
      </trkpt>
      <trkpt lat="43.55032" lon="7.00869">
        <ele>63.124865</ele>
        <time>2024-01-31T09:03:14.965Z</time>
      </trkpt>
      <trkpt lat="43.55024" lon="7.00862">
        <ele>62.68325</ele>
        <time>2024-01-31T09:03:17.029Z</time>
      </trkpt>
      <trkpt lat="43.55016" lon="7.00855">
        <ele>62.232746</ele>
        <time>2024-01-31T09:03:18.934Z</time>
      </trkpt>
      <trkpt lat="43.55008" lon="7.00847">
        <ele>61.778431</ele>
        <time>2024-01-31T09:03:20.942Z</time>
      </trkpt>
      <trkpt lat="43.54998" lon="7.00837">
        <ele>61.165008</ele>
        <time>2024-01-31T09:03:23.939Z</time>
      </trkpt>
      <trkpt lat="43.54991" lon="7.00827">
        <ele>60.711871</ele>
        <time>2024-01-31T09:03:26.930Z</time>
      </trkpt>
      <trkpt lat="43.54998" lon="7.00816">
        <ele>60.220252</ele>
        <time>2024-01-31T09:03:30.929Z</time>
      </trkpt>
      <trkpt lat="43.55007" lon="7.00809">
        <ele>59.735699</ele>
        <time>2024-01-31T09:03:35.953Z</time>
      </trkpt>
      <trkpt lat="43.54998" lon="7.00799">
        <ele>59.212282</ele>
        <time>2024-01-31T09:03:43.968Z</time>
      </trkpt>
      <trkpt lat="43.5499" lon="7.00792">
        <ele>58.738438</ele>
        <time>2024-01-31T09:03:45.935Z</time>
      </trkpt>
      <trkpt lat="43.54979" lon="7.00787">
        <ele>58.203433</ele>
        <time>2024-01-31T09:03:47.932Z</time>
      </trkpt>
      <trkpt lat="43.54967" lon="7.0078">
        <ele>57.606744</ele>
        <time>2024-01-31T09:03:49.954Z</time>
      </trkpt>
      <trkpt lat="43.54954" lon="7.00772">
        <ele>57.121419</ele>
        <time>2024-01-31T09:03:51.931Z</time>
      </trkpt>
      <trkpt lat="43.54941" lon="7.00764">
        <ele>56.718847</ele>
        <time>2024-01-31T09:03:54.016Z</time>
      </trkpt>
      <trkpt lat="43.54928" lon="7.00763">
        <ele>56.338123</ele>
        <time>2024-01-31T09:03:55.933Z</time>
      </trkpt>
      <trkpt lat="43.54916" lon="7.00766">
        <ele>55.982172</ele>
        <time>2024-01-31T09:03:57.931Z</time>
      </trkpt>
      <trkpt lat="43.54907" lon="7.0077">
        <ele>55.680696</ele>
        <time>2024-01-31T09:03:59.935Z</time>
      </trkpt>
      <trkpt lat="43.54893" lon="7.00772">
        <ele>55.293954</ele>
        <time>2024-01-31T09:04:02.928Z</time>
      </trkpt>
      <trkpt lat="43.54885" lon="7.00763">
        <ele>54.97135</ele>
        <time>2024-01-31T09:04:05.923Z</time>
      </trkpt>
      <trkpt lat="43.54878" lon="7.00752">
        <ele>54.670963</ele>
        <time>2024-01-31T09:04:17.939Z</time>
      </trkpt>
      <trkpt lat="43.54873" lon="7.00738">
        <ele>54.348734</ele>
        <time>2024-01-31T09:04:22.934Z</time>
      </trkpt>
      <trkpt lat="43.54874" lon="7.00725">
        <ele>54.056725</ele>
        <time>2024-01-31T09:04:26.935Z</time>
      </trkpt>
      <trkpt lat="43.54875" lon="7.00712">
        <ele>53.789196</ele>
        <time>2024-01-31T09:04:29.934Z</time>
      </trkpt>
      <trkpt lat="43.54877" lon="7.00698">
        <ele>53.481135</ele>
        <time>2024-01-31T09:04:32.954Z</time>
      </trkpt>
      <trkpt lat="43.54879" lon="7.00683">
        <ele>53.154823</ele>
        <time>2024-01-31T09:04:35.944Z</time>
      </trkpt>
      <trkpt lat="43.54882" lon="7.00667">
        <ele>52.808736</ele>
        <time>2024-01-31T09:04:38.949Z</time>
      </trkpt>
      <trkpt lat="43.54881" lon="7.0065">
        <ele>52.449468</ele>
        <time>2024-01-31T09:04:41.959Z</time>
      </trkpt>
      <trkpt lat="43.54883" lon="7.00632">
        <ele>52.171931</ele>
        <time>2024-01-31T09:04:44.925Z</time>
      </trkpt>
      <trkpt lat="43.54886" lon="7.00616">
        <ele>52.240187</ele>
        <time>2024-01-31T09:04:47.932Z</time>
      </trkpt>
      <trkpt lat="43.54887" lon="7.00599">
        <ele>52.30847</ele>
        <time>2024-01-31T09:04:50.930Z</time>
      </trkpt>
      <trkpt lat="43.54888" lon="7.00582">
        <ele>52.379137</ele>
        <time>2024-01-31T09:04:53.958Z</time>
      </trkpt>
      <trkpt lat="43.5489" lon="7.00564">
        <ele>52.452232</ele>
        <time>2024-01-31T09:04:56.949Z</time>
      </trkpt>
      <trkpt lat="43.54891" lon="7.00552">
        <ele>52.504134</ele>
        <time>2024-01-31T09:04:58.953Z</time>
      </trkpt>
      <trkpt lat="43.54892" lon="7.00538">
        <ele>52.558631</ele>
        <time>2024-01-31T09:05:00.933Z</time>
      </trkpt>
      <trkpt lat="43.54892" lon="7.00526">
        <ele>52.61068</ele>
        <time>2024-01-31T09:05:02.957Z</time>
      </trkpt>
      <trkpt lat="43.54894" lon="7.00513">
        <ele>52.66468</ele>
        <time>2024-01-31T09:05:04.944Z</time>
      </trkpt>
      <trkpt lat="43.54894" lon="7.005">
        <ele>52.716695</ele>
        <time>2024-01-31T09:05:06.939Z</time>
      </trkpt>
      <trkpt lat="43.54896" lon="7.00486">
        <ele>52.772467</ele>
        <time>2024-01-31T09:05:08.944Z</time>
      </trkpt>
      <trkpt lat="43.54897" lon="7.00473">
        <ele>52.826873</ele>
        <time>2024-01-31T09:05:10.938Z</time>
      </trkpt>
      <trkpt lat="43.54898" lon="7.0046">
        <ele>52.88243</ele>
        <time>2024-01-31T09:05:12.926Z</time>
      </trkpt>
      <trkpt lat="43.54899" lon="7.00445">
        <ele>52.942182</ele>
        <time>2024-01-31T09:05:14.941Z</time>
      </trkpt>
      <trkpt lat="43.54901" lon="7.00432">
        <ele>52.998359</ele>
        <time>2024-01-31T09:05:16.947Z</time>
      </trkpt>
      <trkpt lat="43.54902" lon="7.00418">
        <ele>53.052838</ele>
        <time>2024-01-31T09:05:18.960Z</time>
      </trkpt>
      <trkpt lat="43.54903" lon="7.00405">
        <ele>53.106194</ele>
        <time>2024-01-31T09:05:20.952Z</time>
      </trkpt>
      <trkpt lat="43.54904" lon="7.00393">
        <ele>53.156812</ele>
        <time>2024-01-31T09:05:22.940Z</time>
      </trkpt>
      <trkpt lat="43.54904" lon="7.00375">
        <ele>53.118213</ele>
        <time>2024-01-31T09:05:25.944Z</time>
      </trkpt>
      <trkpt lat="43.54903" lon="7.00362">
        <ele>53.07367</ele>
        <time>2024-01-31T09:05:27.939Z</time>
      </trkpt>
      <trkpt lat="43.54904" lon="7.00349">
        <ele>53.02831</ele>
        <time>2024-01-31T09:05:29.924Z</time>
      </trkpt>
      <trkpt lat="43.54905" lon="7.00336">
        <ele>52.984756</ele>
        <time>2024-01-31T09:05:31.936Z</time>
      </trkpt>
      <trkpt lat="43.54904" lon="7.00323">
        <ele>52.94019</ele>
        <time>2024-01-31T09:05:33.937Z</time>
      </trkpt>
      <trkpt lat="43.54904" lon="7.00311">
        <ele>52.896317</ele>
        <time>2024-01-31T09:05:35.958Z</time>
      </trkpt>
      <trkpt lat="43.54903" lon="7.00298">
        <ele>52.852763</ele>
        <time>2024-01-31T09:05:37.941Z</time>
      </trkpt>
      <trkpt lat="43.54903" lon="7.00285">
        <ele>52.807196</ele>
        <time>2024-01-31T09:05:39.942Z</time>
      </trkpt>
      <trkpt lat="43.54902" lon="7.00272">
        <ele>52.761053</ele>
        <time>2024-01-31T09:05:41.948Z</time>
      </trkpt>
      <trkpt lat="43.54902" lon="7.00259">
        <ele>52.71481</ele>
        <time>2024-01-31T09:05:43.942Z</time>
      </trkpt>
      <trkpt lat="43.54902" lon="7.00246">
        <ele>52.66995</ele>
        <time>2024-01-31T09:05:45.948Z</time>
      </trkpt>
      <trkpt lat="43.54902" lon="7.00233">
        <ele>52.623708</ele>
        <time>2024-01-31T09:05:47.925Z</time>
      </trkpt>
      <trkpt lat="43.54902" lon="7.0022">
        <ele>52.578419</ele>
        <time>2024-01-31T09:05:49.939Z</time>
      </trkpt>
      <trkpt lat="43.54902" lon="7.00207">
        <ele>52.53461</ele>
        <time>2024-01-31T09:05:51.943Z</time>
      </trkpt>
      <trkpt lat="43.54902" lon="7.00189">
        <ele>52.47233</ele>
        <time>2024-01-31T09:05:54.941Z</time>
      </trkpt>
      <trkpt lat="43.54901" lon="7.00176">
        <ele>52.425356</ele>
        <time>2024-01-31T09:05:57.938Z</time>
      </trkpt>
      <trkpt lat="43.54907" lon="7.00165">
        <ele>52.379141</ele>
        <time>2024-01-31T09:06:09.938Z</time>
      </trkpt>
      <trkpt lat="43.54909" lon="7.00152">
        <ele>52.33176</ele>
        <time>2024-01-31T09:06:13.944Z</time>
      </trkpt>
      <trkpt lat="43.5491" lon="7.00136">
        <ele>52.277687</ele>
        <time>2024-01-31T09:06:16.954Z</time>
      </trkpt>
      <trkpt lat="43.54911" lon="7.00118">
        <ele>52.219192</ele>
        <time>2024-01-31T09:06:19.943Z</time>
      </trkpt>
      <trkpt lat="43.54912" lon="7.00105">
        <ele>52.176146</ele>
        <time>2024-01-31T09:06:21.948Z</time>
      </trkpt>
      <trkpt lat="43.54912" lon="7.00093">
        <ele>52.134479</ele>
        <time>2024-01-31T09:06:23.965Z</time>
      </trkpt>
      <trkpt lat="43.54913" lon="7.0008">
        <ele>52.092098</ele>
        <time>2024-01-31T09:06:25.944Z</time>
      </trkpt>
      <trkpt lat="43.54913" lon="7.00062">
        <ele>52.030781</ele>
        <time>2024-01-31T09:06:28.918Z</time>
      </trkpt>
      <trkpt lat="43.54914" lon="7.00049">
        <ele>51.989396</ele>
        <time>2024-01-31T09:06:30.957Z</time>
      </trkpt>
      <trkpt lat="43.54914" lon="7.00037">
        <ele>51.948012</ele>
        <time>2024-01-31T09:06:32.919Z</time>
      </trkpt>
      <trkpt lat="43.54915" lon="7.00024">
        <ele>51.90568</ele>
        <time>2024-01-31T09:06:34.938Z</time>
      </trkpt>
      <trkpt lat="43.54916" lon="7.00012">
        <ele>51.862855</ele>
        <time>2024-01-31T09:06:36.919Z</time>
      </trkpt>
      <trkpt lat="43.54916" lon="6.99998">
        <ele>51.819209</ele>
        <time>2024-01-31T09:06:38.942Z</time>
      </trkpt>
      <trkpt lat="43.54917" lon="6.9998">
        <ele>51.757645</ele>
        <time>2024-01-31T09:06:41.971Z</time>
      </trkpt>
      <trkpt lat="43.54918" lon="6.99967">
        <ele>51.715343</ele>
        <time>2024-01-31T09:06:43.966Z</time>
      </trkpt>
      <trkpt lat="43.54919" lon="6.9995">
        <ele>51.655768</ele>
        <time>2024-01-31T09:06:46.944Z</time>
      </trkpt>
      <trkpt lat="43.54919" lon="6.99937">
        <ele>51.612475</ele>
        <time>2024-01-31T09:06:48.940Z</time>
      </trkpt>
      <trkpt lat="43.54919" lon="6.99924">
        <ele>51.569123</ele>
        <time>2024-01-31T09:06:50.942Z</time>
      </trkpt>
      <trkpt lat="43.54921" lon="6.99911">
        <ele>51.526741</ele>
        <time>2024-01-31T09:06:52.924Z</time>
      </trkpt>
      <trkpt lat="43.54921" lon="6.99897">
        <ele>51.481783</ele>
        <time>2024-01-31T09:06:54.957Z</time>
      </trkpt>
      <trkpt lat="43.54922" lon="6.99884">
        <ele>51.43873</ele>
        <time>2024-01-31T09:06:56.944Z</time>
      </trkpt>
      <trkpt lat="43.54922" lon="6.9987">
        <ele>51.395948</ele>
        <time>2024-01-31T09:06:58.992Z</time>
      </trkpt>
      <trkpt lat="43.54922" lon="6.99856">
        <ele>51.351904</ele>
        <time>2024-01-31T09:07:00.942Z</time>
      </trkpt>
      <trkpt lat="43.54923" lon="6.99842">
        <ele>51.307131</ele>
        <time>2024-01-31T09:07:02.941Z</time>
      </trkpt>
      <trkpt lat="43.54923" lon="6.99829">
        <ele>51.264897</ele>
        <time>2024-01-31T09:07:04.949Z</time>
      </trkpt>
      <trkpt lat="43.54924" lon="6.99815">
        <ele>51.222079</ele>
        <time>2024-01-31T09:07:06.944Z</time>
      </trkpt>
      <trkpt lat="43.54924" lon="6.99802">
        <ele>51.180184</ele>
        <time>2024-01-31T09:07:08.934Z</time>
      </trkpt>
      <trkpt lat="43.54925" lon="6.99788">
        <ele>51.136089</ele>
        <time>2024-01-31T09:07:10.948Z</time>
      </trkpt>
      <trkpt lat="43.54925" lon="6.99774">
        <ele>51.093271</ele>
        <time>2024-01-31T09:07:12.952Z</time>
      </trkpt>
      <trkpt lat="43.54926" lon="6.99761">
        <ele>51.051635</ele>
        <time>2024-01-31T09:07:14.927Z</time>
      </trkpt>
      <trkpt lat="43.54926" lon="6.99747">
        <ele>51.007831</ele>
        <time>2024-01-31T09:07:16.941Z</time>
      </trkpt>
      <trkpt lat="43.54927" lon="6.99733">
        <ele>50.963128</ele>
        <time>2024-01-31T09:07:18.946Z</time>
      </trkpt>
      <trkpt lat="43.54927" lon="6.99719">
        <ele>50.918354</ele>
        <time>2024-01-31T09:07:20.938Z</time>
      </trkpt>
      <trkpt lat="43.54928" lon="6.99704">
        <ele>50.872294</ele>
        <time>2024-01-31T09:07:22.941Z</time>
      </trkpt>
      <trkpt lat="43.54929" lon="6.9969">
        <ele>50.826548</ele>
        <time>2024-01-31T09:07:24.958Z</time>
      </trkpt>
      <trkpt lat="43.54929" lon="6.99675">
        <ele>50.779644</ele>
        <time>2024-01-31T09:07:26.940Z</time>
      </trkpt>
      <trkpt lat="43.5493" lon="6.9966">
        <ele>50.733198</ele>
        <time>2024-01-31T09:07:28.950Z</time>
      </trkpt>
      <trkpt lat="43.54931" lon="6.99645">
        <ele>50.706774</ele>
        <time>2024-01-31T09:07:30.959Z</time>
      </trkpt>
      <trkpt lat="43.54931" lon="6.99631">
        <ele>50.725971</ele>
        <time>2024-01-31T09:07:32.957Z</time>
      </trkpt>
      <trkpt lat="43.54931" lon="6.99616">
        <ele>50.745292</ele>
        <time>2024-01-31T09:07:34.939Z</time>
      </trkpt>
      <trkpt lat="43.54931" lon="6.99601">
        <ele>50.764625</ele>
        <time>2024-01-31T09:07:36.927Z</time>
      </trkpt>
      <trkpt lat="43.54931" lon="6.99586">
        <ele>50.784206</ele>
        <time>2024-01-31T09:07:38.945Z</time>
      </trkpt>
      <trkpt lat="43.54931" lon="6.9957">
        <ele>50.804963</ele>
        <time>2024-01-31T09:07:40.922Z</time>
      </trkpt>
      <trkpt lat="43.54931" lon="6.99555">
        <ele>50.825197</ele>
        <time>2024-01-31T09:07:42.953Z</time>
      </trkpt>
      <trkpt lat="43.54931" lon="6.99539">
        <ele>50.845431</ele>
        <time>2024-01-31T09:07:44.944Z</time>
      </trkpt>
      <trkpt lat="43.54931" lon="6.99525">
        <ele>50.864106</ele>
        <time>2024-01-31T09:07:46.941Z</time>
      </trkpt>
      <trkpt lat="43.54931" lon="6.99511">
        <ele>50.882386</ele>
        <time>2024-01-31T09:07:48.925Z</time>
      </trkpt>
      <trkpt lat="43.54931" lon="6.99498">
        <ele>50.899226</ele>
        <time>2024-01-31T09:07:50.938Z</time>
      </trkpt>
      <trkpt lat="43.5493" lon="6.99484">
        <ele>50.917777</ele>
        <time>2024-01-31T09:07:53.952Z</time>
      </trkpt>
      <trkpt lat="43.5493" lon="6.99468">
        <ele>50.938533</ele>
        <time>2024-01-31T09:07:57.942Z</time>
      </trkpt>
      <trkpt lat="43.5493" lon="6.99453">
        <ele>50.958388</ele>
        <time>2024-01-31T09:08:00.937Z</time>
      </trkpt>
      <trkpt lat="43.54929" lon="6.99436">
        <ele>50.980119</ele>
        <time>2024-01-31T09:08:03.947Z</time>
      </trkpt>
      <trkpt lat="43.54929" lon="6.99423">
        <ele>50.996571</ele>
        <time>2024-01-31T09:08:05.954Z</time>
      </trkpt>
      <trkpt lat="43.54928" lon="6.9941">
        <ele>51.013706</ele>
        <time>2024-01-31T09:08:07.943Z</time>
      </trkpt>
      <trkpt lat="43.54928" lon="6.99397">
        <ele>51.037772</ele>
        <time>2024-01-31T09:08:09.927Z</time>
      </trkpt>
      <trkpt lat="43.54928" lon="6.99378">
        <ele>51.090268</ele>
        <time>2024-01-31T09:08:12.942Z</time>
      </trkpt>
      <trkpt lat="43.54926" lon="6.9936">
        <ele>51.142923</ele>
        <time>2024-01-31T09:08:15.964Z</time>
      </trkpt>
      <trkpt lat="43.54925" lon="6.99347">
        <ele>51.180276</ele>
        <time>2024-01-31T09:08:17.951Z</time>
      </trkpt>
      <trkpt lat="43.54925" lon="6.99333">
        <ele>51.217694</ele>
        <time>2024-01-31T09:08:19.938Z</time>
      </trkpt>
      <trkpt lat="43.54924" lon="6.9932">
        <ele>51.255536</ele>
        <time>2024-01-31T09:08:21.941Z</time>
      </trkpt>
      <trkpt lat="43.54923" lon="6.99305">
        <ele>51.296313</ele>
        <time>2024-01-31T09:08:23.961Z</time>
      </trkpt>
      <trkpt lat="43.54922" lon="6.99291">
        <ele>51.336311</ele>
        <time>2024-01-31T09:08:25.934Z</time>
      </trkpt>
      <trkpt lat="43.54922" lon="6.99277">
        <ele>51.375346</ele>
        <time>2024-01-31T09:08:27.923Z</time>
      </trkpt>
      <trkpt lat="43.54921" lon="6.99263">
        <ele>51.4161</ele>
        <time>2024-01-31T09:08:29.933Z</time>
      </trkpt>
      <trkpt lat="43.54921" lon="6.99249">
        <ele>51.455121</ele>
        <time>2024-01-31T09:08:31.939Z</time>
      </trkpt>
      <trkpt lat="43.5492" lon="6.99234">
        <ele>51.495992</ele>
        <time>2024-01-31T09:08:33.942Z</time>
      </trkpt>
      <trkpt lat="43.54919" lon="6.9922">
        <ele>51.537388</ele>
        <time>2024-01-31T09:08:35.946Z</time>
      </trkpt>
      <trkpt lat="43.54918" lon="6.99206">
        <ele>51.577142</ele>
        <time>2024-01-31T09:08:37.950Z</time>
      </trkpt>
      <trkpt lat="43.54917" lon="6.99192">
        <ele>51.616194</ele>
        <time>2024-01-31T09:08:39.941Z</time>
      </trkpt>
      <trkpt lat="43.54917" lon="6.99178">
        <ele>51.655267</ele>
        <time>2024-01-31T09:08:41.937Z</time>
      </trkpt>
      <trkpt lat="43.54916" lon="6.99163">
        <ele>51.69544</ele>
        <time>2024-01-31T09:08:43.937Z</time>
      </trkpt>
      <trkpt lat="43.54916" lon="6.9915">
        <ele>51.710598</ele>
        <time>2024-01-31T09:08:45.934Z</time>
      </trkpt>
      <trkpt lat="43.54915" lon="6.99137">
        <ele>51.671664</ele>
        <time>2024-01-31T09:08:47.944Z</time>
      </trkpt>
      <trkpt lat="43.54914" lon="6.99123">
        <ele>51.631315</ele>
        <time>2024-01-31T09:08:49.942Z</time>
      </trkpt>
      <trkpt lat="43.54914" lon="6.99109">
        <ele>51.591478</ele>
        <time>2024-01-31T09:08:51.937Z</time>
      </trkpt>
      <trkpt lat="43.54913" lon="6.99095">
        <ele>51.553547</ele>
        <time>2024-01-31T09:08:53.939Z</time>
      </trkpt>
      <trkpt lat="43.54912" lon="6.99082">
        <ele>51.515334</ele>
        <time>2024-01-31T09:08:55.947Z</time>
      </trkpt>
      <trkpt lat="43.5491" lon="6.99069">
        <ele>51.478722</ele>
        <time>2024-01-31T09:08:57.945Z</time>
      </trkpt>
      <trkpt lat="43.5491" lon="6.99055">
        <ele>51.440046</ele>
        <time>2024-01-31T09:08:59.952Z</time>
      </trkpt>
      <trkpt lat="43.54909" lon="6.99042">
        <ele>51.402871</ele>
        <time>2024-01-31T09:09:01.957Z</time>
      </trkpt>
      <trkpt lat="43.54908" lon="6.99029">
        <ele>51.365296</ele>
        <time>2024-01-31T09:09:03.945Z</time>
      </trkpt>
      <trkpt lat="43.54907" lon="6.99015">
        <ele>51.324861</ele>
        <time>2024-01-31T09:09:05.958Z</time>
      </trkpt>
      <trkpt lat="43.54906" lon="6.99002">
        <ele>51.286686</ele>
        <time>2024-01-31T09:09:07.938Z</time>
      </trkpt>
      <trkpt lat="43.54905" lon="6.98988">
        <ele>51.247822</ele>
        <time>2024-01-31T09:09:09.934Z</time>
      </trkpt>
      <trkpt lat="43.54904" lon="6.98975">
        <ele>51.209365</ele>
        <time>2024-01-31T09:09:11.949Z</time>
      </trkpt>
      <trkpt lat="43.54903" lon="6.98961">
        <ele>51.170306</ele>
        <time>2024-01-31T09:09:13.918Z</time>
      </trkpt>
      <trkpt lat="43.54902" lon="6.98948">
        <ele>51.132939</ele>
        <time>2024-01-31T09:09:15.943Z</time>
      </trkpt>
      <trkpt lat="43.54901" lon="6.98934">
        <ele>51.093917</ele>
        <time>2024-01-31T09:09:17.940Z</time>
      </trkpt>
      <trkpt lat="43.549" lon="6.98921">
        <ele>51.055572</ele>
        <time>2024-01-31T09:09:19.954Z</time>
      </trkpt>
      <trkpt lat="43.549" lon="6.98907">
        <ele>51.01831</ele>
        <time>2024-01-31T09:09:21.938Z</time>
      </trkpt>
      <trkpt lat="43.54898" lon="6.98894">
        <ele>51.065786</ele>
        <time>2024-01-31T09:09:23.944Z</time>
      </trkpt>
      <trkpt lat="43.54898" lon="6.98881">
        <ele>51.115885</ele>
        <time>2024-01-31T09:09:25.966Z</time>
      </trkpt>
      <trkpt lat="43.54896" lon="6.98867">
        <ele>51.166211</ele>
        <time>2024-01-31T09:09:27.939Z</time>
      </trkpt>
      <trkpt lat="43.54894" lon="6.98853">
        <ele>51.217958</ele>
        <time>2024-01-31T09:09:29.946Z</time>
      </trkpt>
      <trkpt lat="43.54892" lon="6.9884">
        <ele>51.269205</ele>
        <time>2024-01-31T09:09:31.956Z</time>
      </trkpt>
      <trkpt lat="43.5489" lon="6.98827">
        <ele>51.319391</ele>
        <time>2024-01-31T09:09:33.958Z</time>
      </trkpt>
      <trkpt lat="43.54889" lon="6.98813">
        <ele>51.368571</ele>
        <time>2024-01-31T09:09:35.935Z</time>
      </trkpt>
      <trkpt lat="43.54886" lon="6.98801">
        <ele>51.416945</ele>
        <time>2024-01-31T09:09:37.940Z</time>
      </trkpt>
      <trkpt lat="43.54885" lon="6.98787">
        <ele>51.467581</ele>
        <time>2024-01-31T09:09:39.929Z</time>
      </trkpt>
      <trkpt lat="43.54883" lon="6.98774">
        <ele>51.516956</ele>
        <time>2024-01-31T09:09:41.933Z</time>
      </trkpt>
      <trkpt lat="43.54881" lon="6.98761">
        <ele>51.566863</ele>
        <time>2024-01-31T09:09:43.955Z</time>
      </trkpt>
      <trkpt lat="43.54879" lon="6.98748">
        <ele>51.616233</ele>
        <time>2024-01-31T09:09:45.941Z</time>
      </trkpt>
      <trkpt lat="43.54876" lon="6.9873">
        <ele>51.683165</ele>
        <time>2024-01-31T09:09:48.934Z</time>
      </trkpt>
      <trkpt lat="43.54875" lon="6.98718">
        <ele>51.729536</ele>
        <time>2024-01-31T09:09:50.937Z</time>
      </trkpt>
      <trkpt lat="43.54873" lon="6.98706">
        <ele>51.775758</ele>
        <time>2024-01-31T09:09:52.934Z</time>
      </trkpt>
      <trkpt lat="43.5487" lon="6.98693">
        <ele>51.824313</ele>
        <time>2024-01-31T09:09:54.939Z</time>
      </trkpt>
      <trkpt lat="43.54867" lon="6.98681">
        <ele>51.871876</ele>
        <time>2024-01-31T09:09:56.941Z</time>
      </trkpt>
      <trkpt lat="43.54865" lon="6.98663">
        <ele>51.938748</ele>
        <time>2024-01-31T09:09:59.955Z</time>
      </trkpt>
      <trkpt lat="43.54862" lon="6.9865">
        <ele>51.977503</ele>
        <time>2024-01-31T09:10:01.943Z</time>
      </trkpt>
      <trkpt lat="43.54859" lon="6.98637">
        <ele>52.015913</ele>
        <time>2024-01-31T09:10:03.955Z</time>
      </trkpt>
      <trkpt lat="43.54856" lon="6.98624">
        <ele>52.055726</ele>
        <time>2024-01-31T09:10:05.955Z</time>
      </trkpt>
      <trkpt lat="43.54854" lon="6.98612">
        <ele>52.092627</ele>
        <time>2024-01-31T09:10:07.931Z</time>
      </trkpt>
      <trkpt lat="43.54851" lon="6.986">
        <ele>52.129248</ele>
        <time>2024-01-31T09:10:09.946Z</time>
      </trkpt>
      <trkpt lat="43.54849" lon="6.98586">
        <ele>52.168953</ele>
        <time>2024-01-31T09:10:11.941Z</time>
      </trkpt>
      <trkpt lat="43.54847" lon="6.98573">
        <ele>52.208281</ele>
        <time>2024-01-31T09:10:13.935Z</time>
      </trkpt>
      <trkpt lat="43.54845" lon="6.98561">
        <ele>52.244686</ele>
        <time>2024-01-31T09:10:15.939Z</time>
      </trkpt>
      <trkpt lat="43.54842" lon="6.98548">
        <ele>52.285061</ele>
        <time>2024-01-31T09:10:17.952Z</time>
      </trkpt>
      <trkpt lat="43.54839" lon="6.98535">
        <ele>52.323141</ele>
        <time>2024-01-31T09:10:19.936Z</time>
      </trkpt>
      <trkpt lat="43.54837" lon="6.98517">
        <ele>52.377269</ele>
        <time>2024-01-31T09:10:22.939Z</time>
      </trkpt>
      <trkpt lat="43.54834" lon="6.98504">
        <ele>52.417363</ele>
        <time>2024-01-31T09:10:24.935Z</time>
      </trkpt>
      <trkpt lat="43.54832" lon="6.98491">
        <ele>52.456312</ele>
        <time>2024-01-31T09:10:26.947Z</time>
      </trkpt>
      <trkpt lat="43.5483" lon="6.98477">
        <ele>52.497052</ele>
        <time>2024-01-31T09:10:28.934Z</time>
      </trkpt>
      <trkpt lat="43.54827" lon="6.98463">
        <ele>52.538481</ele>
        <time>2024-01-31T09:10:30.939Z</time>
      </trkpt>
      <trkpt lat="43.54825" lon="6.9845">
        <ele>52.578669</ele>
        <time>2024-01-31T09:10:32.938Z</time>
      </trkpt>
      <trkpt lat="43.54822" lon="6.98436">
        <ele>52.619126</ele>
        <time>2024-01-31T09:10:34.956Z</time>
      </trkpt>
      <trkpt lat="43.54819" lon="6.98423">
        <ele>52.652172</ele>
        <time>2024-01-31T09:10:36.918Z</time>
      </trkpt>
      <trkpt lat="43.54816" lon="6.98409">
        <ele>52.579798</ele>
        <time>2024-01-31T09:10:38.936Z</time>
      </trkpt>
      <trkpt lat="43.54813" lon="6.98396">
        <ele>52.507129</ele>
        <time>2024-01-31T09:10:40.938Z</time>
      </trkpt>
      <trkpt lat="43.54811" lon="6.98381">
        <ele>52.431624</ele>
        <time>2024-01-31T09:10:42.943Z</time>
      </trkpt>
      <trkpt lat="43.54809" lon="6.98367">
        <ele>52.355823</ele>
        <time>2024-01-31T09:10:44.942Z</time>
      </trkpt>
      <trkpt lat="43.54806" lon="6.98353">
        <ele>52.285586</ele>
        <time>2024-01-31T09:10:46.939Z</time>
      </trkpt>
      <trkpt lat="43.54804" lon="6.98339">
        <ele>52.212839</ele>
        <time>2024-01-31T09:10:48.954Z</time>
      </trkpt>
      <trkpt lat="43.54802" lon="6.98325">
        <ele>52.139997</ele>
        <time>2024-01-31T09:10:50.955Z</time>
      </trkpt>
      <trkpt lat="43.54799" lon="6.98311">
        <ele>52.067464</ele>
        <time>2024-01-31T09:10:52.968Z</time>
      </trkpt>
      <trkpt lat="43.54797" lon="6.98296">
        <ele>51.987493</ele>
        <time>2024-01-31T09:10:54.962Z</time>
      </trkpt>
      <trkpt lat="43.54795" lon="6.98281">
        <ele>51.913505</ele>
        <time>2024-01-31T09:10:56.959Z</time>
      </trkpt>
      <trkpt lat="43.54794" lon="6.98267">
        <ele>51.838897</ele>
        <time>2024-01-31T09:10:58.976Z</time>
      </trkpt>
      <trkpt lat="43.54792" lon="6.98253">
        <ele>51.768242</ele>
        <time>2024-01-31T09:11:00.942Z</time>
      </trkpt>
      <trkpt lat="43.5479" lon="6.98238">
        <ele>51.691883</ele>
        <time>2024-01-31T09:11:02.938Z</time>
      </trkpt>
      <trkpt lat="43.54788" lon="6.98223">
        <ele>51.61602</ele>
        <time>2024-01-31T09:11:04.942Z</time>
      </trkpt>
      <trkpt lat="43.54787" lon="6.98209">
        <ele>51.544052</ele>
        <time>2024-01-31T09:11:06.939Z</time>
      </trkpt>
      <trkpt lat="43.54784" lon="6.98195">
        <ele>51.469538</ele>
        <time>2024-01-31T09:11:08.957Z</time>
      </trkpt>
      <trkpt lat="43.54782" lon="6.98181">
        <ele>51.402807</ele>
        <time>2024-01-31T09:11:10.967Z</time>
      </trkpt>
      <trkpt lat="43.54781" lon="6.98166">
        <ele>51.452354</ele>
        <time>2024-01-31T09:11:12.954Z</time>
      </trkpt>
      <trkpt lat="43.54779" lon="6.98151">
        <ele>51.50157</ele>
        <time>2024-01-31T09:11:14.947Z</time>
      </trkpt>
      <trkpt lat="43.54777" lon="6.98136">
        <ele>51.553549</ele>
        <time>2024-01-31T09:11:16.940Z</time>
      </trkpt>
      <trkpt lat="43.54774" lon="6.98121">
        <ele>51.604244</ele>
        <time>2024-01-31T09:11:18.953Z</time>
      </trkpt>
      <trkpt lat="43.54773" lon="6.98106">
        <ele>51.653213</ele>
        <time>2024-01-31T09:11:20.943Z</time>
      </trkpt>
      <trkpt lat="43.5477" lon="6.98092">
        <ele>51.701001</ele>
        <time>2024-01-31T09:11:22.966Z</time>
      </trkpt>
      <trkpt lat="43.54768" lon="6.98078">
        <ele>51.748097</ele>
        <time>2024-01-31T09:11:24.939Z</time>
      </trkpt>
      <trkpt lat="43.54766" lon="6.98065">
        <ele>51.792454</ele>
        <time>2024-01-31T09:11:26.941Z</time>
      </trkpt>
      <trkpt lat="43.54764" lon="6.98053">
        <ele>51.833934</ele>
        <time>2024-01-31T09:11:28.944Z</time>
      </trkpt>
      <trkpt lat="43.54761" lon="6.98037">
        <ele>51.888797</ele>
        <time>2024-01-31T09:11:31.980Z</time>
      </trkpt>
      <trkpt lat="43.54763" lon="6.98023">
        <ele>51.936164</ele>
        <time>2024-01-31T09:11:34.921Z</time>
      </trkpt>
      <trkpt lat="43.54763" lon="6.98008">
        <ele>51.984186</ele>
        <time>2024-01-31T09:11:37.955Z</time>
      </trkpt>
      <trkpt lat="43.54757" lon="6.97994">
        <ele>52.037219</ele>
        <time>2024-01-31T09:11:40.944Z</time>
      </trkpt>
      <trkpt lat="43.5475" lon="6.97985">
        <ele>52.083359</ele>
        <time>2024-01-31T09:11:43.952Z</time>
      </trkpt>
      <trkpt lat="43.54749" lon="6.97972">
        <ele>52.125223</ele>
        <time>2024-01-31T09:11:46.950Z</time>
      </trkpt>
      <trkpt lat="43.54749" lon="6.97957">
        <ele>52.175815</ele>
        <time>2024-01-31T09:11:50.934Z</time>
      </trkpt>
      <trkpt lat="43.54747" lon="6.97944">
        <ele>52.217868</ele>
        <time>2024-01-31T09:11:54.963Z</time>
      </trkpt>
      <trkpt lat="43.54745" lon="6.97932">
        <ele>52.234938</ele>
        <time>2024-01-31T09:11:58.940Z</time>
      </trkpt>
      <trkpt lat="43.54742" lon="6.97917">
        <ele>52.253893</ele>
        <time>2024-01-31T09:12:03.953Z</time>
      </trkpt>
      <trkpt lat="43.54743" lon="6.97903">
        <ele>52.27057</ele>
        <time>2024-01-31T09:12:08.933Z</time>
      </trkpt>
      <trkpt lat="43.54742" lon="6.9789">
        <ele>52.286838</ele>
        <time>2024-01-31T09:12:14.966Z</time>
      </trkpt>
      <trkpt lat="43.54739" lon="6.97876">
        <ele>52.30415</ele>
        <time>2024-01-31T09:12:20.957Z</time>
      </trkpt>
      <trkpt lat="43.54735" lon="6.9786">
        <ele>52.324428</ele>
        <time>2024-01-31T09:12:24.940Z</time>
      </trkpt>
      <trkpt lat="43.54732" lon="6.97845">
        <ele>52.342912</ele>
        <time>2024-01-31T09:12:27.951Z</time>
      </trkpt>
      <trkpt lat="43.54731" lon="6.97831">
        <ele>52.360709</ele>
        <time>2024-01-31T09:12:30.944Z</time>
      </trkpt>
      <trkpt lat="43.54728" lon="6.97816">
        <ele>52.378671</ele>
        <time>2024-01-31T09:12:33.922Z</time>
      </trkpt>
      <trkpt lat="43.54725" lon="6.97802">
        <ele>52.39759</ele>
        <time>2024-01-31T09:12:36.935Z</time>
      </trkpt>
      <trkpt lat="43.54721" lon="6.97787">
        <ele>52.416446</ele>
        <time>2024-01-31T09:12:39.949Z</time>
      </trkpt>
      <trkpt lat="43.54717" lon="6.97773">
        <ele>52.434559</ele>
        <time>2024-01-31T09:12:42.940Z</time>
      </trkpt>
      <trkpt lat="43.54716" lon="6.97759">
        <ele>52.451197</ele>
        <time>2024-01-31T09:12:45.922Z</time>
      </trkpt>
      <trkpt lat="43.54713" lon="6.97743">
        <ele>52.471105</ele>
        <time>2024-01-31T09:12:48.937Z</time>
      </trkpt>
      <trkpt lat="43.5471" lon="6.9773">
        <ele>52.487975</ele>
        <time>2024-01-31T09:12:51.938Z</time>
      </trkpt>
      <trkpt lat="43.54708" lon="6.97717">
        <ele>52.504149</ele>
        <time>2024-01-31T09:12:54.961Z</time>
      </trkpt>
      <trkpt lat="43.54705" lon="6.97704">
        <ele>52.520574</ele>
        <time>2024-01-31T09:13:01.938Z</time>
      </trkpt>
      <trkpt lat="43.54708" lon="6.9769">
        <ele>52.516734</ele>
        <time>2024-01-31T09:13:42.936Z</time>
      </trkpt>
      <trkpt lat="43.54706" lon="6.97677">
        <ele>52.512216</ele>
        <time>2024-01-31T09:13:45.948Z</time>
      </trkpt>
      <trkpt lat="43.54703" lon="6.97662">
        <ele>52.507155</ele>
        <time>2024-01-31T09:13:48.940Z</time>
      </trkpt>
      <trkpt lat="43.547" lon="6.9765">
        <ele>52.503007</ele>
        <time>2024-01-31T09:13:50.936Z</time>
      </trkpt>
      <trkpt lat="43.54697" lon="6.97632">
        <ele>52.497022</ele>
        <time>2024-01-31T09:13:53.938Z</time>
      </trkpt>
      <trkpt lat="43.54694" lon="6.9762">
        <ele>52.492951</ele>
        <time>2024-01-31T09:13:55.946Z</time>
      </trkpt>
      <trkpt lat="43.5469" lon="6.97609">
        <ele>52.488733</ele>
        <time>2024-01-31T09:13:57.969Z</time>
      </trkpt>
      <trkpt lat="43.54686" lon="6.97592">
        <ele>52.482929</ele>
        <time>2024-01-31T09:14:00.940Z</time>
      </trkpt>
      <trkpt lat="43.54684" lon="6.9758">
        <ele>52.478744</ele>
        <time>2024-01-31T09:14:02.959Z</time>
      </trkpt>
      <trkpt lat="43.54681" lon="6.97567">
        <ele>52.474515</ele>
        <time>2024-01-31T09:14:04.958Z</time>
      </trkpt>
      <trkpt lat="43.54677" lon="6.97549">
        <ele>52.468186</ele>
        <time>2024-01-31T09:14:07.934Z</time>
      </trkpt>
      <trkpt lat="43.54674" lon="6.97537">
        <ele>52.464005</ele>
        <time>2024-01-31T09:14:09.949Z</time>
      </trkpt>
      <trkpt lat="43.54671" lon="6.97524">
        <ele>52.459789</ele>
        <time>2024-01-31T09:14:11.946Z</time>
      </trkpt>
      <trkpt lat="43.54668" lon="6.97512">
        <ele>52.455625</ele>
        <time>2024-01-31T09:14:13.943Z</time>
      </trkpt>
      <trkpt lat="43.54665" lon="6.975">
        <ele>52.451182</ele>
        <time>2024-01-31T09:14:15.936Z</time>
      </trkpt>
      <trkpt lat="43.54661" lon="6.97488">
        <ele>52.446879</ele>
        <time>2024-01-31T09:14:17.944Z</time>
      </trkpt>
      <trkpt lat="43.54658" lon="6.97475">
        <ele>52.442484</ele>
        <time>2024-01-31T09:14:19.951Z</time>
      </trkpt>
      <trkpt lat="43.54655" lon="6.97463">
        <ele>52.448569</ele>
        <time>2024-01-31T09:14:21.948Z</time>
      </trkpt>
      <trkpt lat="43.54651" lon="6.9745">
        <ele>52.470647</ele>
        <time>2024-01-31T09:14:23.941Z</time>
      </trkpt>
      <trkpt lat="43.54648" lon="6.97437">
        <ele>52.49348</ele>
        <time>2024-01-31T09:14:25.937Z</time>
      </trkpt>
      <trkpt lat="43.54644" lon="6.97424">
        <ele>52.516158</ele>
        <time>2024-01-31T09:14:27.938Z</time>
      </trkpt>
      <trkpt lat="43.54641" lon="6.97412">
        <ele>52.537678</ele>
        <time>2024-01-31T09:14:29.951Z</time>
      </trkpt>
      <trkpt lat="43.54637" lon="6.97399">
        <ele>52.560047</ele>
        <time>2024-01-31T09:14:31.944Z</time>
      </trkpt>
      <trkpt lat="43.54634" lon="6.97386">
        <ele>52.582352</ele>
        <time>2024-01-31T09:14:33.948Z</time>
      </trkpt>
      <trkpt lat="43.54631" lon="6.97374">
        <ele>52.603735</ele>
        <time>2024-01-31T09:14:35.947Z</time>
      </trkpt>
      <trkpt lat="43.54628" lon="6.97361">
        <ele>52.626651</ele>
        <time>2024-01-31T09:14:37.954Z</time>
      </trkpt>
      <trkpt lat="43.54624" lon="6.97348">
        <ele>52.650256</ele>
        <time>2024-01-31T09:14:39.951Z</time>
      </trkpt>
      <trkpt lat="43.54621" lon="6.97335">
        <ele>52.672314</ele>
        <time>2024-01-31T09:14:41.940Z</time>
      </trkpt>
      <trkpt lat="43.54617" lon="6.97322">
        <ele>52.694837</ele>
        <time>2024-01-31T09:14:43.943Z</time>
      </trkpt>
      <trkpt lat="43.54613" lon="6.9731">
        <ele>52.717372</ele>
        <time>2024-01-31T09:14:45.945Z</time>
      </trkpt>
      <trkpt lat="43.5461" lon="6.97297">
        <ele>52.739739</ele>
        <time>2024-01-31T09:14:47.952Z</time>
      </trkpt>
      <trkpt lat="43.54606" lon="6.97284">
        <ele>52.762734</ele>
        <time>2024-01-31T09:14:49.952Z</time>
      </trkpt>
      <trkpt lat="43.54602" lon="6.97272">
        <ele>52.784879</ele>
        <time>2024-01-31T09:14:51.955Z</time>
      </trkpt>
      <trkpt lat="43.54599" lon="6.97259">
        <ele>52.807945</ele>
        <time>2024-01-31T09:14:53.941Z</time>
      </trkpt>
      <trkpt lat="43.54595" lon="6.97247">
        <ele>52.829005</ele>
        <time>2024-01-31T09:14:55.953Z</time>
      </trkpt>
      <trkpt lat="43.54593" lon="6.97234">
        <ele>52.847043</ele>
        <time>2024-01-31T09:14:57.939Z</time>
      </trkpt>
      <trkpt lat="43.5459" lon="6.97223">
        <ele>52.831078</ele>
        <time>2024-01-31T09:14:59.935Z</time>
      </trkpt>
      <trkpt lat="43.54586" lon="6.97211">
        <ele>52.815051</ele>
        <time>2024-01-31T09:15:01.963Z</time>
      </trkpt>
      <trkpt lat="43.54583" lon="6.97199">
        <ele>52.798777</ele>
        <time>2024-01-31T09:15:03.952Z</time>
      </trkpt>
      <trkpt lat="43.54578" lon="6.97181">
        <ele>52.774436</ele>
        <time>2024-01-31T09:15:06.959Z</time>
      </trkpt>
      <trkpt lat="43.54575" lon="6.97169">
        <ele>52.757262</ele>
        <time>2024-01-31T09:15:08.943Z</time>
      </trkpt>
      <trkpt lat="43.54571" lon="6.97157">
        <ele>52.740854</ele>
        <time>2024-01-31T09:15:10.955Z</time>
      </trkpt>
      <trkpt lat="43.54568" lon="6.97145">
        <ele>52.724587</ele>
        <time>2024-01-31T09:15:12.938Z</time>
      </trkpt>
      <trkpt lat="43.54565" lon="6.97133">
        <ele>52.708381</ele>
        <time>2024-01-31T09:15:14.953Z</time>
      </trkpt>
      <trkpt lat="43.54562" lon="6.97121">
        <ele>52.691512</ele>
        <time>2024-01-31T09:15:16.961Z</time>
      </trkpt>
      <trkpt lat="43.54559" lon="6.97108">
        <ele>52.674337</ele>
        <time>2024-01-31T09:15:18.934Z</time>
      </trkpt>
      <trkpt lat="43.54555" lon="6.97096">
        <ele>52.657585</ele>
        <time>2024-01-31T09:15:20.935Z</time>
      </trkpt>
      <trkpt lat="43.54552" lon="6.97083">
        <ele>52.63963</ele>
        <time>2024-01-31T09:15:22.959Z</time>
      </trkpt>
      <trkpt lat="43.54548" lon="6.9707">
        <ele>52.622819</ele>
        <time>2024-01-31T09:15:24.934Z</time>
      </trkpt>
      <trkpt lat="43.54545" lon="6.97058">
        <ele>52.605461</ele>
        <time>2024-01-31T09:15:26.940Z</time>
      </trkpt>
      <trkpt lat="43.54541" lon="6.97045">
        <ele>52.587643</ele>
        <time>2024-01-31T09:15:28.943Z</time>
      </trkpt>
      <trkpt lat="43.54537" lon="6.97032">
        <ele>52.569797</ele>
        <time>2024-01-31T09:15:30.946Z</time>
      </trkpt>
      <trkpt lat="43.54533" lon="6.97019">
        <ele>52.552024</ele>
        <time>2024-01-31T09:15:32.938Z</time>
      </trkpt>
      <trkpt lat="43.54529" lon="6.97005">
        <ele>52.532418</ele>
        <time>2024-01-31T09:15:34.932Z</time>
      </trkpt>
      <trkpt lat="43.54525" lon="6.96992">
        <ele>52.489269</ele>
        <time>2024-01-31T09:15:36.926Z</time>
      </trkpt>
      <trkpt lat="43.5452" lon="6.96978">
        <ele>52.437913</ele>
        <time>2024-01-31T09:15:38.946Z</time>
      </trkpt>
      <trkpt lat="43.54515" lon="6.96965">
        <ele>52.389722</ele>
        <time>2024-01-31T09:15:40.937Z</time>
      </trkpt>
      <trkpt lat="43.5451" lon="6.96953">
        <ele>52.343387</ele>
        <time>2024-01-31T09:15:42.953Z</time>
      </trkpt>
      <trkpt lat="43.54505" lon="6.96939">
        <ele>52.294094</ele>
        <time>2024-01-31T09:15:44.936Z</time>
      </trkpt>
      <trkpt lat="43.545" lon="6.96926">
        <ele>52.245793</ele>
        <time>2024-01-31T09:15:46.925Z</time>
      </trkpt>
      <trkpt lat="43.54496" lon="6.96914">
        <ele>52.199985</ele>
        <time>2024-01-31T09:15:48.942Z</time>
      </trkpt>
      <trkpt lat="43.54491" lon="6.96901">
        <ele>52.152443</ele>
        <time>2024-01-31T09:15:50.946Z</time>
      </trkpt>
      <trkpt lat="43.54486" lon="6.96889">
        <ele>52.106472</ele>
        <time>2024-01-31T09:15:52.954Z</time>
      </trkpt>
      <trkpt lat="43.54481" lon="6.96877">
        <ele>52.061326</ele>
        <time>2024-01-31T09:15:54.938Z</time>
      </trkpt>
      <trkpt lat="43.54476" lon="6.96865">
        <ele>52.015639</ele>
        <time>2024-01-31T09:15:56.949Z</time>
      </trkpt>
      <trkpt lat="43.54471" lon="6.96852">
        <ele>51.968019</ele>
        <time>2024-01-31T09:15:58.959Z</time>
      </trkpt>
      <trkpt lat="43.54466" lon="6.96839">
        <ele>51.921187</ele>
        <time>2024-01-31T09:16:00.959Z</time>
      </trkpt>
      <trkpt lat="43.54461" lon="6.96827">
        <ele>51.873354</ele>
        <time>2024-01-31T09:16:02.938Z</time>
      </trkpt>
      <trkpt lat="43.54457" lon="6.96815">
        <ele>51.829133</ele>
        <time>2024-01-31T09:16:04.948Z</time>
      </trkpt>
      <trkpt lat="43.54452" lon="6.96802">
        <ele>51.780425</ele>
        <time>2024-01-31T09:16:06.950Z</time>
      </trkpt>
      <trkpt lat="43.54447" lon="6.9679">
        <ele>51.737351</ele>
        <time>2024-01-31T09:16:08.933Z</time>
      </trkpt>
      <trkpt lat="43.54442" lon="6.96777">
        <ele>51.723365</ele>
        <time>2024-01-31T09:16:11.938Z</time>
      </trkpt>
      <trkpt lat="43.54439" lon="6.96763">
        <ele>51.737859</ele>
        <time>2024-01-31T09:16:14.953Z</time>
      </trkpt>
      <trkpt lat="43.54437" lon="6.96749">
        <ele>51.751071</ele>
        <time>2024-01-31T09:16:17.927Z</time>
      </trkpt>
      <trkpt lat="43.54427" lon="6.96736">
        <ele>51.769567</ele>
        <time>2024-01-31T09:16:34.936Z</time>
      </trkpt>
      <trkpt lat="43.54422" lon="6.96724">
        <ele>51.783218</ele>
        <time>2024-01-31T09:16:37.941Z</time>
      </trkpt>
      <trkpt lat="43.54416" lon="6.96713">
        <ele>51.796089</ele>
        <time>2024-01-31T09:16:40.938Z</time>
      </trkpt>
      <trkpt lat="43.5441" lon="6.96703">
        <ele>51.808732</ele>
        <time>2024-01-31T09:16:45.938Z</time>
      </trkpt>
      <trkpt lat="43.544" lon="6.96698">
        <ele>51.822525</ele>
        <time>2024-01-31T09:16:50.945Z</time>
      </trkpt>
      <trkpt lat="43.54396" lon="6.96684">
        <ele>51.836518</ele>
        <time>2024-01-31T09:16:54.939Z</time>
      </trkpt>
      <trkpt lat="43.54393" lon="6.9667">
        <ele>51.850727</ele>
        <time>2024-01-31T09:16:58.940Z</time>
      </trkpt>
      <trkpt lat="43.54389" lon="6.96657">
        <ele>51.864171</ele>
        <time>2024-01-31T09:17:02.963Z</time>
      </trkpt>
      <trkpt lat="43.54387" lon="6.96643">
        <ele>51.878496</ele>
        <time>2024-01-31T09:17:06.936Z</time>
      </trkpt>
      <trkpt lat="43.54382" lon="6.9663">
        <ele>51.892693</ele>
        <time>2024-01-31T09:17:10.946Z</time>
      </trkpt>
      <trkpt lat="43.54378" lon="6.96617">
        <ele>51.905853</ele>
        <time>2024-01-31T09:17:13.945Z</time>
      </trkpt>
      <trkpt lat="43.54373" lon="6.96604">
        <ele>51.919642</ele>
        <time>2024-01-31T09:17:16.944Z</time>
      </trkpt>
      <trkpt lat="43.54368" lon="6.96591">
        <ele>51.934442</ele>
        <time>2024-01-31T09:17:19.957Z</time>
      </trkpt>
      <trkpt lat="43.54363" lon="6.96577">
        <ele>51.949739</ele>
        <time>2024-01-31T09:17:22.936Z</time>
      </trkpt>
      <trkpt lat="43.54357" lon="6.96562">
        <ele>51.968521</ele>
        <time>2024-01-31T09:17:25.952Z</time>
      </trkpt>
      <trkpt lat="43.54352" lon="6.96548">
        <ele>51.987865</ele>
        <time>2024-01-31T09:17:28.938Z</time>
      </trkpt>
      <trkpt lat="43.54348" lon="6.96533">
        <ele>52.007519</ele>
        <time>2024-01-31T09:17:31.955Z</time>
      </trkpt>
      <trkpt lat="43.54344" lon="6.96518">
        <ele>52.026098</ele>
        <time>2024-01-31T09:17:34.959Z</time>
      </trkpt>
      <trkpt lat="43.54339" lon="6.96505">
        <ele>52.044298</ele>
        <time>2024-01-31T09:17:37.973Z</time>
      </trkpt>
      <trkpt lat="43.54333" lon="6.96492">
        <ele>52.063137</ele>
        <time>2024-01-31T09:17:40.926Z</time>
      </trkpt>
      <trkpt lat="43.54327" lon="6.96479">
        <ele>52.082219</ele>
        <time>2024-01-31T09:17:43.939Z</time>
      </trkpt>
      <trkpt lat="43.5432" lon="6.96463">
        <ele>52.104171</ele>
        <time>2024-01-31T09:17:46.952Z</time>
      </trkpt>
      <trkpt lat="43.54315" lon="6.96447">
        <ele>52.125625</ele>
        <time>2024-01-31T09:17:49.954Z</time>
      </trkpt>
      <trkpt lat="43.54309" lon="6.96431">
        <ele>52.146834</ele>
        <time>2024-01-31T09:17:52.947Z</time>
      </trkpt>
      <trkpt lat="43.54302" lon="6.96417">
        <ele>52.167817</ele>
        <time>2024-01-31T09:17:55.955Z</time>
      </trkpt>
      <trkpt lat="43.54295" lon="6.96402">
        <ele>52.190182</ele>
        <time>2024-01-31T09:17:58.936Z</time>
      </trkpt>
      <trkpt lat="43.54286" lon="6.96388">
        <ele>52.211978</ele>
        <time>2024-01-31T09:18:01.937Z</time>
      </trkpt>
      <trkpt lat="43.54279" lon="6.96372">
        <ele>52.233784</ele>
        <time>2024-01-31T09:18:04.953Z</time>
      </trkpt>
      <trkpt lat="43.54273" lon="6.96357">
        <ele>52.254774</ele>
        <time>2024-01-31T09:18:07.947Z</time>
      </trkpt>
      <trkpt lat="43.54269" lon="6.96346">
        <ele>52.215527</ele>
        <time>2024-01-31T09:18:09.956Z</time>
      </trkpt>
      <trkpt lat="43.54263" lon="6.96331">
        <ele>52.162177</ele>
        <time>2024-01-31T09:18:12.993Z</time>
      </trkpt>
      <trkpt lat="43.54256" lon="6.96316">
        <ele>52.106042</ele>
        <time>2024-01-31T09:18:15.932Z</time>
      </trkpt>
      <trkpt lat="43.54248" lon="6.96302">
        <ele>52.051671</ele>
        <time>2024-01-31T09:18:18.970Z</time>
      </trkpt>
      <trkpt lat="43.5424" lon="6.96288">
        <ele>51.995527</ele>
        <time>2024-01-31T09:18:21.961Z</time>
      </trkpt>
      <trkpt lat="43.54232" lon="6.96273">
        <ele>51.939198</ele>
        <time>2024-01-31T09:18:24.941Z</time>
      </trkpt>
      <trkpt lat="43.54226" lon="6.96257">
        <ele>51.883455</ele>
        <time>2024-01-31T09:18:27.919Z</time>
      </trkpt>
      <trkpt lat="43.54221" lon="6.96241">
        <ele>51.827894</ele>
        <time>2024-01-31T09:18:30.939Z</time>
      </trkpt>
      <trkpt lat="43.54214" lon="6.96226">
        <ele>51.773926</ele>
        <time>2024-01-31T09:18:33.953Z</time>
      </trkpt>
      <trkpt lat="43.54206" lon="6.96212">
        <ele>51.719797</ele>
        <time>2024-01-31T09:18:36.934Z</time>
      </trkpt>
      <trkpt lat="43.54198" lon="6.96199">
        <ele>51.665607</ele>
        <time>2024-01-31T09:18:39.933Z</time>
      </trkpt>
      <trkpt lat="43.5419" lon="6.96186">
        <ele>51.610303</ele>
        <time>2024-01-31T09:18:42.956Z</time>
      </trkpt>
      <trkpt lat="43.54181" lon="6.96173">
        <ele>51.557015</ele>
        <time>2024-01-31T09:18:45.941Z</time>
      </trkpt>
      <trkpt lat="43.54176" lon="6.96162">
        <ele>51.514765</ele>
        <time>2024-01-31T09:18:48.934Z</time>
      </trkpt>
      <trkpt lat="43.54168" lon="6.9615">
        <ele>51.512122</ele>
        <time>2024-01-31T09:18:52.949Z</time>
      </trkpt>
      <trkpt lat="43.54159" lon="6.96142">
        <ele>51.579859</ele>
        <time>2024-01-31T09:18:56.931Z</time>
      </trkpt>
      <trkpt lat="43.54169" lon="6.96136">
        <ele>51.64556</ele>
        <time>2024-01-31T09:19:02.931Z</time>
      </trkpt>
      <trkpt lat="43.54177" lon="6.9613">
        <ele>51.704653</ele>
        <time>2024-01-31T09:19:05.950Z</time>
      </trkpt>
      <trkpt lat="43.54182" lon="6.96116">
        <ele>51.777033</ele>
        <time>2024-01-31T09:19:08.934Z</time>
      </trkpt>
      <trkpt lat="43.54177" lon="6.96102">
        <ele>51.851175</ele>
        <time>2024-01-31T09:19:11.933Z</time>
      </trkpt>
      <trkpt lat="43.54165" lon="6.96096">
        <ele>51.931058</ele>
        <time>2024-01-31T09:19:14.954Z</time>
      </trkpt>
      <trkpt lat="43.54153" lon="6.96088">
        <ele>52.015391</ele>
        <time>2024-01-31T09:19:17.986Z</time>
      </trkpt>
      <trkpt lat="43.54146" lon="6.96073">
        <ele>52.101021</ele>
        <time>2024-01-31T09:19:20.924Z</time>
      </trkpt>
      <trkpt lat="43.54138" lon="6.96059">
        <ele>52.187108</ele>
        <time>2024-01-31T09:19:23.953Z</time>
      </trkpt>
      <trkpt lat="43.54129" lon="6.96044">
        <ele>52.273104</ele>
        <time>2024-01-31T09:19:26.948Z</time>
      </trkpt>
      <trkpt lat="43.54121" lon="6.96032">
        <ele>52.354156</ele>
        <time>2024-01-31T09:19:29.954Z</time>
      </trkpt>
      <trkpt lat="43.54112" lon="6.96018">
        <ele>52.440255</ele>
        <time>2024-01-31T09:19:32.936Z</time>
      </trkpt>
      <trkpt lat="43.54104" lon="6.96005">
        <ele>52.522109</ele>
        <time>2024-01-31T09:19:35.953Z</time>
      </trkpt>
      <trkpt lat="43.54098" lon="6.95995">
        <ele>52.582466</ele>
        <time>2024-01-31T09:19:37.937Z</time>
      </trkpt>
      <trkpt lat="43.54092" lon="6.95985">
        <ele>52.643724</ele>
        <time>2024-01-31T09:19:39.954Z</time>
      </trkpt>
      <trkpt lat="43.54086" lon="6.95975">
        <ele>52.617188</ele>
        <time>2024-01-31T09:19:41.941Z</time>
      </trkpt>
      <trkpt lat="43.5408" lon="6.95965">
        <ele>52.581014</ele>
        <time>2024-01-31T09:19:43.943Z</time>
      </trkpt>
      <trkpt lat="43.54074" lon="6.95955">
        <ele>52.544767</ele>
        <time>2024-01-31T09:19:45.950Z</time>
      </trkpt>
      <trkpt lat="43.54068" lon="6.95945">
        <ele>52.508163</ele>
        <time>2024-01-31T09:19:47.942Z</time>
      </trkpt>
      <trkpt lat="43.54062" lon="6.95935">
        <ele>52.471799</ele>
        <time>2024-01-31T09:19:49.928Z</time>
      </trkpt>
      <trkpt lat="43.54056" lon="6.95925">
        <ele>52.434705</ele>
        <time>2024-01-31T09:19:51.935Z</time>
      </trkpt>
      <trkpt lat="43.54049" lon="6.95914">
        <ele>52.395211</ele>
        <time>2024-01-31T09:19:53.940Z</time>
      </trkpt>
      <trkpt lat="43.54043" lon="6.95903">
        <ele>52.35482</ele>
        <time>2024-01-31T09:19:55.938Z</time>
      </trkpt>
      <trkpt lat="43.54036" lon="6.95892">
        <ele>52.315212</ele>
        <time>2024-01-31T09:19:57.943Z</time>
      </trkpt>
      <trkpt lat="43.54029" lon="6.95882">
        <ele>52.276273</ele>
        <time>2024-01-31T09:19:59.942Z</time>
      </trkpt>
      <trkpt lat="43.54023" lon="6.95872">
        <ele>52.239884</ele>
        <time>2024-01-31T09:20:01.936Z</time>
      </trkpt>
      <trkpt lat="43.54016" lon="6.95862">
        <ele>52.202481</ele>
        <time>2024-01-31T09:20:03.941Z</time>
      </trkpt>
      <trkpt lat="43.5401" lon="6.95851">
        <ele>52.165004</ele>
        <time>2024-01-31T09:20:05.937Z</time>
      </trkpt>
      <trkpt lat="43.54004" lon="6.95841">
        <ele>52.126486</ele>
        <time>2024-01-31T09:20:07.952Z</time>
      </trkpt>
      <trkpt lat="43.53997" lon="6.95831">
        <ele>52.08864</ele>
        <time>2024-01-31T09:20:09.948Z</time>
      </trkpt>
      <trkpt lat="43.5399" lon="6.95819">
        <ele>52.047219</ele>
        <time>2024-01-31T09:20:11.940Z</time>
      </trkpt>
      <trkpt lat="43.53983" lon="6.95808">
        <ele>52.006682</ele>
        <time>2024-01-31T09:20:13.966Z</time>
      </trkpt>
      <trkpt lat="43.53977" lon="6.95798">
        <ele>51.969159</ele>
        <time>2024-01-31T09:20:15.936Z</time>
      </trkpt>
      <trkpt lat="43.53971" lon="6.95787">
        <ele>51.928484</ele>
        <time>2024-01-31T09:20:17.940Z</time>
      </trkpt>
      <trkpt lat="43.53964" lon="6.95776">
        <ele>51.885977</ele>
        <time>2024-01-31T09:20:19.940Z</time>
      </trkpt>
      <trkpt lat="43.53958" lon="6.95766">
        <ele>51.845936</ele>
        <time>2024-01-31T09:20:21.950Z</time>
      </trkpt>
      <trkpt lat="43.53952" lon="6.95756">
        <ele>51.806508</ele>
        <time>2024-01-31T09:20:23.959Z</time>
      </trkpt>
      <trkpt lat="43.53945" lon="6.95746">
        <ele>51.765677</ele>
        <time>2024-01-31T09:20:25.953Z</time>
      </trkpt>
      <trkpt lat="43.53939" lon="6.95735">
        <ele>51.724307</ele>
        <time>2024-01-31T09:20:27.938Z</time>
      </trkpt>
      <trkpt lat="43.53932" lon="6.95725">
        <ele>51.682937</ele>
        <time>2024-01-31T09:20:29.946Z</time>
      </trkpt>
      <trkpt lat="43.53926" lon="6.95715">
        <ele>51.642333</ele>
        <time>2024-01-31T09:20:31.949Z</time>
      </trkpt>
      <trkpt lat="43.53919" lon="6.95704">
        <ele>51.601412</ele>
        <time>2024-01-31T09:20:33.939Z</time>
      </trkpt>
      <trkpt lat="43.53913" lon="6.95694">
        <ele>51.56163</ele>
        <time>2024-01-31T09:20:35.933Z</time>
      </trkpt>
      <trkpt lat="43.53906" lon="6.95685">
        <ele>51.522462</ele>
        <time>2024-01-31T09:20:37.947Z</time>
      </trkpt>
      <trkpt lat="43.539" lon="6.95675">
        <ele>51.483425</ele>
        <time>2024-01-31T09:20:39.966Z</time>
      </trkpt>
      <trkpt lat="43.53894" lon="6.95666">
        <ele>51.445828</ele>
        <time>2024-01-31T09:20:41.938Z</time>
      </trkpt>
      <trkpt lat="43.53888" lon="6.95656">
        <ele>51.407962</ele>
        <time>2024-01-31T09:20:43.954Z</time>
      </trkpt>
      <trkpt lat="43.53882" lon="6.95647">
        <ele>51.370202</ele>
        <time>2024-01-31T09:20:45.943Z</time>
      </trkpt>
      <trkpt lat="43.53875" lon="6.95634">
        <ele>51.322672</ele>
        <time>2024-01-31T09:20:48.954Z</time>
      </trkpt>
      <trkpt lat="43.53873" lon="6.95628">
        <ele>51.3028</ele>
        <time>2024-01-31T09:21:27.189Z</time>
      </trkpt>
      <trkpt lat="43.53865" lon="6.9562">
        <ele>51.262637</ele>
        <time>2024-01-31T09:23:46.934Z</time>
      </trkpt>
      <trkpt lat="43.53858" lon="6.95609">
        <ele>51.21728</ele>
        <time>2024-01-31T09:23:50.934Z</time>
      </trkpt>
      <trkpt lat="43.53852" lon="6.95599">
        <ele>51.267752</ele>
        <time>2024-01-31T09:23:53.943Z</time>
      </trkpt>
      <trkpt lat="43.53844" lon="6.95588">
        <ele>51.336499</ele>
        <time>2024-01-31T09:23:56.942Z</time>
      </trkpt>
      <trkpt lat="43.53838" lon="6.95579">
        <ele>51.391191</ele>
        <time>2024-01-31T09:23:58.941Z</time>
      </trkpt>
      <trkpt lat="43.53832" lon="6.95569">
        <ele>51.446662</ele>
        <time>2024-01-31T09:24:00.951Z</time>
      </trkpt>
      <trkpt lat="43.53825" lon="6.9556">
        <ele>51.502626</ele>
        <time>2024-01-31T09:24:02.935Z</time>
      </trkpt>
      <trkpt lat="43.53819" lon="6.95551">
        <ele>51.558591</ele>
        <time>2024-01-31T09:24:04.936Z</time>
      </trkpt>
      <trkpt lat="43.53813" lon="6.95541">
        <ele>51.615781</ele>
        <time>2024-01-31T09:24:06.958Z</time>
      </trkpt>
      <trkpt lat="43.53806" lon="6.95532">
        <ele>51.671527</ele>
        <time>2024-01-31T09:24:08.950Z</time>
      </trkpt>
      <trkpt lat="43.53797" lon="6.95519">
        <ele>51.752038</ele>
        <time>2024-01-31T09:24:11.971Z</time>
      </trkpt>
      <trkpt lat="43.53788" lon="6.95505">
        <ele>51.833081</ele>
        <time>2024-01-31T09:24:14.935Z</time>
      </trkpt>
      <trkpt lat="43.53778" lon="6.95493">
        <ele>51.914779</ele>
        <time>2024-01-31T09:24:17.957Z</time>
      </trkpt>
      <trkpt lat="43.53771" lon="6.95483">
        <ele>51.973182</ele>
        <time>2024-01-31T09:24:19.940Z</time>
      </trkpt>
      <trkpt lat="43.53765" lon="6.95474">
        <ele>52.028729</ele>
        <time>2024-01-31T09:24:21.951Z</time>
      </trkpt>
      <trkpt lat="43.53755" lon="6.95462">
        <ele>52.108544</ele>
        <time>2024-01-31T09:24:24.938Z</time>
      </trkpt>
      <trkpt lat="43.53748" lon="6.95454">
        <ele>52.163457</ele>
        <time>2024-01-31T09:24:26.938Z</time>
      </trkpt>
      <trkpt lat="43.53739" lon="6.95442">
        <ele>52.242039</ele>
        <time>2024-01-31T09:24:29.940Z</time>
      </trkpt>
      <trkpt lat="43.53732" lon="6.95433">
        <ele>52.29682</ele>
        <time>2024-01-31T09:24:31.937Z</time>
      </trkpt>
      <trkpt lat="43.53725" lon="6.95425">
        <ele>52.335658</ele>
        <time>2024-01-31T09:24:33.950Z</time>
      </trkpt>
      <trkpt lat="43.53715" lon="6.95413">
        <ele>52.386131</ele>
        <time>2024-01-31T09:24:36.948Z</time>
      </trkpt>
      <trkpt lat="43.53705" lon="6.95401">
        <ele>52.436809</ele>
        <time>2024-01-31T09:24:39.992Z</time>
      </trkpt>
      <trkpt lat="43.53698" lon="6.95393">
        <ele>52.472231</ele>
        <time>2024-01-31T09:24:41.945Z</time>
      </trkpt>
      <trkpt lat="43.53688" lon="6.95382">
        <ele>52.522827</ele>
        <time>2024-01-31T09:24:44.962Z</time>
      </trkpt>
      <trkpt lat="43.53681" lon="6.95374">
        <ele>52.558013</ele>
        <time>2024-01-31T09:24:46.933Z</time>
      </trkpt>
      <trkpt lat="43.53673" lon="6.95367">
        <ele>52.592553</ele>
        <time>2024-01-31T09:24:48.937Z</time>
      </trkpt>
      <trkpt lat="43.53665" lon="6.95359">
        <ele>52.629457</ele>
        <time>2024-01-31T09:24:50.955Z</time>
      </trkpt>
      <trkpt lat="43.53657" lon="6.95351">
        <ele>52.666255</ele>
        <time>2024-01-31T09:24:52.946Z</time>
      </trkpt>
      <trkpt lat="43.5365" lon="6.95343">
        <ele>52.703696</ele>
        <time>2024-01-31T09:24:54.950Z</time>
      </trkpt>
      <trkpt lat="43.53642" lon="6.95334">
        <ele>52.742555</ele>
        <time>2024-01-31T09:24:56.966Z</time>
      </trkpt>
      <trkpt lat="43.53634" lon="6.95326">
        <ele>52.782361</ele>
        <time>2024-01-31T09:24:58.961Z</time>
      </trkpt>
      <trkpt lat="43.53625" lon="6.95316">
        <ele>52.823568</ele>
        <time>2024-01-31T09:25:00.948Z</time>
      </trkpt>
      <trkpt lat="43.53618" lon="6.95306">
        <ele>52.863991</ele>
        <time>2024-01-31T09:25:02.953Z</time>
      </trkpt>
      <trkpt lat="43.5361" lon="6.95297">
        <ele>52.90263</ele>
        <time>2024-01-31T09:25:04.950Z</time>
      </trkpt>
      <trkpt lat="43.53602" lon="6.95288">
        <ele>52.942603</ele>
        <time>2024-01-31T09:25:06.934Z</time>
      </trkpt>
      <trkpt lat="43.53594" lon="6.95279">
        <ele>52.981766</ele>
        <time>2024-01-31T09:25:08.944Z</time>
      </trkpt>
      <trkpt lat="43.53587" lon="6.95271">
        <ele>52.97996</ele>
        <time>2024-01-31T09:25:10.955Z</time>
      </trkpt>
      <trkpt lat="43.5358" lon="6.95262">
        <ele>52.955405</ele>
        <time>2024-01-31T09:25:12.944Z</time>
      </trkpt>
      <trkpt lat="43.53573" lon="6.95254">
        <ele>52.929177</ele>
        <time>2024-01-31T09:25:14.948Z</time>
      </trkpt>
      <trkpt lat="43.53565" lon="6.95245">
        <ele>52.901206</ele>
        <time>2024-01-31T09:25:16.945Z</time>
      </trkpt>
      <trkpt lat="43.53558" lon="6.95235">
        <ele>52.873999</ele>
        <time>2024-01-31T09:25:18.947Z</time>
      </trkpt>
      <trkpt lat="43.5355" lon="6.95225">
        <ele>52.845869</ele>
        <time>2024-01-31T09:25:20.935Z</time>
      </trkpt>
      <trkpt lat="43.53542" lon="6.95215">
        <ele>52.816474</ele>
        <time>2024-01-31T09:25:22.941Z</time>
      </trkpt>
      <trkpt lat="43.53533" lon="6.95206">
        <ele>52.78738</ele>
        <time>2024-01-31T09:25:24.941Z</time>
      </trkpt>
      <trkpt lat="43.53525" lon="6.95196">
        <ele>52.758241</ele>
        <time>2024-01-31T09:25:26.957Z</time>
      </trkpt>
      <trkpt lat="43.53517" lon="6.95187">
        <ele>52.72948</ele>
        <time>2024-01-31T09:25:28.953Z</time>
      </trkpt>
      <trkpt lat="43.53509" lon="6.95177">
        <ele>52.701079</ele>
        <time>2024-01-31T09:25:30.963Z</time>
      </trkpt>
      <trkpt lat="43.53501" lon="6.95167">
        <ele>52.671734</ele>
        <time>2024-01-31T09:25:32.935Z</time>
      </trkpt>
      <trkpt lat="43.53492" lon="6.95159">
        <ele>52.642732</ele>
        <time>2024-01-31T09:25:34.949Z</time>
      </trkpt>
      <trkpt lat="43.53484" lon="6.9515">
        <ele>52.613827</ele>
        <time>2024-01-31T09:25:36.933Z</time>
      </trkpt>
      <trkpt lat="43.53475" lon="6.95141">
        <ele>52.58584</ele>
        <time>2024-01-31T09:25:38.951Z</time>
      </trkpt>
      <trkpt lat="43.53467" lon="6.95133">
        <ele>52.558737</ele>
        <time>2024-01-31T09:25:40.938Z</time>
      </trkpt>
      <trkpt lat="43.5346" lon="6.95125">
        <ele>52.533042</ele>
        <time>2024-01-31T09:25:42.939Z</time>
      </trkpt>
      <trkpt lat="43.53452" lon="6.95117">
        <ele>52.509516</ele>
        <time>2024-01-31T09:25:44.923Z</time>
      </trkpt>
      <trkpt lat="43.53445" lon="6.95108">
        <ele>52.505722</ele>
        <time>2024-01-31T09:25:46.954Z</time>
      </trkpt>
      <trkpt lat="43.53438" lon="6.951">
        <ele>52.501953</ele>
        <time>2024-01-31T09:25:48.948Z</time>
      </trkpt>
      <trkpt lat="43.5343" lon="6.95092">
        <ele>52.498196</ele>
        <time>2024-01-31T09:25:50.939Z</time>
      </trkpt>
      <trkpt lat="43.53423" lon="6.95084">
        <ele>52.494407</ele>
        <time>2024-01-31T09:25:52.954Z</time>
      </trkpt>
      <trkpt lat="43.53416" lon="6.95076">
        <ele>52.490663</ele>
        <time>2024-01-31T09:25:54.937Z</time>
      </trkpt>
      <trkpt lat="43.53408" lon="6.95069">
        <ele>52.486779</ele>
        <time>2024-01-31T09:25:56.949Z</time>
      </trkpt>
      <trkpt lat="43.534" lon="6.95062">
        <ele>52.482995</ele>
        <time>2024-01-31T09:25:58.940Z</time>
      </trkpt>
      <trkpt lat="43.53393" lon="6.95054">
        <ele>52.479224</ele>
        <time>2024-01-31T09:26:00.950Z</time>
      </trkpt>
      <trkpt lat="43.53386" lon="6.95046">
        <ele>52.475588</ele>
        <time>2024-01-31T09:26:02.948Z</time>
      </trkpt>
      <trkpt lat="43.53378" lon="6.95039">
        <ele>52.471754</ele>
        <time>2024-01-31T09:26:04.934Z</time>
      </trkpt>
      <trkpt lat="43.5337" lon="6.95031">
        <ele>52.467837</ele>
        <time>2024-01-31T09:26:06.932Z</time>
      </trkpt>
      <trkpt lat="43.53362" lon="6.95023">
        <ele>52.463868</ele>
        <time>2024-01-31T09:26:08.956Z</time>
      </trkpt>
      <trkpt lat="43.53354" lon="6.95015">
        <ele>52.459684</ele>
        <time>2024-01-31T09:26:10.950Z</time>
      </trkpt>
      <trkpt lat="43.53346" lon="6.95007">
        <ele>52.45575</ele>
        <time>2024-01-31T09:26:12.942Z</time>
      </trkpt>
      <trkpt lat="43.53337" lon="6.95">
        <ele>52.451764</ele>
        <time>2024-01-31T09:26:14.964Z</time>
      </trkpt>
      <trkpt lat="43.53329" lon="6.94992">
        <ele>52.447779</ele>
        <time>2024-01-31T09:26:16.953Z</time>
      </trkpt>
      <trkpt lat="43.53321" lon="6.94984">
        <ele>52.443762</ele>
        <time>2024-01-31T09:26:18.950Z</time>
      </trkpt>
      <trkpt lat="43.53313" lon="6.94978">
        <ele>52.439972</ele>
        <time>2024-01-31T09:26:20.929Z</time>
      </trkpt>
      <trkpt lat="43.53305" lon="6.9497">
        <ele>52.446059</ele>
        <time>2024-01-31T09:26:22.933Z</time>
      </trkpt>
      <trkpt lat="43.53298" lon="6.94963">
        <ele>52.477505</ele>
        <time>2024-01-31T09:26:24.960Z</time>
      </trkpt>
      <trkpt lat="43.5329" lon="6.94955">
        <ele>52.508963</ele>
        <time>2024-01-31T09:26:26.972Z</time>
      </trkpt>
      <trkpt lat="43.53283" lon="6.94949">
        <ele>52.540152</ele>
        <time>2024-01-31T09:26:28.920Z</time>
      </trkpt>
      <trkpt lat="43.53272" lon="6.94938">
        <ele>52.586405</ele>
        <time>2024-01-31T09:26:31.948Z</time>
      </trkpt>
      <trkpt lat="43.53264" lon="6.94931">
        <ele>52.61799</ele>
        <time>2024-01-31T09:26:33.946Z</time>
      </trkpt>
      <trkpt lat="43.53256" lon="6.94924">
        <ele>52.649024</ele>
        <time>2024-01-31T09:26:35.957Z</time>
      </trkpt>
      <trkpt lat="43.53249" lon="6.94918">
        <ele>52.68008</ele>
        <time>2024-01-31T09:26:37.953Z</time>
      </trkpt>
      <trkpt lat="43.53241" lon="6.94911">
        <ele>52.711046</ele>
        <time>2024-01-31T09:26:39.946Z</time>
      </trkpt>
      <trkpt lat="43.5323" lon="6.94902">
        <ele>52.754823</ele>
        <time>2024-01-31T09:26:42.950Z</time>
      </trkpt>
      <trkpt lat="43.53218" lon="6.94893">
        <ele>52.800539</ele>
        <time>2024-01-31T09:26:45.958Z</time>
      </trkpt>
      <trkpt lat="43.53208" lon="6.94882">
        <ele>52.844742</ele>
        <time>2024-01-31T09:26:48.941Z</time>
      </trkpt>
      <trkpt lat="43.53198" lon="6.94871">
        <ele>52.888183</ele>
        <time>2024-01-31T09:26:51.936Z</time>
      </trkpt>
      <trkpt lat="43.53192" lon="6.94862">
        <ele>52.919494</ele>
        <time>2024-01-31T09:26:54.031Z</time>
      </trkpt>
      <trkpt lat="43.53184" lon="6.94849">
        <ele>52.962006</ele>
        <time>2024-01-31T09:26:56.941Z</time>
      </trkpt>
      <trkpt lat="43.53178" lon="6.94834">
        <ele>53.00439</ele>
        <time>2024-01-31T09:26:59.949Z</time>
      </trkpt>
      <trkpt lat="43.53171" lon="6.9482">
        <ele>53.046469</ele>
        <time>2024-01-31T09:27:02.943Z</time>
      </trkpt>
      <trkpt lat="43.53162" lon="6.94808">
        <ele>53.105447</ele>
        <time>2024-01-31T09:27:05.944Z</time>
      </trkpt>
      <trkpt lat="43.53152" lon="6.94797">
        <ele>53.17041</ele>
        <time>2024-01-31T09:27:08.952Z</time>
      </trkpt>
      <trkpt lat="43.5314" lon="6.94789">
        <ele>53.235</ele>
        <time>2024-01-31T09:27:11.959Z</time>
      </trkpt>
      <trkpt lat="43.53128" lon="6.94784">
        <ele>53.298383</ele>
        <time>2024-01-31T09:27:14.940Z</time>
      </trkpt>
      <trkpt lat="43.53117" lon="6.94779">
        <ele>53.359168</ele>
        <time>2024-01-31T09:27:17.942Z</time>
      </trkpt>
      <trkpt lat="43.53105" lon="6.94774">
        <ele>53.421713</ele>
        <time>2024-01-31T09:27:20.950Z</time>
      </trkpt>
      <trkpt lat="43.53093" lon="6.94768">
        <ele>53.482498</ele>
        <time>2024-01-31T09:27:23.943Z</time>
      </trkpt>
      <trkpt lat="43.53082" lon="6.94763">
        <ele>53.54292</ele>
        <time>2024-01-31T09:27:26.942Z</time>
      </trkpt>
      <trkpt lat="43.5307" lon="6.94758">
        <ele>53.605242</ele>
        <time>2024-01-31T09:27:29.946Z</time>
      </trkpt>
      <trkpt lat="43.53061" lon="6.94754">
        <ele>53.650082</ele>
        <time>2024-01-31T09:27:31.970Z</time>
      </trkpt>
      <trkpt lat="43.53052" lon="6.9475">
        <ele>53.696596</ele>
        <time>2024-01-31T09:27:33.941Z</time>
      </trkpt>
      <trkpt lat="43.53043" lon="6.94746">
        <ele>53.744649</ele>
        <time>2024-01-31T09:27:35.947Z</time>
      </trkpt>
      <trkpt lat="43.53034" lon="6.94742">
        <ele>53.792333</ele>
        <time>2024-01-31T09:27:37.945Z</time>
      </trkpt>
      <trkpt lat="43.53025" lon="6.94738">
        <ele>53.84142</ele>
        <time>2024-01-31T09:27:39.961Z</time>
      </trkpt>
      <trkpt lat="43.53014" lon="6.94733">
        <ele>53.895227</ele>
        <time>2024-01-31T09:27:41.970Z</time>
      </trkpt>
      <trkpt lat="43.53004" lon="6.94729">
        <ele>53.950751</ele>
        <time>2024-01-31T09:27:43.931Z</time>
      </trkpt>
      <trkpt lat="43.52992" lon="6.94725">
        <ele>53.898429</ele>
        <time>2024-01-31T09:27:45.946Z</time>
      </trkpt>
      <trkpt lat="43.52981" lon="6.94722">
        <ele>53.847398</ele>
        <time>2024-01-31T09:27:47.958Z</time>
      </trkpt>
      <trkpt lat="43.5297" lon="6.94718">
        <ele>53.793697</ele>
        <time>2024-01-31T09:27:49.953Z</time>
      </trkpt>
      <trkpt lat="43.52958" lon="6.94714">
        <ele>53.740848</ele>
        <time>2024-01-31T09:27:51.944Z</time>
      </trkpt>
      <trkpt lat="43.52948" lon="6.94709">
        <ele>53.689103</ele>
        <time>2024-01-31T09:27:53.945Z</time>
      </trkpt>
      <trkpt lat="43.52937" lon="6.94703">
        <ele>53.636989</ele>
        <time>2024-01-31T09:27:55.951Z</time>
      </trkpt>
      <trkpt lat="43.52927" lon="6.94697">
        <ele>53.587126</ele>
        <time>2024-01-31T09:27:57.947Z</time>
      </trkpt>
      <trkpt lat="43.52917" lon="6.94691">
        <ele>53.53713</ele>
        <time>2024-01-31T09:27:59.953Z</time>
      </trkpt>
      <trkpt lat="43.52907" lon="6.94685">
        <ele>53.488233</ele>
        <time>2024-01-31T09:28:01.959Z</time>
      </trkpt>
      <trkpt lat="43.52897" lon="6.94679">
        <ele>53.440156</ele>
        <time>2024-01-31T09:28:03.949Z</time>
      </trkpt>
      <trkpt lat="43.52887" lon="6.94672">
        <ele>53.390985</ele>
        <time>2024-01-31T09:28:05.947Z</time>
      </trkpt>
      <trkpt lat="43.52877" lon="6.94666">
        <ele>53.340157</ele>
        <time>2024-01-31T09:28:07.945Z</time>
      </trkpt>
      <trkpt lat="43.52867" lon="6.9466">
        <ele>53.290554</ele>
        <time>2024-01-31T09:28:09.947Z</time>
      </trkpt>
      <trkpt lat="43.52857" lon="6.94655">
        <ele>53.242645</ele>
        <time>2024-01-31T09:28:11.915Z</time>
      </trkpt>
      <trkpt lat="43.52847" lon="6.9465">
        <ele>53.195758</ele>
        <time>2024-01-31T09:28:13.955Z</time>
      </trkpt>
      <trkpt lat="43.52837" lon="6.94644">
        <ele>53.146986</ele>
        <time>2024-01-31T09:28:15.943Z</time>
      </trkpt>
      <trkpt lat="43.52828" lon="6.94638">
        <ele>53.125698</ele>
        <time>2024-01-31T09:28:17.965Z</time>
      </trkpt>
      <trkpt lat="43.52819" lon="6.94633">
        <ele>53.110796</ele>
        <time>2024-01-31T09:28:19.953Z</time>
      </trkpt>
      <trkpt lat="43.5281" lon="6.94626">
        <ele>53.095599</ele>
        <time>2024-01-31T09:28:21.962Z</time>
      </trkpt>
      <trkpt lat="43.52801" lon="6.9462">
        <ele>53.08</ele>
        <time>2024-01-31T09:28:23.952Z</time>
      </trkpt>
      <trkpt lat="43.52792" lon="6.94613">
        <ele>53.064217</ele>
        <time>2024-01-31T09:28:25.952Z</time>
      </trkpt>
      <trkpt lat="43.52783" lon="6.94607">
        <ele>53.049089</ele>
        <time>2024-01-31T09:28:27.948Z</time>
      </trkpt>
      <trkpt lat="43.52774" lon="6.94601">
        <ele>53.033868</ele>
        <time>2024-01-31T09:28:29.963Z</time>
      </trkpt>
      <trkpt lat="43.52765" lon="6.94594">
        <ele>53.018742</ele>
        <time>2024-01-31T09:28:31.949Z</time>
      </trkpt>
      <trkpt lat="43.52757" lon="6.94587">
        <ele>53.004375</ele>
        <time>2024-01-31T09:28:33.945Z</time>
      </trkpt>
      <trkpt lat="43.52748" lon="6.94581">
        <ele>52.989362</ele>
        <time>2024-01-31T09:28:35.949Z</time>
      </trkpt>
      <trkpt lat="43.5274" lon="6.94574">
        <ele>52.974881</ele>
        <time>2024-01-31T09:28:37.957Z</time>
      </trkpt>
      <trkpt lat="43.52731" lon="6.94568">
        <ele>52.960477</ele>
        <time>2024-01-31T09:28:39.951Z</time>
      </trkpt>
      <trkpt lat="43.52724" lon="6.94561">
        <ele>52.946248</ele>
        <time>2024-01-31T09:28:41.966Z</time>
      </trkpt>
      <trkpt lat="43.52716" lon="6.94554">
        <ele>52.932252</ele>
        <time>2024-01-31T09:28:43.955Z</time>
      </trkpt>
      <trkpt lat="43.52705" lon="6.94545">
        <ele>52.913007</ele>
        <time>2024-01-31T09:28:46.941Z</time>
      </trkpt>
      <trkpt lat="43.52694" lon="6.94537">
        <ele>52.894743</ele>
        <time>2024-01-31T09:28:49.951Z</time>
      </trkpt>
      <trkpt lat="43.52686" lon="6.9453">
        <ele>52.879888</ele>
        <time>2024-01-31T09:28:54.952Z</time>
      </trkpt>
      <trkpt lat="43.52678" lon="6.94537">
        <ele>52.869046</ele>
        <time>2024-01-31T09:28:59.945Z</time>
      </trkpt>
      <trkpt lat="43.52668" lon="6.94533">
        <ele>52.931555</ele>
        <time>2024-01-31T09:29:03.938Z</time>
      </trkpt>
      <trkpt lat="43.52658" lon="6.94531">
        <ele>52.992993</ele>
        <time>2024-01-31T09:29:07.924Z</time>
      </trkpt>
      <trkpt lat="43.52647" lon="6.94526">
        <ele>53.060505</ele>
        <time>2024-01-31T09:29:11.952Z</time>
      </trkpt>
      <trkpt lat="43.52637" lon="6.94522">
        <ele>53.124014</ele>
        <time>2024-01-31T09:29:15.960Z</time>
      </trkpt>
      <trkpt lat="43.52629" lon="6.94515">
        <ele>53.183532</ele>
        <time>2024-01-31T09:29:19.948Z</time>
      </trkpt>
      <trkpt lat="43.5262" lon="6.94507">
        <ele>53.246095</ele>
        <time>2024-01-31T09:29:23.958Z</time>
      </trkpt>
      <trkpt lat="43.5261" lon="6.945">
        <ele>53.315622</ele>
        <time>2024-01-31T09:29:27.918Z</time>
      </trkpt>
      <trkpt lat="43.52603" lon="6.94492">
        <ele>53.372243</ele>
        <time>2024-01-31T09:29:30.934Z</time>
      </trkpt>
      <trkpt lat="43.52595" lon="6.94484">
        <ele>53.430323</ele>
        <time>2024-01-31T09:29:33.949Z</time>
      </trkpt>
      <trkpt lat="43.52586" lon="6.94476">
        <ele>53.498415</ele>
        <time>2024-01-31T09:29:36.935Z</time>
      </trkpt>
      <trkpt lat="43.52576" lon="6.94466">
        <ele>53.568816</ele>
        <time>2024-01-31T09:29:39.943Z</time>
      </trkpt>
      <trkpt lat="43.52566" lon="6.94456">
        <ele>53.643887</ele>
        <time>2024-01-31T09:29:42.944Z</time>
      </trkpt>
      <trkpt lat="43.52556" lon="6.94446">
        <ele>53.718721</ele>
        <time>2024-01-31T09:29:45.937Z</time>
      </trkpt>
      <trkpt lat="43.52546" lon="6.94436">
        <ele>53.797076</ele>
        <time>2024-01-31T09:29:48.917Z</time>
      </trkpt>
      <trkpt lat="43.52535" lon="6.94424">
        <ele>53.877838</ele>
        <time>2024-01-31T09:29:51.978Z</time>
      </trkpt>
      <trkpt lat="43.52525" lon="6.94415">
        <ele>53.954423</ele>
        <time>2024-01-31T09:29:54.950Z</time>
      </trkpt>
      <trkpt lat="43.52517" lon="6.94406">
        <ele>54.054924</ele>
        <time>2024-01-31T09:29:57.945Z</time>
      </trkpt>
      <trkpt lat="43.52507" lon="6.94397">
        <ele>54.176427</ele>
        <time>2024-01-31T09:30:00.942Z</time>
      </trkpt>
      <trkpt lat="43.52497" lon="6.94387">
        <ele>54.303028</ele>
        <time>2024-01-31T09:30:03.939Z</time>
      </trkpt>
      <trkpt lat="43.52487" lon="6.94377">
        <ele>54.436002</ele>
        <time>2024-01-31T09:30:06.945Z</time>
      </trkpt>
      <trkpt lat="43.52477" lon="6.94366">
        <ele>54.566026</ele>
        <time>2024-01-31T09:30:10.072Z</time>
      </trkpt>
      <trkpt lat="43.52467" lon="6.94357">
        <ele>54.686243</ele>
        <time>2024-01-31T09:30:12.935Z</time>
      </trkpt>
      <trkpt lat="43.52459" lon="6.94347">
        <ele>54.797412</ele>
        <time>2024-01-31T09:30:15.946Z</time>
      </trkpt>
      <trkpt lat="43.52453" lon="6.94336">
        <ele>54.903483</ele>
        <time>2024-01-31T09:30:18.963Z</time>
      </trkpt>
      <trkpt lat="43.52448" lon="6.94324">
        <ele>55.009508</ele>
        <time>2024-01-31T09:30:22.946Z</time>
      </trkpt>
      <trkpt lat="43.52449" lon="6.94311">
        <ele>55.106531</ele>
        <time>2024-01-31T09:30:26.922Z</time>
      </trkpt>
      <trkpt lat="43.52444" lon="6.94298">
        <ele>55.214669</ele>
        <time>2024-01-31T09:30:29.925Z</time>
      </trkpt>
      <trkpt lat="43.52438" lon="6.94286">
        <ele>55.324979</ele>
        <time>2024-01-31T09:30:32.917Z</time>
      </trkpt>
      <trkpt lat="43.52432" lon="6.94275">
        <ele>55.431641</ele>
        <time>2024-01-31T09:30:35.946Z</time>
      </trkpt>
      <trkpt lat="43.52426" lon="6.94263">
        <ele>55.542533</ele>
        <time>2024-01-31T09:30:38.934Z</time>
      </trkpt>
      <trkpt lat="43.5242" lon="6.94252">
        <ele>55.642496</ele>
        <time>2024-01-31T09:30:41.947Z</time>
      </trkpt>
      <trkpt lat="43.52414" lon="6.94241">
        <ele>55.74078</ele>
        <time>2024-01-31T09:30:44.956Z</time>
      </trkpt>
      <trkpt lat="43.52409" lon="6.94232">
        <ele>55.894063</ele>
        <time>2024-01-31T09:30:47.964Z</time>
      </trkpt>
      <trkpt lat="43.52402" lon="6.9422">
        <ele>56.399143</ele>
        <time>2024-01-31T09:30:51.940Z</time>
      </trkpt>
      <trkpt lat="43.52397" lon="6.94208">
        <ele>56.866733</ele>
        <time>2024-01-31T09:30:55.935Z</time>
      </trkpt>
      <trkpt lat="43.52391" lon="6.94195">
        <ele>57.384821</ele>
        <time>2024-01-31T09:31:00.945Z</time>
      </trkpt>
      <trkpt lat="43.52386" lon="6.94184">
        <ele>57.814219</ele>
        <time>2024-01-31T09:31:04.962Z</time>
      </trkpt>
      <trkpt lat="43.52379" lon="6.94172">
        <ele>58.317362</ele>
        <time>2024-01-31T09:31:09.960Z</time>
      </trkpt>
      <trkpt lat="43.52372" lon="6.94163">
        <ele>58.775441</ele>
        <time>2024-01-31T09:31:13.938Z</time>
      </trkpt>
      <trkpt lat="43.52363" lon="6.94154">
        <ele>59.285634</ele>
        <time>2024-01-31T09:31:17.926Z</time>
      </trkpt>
      <trkpt lat="43.52353" lon="6.94149">
        <ele>59.778004</ele>
        <time>2024-01-31T09:31:21.955Z</time>
      </trkpt>
      <trkpt lat="43.52343" lon="6.94145">
        <ele>60.251513</ele>
        <time>2024-01-31T09:31:25.924Z</time>
      </trkpt>
      <trkpt lat="43.52334" lon="6.94143">
        <ele>60.700048</ele>
        <time>2024-01-31T09:31:29.929Z</time>
      </trkpt>
      <trkpt lat="43.52324" lon="6.94142">
        <ele>61.146169</ele>
        <time>2024-01-31T09:31:33.936Z</time>
      </trkpt>
      <trkpt lat="43.52316" lon="6.94137">
        <ele>61.563724</ele>
        <time>2024-01-31T09:31:37.944Z</time>
      </trkpt>
      <trkpt lat="43.52306" lon="6.94131">
        <ele>62.033045</ele>
        <time>2024-01-31T09:31:41.922Z</time>
      </trkpt>
      <trkpt lat="43.523" lon="6.94118">
        <ele>62.581653</ele>
        <time>2024-01-31T09:31:45.944Z</time>
      </trkpt>
      <trkpt lat="43.52298" lon="6.94103">
        <ele>63.088989</ele>
        <time>2024-01-31T09:31:48.939Z</time>
      </trkpt>
      <trkpt lat="43.52294" lon="6.94087">
        <ele>63.642284</ele>
        <time>2024-01-31T09:31:51.965Z</time>
      </trkpt>
      <trkpt lat="43.52287" lon="6.94074">
        <ele>64.157814</ele>
        <time>2024-01-31T09:31:54.936Z</time>
      </trkpt>
      <trkpt lat="43.52277" lon="6.94063">
        <ele>64.406378</ele>
        <time>2024-01-31T09:31:57.938Z</time>
      </trkpt>
      <trkpt lat="43.52267" lon="6.94056">
        <ele>64.643986</ele>
        <time>2024-01-31T09:32:00.938Z</time>
      </trkpt>
      <trkpt lat="43.52258" lon="6.94051">
        <ele>64.826413</ele>
        <time>2024-01-31T09:32:02.956Z</time>
      </trkpt>
      <trkpt lat="43.52249" lon="6.94047">
        <ele>65.0166</ele>
        <time>2024-01-31T09:32:04.953Z</time>
      </trkpt>
      <trkpt lat="43.5224" lon="6.94042">
        <ele>65.212076</ele>
        <time>2024-01-31T09:32:06.934Z</time>
      </trkpt>
      <trkpt lat="43.52232" lon="6.94037">
        <ele>65.396358</ele>
        <time>2024-01-31T09:32:08.959Z</time>
      </trkpt>
      <trkpt lat="43.5222" lon="6.9403">
        <ele>65.657079</ele>
        <time>2024-01-31T09:32:11.996Z</time>
      </trkpt>
      <trkpt lat="43.52209" lon="6.94024">
        <ele>65.893499</ele>
        <time>2024-01-31T09:32:14.924Z</time>
      </trkpt>
      <trkpt lat="43.522" lon="6.94018">
        <ele>66.103139</ele>
        <time>2024-01-31T09:32:17.932Z</time>
      </trkpt>
      <trkpt lat="43.52192" lon="6.94011">
        <ele>66.287971</ele>
        <time>2024-01-31T09:32:20.935Z</time>
      </trkpt>
      <trkpt lat="43.52182" lon="6.94002">
        <ele>66.517601</ele>
        <time>2024-01-31T09:32:24.946Z</time>
      </trkpt>
      <trkpt lat="43.52174" lon="6.93993">
        <ele>66.738674</ele>
        <time>2024-01-31T09:32:28.949Z</time>
      </trkpt>
      <trkpt lat="43.52168" lon="6.93979">
        <ele>66.967472</ele>
        <time>2024-01-31T09:32:32.960Z</time>
      </trkpt>
      <trkpt lat="43.52163" lon="6.93968">
        <ele>67.161935</ele>
        <time>2024-01-31T09:32:35.962Z</time>
      </trkpt>
      <trkpt lat="43.52154" lon="6.93962">
        <ele>67.359433</ele>
        <time>2024-01-31T09:32:38.923Z</time>
      </trkpt>
      <trkpt lat="43.52143" lon="6.93961">
        <ele>67.569084</ele>
        <time>2024-01-31T09:32:41.951Z</time>
      </trkpt>
      <trkpt lat="43.52134" lon="6.93964">
        <ele>67.79462</ele>
        <time>2024-01-31T09:32:44.935Z</time>
      </trkpt>
      <trkpt lat="43.52129" lon="6.93976">
        <ele>68.408593</ele>
        <time>2024-01-31T09:32:47.943Z</time>
      </trkpt>
      <trkpt lat="43.52125" lon="6.9399">
        <ele>69.02908</ele>
        <time>2024-01-31T09:32:50.925Z</time>
      </trkpt>
      <trkpt lat="43.5212" lon="6.94002">
        <ele>69.616166</ele>
        <time>2024-01-31T09:32:53.917Z</time>
      </trkpt>
      <trkpt lat="43.52112" lon="6.94012">
        <ele>70.236457</ele>
        <time>2024-01-31T09:32:58.935Z</time>
      </trkpt>
      <trkpt lat="43.52104" lon="6.94022">
        <ele>70.853807</ele>
        <time>2024-01-31T09:33:03.953Z</time>
      </trkpt>
      <trkpt lat="43.52097" lon="6.94029">
        <ele>71.38844</ele>
        <time>2024-01-31T09:33:07.935Z</time>
      </trkpt>
      <trkpt lat="43.52087" lon="6.94037">
        <ele>72.032283</ele>
        <time>2024-01-31T09:33:12.938Z</time>
      </trkpt>
      <trkpt lat="43.52078" lon="6.94042">
        <ele>72.608213</ele>
        <time>2024-01-31T09:33:16.918Z</time>
      </trkpt>
      <trkpt lat="43.52069" lon="6.94045">
        <ele>73.167576</ele>
        <time>2024-01-31T09:33:20.929Z</time>
      </trkpt>
      <trkpt lat="43.52058" lon="6.94045">
        <ele>73.77654</ele>
        <time>2024-01-31T09:33:25.957Z</time>
      </trkpt>
      <trkpt lat="43.52048" lon="6.94043">
        <ele>74.357892</ele>
        <time>2024-01-31T09:33:30.937Z</time>
      </trkpt>
      <trkpt lat="43.52038" lon="6.9404">
        <ele>74.970653</ele>
        <time>2024-01-31T09:33:35.938Z</time>
      </trkpt>
      <trkpt lat="43.52028" lon="6.94037">
        <ele>75.569624</ele>
        <time>2024-01-31T09:33:40.949Z</time>
      </trkpt>
      <trkpt lat="43.52018" lon="6.94034">
        <ele>76.161198</ele>
        <time>2024-01-31T09:33:45.951Z</time>
      </trkpt>
      <trkpt lat="43.52008" lon="6.94029">
        <ele>76.784758</ele>
        <time>2024-01-31T09:33:50.953Z</time>
      </trkpt>
      <trkpt lat="43.51998" lon="6.94025">
        <ele>77.38724</ele>
        <time>2024-01-31T09:33:55.945Z</time>
      </trkpt>
      <trkpt lat="43.51988" lon="6.94022">
        <ele>77.951714</ele>
        <time>2024-01-31T09:34:00.937Z</time>
      </trkpt>
      <trkpt lat="43.51979" lon="6.94018">
        <ele>78.187927</ele>
        <time>2024-01-31T09:34:05.956Z</time>
      </trkpt>
      <trkpt lat="43.51969" lon="6.94014">
        <ele>78.216378</ele>
        <time>2024-01-31T09:34:10.939Z</time>
      </trkpt>
      <trkpt lat="43.51959" lon="6.94008">
        <ele>78.247026</ele>
        <time>2024-01-31T09:34:15.953Z</time>
      </trkpt>
      <trkpt lat="43.51949" lon="6.94003">
        <ele>78.276532</ele>
        <time>2024-01-31T09:34:20.948Z</time>
      </trkpt>
      <trkpt lat="43.5194" lon="6.93996">
        <ele>78.306085</ele>
        <time>2024-01-31T09:34:25.950Z</time>
      </trkpt>
      <trkpt lat="43.5193" lon="6.9399">
        <ele>78.335878</ele>
        <time>2024-01-31T09:34:29.959Z</time>
      </trkpt>
      <trkpt lat="43.51919" lon="6.93983">
        <ele>78.370712</ele>
        <time>2024-01-31T09:34:34.024Z</time>
      </trkpt>
      <trkpt lat="43.51907" lon="6.93978">
        <ele>78.404774</ele>
        <time>2024-01-31T09:34:36.943Z</time>
      </trkpt>
      <trkpt lat="43.51898" lon="6.93974">
        <ele>78.431709</ele>
        <time>2024-01-31T09:34:38.944Z</time>
      </trkpt>
      <trkpt lat="43.51888" lon="6.93969">
        <ele>78.462403</ele>
        <time>2024-01-31T09:34:40.959Z</time>
      </trkpt>
      <trkpt lat="43.51876" lon="6.93962">
        <ele>78.49615</ele>
        <time>2024-01-31T09:34:42.955Z</time>
      </trkpt>
      <trkpt lat="43.51866" lon="6.93953">
        <ele>78.530879</ele>
        <time>2024-01-31T09:34:44.951Z</time>
      </trkpt>
      <trkpt lat="43.51856" lon="6.93939">
        <ele>78.569448</ele>
        <time>2024-01-31T09:34:46.948Z</time>
      </trkpt>
      <trkpt lat="43.5185" lon="6.93923">
        <ele>78.606626</ele>
        <time>2024-01-31T09:34:48.920Z</time>
      </trkpt>
      <trkpt lat="43.51843" lon="6.93908">
        <ele>78.644373</ele>
        <time>2024-01-31T09:34:50.938Z</time>
      </trkpt>
      <trkpt lat="43.51833" lon="6.93894">
        <ele>78.424751</ele>
        <time>2024-01-31T09:34:52.923Z</time>
      </trkpt>
      <trkpt lat="43.51824" lon="6.93881">
        <ele>77.280737</ele>
        <time>2024-01-31T09:34:54.939Z</time>
      </trkpt>
      <trkpt lat="43.51814" lon="6.93868">
        <ele>76.138469</ele>
        <time>2024-01-31T09:34:56.946Z</time>
      </trkpt>
      <trkpt lat="43.51807" lon="6.93852">
        <ele>74.954846</ele>
        <time>2024-01-31T09:34:58.954Z</time>
      </trkpt>
      <trkpt lat="43.51801" lon="6.93833">
        <ele>73.676606</ele>
        <time>2024-01-31T09:35:00.945Z</time>
      </trkpt>
      <trkpt lat="43.51798" lon="6.93812">
        <ele>72.378268</ele>
        <time>2024-01-31T09:35:02.928Z</time>
      </trkpt>
      <trkpt lat="43.51796" lon="6.93792">
        <ele>71.101161</ele>
        <time>2024-01-31T09:35:04.938Z</time>
      </trkpt>
      <trkpt lat="43.51795" lon="6.93771">
        <ele>69.832344</ele>
        <time>2024-01-31T09:35:06.925Z</time>
      </trkpt>
      <trkpt lat="43.51794" lon="6.9375">
        <ele>68.543435</ele>
        <time>2024-01-31T09:35:08.926Z</time>
      </trkpt>
      <trkpt lat="43.51791" lon="6.9373">
        <ele>67.296781</ele>
        <time>2024-01-31T09:35:10.940Z</time>
      </trkpt>
      <trkpt lat="43.51785" lon="6.93711">
        <ele>65.964661</ele>
        <time>2024-01-31T09:35:12.934Z</time>
      </trkpt>
      <trkpt lat="43.51781" lon="6.93691">
        <ele>64.718725</ele>
        <time>2024-01-31T09:35:14.956Z</time>
      </trkpt>
      <trkpt lat="43.5178" lon="6.93671">
        <ele>63.503579</ele>
        <time>2024-01-31T09:35:16.956Z</time>
      </trkpt>
      <trkpt lat="43.51782" lon="6.93653">
        <ele>63.227507</ele>
        <time>2024-01-31T09:35:18.941Z</time>
      </trkpt>
      <trkpt lat="43.51784" lon="6.93634">
        <ele>63.057937</ele>
        <time>2024-01-31T09:35:20.939Z</time>
      </trkpt>
      <trkpt lat="43.51786" lon="6.93615">
        <ele>62.880568</ele>
        <time>2024-01-31T09:35:22.929Z</time>
      </trkpt>
      <trkpt lat="43.51789" lon="6.93595">
        <ele>62.691187</ele>
        <time>2024-01-31T09:35:24.952Z</time>
      </trkpt>
      <trkpt lat="43.51789" lon="6.93574">
        <ele>62.508186</ele>
        <time>2024-01-31T09:35:26.928Z</time>
      </trkpt>
      <trkpt lat="43.51785" lon="6.93556">
        <ele>62.334311</ele>
        <time>2024-01-31T09:35:28.945Z</time>
      </trkpt>
      <trkpt lat="43.51777" lon="6.93541">
        <ele>62.164525</ele>
        <time>2024-01-31T09:35:30.950Z</time>
      </trkpt>
      <trkpt lat="43.51766" lon="6.9353">
        <ele>61.998114</ele>
        <time>2024-01-31T09:35:32.938Z</time>
      </trkpt>
      <trkpt lat="43.51753" lon="6.93526">
        <ele>61.832055</ele>
        <time>2024-01-31T09:35:34.934Z</time>
      </trkpt>
      <trkpt lat="43.51741" lon="6.93526">
        <ele>61.670043</ele>
        <time>2024-01-31T09:35:36.937Z</time>
      </trkpt>
      <trkpt lat="43.51729" lon="6.93534">
        <ele>61.507306</ele>
        <time>2024-01-31T09:35:38.938Z</time>
      </trkpt>
      <trkpt lat="43.51719" lon="6.93545">
        <ele>61.34576</ele>
        <time>2024-01-31T09:35:40.952Z</time>
      </trkpt>
      <trkpt lat="43.51712" lon="6.93558">
        <ele>61.201926</ele>
        <time>2024-01-31T09:35:42.927Z</time>
      </trkpt>
      <trkpt lat="43.51706" lon="6.93569">
        <ele>61.308192</ele>
        <time>2024-01-31T09:35:44.925Z</time>
      </trkpt>
      <trkpt lat="43.517" lon="6.93579">
        <ele>61.725972</ele>
        <time>2024-01-31T09:35:46.948Z</time>
      </trkpt>
      <trkpt lat="43.51694" lon="6.93592">
        <ele>62.230773</ele>
        <time>2024-01-31T09:35:49.946Z</time>
      </trkpt>
      <trkpt lat="43.51688" lon="6.93602">
        <ele>62.638351</ele>
        <time>2024-01-31T09:35:52.962Z</time>
      </trkpt>
      <trkpt lat="43.51683" lon="6.93613">
        <ele>63.056072</ele>
        <time>2024-01-31T09:35:56.950Z</time>
      </trkpt>
      <trkpt lat="43.51677" lon="6.93624">
        <ele>63.484182</ele>
        <time>2024-01-31T09:36:00.945Z</time>
      </trkpt>
      <trkpt lat="43.51673" lon="6.93635">
        <ele>63.908134</ele>
        <time>2024-01-31T09:36:04.935Z</time>
      </trkpt>
      <trkpt lat="43.51668" lon="6.93647">
        <ele>64.3531</ele>
        <time>2024-01-31T09:36:08.947Z</time>
      </trkpt>
      <trkpt lat="43.51664" lon="6.9366">
        <ele>64.792293</ele>
        <time>2024-01-31T09:36:12.936Z</time>
      </trkpt>
      <trkpt lat="43.51661" lon="6.93672">
        <ele>65.207256</ele>
        <time>2024-01-31T09:36:16.938Z</time>
      </trkpt>
      <trkpt lat="43.51657" lon="6.93684">
        <ele>65.635054</ele>
        <time>2024-01-31T09:36:20.938Z</time>
      </trkpt>
      <trkpt lat="43.51653" lon="6.93698">
        <ele>66.132212</ele>
        <time>2024-01-31T09:36:25.951Z</time>
      </trkpt>
      <trkpt lat="43.51649" lon="6.93709">
        <ele>66.535303</ele>
        <time>2024-01-31T09:36:29.941Z</time>
      </trkpt>
      <trkpt lat="43.51641" lon="6.9372">
        <ele>67.0391</ele>
        <time>2024-01-31T09:36:34.949Z</time>
      </trkpt>
      <trkpt lat="43.51634" lon="6.93731">
        <ele>67.517698</ele>
        <time>2024-01-31T09:36:39.925Z</time>
      </trkpt>
      <trkpt lat="43.51629" lon="6.93742">
        <ele>67.935589</ele>
        <time>2024-01-31T09:36:43.945Z</time>
      </trkpt>
      <trkpt lat="43.51623" lon="6.93754">
        <ele>68.409169</ele>
        <time>2024-01-31T09:36:47.925Z</time>
      </trkpt>
      <trkpt lat="43.51617" lon="6.93768">
        <ele>68.939062</ele>
        <time>2024-01-31T09:36:51.951Z</time>
      </trkpt>
      <trkpt lat="43.5161" lon="6.93776">
        <ele>69.171836</ele>
        <time>2024-01-31T09:36:54.946Z</time>
      </trkpt>
      <trkpt lat="43.51599" lon="6.93779">
        <ele>69.177717</ele>
        <time>2024-01-31T09:36:57.928Z</time>
      </trkpt>
      <trkpt lat="43.51589" lon="6.93777">
        <ele>69.182665</ele>
        <time>2024-01-31T09:36:59.944Z</time>
      </trkpt>
      <trkpt lat="43.5158" lon="6.93773">
        <ele>69.187715</ele>
        <time>2024-01-31T09:37:01.952Z</time>
      </trkpt>
      <trkpt lat="43.51571" lon="6.93767">
        <ele>69.193144</ele>
        <time>2024-01-31T09:37:03.949Z</time>
      </trkpt>
      <trkpt lat="43.51561" lon="6.93761">
        <ele>69.198751</ele>
        <time>2024-01-31T09:37:05.943Z</time>
      </trkpt>
      <trkpt lat="43.51551" lon="6.93754">
        <ele>69.204706</ele>
        <time>2024-01-31T09:37:07.945Z</time>
      </trkpt>
      <trkpt lat="43.5154" lon="6.93746">
        <ele>69.211023</ele>
        <time>2024-01-31T09:37:09.926Z</time>
      </trkpt>
      <trkpt lat="43.5153" lon="6.93738">
        <ele>69.217375</ele>
        <time>2024-01-31T09:37:11.951Z</time>
      </trkpt>
      <trkpt lat="43.51518" lon="6.9373">
        <ele>69.224078</ele>
        <time>2024-01-31T09:37:13.940Z</time>
      </trkpt>
      <trkpt lat="43.51508" lon="6.93717">
        <ele>69.231436</ele>
        <time>2024-01-31T09:37:15.937Z</time>
      </trkpt>
      <trkpt lat="43.51498" lon="6.93705">
        <ele>69.23852</ele>
        <time>2024-01-31T09:37:17.930Z</time>
      </trkpt>
      <trkpt lat="43.51486" lon="6.93698">
        <ele>69.245386</ele>
        <time>2024-01-31T09:37:19.952Z</time>
      </trkpt>
      <trkpt lat="43.51473" lon="6.93696">
        <ele>69.252219</ele>
        <time>2024-01-31T09:37:21.943Z</time>
      </trkpt>
      <trkpt lat="43.5146" lon="6.93694">
        <ele>69.258868</ele>
        <time>2024-01-31T09:37:23.958Z</time>
      </trkpt>
      <trkpt lat="43.51448" lon="6.93693">
        <ele>69.269361</ele>
        <time>2024-01-31T09:37:25.951Z</time>
      </trkpt>
      <trkpt lat="43.51436" lon="6.93691">
        <ele>69.306259</ele>
        <time>2024-01-31T09:37:27.943Z</time>
      </trkpt>
      <trkpt lat="43.51425" lon="6.9369">
        <ele>69.341024</ele>
        <time>2024-01-31T09:37:29.953Z</time>
      </trkpt>
      <trkpt lat="43.51414" lon="6.9369">
        <ele>69.374221</ele>
        <time>2024-01-31T09:37:31.949Z</time>
      </trkpt>
      <trkpt lat="43.51405" lon="6.93689">
        <ele>69.401704</ele>
        <time>2024-01-31T09:37:33.943Z</time>
      </trkpt>
      <trkpt lat="43.51392" lon="6.93689">
        <ele>69.440698</ele>
        <time>2024-01-31T09:37:36.932Z</time>
      </trkpt>
      <trkpt lat="43.5138" lon="6.9369">
        <ele>69.477341</ele>
        <time>2024-01-31T09:37:39.947Z</time>
      </trkpt>
      <trkpt lat="43.51368" lon="6.93695">
        <ele>69.517095</ele>
        <time>2024-01-31T09:37:42.936Z</time>
      </trkpt>
      <trkpt lat="43.51359" lon="6.93699">
        <ele>69.544956</ele>
        <time>2024-01-31T09:37:44.941Z</time>
      </trkpt>
      <trkpt lat="43.51351" lon="6.93704">
        <ele>69.57293</ele>
        <time>2024-01-31T09:37:46.939Z</time>
      </trkpt>
      <trkpt lat="43.51337" lon="6.93707">
        <ele>69.614509</ele>
        <time>2024-01-31T09:37:49.938Z</time>
      </trkpt>
      <trkpt lat="43.51324" lon="6.93707">
        <ele>69.653493</ele>
        <time>2024-01-31T09:37:52.947Z</time>
      </trkpt>
      <trkpt lat="43.51315" lon="6.93706">
        <ele>69.682615</ele>
        <time>2024-01-31T09:37:54.924Z</time>
      </trkpt>
      <trkpt lat="43.51306" lon="6.93704">
        <ele>69.710527</ele>
        <time>2024-01-31T09:37:56.961Z</time>
      </trkpt>
      <trkpt lat="43.51297" lon="6.93702">
        <ele>69.738405</ele>
        <time>2024-01-31T09:37:58.944Z</time>
      </trkpt>
      <trkpt lat="43.51284" lon="6.93698">
        <ele>69.778832</ele>
        <time>2024-01-31T09:38:01.945Z</time>
      </trkpt>
      <trkpt lat="43.51275" lon="6.93696">
        <ele>69.807136</ele>
        <time>2024-01-31T09:38:03.961Z</time>
      </trkpt>
      <trkpt lat="43.51265" lon="6.93695">
        <ele>69.662706</ele>
        <time>2024-01-31T09:38:05.934Z</time>
      </trkpt>
      <trkpt lat="43.51252" lon="6.93694">
        <ele>69.407373</ele>
        <time>2024-01-31T09:38:08.948Z</time>
      </trkpt>
      <trkpt lat="43.51243" lon="6.93695">
        <ele>69.228056</ele>
        <time>2024-01-31T09:38:10.957Z</time>
      </trkpt>
      <trkpt lat="43.51235" lon="6.93701">
        <ele>69.040181</ele>
        <time>2024-01-31T09:38:12.948Z</time>
      </trkpt>
      <trkpt lat="43.51227" lon="6.93709">
        <ele>68.850067</ele>
        <time>2024-01-31T09:38:14.935Z</time>
      </trkpt>
      <trkpt lat="43.51221" lon="6.9372">
        <ele>68.654063</ele>
        <time>2024-01-31T09:38:16.949Z</time>
      </trkpt>
      <trkpt lat="43.51214" lon="6.9373">
        <ele>68.446991</ele>
        <time>2024-01-31T09:38:18.939Z</time>
      </trkpt>
      <trkpt lat="43.51203" lon="6.93738">
        <ele>68.212868</ele>
        <time>2024-01-31T09:38:20.929Z</time>
      </trkpt>
      <trkpt lat="43.51191" lon="6.9374">
        <ele>67.967797</ele>
        <time>2024-01-31T09:38:22.941Z</time>
      </trkpt>
      <trkpt lat="43.51178" lon="6.93739">
        <ele>67.723684</ele>
        <time>2024-01-31T09:38:24.942Z</time>
      </trkpt>
      <trkpt lat="43.51165" lon="6.93739">
        <ele>67.472356</ele>
        <time>2024-01-31T09:38:26.949Z</time>
      </trkpt>
      <trkpt lat="43.51153" lon="6.9374">
        <ele>67.23087</ele>
        <time>2024-01-31T09:38:28.940Z</time>
      </trkpt>
      <trkpt lat="43.51141" lon="6.93738">
        <ele>66.987911</ele>
        <time>2024-01-31T09:38:30.943Z</time>
      </trkpt>
      <trkpt lat="43.51129" lon="6.93732">
        <ele>66.739679</ele>
        <time>2024-01-31T09:38:32.929Z</time>
      </trkpt>
      <trkpt lat="43.51117" lon="6.93727">
        <ele>66.491892</ele>
        <time>2024-01-31T09:38:34.933Z</time>
      </trkpt>
      <trkpt lat="43.51104" lon="6.9372">
        <ele>66.191258</ele>
        <time>2024-01-31T09:38:36.944Z</time>
      </trkpt>
      <trkpt lat="43.51092" lon="6.9371">
        <ele>65.751851</ele>
        <time>2024-01-31T09:38:38.945Z</time>
      </trkpt>
      <trkpt lat="43.51082" lon="6.93697">
        <ele>65.307338</ele>
        <time>2024-01-31T09:38:40.943Z</time>
      </trkpt>
      <trkpt lat="43.51071" lon="6.93685">
        <ele>64.873196</ele>
        <time>2024-01-31T09:38:42.952Z</time>
      </trkpt>
      <trkpt lat="43.5106" lon="6.93678">
        <ele>64.473292</ele>
        <time>2024-01-31T09:38:44.941Z</time>
      </trkpt>
      <trkpt lat="43.51047" lon="6.93678">
        <ele>64.087079</ele>
        <time>2024-01-31T09:38:46.933Z</time>
      </trkpt>
      <trkpt lat="43.51036" lon="6.93682">
        <ele>63.70073</ele>
        <time>2024-01-31T09:38:48.937Z</time>
      </trkpt>
      <trkpt lat="43.51024" lon="6.93687">
        <ele>63.328413</ele>
        <time>2024-01-31T09:38:50.933Z</time>
      </trkpt>
      <trkpt lat="43.51013" lon="6.93691">
        <ele>62.962175</ele>
        <time>2024-01-31T09:38:52.942Z</time>
      </trkpt>
      <trkpt lat="43.51002" lon="6.93696">
        <ele>62.602984</ele>
        <time>2024-01-31T09:38:54.946Z</time>
      </trkpt>
      <trkpt lat="43.50992" lon="6.93702">
        <ele>62.239331</ele>
        <time>2024-01-31T09:38:56.944Z</time>
      </trkpt>
      <trkpt lat="43.50982" lon="6.93708">
        <ele>61.898938</ele>
        <time>2024-01-31T09:38:58.952Z</time>
      </trkpt>
      <trkpt lat="43.50971" lon="6.93715">
        <ele>61.525021</ele>
        <time>2024-01-31T09:39:00.955Z</time>
      </trkpt>
      <trkpt lat="43.5096" lon="6.93719">
        <ele>61.154556</ele>
        <time>2024-01-31T09:39:02.967Z</time>
      </trkpt>
      <trkpt lat="43.50948" lon="6.93721">
        <ele>60.78868</ele>
        <time>2024-01-31T09:39:04.936Z</time>
      </trkpt>
      <trkpt lat="43.50936" lon="6.9372">
        <ele>60.470845</ele>
        <time>2024-01-31T09:39:06.941Z</time>
      </trkpt>
      <trkpt lat="43.50925" lon="6.93722">
        <ele>60.228244</ele>
        <time>2024-01-31T09:39:08.940Z</time>
      </trkpt>
      <trkpt lat="43.50914" lon="6.93725">
        <ele>60.004869</ele>
        <time>2024-01-31T09:39:10.952Z</time>
      </trkpt>
      <trkpt lat="43.50905" lon="6.93731">
        <ele>59.783154</ele>
        <time>2024-01-31T09:39:12.926Z</time>
      </trkpt>
      <trkpt lat="43.50895" lon="6.93738">
        <ele>59.553253</ele>
        <time>2024-01-31T09:39:14.928Z</time>
      </trkpt>
      <trkpt lat="43.50884" lon="6.93746">
        <ele>59.304366</ele>
        <time>2024-01-31T09:39:16.948Z</time>
      </trkpt>
      <trkpt lat="43.50873" lon="6.93752">
        <ele>59.066977</ele>
        <time>2024-01-31T09:39:18.949Z</time>
      </trkpt>
      <trkpt lat="43.50862" lon="6.93759">
        <ele>58.820203</ele>
        <time>2024-01-31T09:39:20.958Z</time>
      </trkpt>
      <trkpt lat="43.50852" lon="6.93764">
        <ele>58.58265</ele>
        <time>2024-01-31T09:39:22.953Z</time>
      </trkpt>
      <trkpt lat="43.50843" lon="6.9377">
        <ele>58.375972</ele>
        <time>2024-01-31T09:39:24.966Z</time>
      </trkpt>
      <trkpt lat="43.50833" lon="6.93776">
        <ele>58.156125</ele>
        <time>2024-01-31T09:39:26.954Z</time>
      </trkpt>
      <trkpt lat="43.50825" lon="6.93784">
        <ele>57.958636</ele>
        <time>2024-01-31T09:39:28.946Z</time>
      </trkpt>
      <trkpt lat="43.50819" lon="6.93794">
        <ele>57.748312</ele>
        <time>2024-01-31T09:39:30.938Z</time>
      </trkpt>
      <trkpt lat="43.50814" lon="6.93808">
        <ele>57.523866</ele>
        <time>2024-01-31T09:39:32.931Z</time>
      </trkpt>
      <trkpt lat="43.5081" lon="6.93825">
        <ele>57.251685</ele>
        <time>2024-01-31T09:39:35.946Z</time>
      </trkpt>
      <trkpt lat="43.50807" lon="6.93839">
        <ele>57.033589</ele>
        <time>2024-01-31T09:39:38.944Z</time>
      </trkpt>
      <trkpt lat="43.50805" lon="6.93852">
        <ele>56.853492</ele>
        <time>2024-01-31T09:39:42.950Z</time>
      </trkpt>
      <trkpt lat="43.50799" lon="6.93871">
        <ele>56.722823</ele>
        <time>2024-01-31T09:40:09.944Z</time>
      </trkpt>
      <trkpt lat="43.50794" lon="6.93895">
        <ele>56.558056</ele>
        <time>2024-01-31T09:40:36.942Z</time>
      </trkpt>
      <trkpt lat="43.50791" lon="6.93907">
        <ele>56.474789</ele>
        <time>2024-01-31T09:40:40.946Z</time>
      </trkpt>
      <trkpt lat="43.50789" lon="6.93943">
        <ele>56.233753</ele>
        <time>2024-01-31T09:41:21.938Z</time>
      </trkpt>
      <trkpt lat="43.50786" lon="6.93955">
        <ele>56.151437</ele>
        <time>2024-01-31T09:41:23.951Z</time>
      </trkpt>
      <trkpt lat="43.50784" lon="6.93972">
        <ele>56.035485</ele>
        <time>2024-01-31T09:41:26.941Z</time>
      </trkpt>
      <trkpt lat="43.50782" lon="6.93988">
        <ele>55.928627</ele>
        <time>2024-01-31T09:41:29.949Z</time>
      </trkpt>
      <trkpt lat="43.5078" lon="6.94002">
        <ele>55.833869</ele>
        <time>2024-01-31T09:41:32.940Z</time>
      </trkpt>
      <trkpt lat="43.50777" lon="6.94021">
        <ele>55.711392</ele>
        <time>2024-01-31T09:41:35.933Z</time>
      </trkpt>
      <trkpt lat="43.50775" lon="6.94034">
        <ele>55.618819</ele>
        <time>2024-01-31T09:41:37.950Z</time>
      </trkpt>
      <trkpt lat="43.50773" lon="6.94049">
        <ele>55.517431</ele>
        <time>2024-01-31T09:41:39.947Z</time>
      </trkpt>
      <trkpt lat="43.50771" lon="6.94066">
        <ele>55.408891</ele>
        <time>2024-01-31T09:41:41.960Z</time>
      </trkpt>
      <trkpt lat="43.50769" lon="6.94084">
        <ele>55.286777</ele>
        <time>2024-01-31T09:41:43.942Z</time>
      </trkpt>
      <trkpt lat="43.50765" lon="6.94102">
        <ele>55.249996</ele>
        <time>2024-01-31T09:41:45.923Z</time>
      </trkpt>
      <trkpt lat="43.50761" lon="6.94121">
        <ele>55.274438</ele>
        <time>2024-01-31T09:41:47.957Z</time>
      </trkpt>
      <trkpt lat="43.50757" lon="6.94139">
        <ele>55.299062</ele>
        <time>2024-01-31T09:41:49.923Z</time>
      </trkpt>
      <trkpt lat="43.50749" lon="6.94156">
        <ele>55.323528</ele>
        <time>2024-01-31T09:41:51.947Z</time>
      </trkpt>
      <trkpt lat="43.5074" lon="6.94171">
        <ele>55.349181</ele>
        <time>2024-01-31T09:41:53.953Z</time>
      </trkpt>
      <trkpt lat="43.50729" lon="6.94185">
        <ele>55.374821</ele>
        <time>2024-01-31T09:41:55.926Z</time>
      </trkpt>
      <trkpt lat="43.50717" lon="6.94197">
        <ele>55.400155</ele>
        <time>2024-01-31T09:41:57.950Z</time>
      </trkpt>
      <trkpt lat="43.50706" lon="6.94207">
        <ele>55.423876</ele>
        <time>2024-01-31T09:41:59.955Z</time>
      </trkpt>
      <trkpt lat="43.50693" lon="6.94211">
        <ele>55.445609</ele>
        <time>2024-01-31T09:42:01.938Z</time>
      </trkpt>
      <trkpt lat="43.50684" lon="6.94208">
        <ele>55.462171</ele>
        <time>2024-01-31T09:42:03.937Z</time>
      </trkpt>
      <trkpt lat="43.50675" lon="6.94196">
        <ele>55.484453</ele>
        <time>2024-01-31T09:42:06.936Z</time>
      </trkpt>
      <trkpt lat="43.50669" lon="6.94184">
        <ele>55.50333</ele>
        <time>2024-01-31T09:42:09.941Z</time>
      </trkpt>
      <trkpt lat="43.50664" lon="6.94173">
        <ele>55.519093</ele>
        <time>2024-01-31T09:42:12.947Z</time>
      </trkpt>
      <trkpt lat="43.50659" lon="6.9416">
        <ele>55.537614</ele>
        <time>2024-01-31T09:42:16.958Z</time>
      </trkpt>
      <trkpt lat="43.50654" lon="6.94147">
        <ele>55.952076</ele>
        <time>2024-01-31T09:42:20.936Z</time>
      </trkpt>
      <trkpt lat="43.50648" lon="6.94134">
        <ele>56.901812</ele>
        <time>2024-01-31T09:42:24.938Z</time>
      </trkpt>
      <trkpt lat="43.50642" lon="6.94121">
        <ele>57.841777</ele>
        <time>2024-01-31T09:42:28.930Z</time>
      </trkpt>
      <trkpt lat="43.50638" lon="6.9411">
        <ele>58.640943</ele>
        <time>2024-01-31T09:42:32.964Z</time>
      </trkpt>
      <trkpt lat="43.5064" lon="6.94123">
        <ele>59.502253</ele>
        <time>2024-01-31T09:42:48.939Z</time>
      </trkpt>
      <trkpt lat="43.50646" lon="6.94139">
        <ele>60.612265</ele>
        <time>2024-01-31T09:42:51.943Z</time>
      </trkpt>
      <trkpt lat="43.50651" lon="6.94154">
        <ele>61.651556</ele>
        <time>2024-01-31T09:42:54.938Z</time>
      </trkpt>
      <trkpt lat="43.50656" lon="6.94166">
        <ele>62.48604</ele>
        <time>2024-01-31T09:42:59.934Z</time>
      </trkpt>
      <trkpt lat="43.50646" lon="6.94165">
        <ele>63.335812</ele>
        <time>2024-01-31T09:43:09.940Z</time>
      </trkpt>
      <trkpt lat="43.50636" lon="6.94162">
        <ele>64.162559</ele>
        <time>2024-01-31T09:43:20.931Z</time>
      </trkpt>
      <trkpt lat="43.5063" lon="6.9417">
        <ele>64.948437</ele>
        <time>2024-01-31T09:43:30.933Z</time>
      </trkpt>
      <trkpt lat="43.50636" lon="6.94181">
        <ele>65.79312</ele>
        <time>2024-01-31T09:43:38.920Z</time>
      </trkpt>
      <trkpt lat="43.50641" lon="6.94193">
        <ele>66.6463</ele>
        <time>2024-01-31T09:43:47.938Z</time>
      </trkpt>
      <trkpt lat="43.50645" lon="6.94205">
        <ele>67.484178</ele>
        <time>2024-01-31T09:43:54.924Z</time>
      </trkpt>
      <trkpt lat="43.50649" lon="6.94217">
        <ele>68.304209</ele>
        <time>2024-01-31T09:44:02.928Z</time>
      </trkpt>
      <trkpt lat="43.50652" lon="6.9423">
        <ele>69.163488</ele>
        <time>2024-01-31T09:44:12.931Z</time>
      </trkpt>
      <trkpt lat="43.50654" lon="6.94243">
        <ele>69.986507</ele>
        <time>2024-01-31T09:44:20.930Z</time>
      </trkpt>
      <trkpt lat="43.50655" lon="6.94257">
        <ele>70.842693</ele>
        <time>2024-01-31T09:44:29.939Z</time>
      </trkpt>
      <trkpt lat="43.50655" lon="6.94272">
        <ele>72.261863</ele>
        <time>2024-01-31T09:44:39.938Z</time>
      </trkpt>
      <trkpt lat="43.50656" lon="6.94286">
        <ele>73.51</ele>
        <time>2024-01-31T09:44:48.928Z</time>
      </trkpt>
      <trkpt lat="43.50655" lon="6.943">
        <ele>74.828049</ele>
        <time>2024-01-31T09:44:57.915Z</time>
      </trkpt>
      <trkpt lat="43.50653" lon="6.94313">
        <ele>76.062332</ele>
        <time>2024-01-31T09:45:05.927Z</time>
      </trkpt>
      <trkpt lat="43.50648" lon="6.94324">
        <ele>77.307026</ele>
        <time>2024-01-31T09:45:14.926Z</time>
      </trkpt>
      <trkpt lat="43.50641" lon="6.94333">
        <ele>78.496256</ele>
        <time>2024-01-31T09:45:23.931Z</time>
      </trkpt>
      <trkpt lat="43.50635" lon="6.94346">
        <ele>79.884338</ele>
        <time>2024-01-31T09:45:34.924Z</time>
      </trkpt>
      <trkpt lat="43.50635" lon="6.94352">
        <ele>80.474576</ele>
        <time>2024-01-31T09:46:38.069Z</time>
      </trkpt>
      <trkpt lat="43.50627" lon="6.9436">
        <ele>81.797448</ele>
        <time>2024-01-31T09:50:53.927Z</time>
      </trkpt>
      <trkpt lat="43.50621" lon="6.94371">
        <ele>83.086174</ele>
        <time>2024-01-31T09:51:04.925Z</time>
      </trkpt>
      <trkpt lat="43.50617" lon="6.94382">
        <ele>84.247553</ele>
        <time>2024-01-31T09:52:01.935Z</time>
      </trkpt>
      <trkpt lat="43.50616" lon="6.94395">
        <ele>85.44471</ele>
        <time>2024-01-31T09:52:09.930Z</time>
      </trkpt>
      <trkpt lat="43.50614" lon="6.94407">
        <ele>86.614352</ele>
        <time>2024-01-31T09:52:17.941Z</time>
      </trkpt>
      <trkpt lat="43.50611" lon="6.9442">
        <ele>87.85677</ele>
        <time>2024-01-31T09:52:26.930Z</time>
      </trkpt>
      <trkpt lat="43.50608" lon="6.94432">
        <ele>89.106333</ele>
        <time>2024-01-31T09:52:36.927Z</time>
      </trkpt>
      <trkpt lat="43.50604" lon="6.94445">
        <ele>90.354239</ele>
        <time>2024-01-31T09:52:45.937Z</time>
      </trkpt>
      <trkpt lat="43.50601" lon="6.94457">
        <ele>91.626586</ele>
        <time>2024-01-31T09:52:54.930Z</time>
      </trkpt>
      <trkpt lat="43.506" lon="6.94471">
        <ele>92.906065</ele>
        <time>2024-01-31T09:53:03.941Z</time>
      </trkpt>
      <trkpt lat="43.50597" lon="6.94484">
        <ele>94.136783</ele>
        <time>2024-01-31T09:53:14.941Z</time>
      </trkpt>
      <trkpt lat="43.50591" lon="6.94495">
        <ele>94.67082</ele>
        <time>2024-01-31T09:53:28.930Z</time>
      </trkpt>
      <trkpt lat="43.50583" lon="6.94498">
        <ele>95.16808</ele>
        <time>2024-01-31T09:54:10.934Z</time>
      </trkpt>
      <trkpt lat="43.50578" lon="6.94509">
        <ele>95.683567</ele>
        <time>2024-01-31T09:54:15.930Z</time>
      </trkpt>
      <trkpt lat="43.50571" lon="6.94521">
        <ele>96.301593</ele>
        <time>2024-01-31T09:54:19.930Z</time>
      </trkpt>
      <trkpt lat="43.50563" lon="6.94534">
        <ele>96.948178</ele>
        <time>2024-01-31T09:54:23.939Z</time>
      </trkpt>
      <trkpt lat="43.50556" lon="6.94547">
        <ele>97.591647</ele>
        <time>2024-01-31T09:54:27.931Z</time>
      </trkpt>
      <trkpt lat="43.5055" lon="6.94558">
        <ele>98.17992</ele>
        <time>2024-01-31T09:54:31.953Z</time>
      </trkpt>
      <trkpt lat="43.50542" lon="6.94571">
        <ele>98.821053</ele>
        <time>2024-01-31T09:54:35.924Z</time>
      </trkpt>
      <trkpt lat="43.50534" lon="6.94583">
        <ele>99.463242</ele>
        <time>2024-01-31T09:54:39.949Z</time>
      </trkpt>
      <trkpt lat="43.50528" lon="6.94595">
        <ele>100.06758</ele>
        <time>2024-01-31T09:54:43.940Z</time>
      </trkpt>
      <trkpt lat="43.50522" lon="6.94609">
        <ele>100.683279</ele>
        <time>2024-01-31T09:54:47.926Z</time>
      </trkpt>
      <trkpt lat="43.50519" lon="6.94621">
        <ele>101.187251</ele>
        <time>2024-01-31T09:54:50.925Z</time>
      </trkpt>
      <trkpt lat="43.50517" lon="6.94633">
        <ele>101.703982</ele>
        <time>2024-01-31T09:54:53.929Z</time>
      </trkpt>
      <trkpt lat="43.50517" lon="6.94647">
        <ele>102.236116</ele>
        <time>2024-01-31T09:54:56.931Z</time>
      </trkpt>
      <trkpt lat="43.50519" lon="6.9466">
        <ele>102.770598</ele>
        <time>2024-01-31T09:54:59.951Z</time>
      </trkpt>
      <trkpt lat="43.5052" lon="6.94674">
        <ele>103.321623</ele>
        <time>2024-01-31T09:55:02.931Z</time>
      </trkpt>
      <trkpt lat="43.50522" lon="6.94687">
        <ele>103.843504</ele>
        <time>2024-01-31T09:55:05.956Z</time>
      </trkpt>
      <trkpt lat="43.50522" lon="6.94699">
        <ele>104.291934</ele>
        <time>2024-01-31T09:55:08.920Z</time>
      </trkpt>
      <trkpt lat="43.50524" lon="6.94715">
        <ele>104.844473</ele>
        <time>2024-01-31T09:55:12.923Z</time>
      </trkpt>
      <trkpt lat="43.50524" lon="6.94732">
        <ele>105.414002</ele>
        <time>2024-01-31T09:55:16.945Z</time>
      </trkpt>
      <trkpt lat="43.50525" lon="6.94744">
        <ele>105.849945</ele>
        <time>2024-01-31T09:55:19.922Z</time>
      </trkpt>
      <trkpt lat="43.50526" lon="6.94759">
        <ele>106.376053</ele>
        <time>2024-01-31T09:55:23.931Z</time>
      </trkpt>
      <trkpt lat="43.50526" lon="6.94774">
        <ele>106.877714</ele>
        <time>2024-01-31T09:55:27.927Z</time>
      </trkpt>
      <trkpt lat="43.50526" lon="6.94788">
        <ele>107.377952</ele>
        <time>2024-01-31T09:55:31.940Z</time>
      </trkpt>
      <trkpt lat="43.50523" lon="6.94802">
        <ele>107.882924</ele>
        <time>2024-01-31T09:55:35.946Z</time>
      </trkpt>
      <trkpt lat="43.50518" lon="6.94815">
        <ele>108.384837</ele>
        <time>2024-01-31T09:55:39.951Z</time>
      </trkpt>
      <trkpt lat="43.50512" lon="6.94826">
        <ele>108.85729</ele>
        <time>2024-01-31T09:55:43.947Z</time>
      </trkpt>
      <trkpt lat="43.50502" lon="6.94835">
        <ele>109.399879</ele>
        <time>2024-01-31T09:55:47.947Z</time>
      </trkpt>
      <trkpt lat="43.50494" lon="6.94844">
        <ele>109.913857</ele>
        <time>2024-01-31T09:55:51.952Z</time>
      </trkpt>
      <trkpt lat="43.50484" lon="6.94853">
        <ele>110.460145</ele>
        <time>2024-01-31T09:55:55.952Z</time>
      </trkpt>
      <trkpt lat="43.50476" lon="6.94862">
        <ele>110.983076</ele>
        <time>2024-01-31T09:55:59.944Z</time>
      </trkpt>
      <trkpt lat="43.50468" lon="6.9487">
        <ele>111.459698</ele>
        <time>2024-01-31T09:56:03.933Z</time>
      </trkpt>
      <trkpt lat="43.50462" lon="6.9488">
        <ele>111.896418</ele>
        <time>2024-01-31T09:56:07.926Z</time>
      </trkpt>
      <trkpt lat="43.50458" lon="6.94893">
        <ele>112.380403</ele>
        <time>2024-01-31T09:56:11.932Z</time>
      </trkpt>
      <trkpt lat="43.50457" lon="6.94909">
        <ele>112.977736</ele>
        <time>2024-01-31T09:56:15.947Z</time>
      </trkpt>
      <trkpt lat="43.50461" lon="6.94923">
        <ele>113.560415</ele>
        <time>2024-01-31T09:56:19.955Z</time>
      </trkpt>
      <trkpt lat="43.50468" lon="6.94934">
        <ele>114.142865</ele>
        <time>2024-01-31T09:56:23.947Z</time>
      </trkpt>
      <trkpt lat="43.50477" lon="6.94945">
        <ele>114.783752</ele>
        <time>2024-01-31T09:56:27.935Z</time>
      </trkpt>
      <trkpt lat="43.50486" lon="6.94953">
        <ele>115.400289</ele>
        <time>2024-01-31T09:56:31.941Z</time>
      </trkpt>
      <trkpt lat="43.50493" lon="6.94964">
        <ele>115.957517</ele>
        <time>2024-01-31T09:56:35.929Z</time>
      </trkpt>
      <trkpt lat="43.50499" lon="6.94976">
        <ele>116.503135</ele>
        <time>2024-01-31T09:56:39.927Z</time>
      </trkpt>
      <trkpt lat="43.505" lon="6.9499">
        <ele>117.062519</ele>
        <time>2024-01-31T09:56:43.945Z</time>
      </trkpt>
      <trkpt lat="43.505" lon="6.95004">
        <ele>117.605728</ele>
        <time>2024-01-31T09:56:47.934Z</time>
      </trkpt>
      <trkpt lat="43.50499" lon="6.95019">
        <ele>118.189494</ele>
        <time>2024-01-31T09:56:51.927Z</time>
      </trkpt>
      <trkpt lat="43.50499" lon="6.95033">
        <ele>118.744343</ele>
        <time>2024-01-31T09:56:55.951Z</time>
      </trkpt>
      <trkpt lat="43.50499" lon="6.95047">
        <ele>119.288112</ele>
        <time>2024-01-31T09:56:59.942Z</time>
      </trkpt>
      <trkpt lat="43.50498" lon="6.9506">
        <ele>119.791733</ele>
        <time>2024-01-31T09:57:03.946Z</time>
      </trkpt>
      <trkpt lat="43.50497" lon="6.95072">
        <ele>120.283095</ele>
        <time>2024-01-31T09:57:07.949Z</time>
      </trkpt>
      <trkpt lat="43.50497" lon="6.95085">
        <ele>120.802754</ele>
        <time>2024-01-31T09:57:11.922Z</time>
      </trkpt>
      <trkpt lat="43.50496" lon="6.95098">
        <ele>121.299699</ele>
        <time>2024-01-31T09:57:15.941Z</time>
      </trkpt>
      <trkpt lat="43.50497" lon="6.95111">
        <ele>121.788575</ele>
        <time>2024-01-31T09:57:19.938Z</time>
      </trkpt>
      <trkpt lat="43.50497" lon="6.95124">
        <ele>122.256186</ele>
        <time>2024-01-31T09:57:23.951Z</time>
      </trkpt>
      <trkpt lat="43.50499" lon="6.95138">
        <ele>122.48929</ele>
        <time>2024-01-31T09:57:27.937Z</time>
      </trkpt>
      <trkpt lat="43.50501" lon="6.95152">
        <ele>122.725399</ele>
        <time>2024-01-31T09:57:31.941Z</time>
      </trkpt>
      <trkpt lat="43.50502" lon="6.95166">
        <ele>122.952945</ele>
        <time>2024-01-31T09:57:35.917Z</time>
      </trkpt>
      <trkpt lat="43.50504" lon="6.9518">
        <ele>123.191845</ele>
        <time>2024-01-31T09:57:39.934Z</time>
      </trkpt>
      <trkpt lat="43.50506" lon="6.95195">
        <ele>123.440285</ele>
        <time>2024-01-31T09:57:43.923Z</time>
      </trkpt>
      <trkpt lat="43.50504" lon="6.9521">
        <ele>123.686497</ele>
        <time>2024-01-31T09:57:47.915Z</time>
      </trkpt>
      <trkpt lat="43.50501" lon="6.95224">
        <ele>123.923573</ele>
        <time>2024-01-31T09:57:51.920Z</time>
      </trkpt>
      <trkpt lat="43.50496" lon="6.95236">
        <ele>124.162021</ele>
        <time>2024-01-31T09:57:55.943Z</time>
      </trkpt>
      <trkpt lat="43.5049" lon="6.95247">
        <ele>124.397347</ele>
        <time>2024-01-31T09:57:59.936Z</time>
      </trkpt>
      <trkpt lat="43.50484" lon="6.95258">
        <ele>124.628635</ele>
        <time>2024-01-31T09:58:03.939Z</time>
      </trkpt>
      <trkpt lat="43.50477" lon="6.95269">
        <ele>124.858366</ele>
        <time>2024-01-31T09:58:07.931Z</time>
      </trkpt>
      <trkpt lat="43.50471" lon="6.95279">
        <ele>125.071436</ele>
        <time>2024-01-31T09:58:11.939Z</time>
      </trkpt>
      <trkpt lat="43.50467" lon="6.95291">
        <ele>125.28983</ele>
        <time>2024-01-31T09:58:15.929Z</time>
      </trkpt>
      <trkpt lat="43.50459" lon="6.95302">
        <ele>125.551979</ele>
        <time>2024-01-31T09:58:19.937Z</time>
      </trkpt>
      <trkpt lat="43.50451" lon="6.95313">
        <ele>125.800916</ele>
        <time>2024-01-31T09:58:23.952Z</time>
      </trkpt>
      <trkpt lat="43.50443" lon="6.95322">
        <ele>126.039611</ele>
        <time>2024-01-31T09:58:27.930Z</time>
      </trkpt>
      <trkpt lat="43.50435" lon="6.95329">
        <ele>126.258946</ele>
        <time>2024-01-31T09:58:31.921Z</time>
      </trkpt>
      <trkpt lat="43.50426" lon="6.95336">
        <ele>126.696192</ele>
        <time>2024-01-31T09:58:35.941Z</time>
      </trkpt>
      <trkpt lat="43.50417" lon="6.95341">
        <ele>127.168749</ele>
        <time>2024-01-31T09:58:39.937Z</time>
      </trkpt>
      <trkpt lat="43.50406" lon="6.95341">
        <ele>127.66948</ele>
        <time>2024-01-31T09:58:43.942Z</time>
      </trkpt>
      <trkpt lat="43.50395" lon="6.95343">
        <ele>128.182635</ele>
        <time>2024-01-31T09:58:47.929Z</time>
      </trkpt>
      <trkpt lat="43.50384" lon="6.95342">
        <ele>128.702293</ele>
        <time>2024-01-31T09:58:51.950Z</time>
      </trkpt>
      <trkpt lat="43.50374" lon="6.9534">
        <ele>129.179621</ele>
        <time>2024-01-31T09:58:55.934Z</time>
      </trkpt>
      <trkpt lat="43.50363" lon="6.95339">
        <ele>129.691147</ele>
        <time>2024-01-31T09:58:59.988Z</time>
      </trkpt>
      <trkpt lat="43.50352" lon="6.95338">
        <ele>130.193943</ele>
        <time>2024-01-31T09:59:03.949Z</time>
      </trkpt>
      <trkpt lat="43.50342" lon="6.95338">
        <ele>130.680563</ele>
        <time>2024-01-31T09:59:07.935Z</time>
      </trkpt>
      <trkpt lat="43.50331" lon="6.95337">
        <ele>131.163162</ele>
        <time>2024-01-31T09:59:11.937Z</time>
      </trkpt>
      <trkpt lat="43.50321" lon="6.95337">
        <ele>131.630975</ele>
        <time>2024-01-31T09:59:15.953Z</time>
      </trkpt>
      <trkpt lat="43.50312" lon="6.95335">
        <ele>132.096596</ele>
        <time>2024-01-31T09:59:19.942Z</time>
      </trkpt>
      <trkpt lat="43.50302" lon="6.9533">
        <ele>132.573511</ele>
        <time>2024-01-31T09:59:23.959Z</time>
      </trkpt>
      <trkpt lat="43.50293" lon="6.95325">
        <ele>133.013149</ele>
        <time>2024-01-31T09:59:27.938Z</time>
      </trkpt>
      <trkpt lat="43.50285" lon="6.95317">
        <ele>133.492853</ele>
        <time>2024-01-31T09:59:32.950Z</time>
      </trkpt>
      <trkpt lat="43.50277" lon="6.9531">
        <ele>133.941642</ele>
        <time>2024-01-31T09:59:37.937Z</time>
      </trkpt>
      <trkpt lat="43.50269" lon="6.953">
        <ele>134.413528</ele>
        <time>2024-01-31T09:59:42.923Z</time>
      </trkpt>
      <trkpt lat="43.50262" lon="6.95293">
        <ele>134.834217</ele>
        <time>2024-01-31T09:59:47.054Z</time>
      </trkpt>
      <trkpt lat="43.50252" lon="6.95291">
        <ele>135.327617</ele>
        <time>2024-01-31T09:59:50.927Z</time>
      </trkpt>
      <trkpt lat="43.50241" lon="6.95293">
        <ele>135.802683</ele>
        <time>2024-01-31T09:59:54.931Z</time>
      </trkpt>
      <trkpt lat="43.50232" lon="6.953">
        <ele>136.306556</ele>
        <time>2024-01-31T09:59:58.926Z</time>
      </trkpt>
      <trkpt lat="43.50223" lon="6.95308">
        <ele>136.808659</ele>
        <time>2024-01-31T10:00:02.940Z</time>
      </trkpt>
      <trkpt lat="43.50214" lon="6.95315">
        <ele>137.282028</ele>
        <time>2024-01-31T10:00:06.945Z</time>
      </trkpt>
      <trkpt lat="43.50205" lon="6.9532">
        <ele>137.713215</ele>
        <time>2024-01-31T10:00:10.935Z</time>
      </trkpt>
      <trkpt lat="43.50196" lon="6.95323">
        <ele>138.133663</ele>
        <time>2024-01-31T10:00:14.951Z</time>
      </trkpt>
      <trkpt lat="43.50186" lon="6.95324">
        <ele>138.588187</ele>
        <time>2024-01-31T10:00:18.929Z</time>
      </trkpt>
      <trkpt lat="43.50177" lon="6.95324">
        <ele>139.031689</ele>
        <time>2024-01-31T10:00:22.941Z</time>
      </trkpt>
      <trkpt lat="43.50168" lon="6.95322">
        <ele>139.451982</ele>
        <time>2024-01-31T10:00:26.947Z</time>
      </trkpt>
      <trkpt lat="43.50159" lon="6.95319">
        <ele>139.896265</ele>
        <time>2024-01-31T10:00:30.930Z</time>
      </trkpt>
      <trkpt lat="43.5015" lon="6.95315">
        <ele>140.321023</ele>
        <time>2024-01-31T10:00:34.935Z</time>
      </trkpt>
      <trkpt lat="43.50141" lon="6.9531">
        <ele>140.752212</ele>
        <time>2024-01-31T10:00:38.933Z</time>
      </trkpt>
      <trkpt lat="43.50133" lon="6.95304">
        <ele>141.184269</ele>
        <time>2024-01-31T10:00:42.931Z</time>
      </trkpt>
      <trkpt lat="43.50123" lon="6.95298">
        <ele>141.682909</ele>
        <time>2024-01-31T10:00:47.934Z</time>
      </trkpt>
      <trkpt lat="43.50114" lon="6.95292">
        <ele>142.136455</ele>
        <time>2024-01-31T10:00:51.935Z</time>
      </trkpt>
      <trkpt lat="43.50105" lon="6.95286">
        <ele>142.597129</ele>
        <time>2024-01-31T10:00:55.947Z</time>
      </trkpt>
      <trkpt lat="43.50097" lon="6.95281">
        <ele>143.011354</ele>
        <time>2024-01-31T10:00:59.951Z</time>
      </trkpt>
      <trkpt lat="43.50089" lon="6.95275">
        <ele>143.133939</ele>
        <time>2024-01-31T10:01:03.945Z</time>
      </trkpt>
      <trkpt lat="43.50078" lon="6.95267">
        <ele>143.272817</ele>
        <time>2024-01-31T10:01:07.949Z</time>
      </trkpt>
      <trkpt lat="43.5007" lon="6.9526">
        <ele>143.384622</ele>
        <time>2024-01-31T10:01:10.938Z</time>
      </trkpt>
      <trkpt lat="43.50061" lon="6.95252">
        <ele>143.501376</ele>
        <time>2024-01-31T10:01:13.930Z</time>
      </trkpt>
      <trkpt lat="43.50051" lon="6.95245">
        <ele>143.633989</ele>
        <time>2024-01-31T10:01:16.936Z</time>
      </trkpt>
      <trkpt lat="43.50042" lon="6.95236">
        <ele>143.762851</ele>
        <time>2024-01-31T10:01:19.951Z</time>
      </trkpt>
      <trkpt lat="43.50034" lon="6.95225">
        <ele>143.890786</ele>
        <time>2024-01-31T10:01:22.930Z</time>
      </trkpt>
      <trkpt lat="43.50025" lon="6.95215">
        <ele>144.023828</ele>
        <time>2024-01-31T10:01:25.944Z</time>
      </trkpt>
      <trkpt lat="43.50017" lon="6.95202">
        <ele>144.164345</ele>
        <time>2024-01-31T10:01:28.950Z</time>
      </trkpt>
      <trkpt lat="43.50009" lon="6.95188">
        <ele>144.309603</ele>
        <time>2024-01-31T10:01:31.948Z</time>
      </trkpt>
      <trkpt lat="43.50002" lon="6.95173">
        <ele>144.463033</ele>
        <time>2024-01-31T10:01:34.934Z</time>
      </trkpt>
      <trkpt lat="43.49994" lon="6.95158">
        <ele>144.617846</ele>
        <time>2024-01-31T10:01:37.938Z</time>
      </trkpt>
      <trkpt lat="43.49989" lon="6.95147">
        <ele>144.723239</ele>
        <time>2024-01-31T10:01:39.949Z</time>
      </trkpt>
      <trkpt lat="43.49982" lon="6.95139">
        <ele>144.827441</ele>
        <time>2024-01-31T10:01:41.938Z</time>
      </trkpt>
      <trkpt lat="43.49975" lon="6.95132">
        <ele>144.932745</ele>
        <time>2024-01-31T10:01:43.932Z</time>
      </trkpt>
      <trkpt lat="43.49966" lon="6.95129">
        <ele>145.039007</ele>
        <time>2024-01-31T10:01:45.930Z</time>
      </trkpt>
      <trkpt lat="43.49956" lon="6.95129">
        <ele>145.060527</ele>
        <time>2024-01-31T10:01:47.942Z</time>
      </trkpt>
      <trkpt lat="43.49946" lon="6.95129">
        <ele>144.982702</ele>
        <time>2024-01-31T10:01:49.932Z</time>
      </trkpt>
      <trkpt lat="43.49936" lon="6.95127">
        <ele>144.897036</ele>
        <time>2024-01-31T10:01:51.934Z</time>
      </trkpt>
      <trkpt lat="43.49926" lon="6.95122">
        <ele>144.811594</ele>
        <time>2024-01-31T10:01:53.926Z</time>
      </trkpt>
      <trkpt lat="43.49918" lon="6.95115">
        <ele>144.732122</ele>
        <time>2024-01-31T10:01:55.939Z</time>
      </trkpt>
      <trkpt lat="43.49911" lon="6.95106">
        <ele>144.653348</ele>
        <time>2024-01-31T10:01:57.949Z</time>
      </trkpt>
      <trkpt lat="43.49904" lon="6.95096">
        <ele>144.577797</ele>
        <time>2024-01-31T10:01:59.945Z</time>
      </trkpt>
      <trkpt lat="43.49896" lon="6.95083">
        <ele>144.47253</ele>
        <time>2024-01-31T10:02:02.938Z</time>
      </trkpt>
      <trkpt lat="43.49887" lon="6.9507">
        <ele>144.369851</ele>
        <time>2024-01-31T10:02:05.942Z</time>
      </trkpt>
      <trkpt lat="43.49879" lon="6.95056">
        <ele>144.263962</ele>
        <time>2024-01-31T10:02:08.950Z</time>
      </trkpt>
      <trkpt lat="43.49874" lon="6.95046">
        <ele>144.189739</ele>
        <time>2024-01-31T10:02:10.949Z</time>
      </trkpt>
      <trkpt lat="43.4987" lon="6.95034">
        <ele>144.113953</ele>
        <time>2024-01-31T10:02:12.925Z</time>
      </trkpt>
      <trkpt lat="43.49868" lon="6.95022">
        <ele>144.039623</ele>
        <time>2024-01-31T10:02:14.932Z</time>
      </trkpt>
      <trkpt lat="43.49869" lon="6.95008">
        <ele>143.960206</ele>
        <time>2024-01-31T10:02:16.921Z</time>
      </trkpt>
      <trkpt lat="43.4987" lon="6.94995">
        <ele>143.882375</ele>
        <time>2024-01-31T10:02:18.946Z</time>
      </trkpt>
      <trkpt lat="43.49871" lon="6.94982">
        <ele>143.805707</ele>
        <time>2024-01-31T10:02:20.931Z</time>
      </trkpt>
      <trkpt lat="43.4987" lon="6.9497">
        <ele>143.731363</ele>
        <time>2024-01-31T10:02:22.941Z</time>
      </trkpt>
      <trkpt lat="43.49865" lon="6.94957">
        <ele>143.650544</ele>
        <time>2024-01-31T10:02:24.932Z</time>
      </trkpt>
      <trkpt lat="43.4986" lon="6.94945">
        <ele>143.601545</ele>
        <time>2024-01-31T10:02:26.934Z</time>
      </trkpt>
      <trkpt lat="43.49849" lon="6.94935">
        <ele>143.542866</ele>
        <time>2024-01-31T10:02:29.938Z</time>
      </trkpt>
      <trkpt lat="43.4984" lon="6.94929">
        <ele>143.49958</ele>
        <time>2024-01-31T10:02:31.935Z</time>
      </trkpt>
      <trkpt lat="43.49831" lon="6.94924">
        <ele>143.457049</ele>
        <time>2024-01-31T10:02:33.952Z</time>
      </trkpt>
      <trkpt lat="43.49821" lon="6.94919">
        <ele>143.413599</ele>
        <time>2024-01-31T10:02:35.957Z</time>
      </trkpt>
      <trkpt lat="43.49812" lon="6.94913">
        <ele>143.368742</ele>
        <time>2024-01-31T10:02:37.957Z</time>
      </trkpt>
      <trkpt lat="43.49803" lon="6.94907">
        <ele>143.324541</ele>
        <time>2024-01-31T10:02:39.919Z</time>
      </trkpt>
      <trkpt lat="43.49795" lon="6.94898">
        <ele>143.27989</ele>
        <time>2024-01-31T10:02:41.928Z</time>
      </trkpt>
      <trkpt lat="43.49788" lon="6.94887">
        <ele>143.236139</ele>
        <time>2024-01-31T10:02:43.952Z</time>
      </trkpt>
      <trkpt lat="43.49782" lon="6.94876">
        <ele>143.193516</ele>
        <time>2024-01-31T10:02:45.929Z</time>
      </trkpt>
      <trkpt lat="43.49775" lon="6.94866">
        <ele>143.150063</ele>
        <time>2024-01-31T10:02:47.943Z</time>
      </trkpt>
      <trkpt lat="43.49769" lon="6.94856">
        <ele>143.10744</ele>
        <time>2024-01-31T10:02:49.956Z</time>
      </trkpt>
      <trkpt lat="43.49763" lon="6.94844">
        <ele>143.063774</ele>
        <time>2024-01-31T10:02:51.956Z</time>
      </trkpt>
      <trkpt lat="43.49758" lon="6.94833">
        <ele>143.023967</ele>
        <time>2024-01-31T10:02:53.938Z</time>
      </trkpt>
      <trkpt lat="43.49752" lon="6.94822">
        <ele>142.980099</ele>
        <time>2024-01-31T10:02:55.948Z</time>
      </trkpt>
      <trkpt lat="43.49746" lon="6.9481">
        <ele>142.935479</ele>
        <time>2024-01-31T10:02:57.963Z</time>
      </trkpt>
      <trkpt lat="43.49741" lon="6.948">
        <ele>142.893901</ele>
        <time>2024-01-31T10:02:59.937Z</time>
      </trkpt>
      <trkpt lat="43.49735" lon="6.94788">
        <ele>142.836162</ele>
        <time>2024-01-31T10:03:01.950Z</time>
      </trkpt>
      <trkpt lat="43.49729" lon="6.94778">
        <ele>142.74548</ele>
        <time>2024-01-31T10:03:03.939Z</time>
      </trkpt>
      <trkpt lat="43.49723" lon="6.94767">
        <ele>142.65761</ele>
        <time>2024-01-31T10:03:05.956Z</time>
      </trkpt>
      <trkpt lat="43.49717" lon="6.94756">
        <ele>142.569717</ele>
        <time>2024-01-31T10:03:07.961Z</time>
      </trkpt>
      <trkpt lat="43.49712" lon="6.94746">
        <ele>142.482924</ele>
        <time>2024-01-31T10:03:09.936Z</time>
      </trkpt>
      <trkpt lat="43.49706" lon="6.94736">
        <ele>142.396612</ele>
        <time>2024-01-31T10:03:11.959Z</time>
      </trkpt>
      <trkpt lat="43.497" lon="6.94725">
        <ele>142.307089</ele>
        <time>2024-01-31T10:03:13.956Z</time>
      </trkpt>
      <trkpt lat="43.49695" lon="6.94714">
        <ele>142.219733</ele>
        <time>2024-01-31T10:03:15.940Z</time>
      </trkpt>
      <trkpt lat="43.4969" lon="6.94703">
        <ele>142.13613</ele>
        <time>2024-01-31T10:03:17.941Z</time>
      </trkpt>
      <trkpt lat="43.49685" lon="6.94693">
        <ele>142.048225</ele>
        <time>2024-01-31T10:03:19.952Z</time>
      </trkpt>
      <trkpt lat="43.49679" lon="6.94682">
        <ele>141.959251</ele>
        <time>2024-01-31T10:03:21.938Z</time>
      </trkpt>
      <trkpt lat="43.49673" lon="6.94671">
        <ele>141.867527</ele>
        <time>2024-01-31T10:03:23.953Z</time>
      </trkpt>
      <trkpt lat="43.49665" lon="6.94662">
        <ele>141.776487</ele>
        <time>2024-01-31T10:03:25.933Z</time>
      </trkpt>
      <trkpt lat="43.49658" lon="6.94654">
        <ele>141.687564</ele>
        <time>2024-01-31T10:03:27.946Z</time>
      </trkpt>
      <trkpt lat="43.49649" lon="6.94647">
        <ele>141.595407</ele>
        <time>2024-01-31T10:03:29.950Z</time>
      </trkpt>
      <trkpt lat="43.49639" lon="6.94644">
        <ele>141.504069</ele>
        <time>2024-01-31T10:03:31.927Z</time>
      </trkpt>
      <trkpt lat="43.4963" lon="6.94641">
        <ele>141.415631</ele>
        <time>2024-01-31T10:03:33.934Z</time>
      </trkpt>
      <trkpt lat="43.4962" lon="6.9464">
        <ele>141.329413</ele>
        <time>2024-01-31T10:03:35.921Z</time>
      </trkpt>
      <trkpt lat="43.49611" lon="6.94635">
        <ele>141.23715</ele>
        <time>2024-01-31T10:03:37.921Z</time>
      </trkpt>
      <trkpt lat="43.49603" lon="6.94627">
        <ele>141.172945</ele>
        <time>2024-01-31T10:03:39.939Z</time>
      </trkpt>
      <trkpt lat="43.49598" lon="6.94617">
        <ele>141.115669</ele>
        <time>2024-01-31T10:03:41.939Z</time>
      </trkpt>
      <trkpt lat="43.49594" lon="6.94604">
        <ele>141.05943</ele>
        <time>2024-01-31T10:03:43.919Z</time>
      </trkpt>
      <trkpt lat="43.49593" lon="6.94591">
        <ele>141.004003</ele>
        <time>2024-01-31T10:03:45.927Z</time>
      </trkpt>
      <trkpt lat="43.49592" lon="6.94579">
        <ele>140.948481</ele>
        <time>2024-01-31T10:03:47.941Z</time>
      </trkpt>
      <trkpt lat="43.49591" lon="6.94566">
        <ele>140.894668</ele>
        <time>2024-01-31T10:03:49.933Z</time>
      </trkpt>
      <trkpt lat="43.49591" lon="6.94548">
        <ele>140.817906</ele>
        <time>2024-01-31T10:03:52.930Z</time>
      </trkpt>
      <trkpt lat="43.4959" lon="6.94532">
        <ele>140.748557</ele>
        <time>2024-01-31T10:03:55.955Z</time>
      </trkpt>
      <trkpt lat="43.49588" lon="6.94517">
        <ele>140.682003</ele>
        <time>2024-01-31T10:03:58.950Z</time>
      </trkpt>
      <trkpt lat="43.4958" lon="6.94505">
        <ele>140.610763</ele>
        <time>2024-01-31T10:04:01.926Z</time>
      </trkpt>
      <trkpt lat="43.49571" lon="6.94499">
        <ele>140.553075</ele>
        <time>2024-01-31T10:04:03.930Z</time>
      </trkpt>
      <trkpt lat="43.49561" lon="6.94498">
        <ele>140.493214</ele>
        <time>2024-01-31T10:04:05.928Z</time>
      </trkpt>
      <trkpt lat="43.4955" lon="6.945">
        <ele>140.43081</ele>
        <time>2024-01-31T10:04:07.925Z</time>
      </trkpt>
      <trkpt lat="43.4954" lon="6.94503">
        <ele>140.368664</ele>
        <time>2024-01-31T10:04:09.929Z</time>
      </trkpt>
      <trkpt lat="43.49529" lon="6.94505">
        <ele>140.30509</ele>
        <time>2024-01-31T10:04:11.958Z</time>
      </trkpt>
      <trkpt lat="43.49518" lon="6.94506">
        <ele>140.239421</ele>
        <time>2024-01-31T10:04:13.948Z</time>
      </trkpt>
      <trkpt lat="43.49508" lon="6.94505">
        <ele>140.177904</ele>
        <time>2024-01-31T10:04:15.951Z</time>
      </trkpt>
      <trkpt lat="43.49498" lon="6.94502">
        <ele>140.095914</ele>
        <time>2024-01-31T10:04:17.932Z</time>
      </trkpt>
      <trkpt lat="43.49489" lon="6.94496">
        <ele>139.989325</ele>
        <time>2024-01-31T10:04:19.927Z</time>
      </trkpt>
      <trkpt lat="43.49481" lon="6.9449">
        <ele>139.884606</ele>
        <time>2024-01-31T10:04:21.937Z</time>
      </trkpt>
      <trkpt lat="43.49474" lon="6.94482">
        <ele>139.785452</ele>
        <time>2024-01-31T10:04:23.933Z</time>
      </trkpt>
      <trkpt lat="43.49468" lon="6.94473">
        <ele>139.687394</ele>
        <time>2024-01-31T10:04:25.957Z</time>
      </trkpt>
      <trkpt lat="43.49461" lon="6.94463">
        <ele>139.58585</ele>
        <time>2024-01-31T10:04:27.945Z</time>
      </trkpt>
      <trkpt lat="43.49455" lon="6.94454">
        <ele>139.485541</ele>
        <time>2024-01-31T10:04:29.952Z</time>
      </trkpt>
      <trkpt lat="43.49443" lon="6.94444">
        <ele>139.339657</ele>
        <time>2024-01-31T10:04:32.925Z</time>
      </trkpt>
      <trkpt lat="43.49435" lon="6.94442">
        <ele>139.241314</ele>
        <time>2024-01-31T10:04:34.925Z</time>
      </trkpt>
      <trkpt lat="43.49425" lon="6.94442">
        <ele>139.140592</ele>
        <time>2024-01-31T10:04:36.919Z</time>
      </trkpt>
      <trkpt lat="43.49416" lon="6.94446">
        <ele>139.037175</ele>
        <time>2024-01-31T10:04:38.925Z</time>
      </trkpt>
      <trkpt lat="43.49407" lon="6.94451">
        <ele>138.933116</ele>
        <time>2024-01-31T10:04:40.922Z</time>
      </trkpt>
      <trkpt lat="43.49398" lon="6.94458">
        <ele>138.817389</ele>
        <time>2024-01-31T10:04:42.929Z</time>
      </trkpt>
      <trkpt lat="43.4939" lon="6.94467">
        <ele>138.705829</ele>
        <time>2024-01-31T10:04:44.933Z</time>
      </trkpt>
      <trkpt lat="43.49382" lon="6.94475">
        <ele>138.59828</ele>
        <time>2024-01-31T10:04:46.942Z</time>
      </trkpt>
      <trkpt lat="43.49374" lon="6.94483">
        <ele>138.491679</ele>
        <time>2024-01-31T10:04:48.940Z</time>
      </trkpt>
      <trkpt lat="43.49365" lon="6.94491">
        <ele>138.380685</ele>
        <time>2024-01-31T10:04:50.941Z</time>
      </trkpt>
      <trkpt lat="43.49356" lon="6.94496">
        <ele>138.274757</ele>
        <time>2024-01-31T10:04:52.950Z</time>
      </trkpt>
      <trkpt lat="43.49347" lon="6.94501">
        <ele>138.18667</ele>
        <time>2024-01-31T10:04:54.938Z</time>
      </trkpt>
      <trkpt lat="43.49338" lon="6.94504">
        <ele>138.138274</ele>
        <time>2024-01-31T10:04:56.923Z</time>
      </trkpt>
      <trkpt lat="43.49328" lon="6.94508">
        <ele>138.090883</ele>
        <time>2024-01-31T10:04:58.933Z</time>
      </trkpt>
      <trkpt lat="43.49315" lon="6.94514">
        <ele>138.023802</ele>
        <time>2024-01-31T10:05:01.953Z</time>
      </trkpt>
      <trkpt lat="43.49306" lon="6.94516">
        <ele>137.977201</ele>
        <time>2024-01-31T10:05:03.936Z</time>
      </trkpt>
      <trkpt lat="43.49295" lon="6.94517">
        <ele>137.924521</ele>
        <time>2024-01-31T10:05:05.932Z</time>
      </trkpt>
      <trkpt lat="43.49285" lon="6.94515">
        <ele>137.877921</ele>
        <time>2024-01-31T10:05:07.942Z</time>
      </trkpt>
      <trkpt lat="43.49276" lon="6.94512">
        <ele>137.830735</ele>
        <time>2024-01-31T10:05:09.931Z</time>
      </trkpt>
      <trkpt lat="43.49267" lon="6.94506">
        <ele>137.783732</ele>
        <time>2024-01-31T10:05:11.924Z</time>
      </trkpt>
      <trkpt lat="43.49259" lon="6.945">
        <ele>137.736447</ele>
        <time>2024-01-31T10:05:13.936Z</time>
      </trkpt>
      <trkpt lat="43.49251" lon="6.94491">
        <ele>137.688238</ele>
        <time>2024-01-31T10:05:15.942Z</time>
      </trkpt>
      <trkpt lat="43.49245" lon="6.94481">
        <ele>137.642534</ele>
        <time>2024-01-31T10:05:17.934Z</time>
      </trkpt>
      <trkpt lat="43.49241" lon="6.94469">
        <ele>137.595571</ele>
        <time>2024-01-31T10:05:19.938Z</time>
      </trkpt>
      <trkpt lat="43.49236" lon="6.94452">
        <ele>137.531761</ele>
        <time>2024-01-31T10:05:22.914Z</time>
      </trkpt>
      <trkpt lat="43.49231" lon="6.94441">
        <ele>137.487893</ele>
        <time>2024-01-31T10:05:24.954Z</time>
      </trkpt>
      <trkpt lat="43.49226" lon="6.94425">
        <ele>137.422234</ele>
        <time>2024-01-31T10:05:27.940Z</time>
      </trkpt>
      <trkpt lat="43.49222" lon="6.94413">
        <ele>137.377115</ele>
        <time>2024-01-31T10:05:29.944Z</time>
      </trkpt>
      <trkpt lat="43.49218" lon="6.94401">
        <ele>137.332914</ele>
        <time>2024-01-31T10:05:31.937Z</time>
      </trkpt>
      <trkpt lat="43.49214" lon="6.9439">
        <ele>137.214105</ele>
        <time>2024-01-31T10:05:33.933Z</time>
      </trkpt>
      <trkpt lat="43.4921" lon="6.94378">
        <ele>137.076787</ele>
        <time>2024-01-31T10:05:35.934Z</time>
      </trkpt>
      <trkpt lat="43.49207" lon="6.94365">
        <ele>136.931076</ele>
        <time>2024-01-31T10:05:37.939Z</time>
      </trkpt>
      <trkpt lat="43.49204" lon="6.94352">
        <ele>136.780902</ele>
        <time>2024-01-31T10:05:39.948Z</time>
      </trkpt>
      <trkpt lat="43.49198" lon="6.9434">
        <ele>136.628523</ele>
        <time>2024-01-31T10:05:41.953Z</time>
      </trkpt>
      <trkpt lat="43.49189" lon="6.94331">
        <ele>136.474409</ele>
        <time>2024-01-31T10:05:43.924Z</time>
      </trkpt>
      <trkpt lat="43.49181" lon="6.94322">
        <ele>136.322419</ele>
        <time>2024-01-31T10:05:45.927Z</time>
      </trkpt>
      <trkpt lat="43.49173" lon="6.94314">
        <ele>136.17115</ele>
        <time>2024-01-31T10:05:47.943Z</time>
      </trkpt>
      <trkpt lat="43.49164" lon="6.94305">
        <ele>136.013856</ele>
        <time>2024-01-31T10:05:49.938Z</time>
      </trkpt>
      <trkpt lat="43.49157" lon="6.94295">
        <ele>135.868886</ele>
        <time>2024-01-31T10:05:51.940Z</time>
      </trkpt>
      <trkpt lat="43.49149" lon="6.94287">
        <ele>135.719418</ele>
        <time>2024-01-31T10:05:53.935Z</time>
      </trkpt>
      <trkpt lat="43.49139" lon="6.94282">
        <ele>135.570424</ele>
        <time>2024-01-31T10:05:55.930Z</time>
      </trkpt>
      <trkpt lat="43.49129" lon="6.9428">
        <ele>135.423135</ele>
        <time>2024-01-31T10:05:57.926Z</time>
      </trkpt>
      <trkpt lat="43.49119" lon="6.9428">
        <ele>135.274453</ele>
        <time>2024-01-31T10:05:59.941Z</time>
      </trkpt>
      <trkpt lat="43.49109" lon="6.94278">
        <ele>135.130612</ele>
        <time>2024-01-31T10:06:01.947Z</time>
      </trkpt>
      <trkpt lat="43.49099" lon="6.94276">
        <ele>134.97712</ele>
        <time>2024-01-31T10:06:03.942Z</time>
      </trkpt>
      <trkpt lat="43.49088" lon="6.94273">
        <ele>134.821795</ele>
        <time>2024-01-31T10:06:05.942Z</time>
      </trkpt>
      <trkpt lat="43.4908" lon="6.94265">
        <ele>134.673169</ele>
        <time>2024-01-31T10:06:07.937Z</time>
      </trkpt>
      <trkpt lat="43.49071" lon="6.94254">
        <ele>134.526003</ele>
        <time>2024-01-31T10:06:09.943Z</time>
      </trkpt>
      <trkpt lat="43.49062" lon="6.94244">
        <ele>134.381986</ele>
        <time>2024-01-31T10:06:11.946Z</time>
      </trkpt>
      <trkpt lat="43.49052" lon="6.9424">
        <ele>134.243018</ele>
        <time>2024-01-31T10:06:13.941Z</time>
      </trkpt>
      <trkpt lat="43.49041" lon="6.94242">
        <ele>134.100814</ele>
        <time>2024-01-31T10:06:15.934Z</time>
      </trkpt>
      <trkpt lat="43.49032" lon="6.94251">
        <ele>133.952419</ele>
        <time>2024-01-31T10:06:17.952Z</time>
      </trkpt>
      <trkpt lat="43.49026" lon="6.94263">
        <ele>133.824516</ele>
        <time>2024-01-31T10:06:19.942Z</time>
      </trkpt>
      <trkpt lat="43.49022" lon="6.94276">
        <ele>133.688169</ele>
        <time>2024-01-31T10:06:21.932Z</time>
      </trkpt>
      <trkpt lat="43.49016" lon="6.94288">
        <ele>133.554716</ele>
        <time>2024-01-31T10:06:23.963Z</time>
      </trkpt>
      <trkpt lat="43.49011" lon="6.943">
        <ele>133.427692</ele>
        <time>2024-01-31T10:06:25.956Z</time>
      </trkpt>
      <trkpt lat="43.49005" lon="6.94311">
        <ele>133.295491</ele>
        <time>2024-01-31T10:06:27.946Z</time>
      </trkpt>
      <trkpt lat="43.48997" lon="6.94321">
        <ele>133.165606</ele>
        <time>2024-01-31T10:06:29.939Z</time>
      </trkpt>
      <trkpt lat="43.48989" lon="6.9433">
        <ele>133.03027</ele>
        <time>2024-01-31T10:06:31.941Z</time>
      </trkpt>
      <trkpt lat="43.48981" lon="6.94339">
        <ele>132.893275</ele>
        <time>2024-01-31T10:06:33.961Z</time>
      </trkpt>
      <trkpt lat="43.48973" lon="6.94349">
        <ele>132.754615</ele>
        <time>2024-01-31T10:06:35.944Z</time>
      </trkpt>
      <trkpt lat="43.48964" lon="6.94358">
        <ele>132.61806</ele>
        <time>2024-01-31T10:06:37.943Z</time>
      </trkpt>
      <trkpt lat="43.48956" lon="6.94367">
        <ele>132.480497</ele>
        <time>2024-01-31T10:06:39.939Z</time>
      </trkpt>
      <trkpt lat="43.48947" lon="6.94376">
        <ele>132.371256</ele>
        <time>2024-01-31T10:06:41.952Z</time>
      </trkpt>
      <trkpt lat="43.48939" lon="6.94386">
        <ele>132.301097</ele>
        <time>2024-01-31T10:06:43.953Z</time>
      </trkpt>
      <trkpt lat="43.4893" lon="6.94394">
        <ele>132.232661</ele>
        <time>2024-01-31T10:06:45.939Z</time>
      </trkpt>
      <trkpt lat="43.48922" lon="6.94402">
        <ele>132.164313</ele>
        <time>2024-01-31T10:06:47.946Z</time>
      </trkpt>
      <trkpt lat="43.48912" lon="6.94409">
        <ele>132.092247</ele>
        <time>2024-01-31T10:06:49.920Z</time>
      </trkpt>
      <trkpt lat="43.48902" lon="6.94414">
        <ele>132.019786</ele>
        <time>2024-01-31T10:06:51.947Z</time>
      </trkpt>
      <trkpt lat="43.48892" lon="6.94418">
        <ele>131.952101</ele>
        <time>2024-01-31T10:06:53.931Z</time>
      </trkpt>
      <trkpt lat="43.48882" lon="6.94422">
        <ele>131.88263</ele>
        <time>2024-01-31T10:06:55.938Z</time>
      </trkpt>
      <trkpt lat="43.48872" lon="6.94425">
        <ele>131.811705</ele>
        <time>2024-01-31T10:06:57.952Z</time>
      </trkpt>
      <trkpt lat="43.48862" lon="6.94429">
        <ele>131.746454</ele>
        <time>2024-01-31T10:06:59.940Z</time>
      </trkpt>
      <trkpt lat="43.48852" lon="6.94431">
        <ele>131.677138</ele>
        <time>2024-01-31T10:07:01.955Z</time>
      </trkpt>
      <trkpt lat="43.48841" lon="6.94431">
        <ele>131.608121</ele>
        <time>2024-01-31T10:07:03.942Z</time>
      </trkpt>
      <trkpt lat="43.48831" lon="6.94429">
        <ele>131.536594</ele>
        <time>2024-01-31T10:07:05.940Z</time>
      </trkpt>
      <trkpt lat="43.48821" lon="6.94427">
        <ele>131.468586</ele>
        <time>2024-01-31T10:07:07.944Z</time>
      </trkpt>
      <trkpt lat="43.4881" lon="6.94425">
        <ele>131.400735</ele>
        <time>2024-01-31T10:07:10.039Z</time>
      </trkpt>
      <trkpt lat="43.48801" lon="6.94423">
        <ele>131.337826</ele>
        <time>2024-01-31T10:07:11.944Z</time>
      </trkpt>
      <trkpt lat="43.48792" lon="6.94422">
        <ele>131.275845</ele>
        <time>2024-01-31T10:07:13.938Z</time>
      </trkpt>
      <trkpt lat="43.48779" lon="6.94424">
        <ele>131.092769</ele>
        <time>2024-01-31T10:07:16.935Z</time>
      </trkpt>
      <trkpt lat="43.48768" lon="6.94429">
        <ele>130.723078</ele>
        <time>2024-01-31T10:07:19.948Z</time>
      </trkpt>
      <trkpt lat="43.48758" lon="6.94429">
        <ele>130.379882</ele>
        <time>2024-01-31T10:08:10.949Z</time>
      </trkpt>
      <trkpt lat="43.48751" lon="6.94439">
        <ele>130.05053</ele>
        <time>2024-01-31T10:08:17.942Z</time>
      </trkpt>
      <trkpt lat="43.48755" lon="6.94452">
        <ele>129.703027</ele>
        <time>2024-01-31T10:08:22.954Z</time>
      </trkpt>
      <trkpt lat="43.48756" lon="6.94465">
        <ele>129.391526</ele>
        <time>2024-01-31T10:08:25.934Z</time>
      </trkpt>
      <trkpt lat="43.48757" lon="6.94477">
        <ele>129.075365</ele>
        <time>2024-01-31T10:08:27.931Z</time>
      </trkpt>
      <trkpt lat="43.48758" lon="6.94491">
        <ele>128.734913</ele>
        <time>2024-01-31T10:08:29.931Z</time>
      </trkpt>
      <trkpt lat="43.48759" lon="6.94505">
        <ele>128.407159</ele>
        <time>2024-01-31T10:08:31.952Z</time>
      </trkpt>
      <trkpt lat="43.48759" lon="6.94518">
        <ele>128.076973</ele>
        <time>2024-01-31T10:08:33.979Z</time>
      </trkpt>
      <trkpt lat="43.48759" lon="6.94533">
        <ele>127.713456</ele>
        <time>2024-01-31T10:08:35.956Z</time>
      </trkpt>
      <trkpt lat="43.48758" lon="6.94549">
        <ele>127.318255</ele>
        <time>2024-01-31T10:08:37.923Z</time>
      </trkpt>
      <trkpt lat="43.48756" lon="6.94566">
        <ele>126.909424</ele>
        <time>2024-01-31T10:08:39.936Z</time>
      </trkpt>
      <trkpt lat="43.48752" lon="6.94582">
        <ele>126.485769</ele>
        <time>2024-01-31T10:08:41.944Z</time>
      </trkpt>
      <trkpt lat="43.48749" lon="6.94599">
        <ele>126.06922</ele>
        <time>2024-01-31T10:08:43.949Z</time>
      </trkpt>
      <trkpt lat="43.48746" lon="6.94616">
        <ele>125.64943</ele>
        <time>2024-01-31T10:08:45.944Z</time>
      </trkpt>
      <trkpt lat="43.48744" lon="6.94633">
        <ele>125.230552</ele>
        <time>2024-01-31T10:08:47.952Z</time>
      </trkpt>
      <trkpt lat="43.48742" lon="6.9465">
        <ele>124.660857</ele>
        <time>2024-01-31T10:08:49.949Z</time>
      </trkpt>
      <trkpt lat="43.48737" lon="6.94667">
        <ele>124.0443</ele>
        <time>2024-01-31T10:08:51.962Z</time>
      </trkpt>
      <trkpt lat="43.48729" lon="6.94683">
        <ele>123.392428</ele>
        <time>2024-01-31T10:08:53.935Z</time>
      </trkpt>
      <trkpt lat="43.4872" lon="6.94698">
        <ele>122.743344</ele>
        <time>2024-01-31T10:08:55.936Z</time>
      </trkpt>
      <trkpt lat="43.4871" lon="6.94709">
        <ele>122.127471</ele>
        <time>2024-01-31T10:08:57.949Z</time>
      </trkpt>
      <trkpt lat="43.48698" lon="6.94716">
        <ele>121.502727</ele>
        <time>2024-01-31T10:08:59.940Z</time>
      </trkpt>
      <trkpt lat="43.48684" lon="6.9472">
        <ele>120.827076</ele>
        <time>2024-01-31T10:09:01.958Z</time>
      </trkpt>
      <trkpt lat="43.4867" lon="6.94723">
        <ele>120.188981</ele>
        <time>2024-01-31T10:09:03.952Z</time>
      </trkpt>
      <trkpt lat="43.48657" lon="6.94726">
        <ele>119.577798</ele>
        <time>2024-01-31T10:09:05.943Z</time>
      </trkpt>
      <trkpt lat="43.48643" lon="6.9472">
        <ele>118.901073</ele>
        <time>2024-01-31T10:09:07.936Z</time>
      </trkpt>
      <trkpt lat="43.48631" lon="6.94707">
        <ele>118.18615</ele>
        <time>2024-01-31T10:09:09.944Z</time>
      </trkpt>
      <trkpt lat="43.48624" lon="6.94687">
        <ele>117.430252</ele>
        <time>2024-01-31T10:09:11.951Z</time>
      </trkpt>
      <trkpt lat="43.48617" lon="6.94666">
        <ele>116.691138</ele>
        <time>2024-01-31T10:09:13.963Z</time>
      </trkpt>
      <trkpt lat="43.4861" lon="6.94647">
        <ele>116.137417</ele>
        <time>2024-01-31T10:09:15.949Z</time>
      </trkpt>
      <trkpt lat="43.48604" lon="6.94627">
        <ele>115.587145</ele>
        <time>2024-01-31T10:09:17.948Z</time>
      </trkpt>
      <trkpt lat="43.48599" lon="6.94606">
        <ele>115.024649</ele>
        <time>2024-01-31T10:09:19.953Z</time>
      </trkpt>
      <trkpt lat="43.48597" lon="6.94584">
        <ele>114.449558</ele>
        <time>2024-01-31T10:09:21.931Z</time>
      </trkpt>
      <trkpt lat="43.48596" lon="6.94563">
        <ele>113.888478</ele>
        <time>2024-01-31T10:09:23.942Z</time>
      </trkpt>
      <trkpt lat="43.48598" lon="6.9454">
        <ele>113.313188</ele>
        <time>2024-01-31T10:09:25.925Z</time>
      </trkpt>
      <trkpt lat="43.48601" lon="6.94518">
        <ele>112.738264</ele>
        <time>2024-01-31T10:09:27.936Z</time>
      </trkpt>
      <trkpt lat="43.48607" lon="6.94497">
        <ele>112.166055</ele>
        <time>2024-01-31T10:09:29.931Z</time>
      </trkpt>
      <trkpt lat="43.48615" lon="6.94478">
        <ele>111.588242</ele>
        <time>2024-01-31T10:09:31.953Z</time>
      </trkpt>
      <trkpt lat="43.48625" lon="6.9446">
        <ele>111.015329</ele>
        <time>2024-01-31T10:09:33.935Z</time>
      </trkpt>
      <trkpt lat="43.48636" lon="6.94445">
        <ele>110.448692</ele>
        <time>2024-01-31T10:09:35.949Z</time>
      </trkpt>
      <trkpt lat="43.48648" lon="6.94431">
        <ele>109.901554</ele>
        <time>2024-01-31T10:09:37.954Z</time>
      </trkpt>
      <trkpt lat="43.4866" lon="6.94419">
        <ele>109.370564</ele>
        <time>2024-01-31T10:09:39.940Z</time>
      </trkpt>
      <trkpt lat="43.4867" lon="6.94407">
        <ele>108.87082</ele>
        <time>2024-01-31T10:09:41.951Z</time>
      </trkpt>
      <trkpt lat="43.48677" lon="6.94392">
        <ele>108.422592</ele>
        <time>2024-01-31T10:09:43.939Z</time>
      </trkpt>
      <trkpt lat="43.48679" lon="6.94375">
        <ele>107.981945</ele>
        <time>2024-01-31T10:09:45.936Z</time>
      </trkpt>
      <trkpt lat="43.48679" lon="6.94358">
        <ele>107.54264</ele>
        <time>2024-01-31T10:09:47.947Z</time>
      </trkpt>
      <trkpt lat="43.48678" lon="6.94342">
        <ele>107.102678</ele>
        <time>2024-01-31T10:09:49.941Z</time>
      </trkpt>
      <trkpt lat="43.48676" lon="6.94323">
        <ele>106.62252</ele>
        <time>2024-01-31T10:09:51.950Z</time>
      </trkpt>
      <trkpt lat="43.48671" lon="6.94306">
        <ele>106.137801</ele>
        <time>2024-01-31T10:09:53.924Z</time>
      </trkpt>
      <trkpt lat="43.48665" lon="6.94289">
        <ele>105.64281</ele>
        <time>2024-01-31T10:09:55.939Z</time>
      </trkpt>
      <trkpt lat="43.48663" lon="6.94268">
        <ele>105.112153</ele>
        <time>2024-01-31T10:09:57.930Z</time>
      </trkpt>
      <trkpt lat="43.48662" lon="6.94248">
        <ele>104.570959</ele>
        <time>2024-01-31T10:09:59.921Z</time>
      </trkpt>
      <trkpt lat="43.48662" lon="6.94226">
        <ele>104.019938</ele>
        <time>2024-01-31T10:10:01.918Z</time>
      </trkpt>
      <trkpt lat="43.48662" lon="6.94205">
        <ele>103.330186</ele>
        <time>2024-01-31T10:10:03.951Z</time>
      </trkpt>
      <trkpt lat="43.48662" lon="6.94184">
        <ele>102.591416</ele>
        <time>2024-01-31T10:10:05.916Z</time>
      </trkpt>
      <trkpt lat="43.48662" lon="6.94162">
        <ele>101.862928</ele>
        <time>2024-01-31T10:10:08.005Z</time>
      </trkpt>
      <trkpt lat="43.48663" lon="6.94141">
        <ele>101.154538</ele>
        <time>2024-01-31T10:10:09.967Z</time>
      </trkpt>
      <trkpt lat="43.48663" lon="6.9412">
        <ele>100.436094</ele>
        <time>2024-01-31T10:10:11.952Z</time>
      </trkpt>
      <trkpt lat="43.48663" lon="6.94099">
        <ele>99.727812</ele>
        <time>2024-01-31T10:10:13.950Z</time>
      </trkpt>
      <trkpt lat="43.48663" lon="6.94078">
        <ele>98.995937</ele>
        <time>2024-01-31T10:10:15.952Z</time>
      </trkpt>
      <trkpt lat="43.48662" lon="6.94055">
        <ele>98.232881</ele>
        <time>2024-01-31T10:10:17.967Z</time>
      </trkpt>
      <trkpt lat="43.48659" lon="6.94032">
        <ele>97.445242</ele>
        <time>2024-01-31T10:10:19.946Z</time>
      </trkpt>
      <trkpt lat="43.48654" lon="6.94009">
        <ele>96.635453</ele>
        <time>2024-01-31T10:10:21.945Z</time>
      </trkpt>
      <trkpt lat="43.48651" lon="6.93985">
        <ele>95.798438</ele>
        <time>2024-01-31T10:10:23.970Z</time>
      </trkpt>
      <trkpt lat="43.4865" lon="6.93972">
        <ele>95.37127</ele>
        <time>2024-01-31T10:10:24.946Z</time>
      </trkpt>
      <trkpt lat="43.4865" lon="6.93959">
        <ele>94.97053</ele>
        <time>2024-01-31T10:10:25.959Z</time>
      </trkpt>
      <trkpt lat="43.48651" lon="6.93935">
        <ele>94.216816</ele>
        <time>2024-01-31T10:10:27.963Z</time>
      </trkpt>
      <trkpt lat="43.48656" lon="6.93912">
        <ele>93.489868</ele>
        <time>2024-01-31T10:10:29.951Z</time>
      </trkpt>
      <trkpt lat="43.48664" lon="6.93891">
        <ele>92.752621</ele>
        <time>2024-01-31T10:10:31.944Z</time>
      </trkpt>
      <trkpt lat="43.48673" lon="6.93872">
        <ele>92.056554</ele>
        <time>2024-01-31T10:10:33.935Z</time>
      </trkpt>
      <trkpt lat="43.48684" lon="6.93855">
        <ele>91.340177</ele>
        <time>2024-01-31T10:10:35.942Z</time>
      </trkpt>
      <trkpt lat="43.48697" lon="6.93838">
        <ele>90.599779</ele>
        <time>2024-01-31T10:10:37.961Z</time>
      </trkpt>
      <trkpt lat="43.48703" lon="6.93829">
        <ele>90.214908</ele>
        <time>2024-01-31T10:10:38.950Z</time>
      </trkpt>
      <trkpt lat="43.48716" lon="6.93812">
        <ele>89.466213</ele>
        <time>2024-01-31T10:10:40.952Z</time>
      </trkpt>
      <trkpt lat="43.48727" lon="6.93797">
        <ele>88.792026</ele>
        <time>2024-01-31T10:10:42.944Z</time>
      </trkpt>
      <trkpt lat="43.48738" lon="6.93781">
        <ele>88.126006</ele>
        <time>2024-01-31T10:10:44.926Z</time>
      </trkpt>
      <trkpt lat="43.48748" lon="6.93767">
        <ele>87.334133</ele>
        <time>2024-01-31T10:10:46.943Z</time>
      </trkpt>
      <trkpt lat="43.48758" lon="6.93752">
        <ele>86.480293</ele>
        <time>2024-01-31T10:10:48.948Z</time>
      </trkpt>
      <trkpt lat="43.48764" lon="6.93734">
        <ele>85.616188</ele>
        <time>2024-01-31T10:10:50.939Z</time>
      </trkpt>
      <trkpt lat="43.48766" lon="6.93714">
        <ele>84.71565</ele>
        <time>2024-01-31T10:10:52.948Z</time>
      </trkpt>
      <trkpt lat="43.48762" lon="6.93692">
        <ele>83.751645</ele>
        <time>2024-01-31T10:10:54.953Z</time>
      </trkpt>
      <trkpt lat="43.48753" lon="6.93674">
        <ele>82.80436</ele>
        <time>2024-01-31T10:10:56.944Z</time>
      </trkpt>
      <trkpt lat="43.48741" lon="6.93661">
        <ele>81.880365</ele>
        <time>2024-01-31T10:10:58.951Z</time>
      </trkpt>
      <trkpt lat="43.48728" lon="6.93656">
        <ele>81.064259</ele>
        <time>2024-01-31T10:11:00.930Z</time>
      </trkpt>
      <trkpt lat="43.48714" lon="6.93655">
        <ele>80.217039</ele>
        <time>2024-01-31T10:11:02.943Z</time>
      </trkpt>
      <trkpt lat="43.487" lon="6.93657">
        <ele>79.379171</ele>
        <time>2024-01-31T10:11:04.941Z</time>
      </trkpt>
      <trkpt lat="43.48686" lon="6.93664">
        <ele>78.523086</ele>
        <time>2024-01-31T10:11:06.929Z</time>
      </trkpt>
      <trkpt lat="43.48672" lon="6.9367">
        <ele>77.641683</ele>
        <time>2024-01-31T10:11:08.930Z</time>
      </trkpt>
      <trkpt lat="43.48658" lon="6.93678">
        <ele>76.763606</ele>
        <time>2024-01-31T10:11:10.942Z</time>
      </trkpt>
      <trkpt lat="43.48643" lon="6.93685">
        <ele>75.97494</ele>
        <time>2024-01-31T10:11:12.955Z</time>
      </trkpt>
      <trkpt lat="43.48629" lon="6.93692">
        <ele>75.175303</ele>
        <time>2024-01-31T10:11:14.947Z</time>
      </trkpt>
      <trkpt lat="43.48614" lon="6.93697">
        <ele>74.397677</ele>
        <time>2024-01-31T10:11:16.964Z</time>
      </trkpt>
      <trkpt lat="43.48599" lon="6.93697">
        <ele>73.613833</ele>
        <time>2024-01-31T10:11:18.913Z</time>
      </trkpt>
      <trkpt lat="43.48583" lon="6.93691">
        <ele>72.772547</ele>
        <time>2024-01-31T10:11:20.937Z</time>
      </trkpt>
      <trkpt lat="43.48567" lon="6.93687">
        <ele>71.919599</ele>
        <time>2024-01-31T10:11:22.939Z</time>
      </trkpt>
      <trkpt lat="43.48551" lon="6.93682">
        <ele>71.082557</ele>
        <time>2024-01-31T10:11:24.938Z</time>
      </trkpt>
      <trkpt lat="43.48536" lon="6.93678">
        <ele>70.290924</ele>
        <time>2024-01-31T10:11:26.939Z</time>
      </trkpt>
      <trkpt lat="43.48523" lon="6.93669">
        <ele>69.53013</ele>
        <time>2024-01-31T10:11:28.933Z</time>
      </trkpt>
      <trkpt lat="43.48512" lon="6.93655">
        <ele>68.776997</ele>
        <time>2024-01-31T10:11:30.940Z</time>
      </trkpt>
      <trkpt lat="43.48507" lon="6.93637">
        <ele>68.031194</ele>
        <time>2024-01-31T10:11:32.934Z</time>
      </trkpt>
      <trkpt lat="43.48507" lon="6.93617">
        <ele>67.326519</ele>
        <time>2024-01-31T10:11:34.928Z</time>
      </trkpt>
      <trkpt lat="43.4851" lon="6.93598">
        <ele>66.649157</ele>
        <time>2024-01-31T10:11:36.965Z</time>
      </trkpt>
      <trkpt lat="43.48514" lon="6.93579">
        <ele>65.967786</ele>
        <time>2024-01-31T10:11:38.935Z</time>
      </trkpt>
      <trkpt lat="43.4852" lon="6.93561">
        <ele>65.293913</ele>
        <time>2024-01-31T10:11:40.923Z</time>
      </trkpt>
      <trkpt lat="43.48526" lon="6.93545">
        <ele>64.639617</ele>
        <time>2024-01-31T10:11:42.942Z</time>
      </trkpt>
      <trkpt lat="43.48532" lon="6.93528">
        <ele>63.984421</ele>
        <time>2024-01-31T10:11:44.968Z</time>
      </trkpt>
      <trkpt lat="43.48538" lon="6.9351">
        <ele>63.307448</ele>
        <time>2024-01-31T10:11:46.959Z</time>
      </trkpt>
      <trkpt lat="43.48545" lon="6.93492">
        <ele>62.616856</ele>
        <time>2024-01-31T10:11:48.927Z</time>
      </trkpt>
      <trkpt lat="43.4855" lon="6.93475">
        <ele>61.958068</ele>
        <time>2024-01-31T10:11:50.941Z</time>
      </trkpt>
      <trkpt lat="43.48553" lon="6.93457">
        <ele>61.306927</ele>
        <time>2024-01-31T10:11:52.955Z</time>
      </trkpt>
      <trkpt lat="43.48555" lon="6.93439">
        <ele>60.673095</ele>
        <time>2024-01-31T10:11:54.969Z</time>
      </trkpt>
      <trkpt lat="43.48553" lon="6.9342">
        <ele>60.031771</ele>
        <time>2024-01-31T10:11:56.934Z</time>
      </trkpt>
      <trkpt lat="43.48547" lon="6.93402">
        <ele>59.324832</ele>
        <time>2024-01-31T10:11:58.936Z</time>
      </trkpt>
      <trkpt lat="43.48537" lon="6.93384">
        <ele>59.23063</ele>
        <time>2024-01-31T10:12:00.919Z</time>
      </trkpt>
      <trkpt lat="43.48526" lon="6.93368">
        <ele>59.229198</ele>
        <time>2024-01-31T10:12:02.948Z</time>
      </trkpt>
      <trkpt lat="43.48517" lon="6.93352">
        <ele>59.227861</ele>
        <time>2024-01-31T10:12:04.945Z</time>
      </trkpt>
      <trkpt lat="43.48508" lon="6.9334">
        <ele>59.226717</ele>
        <time>2024-01-31T10:12:06.947Z</time>
      </trkpt>
      <trkpt lat="43.485" lon="6.93328">
        <ele>59.225655</ele>
        <time>2024-01-31T10:12:08.940Z</time>
      </trkpt>
      <trkpt lat="43.48495" lon="6.93316">
        <ele>59.224738</ele>
        <time>2024-01-31T10:12:10.938Z</time>
      </trkpt>
      <trkpt lat="43.4849" lon="6.93301">
        <ele>59.223652</ele>
        <time>2024-01-31T10:12:13.918Z</time>
      </trkpt>
      <trkpt lat="43.48488" lon="6.93284">
        <ele>59.22255</ele>
        <time>2024-01-31T10:12:16.941Z</time>
      </trkpt>
      <trkpt lat="43.48486" lon="6.93268">
        <ele>59.221518</ele>
        <time>2024-01-31T10:12:19.946Z</time>
      </trkpt>
      <trkpt lat="43.48484" lon="6.93255">
        <ele>59.22059</ele>
        <time>2024-01-31T10:12:22.954Z</time>
      </trkpt>
      <trkpt lat="43.48481" lon="6.9324">
        <ele>59.219633</ele>
        <time>2024-01-31T10:12:26.915Z</time>
      </trkpt>
      <trkpt lat="43.48477" lon="6.93229">
        <ele>59.218804</ele>
        <time>2024-01-31T10:12:30.945Z</time>
      </trkpt>
      <trkpt lat="43.48473" lon="6.93216">
        <ele>59.2179</ele>
        <time>2024-01-31T10:12:35.957Z</time>
      </trkpt>
      <trkpt lat="43.48471" lon="6.93204">
        <ele>59.217077</ele>
        <time>2024-01-31T10:12:40.948Z</time>
      </trkpt>
      <trkpt lat="43.48465" lon="6.93187">
        <ele>59.215843</ele>
        <time>2024-01-31T10:13:29.946Z</time>
      </trkpt>
      <trkpt lat="43.48462" lon="6.93175">
        <ele>59.023836</ele>
        <time>2024-01-31T10:13:32.943Z</time>
      </trkpt>
      <trkpt lat="43.48459" lon="6.93163">
        <ele>58.805324</ele>
        <time>2024-01-31T10:13:35.946Z</time>
      </trkpt>
      <trkpt lat="43.48454" lon="6.93149">
        <ele>58.538909</ele>
        <time>2024-01-31T10:13:38.951Z</time>
      </trkpt>
      <trkpt lat="43.4845" lon="6.93133">
        <ele>58.234164</ele>
        <time>2024-01-31T10:13:41.942Z</time>
      </trkpt>
      <trkpt lat="43.48445" lon="6.93116">
        <ele>57.918182</ele>
        <time>2024-01-31T10:13:44.948Z</time>
      </trkpt>
      <trkpt lat="43.48441" lon="6.93104">
        <ele>57.692566</ele>
        <time>2024-01-31T10:13:46.949Z</time>
      </trkpt>
      <trkpt lat="43.48437" lon="6.93091">
        <ele>57.437004</ele>
        <time>2024-01-31T10:13:48.916Z</time>
      </trkpt>
      <trkpt lat="43.48432" lon="6.93076">
        <ele>57.159049</ele>
        <time>2024-01-31T10:13:50.934Z</time>
      </trkpt>
      <trkpt lat="43.48428" lon="6.9306">
        <ele>56.861529</ele>
        <time>2024-01-31T10:13:52.939Z</time>
      </trkpt>
      <trkpt lat="43.48423" lon="6.93043">
        <ele>56.532758</ele>
        <time>2024-01-31T10:13:54.951Z</time>
      </trkpt>
      <trkpt lat="43.48417" lon="6.93024">
        <ele>56.175043</ele>
        <time>2024-01-31T10:13:56.957Z</time>
      </trkpt>
      <trkpt lat="43.48409" lon="6.93007">
        <ele>55.815729</ele>
        <time>2024-01-31T10:13:58.946Z</time>
      </trkpt>
      <trkpt lat="43.48397" lon="6.92996">
        <ele>55.476485</ele>
        <time>2024-01-31T10:14:00.926Z</time>
      </trkpt>
      <trkpt lat="43.48384" lon="6.9299">
        <ele>55.149698</ele>
        <time>2024-01-31T10:14:02.935Z</time>
      </trkpt>
      <trkpt lat="43.48371" lon="6.92986">
        <ele>54.918974</ele>
        <time>2024-01-31T10:14:04.915Z</time>
      </trkpt>
      <trkpt lat="43.48358" lon="6.92981">
        <ele>55.09855</ele>
        <time>2024-01-31T10:14:06.958Z</time>
      </trkpt>
      <trkpt lat="43.48346" lon="6.92977">
        <ele>55.278305</ele>
        <time>2024-01-31T10:14:08.944Z</time>
      </trkpt>
      <trkpt lat="43.48334" lon="6.92974">
        <ele>55.448105</ele>
        <time>2024-01-31T10:14:10.934Z</time>
      </trkpt>
      <trkpt lat="43.48321" lon="6.92977">
        <ele>55.624412</ele>
        <time>2024-01-31T10:14:12.919Z</time>
      </trkpt>
      <trkpt lat="43.48311" lon="6.92986">
        <ele>55.795062</ele>
        <time>2024-01-31T10:14:14.934Z</time>
      </trkpt>
      <trkpt lat="43.48304" lon="6.92999">
        <ele>55.953729</ele>
        <time>2024-01-31T10:14:16.930Z</time>
      </trkpt>
      <trkpt lat="43.48301" lon="6.93012">
        <ele>56.094569</ele>
        <time>2024-01-31T10:14:18.925Z</time>
      </trkpt>
      <trkpt lat="43.48299" lon="6.93025">
        <ele>56.231017</ele>
        <time>2024-01-31T10:14:20.926Z</time>
      </trkpt>
      <trkpt lat="43.48296" lon="6.93038">
        <ele>56.362398</ele>
        <time>2024-01-31T10:14:22.954Z</time>
      </trkpt>
      <trkpt lat="43.48288" lon="6.9305">
        <ele>56.525431</ele>
        <time>2024-01-31T10:14:25.944Z</time>
      </trkpt>
      <trkpt lat="43.48278" lon="6.9306">
        <ele>56.700538</ele>
        <time>2024-01-31T10:14:28.948Z</time>
      </trkpt>
      <trkpt lat="43.48267" lon="6.93065">
        <ele>56.859348</ele>
        <time>2024-01-31T10:14:31.927Z</time>
      </trkpt>
      <trkpt lat="43.48256" lon="6.93066">
        <ele>57.010556</ele>
        <time>2024-01-31T10:14:34.941Z</time>
      </trkpt>
      <trkpt lat="43.48246" lon="6.93067">
        <ele>57.150905</ele>
        <time>2024-01-31T10:14:37.943Z</time>
      </trkpt>
      <trkpt lat="43.48234" lon="6.93068">
        <ele>57.31029</ele>
        <time>2024-01-31T10:14:41.942Z</time>
      </trkpt>
      <trkpt lat="43.48225" lon="6.93067">
        <ele>57.602977</ele>
        <time>2024-01-31T10:14:44.937Z</time>
      </trkpt>
      <trkpt lat="43.48215" lon="6.93061">
        <ele>58.070804</ele>
        <time>2024-01-31T10:14:47.938Z</time>
      </trkpt>
      <trkpt lat="43.48208" lon="6.93053">
        <ele>58.525056</ele>
        <time>2024-01-31T10:14:50.927Z</time>
      </trkpt>
      <trkpt lat="43.48201" lon="6.93044">
        <ele>58.947105</ele>
        <time>2024-01-31T10:14:53.937Z</time>
      </trkpt>
      <trkpt lat="43.48194" lon="6.93036">
        <ele>59.382828</ele>
        <time>2024-01-31T10:14:56.939Z</time>
      </trkpt>
      <trkpt lat="43.48186" lon="6.93027">
        <ele>59.840738</ele>
        <time>2024-01-31T10:14:59.944Z</time>
      </trkpt>
      <trkpt lat="43.48176" lon="6.93022">
        <ele>60.329112</ele>
        <time>2024-01-31T10:15:02.959Z</time>
      </trkpt>
      <trkpt lat="43.48165" lon="6.93019">
        <ele>60.840839</ele>
        <time>2024-01-31T10:15:05.943Z</time>
      </trkpt>
      <trkpt lat="43.48156" lon="6.93018">
        <ele>61.27786</ele>
        <time>2024-01-31T10:15:08.920Z</time>
      </trkpt>
      <trkpt lat="43.48144" lon="6.93016">
        <ele>61.824423</ele>
        <time>2024-01-31T10:15:12.932Z</time>
      </trkpt>
      <trkpt lat="43.48132" lon="6.93015">
        <ele>62.352004</ele>
        <time>2024-01-31T10:15:16.940Z</time>
      </trkpt>
      <trkpt lat="43.48121" lon="6.93013">
        <ele>62.875303</ele>
        <time>2024-01-31T10:15:20.922Z</time>
      </trkpt>
      <trkpt lat="43.48111" lon="6.93013">
        <ele>63.322751</ele>
        <time>2024-01-31T10:15:24.958Z</time>
      </trkpt>
      <trkpt lat="43.48101" lon="6.93012">
        <ele>63.783909</ele>
        <time>2024-01-31T10:15:28.942Z</time>
      </trkpt>
      <trkpt lat="43.48092" lon="6.9301">
        <ele>64.230974</ele>
        <time>2024-01-31T10:15:32.929Z</time>
      </trkpt>
      <trkpt lat="43.48082" lon="6.9301">
        <ele>64.69224</ele>
        <time>2024-01-31T10:15:36.958Z</time>
      </trkpt>
      <trkpt lat="43.48072" lon="6.9301">
        <ele>65.157922</ele>
        <time>2024-01-31T10:15:40.924Z</time>
      </trkpt>
      <trkpt lat="43.48061" lon="6.9301">
        <ele>65.637371</ele>
        <time>2024-01-31T10:15:44.930Z</time>
      </trkpt>
      <trkpt lat="43.48051" lon="6.93009">
        <ele>66.130509</ele>
        <time>2024-01-31T10:15:48.943Z</time>
      </trkpt>
      <trkpt lat="43.48042" lon="6.93009">
        <ele>66.58107</ele>
        <time>2024-01-31T10:15:52.934Z</time>
      </trkpt>
      <trkpt lat="43.48032" lon="6.93009">
        <ele>67.031631</ele>
        <time>2024-01-31T10:15:56.941Z</time>
      </trkpt>
      <trkpt lat="43.48022" lon="6.93009">
        <ele>67.506959</ele>
        <time>2024-01-31T10:16:00.954Z</time>
      </trkpt>
      <trkpt lat="43.48012" lon="6.93008">
        <ele>68.010243</ele>
        <time>2024-01-31T10:16:04.947Z</time>
      </trkpt>
      <trkpt lat="43.48002" lon="6.93007">
        <ele>68.491073</ele>
        <time>2024-01-31T10:16:08.936Z</time>
      </trkpt>
      <trkpt lat="43.47992" lon="6.93007">
        <ele>68.965599</ele>
        <time>2024-01-31T10:16:12.937Z</time>
      </trkpt>
      <trkpt lat="43.47983" lon="6.93006">
        <ele>69.410507</ele>
        <time>2024-01-31T10:16:16.939Z</time>
      </trkpt>
      <trkpt lat="43.47973" lon="6.93003">
        <ele>69.887585</ele>
        <time>2024-01-31T10:16:20.926Z</time>
      </trkpt>
      <trkpt lat="43.47964" lon="6.92999">
        <ele>70.329426</ele>
        <time>2024-01-31T10:16:24.920Z</time>
      </trkpt>
      <trkpt lat="43.47955" lon="6.92994">
        <ele>70.785657</ele>
        <time>2024-01-31T10:16:28.948Z</time>
      </trkpt>
      <trkpt lat="43.47946" lon="6.92988">
        <ele>71.266213</ele>
        <time>2024-01-31T10:16:32.928Z</time>
      </trkpt>
      <trkpt lat="43.47936" lon="6.92983">
        <ele>71.783579</ele>
        <time>2024-01-31T10:16:36.944Z</time>
      </trkpt>
      <trkpt lat="43.47927" lon="6.92982">
        <ele>72.216355</ele>
        <time>2024-01-31T10:16:39.942Z</time>
      </trkpt>
      <trkpt lat="43.47917" lon="6.92981">
        <ele>72.729224</ele>
        <time>2024-01-31T10:16:43.943Z</time>
      </trkpt>
      <trkpt lat="43.47907" lon="6.92981">
        <ele>73.208984</ele>
        <time>2024-01-31T10:16:47.942Z</time>
      </trkpt>
      <trkpt lat="43.47897" lon="6.92982">
        <ele>73.669762</ele>
        <time>2024-01-31T10:16:51.944Z</time>
      </trkpt>
      <trkpt lat="43.47887" lon="6.92986">
        <ele>74.156065</ele>
        <time>2024-01-31T10:16:55.936Z</time>
      </trkpt>
      <trkpt lat="43.4788" lon="6.92995">
        <ele>74.225486</ele>
        <time>2024-01-31T10:16:59.938Z</time>
      </trkpt>
      <trkpt lat="43.47878" lon="6.93008">
        <ele>74.147583</ele>
        <time>2024-01-31T10:17:03.956Z</time>
      </trkpt>
      <trkpt lat="43.47875" lon="6.9302">
        <ele>74.068125</ele>
        <time>2024-01-31T10:17:07.940Z</time>
      </trkpt>
      <trkpt lat="43.4787" lon="6.93035">
        <ele>73.972483</ele>
        <time>2024-01-31T10:17:11.947Z</time>
      </trkpt>
      <trkpt lat="43.47863" lon="6.93045">
        <ele>73.883136</ele>
        <time>2024-01-31T10:17:15.940Z</time>
      </trkpt>
      <trkpt lat="43.47852" lon="6.93052">
        <ele>73.786793</ele>
        <time>2024-01-31T10:17:19.935Z</time>
      </trkpt>
      <trkpt lat="43.47844" lon="6.93058">
        <ele>73.710431</ele>
        <time>2024-01-31T10:17:22.934Z</time>
      </trkpt>
      <trkpt lat="43.47835" lon="6.93062">
        <ele>73.630745</ele>
        <time>2024-01-31T10:17:25.949Z</time>
      </trkpt>
      <trkpt lat="43.47823" lon="6.93067">
        <ele>73.524772</ele>
        <time>2024-01-31T10:17:28.968Z</time>
      </trkpt>
      <trkpt lat="43.47815" lon="6.93073">
        <ele>73.450044</ele>
        <time>2024-01-31T10:17:30.935Z</time>
      </trkpt>
      <trkpt lat="43.47808" lon="6.93083">
        <ele>73.366278</ele>
        <time>2024-01-31T10:17:32.939Z</time>
      </trkpt>
      <trkpt lat="43.47804" lon="6.93096">
        <ele>73.276841</ele>
        <time>2024-01-31T10:17:34.942Z</time>
      </trkpt>
      <trkpt lat="43.47804" lon="6.93111">
        <ele>73.187571</ele>
        <time>2024-01-31T10:17:36.929Z</time>
      </trkpt>
      <trkpt lat="43.47805" lon="6.93126">
        <ele>73.094081</ele>
        <time>2024-01-31T10:17:38.956Z</time>
      </trkpt>
      <trkpt lat="43.47806" lon="6.93142">
        <ele>72.996779</ele>
        <time>2024-01-31T10:17:40.948Z</time>
      </trkpt>
      <trkpt lat="43.47804" lon="6.93157">
        <ele>72.903945</ele>
        <time>2024-01-31T10:17:42.909Z</time>
      </trkpt>
      <trkpt lat="43.47796" lon="6.93168">
        <ele>72.810147</ele>
        <time>2024-01-31T10:17:44.935Z</time>
      </trkpt>
      <trkpt lat="43.47785" lon="6.93172">
        <ele>72.503554</ele>
        <time>2024-01-31T10:17:46.930Z</time>
      </trkpt>
      <trkpt lat="43.47773" lon="6.93167">
        <ele>72.083228</ele>
        <time>2024-01-31T10:17:48.932Z</time>
      </trkpt>
      <trkpt lat="43.47765" lon="6.93153">
        <ele>71.60966</ele>
        <time>2024-01-31T10:17:50.933Z</time>
      </trkpt>
      <trkpt lat="43.47762" lon="6.93134">
        <ele>71.133229</ele>
        <time>2024-01-31T10:17:52.942Z</time>
      </trkpt>
      <trkpt lat="43.47761" lon="6.93115">
        <ele>70.652023</ele>
        <time>2024-01-31T10:17:54.937Z</time>
      </trkpt>
      <trkpt lat="43.47759" lon="6.93097">
        <ele>70.181954</ele>
        <time>2024-01-31T10:17:56.944Z</time>
      </trkpt>
      <trkpt lat="43.47753" lon="6.93082">
        <ele>69.758455</ele>
        <time>2024-01-31T10:17:58.939Z</time>
      </trkpt>
      <trkpt lat="43.47743" lon="6.9307">
        <ele>69.296973</ele>
        <time>2024-01-31T10:18:00.940Z</time>
      </trkpt>
      <trkpt lat="43.47733" lon="6.93058">
        <ele>68.836762</ele>
        <time>2024-01-31T10:18:02.931Z</time>
      </trkpt>
      <trkpt lat="43.47729" lon="6.93042">
        <ele>68.403695</ele>
        <time>2024-01-31T10:18:04.924Z</time>
      </trkpt>
      <trkpt lat="43.47728" lon="6.93023">
        <ele>67.903612</ele>
        <time>2024-01-31T10:18:06.937Z</time>
      </trkpt>
      <trkpt lat="43.47728" lon="6.93004">
        <ele>67.425238</ele>
        <time>2024-01-31T10:18:08.948Z</time>
      </trkpt>
      <trkpt lat="43.47728" lon="6.92986">
        <ele>66.964119</ele>
        <time>2024-01-31T10:18:10.935Z</time>
      </trkpt>
      <trkpt lat="43.47729" lon="6.92968">
        <ele>66.525366</ele>
        <time>2024-01-31T10:18:12.934Z</time>
      </trkpt>
      <trkpt lat="43.47726" lon="6.92952">
        <ele>66.300329</ele>
        <time>2024-01-31T10:18:14.923Z</time>
      </trkpt>
      <trkpt lat="43.47723" lon="6.92936">
        <ele>66.077888</ele>
        <time>2024-01-31T10:18:16.927Z</time>
      </trkpt>
      <trkpt lat="43.47719" lon="6.92919">
        <ele>65.836196</ele>
        <time>2024-01-31T10:18:18.941Z</time>
      </trkpt>
      <trkpt lat="43.47712" lon="6.92903">
        <ele>65.584944</ele>
        <time>2024-01-31T10:18:20.926Z</time>
      </trkpt>
      <trkpt lat="43.477" lon="6.92891">
        <ele>65.318519</ele>
        <time>2024-01-31T10:18:22.925Z</time>
      </trkpt>
      <trkpt lat="43.47687" lon="6.92881">
        <ele>65.044134</ele>
        <time>2024-01-31T10:18:24.918Z</time>
      </trkpt>
      <trkpt lat="43.47673" lon="6.92874">
        <ele>64.781703</ele>
        <time>2024-01-31T10:18:26.940Z</time>
      </trkpt>
      <trkpt lat="43.47659" lon="6.92871">
        <ele>64.521971</ele>
        <time>2024-01-31T10:18:28.928Z</time>
      </trkpt>
      <trkpt lat="43.47646" lon="6.92876">
        <ele>64.268381</ele>
        <time>2024-01-31T10:18:30.935Z</time>
      </trkpt>
      <trkpt lat="43.47633" lon="6.92881">
        <ele>64.026663</ele>
        <time>2024-01-31T10:18:32.941Z</time>
      </trkpt>
      <trkpt lat="43.47621" lon="6.92888">
        <ele>63.795983</ele>
        <time>2024-01-31T10:18:34.931Z</time>
      </trkpt>
      <trkpt lat="43.4761" lon="6.92894">
        <ele>63.57924</ele>
        <time>2024-01-31T10:18:36.934Z</time>
      </trkpt>
      <trkpt lat="43.476" lon="6.92899">
        <ele>63.383297</ele>
        <time>2024-01-31T10:18:38.953Z</time>
      </trkpt>
      <trkpt lat="43.47591" lon="6.92903">
        <ele>63.255802</ele>
        <time>2024-01-31T10:18:40.937Z</time>
      </trkpt>
      <trkpt lat="43.47582" lon="6.92909">
        <ele>63.5305</ele>
        <time>2024-01-31T10:18:42.960Z</time>
      </trkpt>
      <trkpt lat="43.47574" lon="6.92913">
        <ele>63.78393</ele>
        <time>2024-01-31T10:18:44.959Z</time>
      </trkpt>
      <trkpt lat="43.47562" lon="6.9292">
        <ele>64.132578</ele>
        <time>2024-01-31T10:18:47.939Z</time>
      </trkpt>
      <trkpt lat="43.47552" lon="6.92926">
        <ele>64.43709</ele>
        <time>2024-01-31T10:18:50.936Z</time>
      </trkpt>
      <trkpt lat="43.47542" lon="6.9293">
        <ele>64.74126</ele>
        <time>2024-01-31T10:18:53.939Z</time>
      </trkpt>
      <trkpt lat="43.47532" lon="6.92933">
        <ele>65.030821</ele>
        <time>2024-01-31T10:18:56.947Z</time>
      </trkpt>
      <trkpt lat="43.47522" lon="6.92931">
        <ele>65.307788</ele>
        <time>2024-01-31T10:18:59.940Z</time>
      </trkpt>
      <trkpt lat="43.47515" lon="6.92921">
        <ele>65.588202</ele>
        <time>2024-01-31T10:19:02.931Z</time>
      </trkpt>
      <trkpt lat="43.47508" lon="6.92907">
        <ele>65.925205</ele>
        <time>2024-01-31T10:19:06.940Z</time>
      </trkpt>
      <trkpt lat="43.47507" lon="6.92893">
        <ele>66.228381</ele>
        <time>2024-01-31T10:19:10.959Z</time>
      </trkpt>
      <trkpt lat="43.47506" lon="6.92878">
        <ele>66.526073</ele>
        <time>2024-01-31T10:19:14.943Z</time>
      </trkpt>
      <trkpt lat="43.47507" lon="6.92864">
        <ele>66.811711</ele>
        <time>2024-01-31T10:19:18.932Z</time>
      </trkpt>
      <trkpt lat="43.47508" lon="6.92851">
        <ele>67.075406</ele>
        <time>2024-01-31T10:19:22.949Z</time>
      </trkpt>
      <trkpt lat="43.47507" lon="6.92837">
        <ele>67.364839</ele>
        <time>2024-01-31T10:19:26.940Z</time>
      </trkpt>
      <trkpt lat="43.47504" lon="6.92823">
        <ele>67.671195</ele>
        <time>2024-01-31T10:19:30.937Z</time>
      </trkpt>
      <trkpt lat="43.47498" lon="6.92813">
        <ele>67.926994</ele>
        <time>2024-01-31T10:19:33.934Z</time>
      </trkpt>
      <trkpt lat="43.47492" lon="6.928">
        <ele>68.244484</ele>
        <time>2024-01-31T10:19:36.934Z</time>
      </trkpt>
      <trkpt lat="43.47492" lon="6.92783">
        <ele>68.186128</ele>
        <time>2024-01-31T10:19:39.941Z</time>
      </trkpt>
      <trkpt lat="43.47497" lon="6.92767">
        <ele>68.083559</ele>
        <time>2024-01-31T10:19:42.934Z</time>
      </trkpt>
      <trkpt lat="43.47502" lon="6.92756">
        <ele>68.010047</ele>
        <time>2024-01-31T10:19:44.943Z</time>
      </trkpt>
      <trkpt lat="43.47507" lon="6.92743">
        <ele>67.928672</ele>
        <time>2024-01-31T10:19:46.948Z</time>
      </trkpt>
      <trkpt lat="43.47512" lon="6.92731">
        <ele>67.843948</ele>
        <time>2024-01-31T10:19:48.939Z</time>
      </trkpt>
      <trkpt lat="43.47518" lon="6.92718">
        <ele>67.756478</ele>
        <time>2024-01-31T10:19:50.926Z</time>
      </trkpt>
      <trkpt lat="43.47523" lon="6.92704">
        <ele>67.667283</ele>
        <time>2024-01-31T10:19:52.961Z</time>
      </trkpt>
      <trkpt lat="43.47525" lon="6.9269">
        <ele>67.581939</ele>
        <time>2024-01-31T10:19:54.946Z</time>
      </trkpt>
      <trkpt lat="43.47524" lon="6.92676">
        <ele>67.498736</ele>
        <time>2024-01-31T10:19:56.937Z</time>
      </trkpt>
      <trkpt lat="43.47518" lon="6.92662">
        <ele>67.409254</ele>
        <time>2024-01-31T10:19:58.923Z</time>
      </trkpt>
      <trkpt lat="43.47509" lon="6.92651">
        <ele>67.314753</ele>
        <time>2024-01-31T10:20:00.925Z</time>
      </trkpt>
      <trkpt lat="43.47498" lon="6.92644">
        <ele>67.217848</ele>
        <time>2024-01-31T10:20:02.918Z</time>
      </trkpt>
      <trkpt lat="43.47487" lon="6.92634">
        <ele>67.116958</ele>
        <time>2024-01-31T10:20:04.929Z</time>
      </trkpt>
      <trkpt lat="43.47478" lon="6.92622">
        <ele>67.013222</ele>
        <time>2024-01-31T10:20:06.939Z</time>
      </trkpt>
      <trkpt lat="43.47471" lon="6.92606">
        <ele>66.906613</ele>
        <time>2024-01-31T10:20:08.942Z</time>
      </trkpt>
      <trkpt lat="43.47467" lon="6.9259">
        <ele>66.777403</ele>
        <time>2024-01-31T10:20:10.951Z</time>
      </trkpt>
      <trkpt lat="43.47464" lon="6.92572">
        <ele>66.593018</ele>
        <time>2024-01-31T10:20:12.934Z</time>
      </trkpt>
      <trkpt lat="43.47462" lon="6.92557">
        <ele>66.429984</ele>
        <time>2024-01-31T10:20:14.968Z</time>
      </trkpt>
      <trkpt lat="43.47458" lon="6.92541">
        <ele>66.259382</ele>
        <time>2024-01-31T10:20:16.954Z</time>
      </trkpt>
      <trkpt lat="43.47452" lon="6.92527">
        <ele>66.095808</ele>
        <time>2024-01-31T10:20:18.932Z</time>
      </trkpt>
      <trkpt lat="43.47446" lon="6.92514">
        <ele>65.931094</ele>
        <time>2024-01-31T10:20:20.934Z</time>
      </trkpt>
      <trkpt lat="43.47439" lon="6.92502">
        <ele>65.777982</ele>
        <time>2024-01-31T10:20:22.932Z</time>
      </trkpt>
      <trkpt lat="43.47432" lon="6.92491">
        <ele>65.628828</ele>
        <time>2024-01-31T10:20:24.940Z</time>
      </trkpt>
      <trkpt lat="43.47426" lon="6.9248">
        <ele>65.485004</ele>
        <time>2024-01-31T10:20:26.943Z</time>
      </trkpt>
      <trkpt lat="43.47421" lon="6.92468">
        <ele>65.343254</ele>
        <time>2024-01-31T10:20:28.938Z</time>
      </trkpt>
      <trkpt lat="43.47418" lon="6.92455">
        <ele>65.204246</ele>
        <time>2024-01-31T10:20:30.926Z</time>
      </trkpt>
      <trkpt lat="43.47415" lon="6.92441">
        <ele>65.052779</ele>
        <time>2024-01-31T10:20:32.928Z</time>
      </trkpt>
      <trkpt lat="43.47413" lon="6.92426">
        <ele>64.895063</ele>
        <time>2024-01-31T10:20:34.959Z</time>
      </trkpt>
      <trkpt lat="43.4741" lon="6.92411">
        <ele>64.737282</ele>
        <time>2024-01-31T10:20:37.027Z</time>
      </trkpt>
      <trkpt lat="43.47406" lon="6.92397">
        <ele>64.577538</ele>
        <time>2024-01-31T10:20:38.956Z</time>
      </trkpt>
      <trkpt lat="43.47401" lon="6.92383">
        <ele>64.420675</ele>
        <time>2024-01-31T10:20:40.922Z</time>
      </trkpt>
      <trkpt lat="43.47394" lon="6.92371">
        <ele>64.251341</ele>
        <time>2024-01-31T10:20:42.937Z</time>
      </trkpt>
      <trkpt lat="43.47387" lon="6.9236">
        <ele>63.998706</ele>
        <time>2024-01-31T10:20:44.932Z</time>
      </trkpt>
      <trkpt lat="43.47378" lon="6.9235">
        <ele>63.733688</ele>
        <time>2024-01-31T10:20:46.923Z</time>
      </trkpt>
      <trkpt lat="43.47371" lon="6.92339">
        <ele>63.475451</ele>
        <time>2024-01-31T10:20:48.947Z</time>
      </trkpt>
      <trkpt lat="43.47362" lon="6.92329">
        <ele>63.219117</ele>
        <time>2024-01-31T10:20:50.939Z</time>
      </trkpt>
      <trkpt lat="43.47351" lon="6.92322">
        <ele>62.947338</ele>
        <time>2024-01-31T10:20:52.955Z</time>
      </trkpt>
      <trkpt lat="43.4734" lon="6.92321">
        <ele>62.676461</ele>
        <time>2024-01-31T10:20:54.943Z</time>
      </trkpt>
      <trkpt lat="43.47327" lon="6.92324">
        <ele>62.381535</ele>
        <time>2024-01-31T10:20:56.944Z</time>
      </trkpt>
      <trkpt lat="43.47314" lon="6.92326">
        <ele>62.080326</ele>
        <time>2024-01-31T10:20:58.943Z</time>
      </trkpt>
      <trkpt lat="43.47301" lon="6.9233">
        <ele>61.781599</ele>
        <time>2024-01-31T10:21:00.935Z</time>
      </trkpt>
      <trkpt lat="43.47289" lon="6.92332">
        <ele>61.490943</ele>
        <time>2024-01-31T10:21:02.940Z</time>
      </trkpt>
      <trkpt lat="43.47277" lon="6.92335">
        <ele>61.208219</ele>
        <time>2024-01-31T10:21:04.949Z</time>
      </trkpt>
      <trkpt lat="43.47265" lon="6.92337">
        <ele>60.93082</ele>
        <time>2024-01-31T10:21:06.945Z</time>
      </trkpt>
      <trkpt lat="43.47254" lon="6.9234">
        <ele>60.679613</ele>
        <time>2024-01-31T10:21:08.950Z</time>
      </trkpt>
      <trkpt lat="43.47244" lon="6.92341">
        <ele>60.441048</ele>
        <time>2024-01-31T10:21:10.953Z</time>
      </trkpt>
      <trkpt lat="43.47233" lon="6.92343">
        <ele>60.198033</ele>
        <time>2024-01-31T10:21:12.942Z</time>
      </trkpt>
      <trkpt lat="43.47223" lon="6.92343">
        <ele>60.24799</ele>
        <time>2024-01-31T10:21:14.935Z</time>
      </trkpt>
      <trkpt lat="43.47213" lon="6.92342">
        <ele>60.368745</ele>
        <time>2024-01-31T10:21:16.934Z</time>
      </trkpt>
      <trkpt lat="43.47203" lon="6.9234">
        <ele>60.483455</ele>
        <time>2024-01-31T10:21:18.935Z</time>
      </trkpt>
      <trkpt lat="43.47194" lon="6.92337">
        <ele>60.598625</ele>
        <time>2024-01-31T10:21:20.960Z</time>
      </trkpt>
      <trkpt lat="43.47185" lon="6.92333">
        <ele>60.715442</ele>
        <time>2024-01-31T10:21:22.948Z</time>
      </trkpt>
      <trkpt lat="43.47176" lon="6.92327">
        <ele>60.832254</ele>
        <time>2024-01-31T10:21:24.939Z</time>
      </trkpt>
      <trkpt lat="43.47167" lon="6.92323">
        <ele>60.944597</ele>
        <time>2024-01-31T10:21:26.944Z</time>
      </trkpt>
      <trkpt lat="43.47156" lon="6.92316">
        <ele>61.09153</ele>
        <time>2024-01-31T10:21:29.944Z</time>
      </trkpt>
      <trkpt lat="43.47144" lon="6.92309">
        <ele>61.23977</ele>
        <time>2024-01-31T10:21:32.944Z</time>
      </trkpt>
      <trkpt lat="43.47133" lon="6.92303">
        <ele>61.381536</ele>
        <time>2024-01-31T10:21:35.942Z</time>
      </trkpt>
      <trkpt lat="43.47122" lon="6.92296">
        <ele>61.527696</ele>
        <time>2024-01-31T10:21:38.939Z</time>
      </trkpt>
      <trkpt lat="43.4711" lon="6.92288">
        <ele>61.689677</ele>
        <time>2024-01-31T10:21:41.945Z</time>
      </trkpt>
      <trkpt lat="43.47098" lon="6.92281">
        <ele>61.848093</ele>
        <time>2024-01-31T10:21:44.950Z</time>
      </trkpt>
      <trkpt lat="43.47089" lon="6.92276">
        <ele>61.959455</ele>
        <time>2024-01-31T10:21:46.941Z</time>
      </trkpt>
      <trkpt lat="43.4708" lon="6.92271">
        <ele>62.080233</ele>
        <time>2024-01-31T10:21:48.943Z</time>
      </trkpt>
      <trkpt lat="43.4707" lon="6.92265">
        <ele>62.20433</ele>
        <time>2024-01-31T10:21:50.941Z</time>
      </trkpt>
      <trkpt lat="43.47061" lon="6.9226">
        <ele>62.323307</ele>
        <time>2024-01-31T10:21:52.936Z</time>
      </trkpt>
      <trkpt lat="43.47051" lon="6.92254">
        <ele>62.440839</ele>
        <time>2024-01-31T10:21:54.957Z</time>
      </trkpt>
      <trkpt lat="43.47042" lon="6.92248">
        <ele>62.551767</ele>
        <time>2024-01-31T10:21:56.941Z</time>
      </trkpt>
      <trkpt lat="43.47033" lon="6.92243">
        <ele>62.653786</ele>
        <time>2024-01-31T10:21:58.961Z</time>
      </trkpt>
      <trkpt lat="43.47022" lon="6.92235">
        <ele>62.78722</ele>
        <time>2024-01-31T10:22:01.927Z</time>
      </trkpt>
      <trkpt lat="43.47012" lon="6.92229">
        <ele>62.910069</ele>
        <time>2024-01-31T10:22:04.933Z</time>
      </trkpt>
      <trkpt lat="43.47002" lon="6.92223">
        <ele>63.032291</ele>
        <time>2024-01-31T10:22:07.951Z</time>
      </trkpt>
      <trkpt lat="43.46992" lon="6.92219">
        <ele>63.139818</ele>
        <time>2024-01-31T10:22:10.956Z</time>
      </trkpt>
      <trkpt lat="43.46983" lon="6.92216">
        <ele>63.246167</ele>
        <time>2024-01-31T10:22:13.932Z</time>
      </trkpt>
      <trkpt lat="43.46973" lon="6.92216">
        <ele>63.352188</ele>
        <time>2024-01-31T10:22:16.941Z</time>
      </trkpt>
      <trkpt lat="43.46964" lon="6.92219">
        <ele>63.456404</ele>
        <time>2024-01-31T10:22:19.942Z</time>
      </trkpt>
      <trkpt lat="43.46955" lon="6.92226">
        <ele>63.570549</ele>
        <time>2024-01-31T10:22:22.927Z</time>
      </trkpt>
      <trkpt lat="43.46946" lon="6.92237">
        <ele>63.70014</ele>
        <time>2024-01-31T10:22:25.913Z</time>
      </trkpt>
      <trkpt lat="43.4694" lon="6.9225">
        <ele>63.821483</ele>
        <time>2024-01-31T10:22:28.935Z</time>
      </trkpt>
      <trkpt lat="43.46932" lon="6.92263">
        <ele>63.957603</ele>
        <time>2024-01-31T10:22:31.938Z</time>
      </trkpt>
      <trkpt lat="43.46925" lon="6.92277">
        <ele>64.091184</ele>
        <time>2024-01-31T10:22:34.927Z</time>
      </trkpt>
      <trkpt lat="43.46919" lon="6.92291">
        <ele>64.219925</ele>
        <time>2024-01-31T10:22:37.945Z</time>
      </trkpt>
      <trkpt lat="43.46913" lon="6.92302">
        <ele>64.310801</ele>
        <time>2024-01-31T10:22:40.942Z</time>
      </trkpt>
      <trkpt lat="43.46908" lon="6.92313">
        <ele>64.382414</ele>
        <time>2024-01-31T10:22:43.937Z</time>
      </trkpt>
      <trkpt lat="43.46902" lon="6.92322">
        <ele>64.454938</ele>
        <time>2024-01-31T10:22:46.937Z</time>
      </trkpt>
      <trkpt lat="43.46895" lon="6.92332">
        <ele>64.53233</ele>
        <time>2024-01-31T10:22:49.948Z</time>
      </trkpt>
      <trkpt lat="43.46886" lon="6.9234">
        <ele>64.613143</ele>
        <time>2024-01-31T10:22:52.955Z</time>
      </trkpt>
      <trkpt lat="43.46877" lon="6.92344">
        <ele>64.693831</ele>
        <time>2024-01-31T10:22:55.939Z</time>
      </trkpt>
      <trkpt lat="43.46866" lon="6.92345">
        <ele>64.774473</ele>
        <time>2024-01-31T10:22:58.924Z</time>
      </trkpt>
      <trkpt lat="43.46856" lon="6.92347">
        <ele>64.855981</ele>
        <time>2024-01-31T10:23:01.966Z</time>
      </trkpt>
      <trkpt lat="43.46846" lon="6.92348">
        <ele>64.932349</ele>
        <time>2024-01-31T10:23:04.933Z</time>
      </trkpt>
      <trkpt lat="43.46837" lon="6.92352">
        <ele>65.007949</ele>
        <time>2024-01-31T10:23:07.946Z</time>
      </trkpt>
      <trkpt lat="43.46828" lon="6.92357">
        <ele>65.086049</ele>
        <time>2024-01-31T10:23:10.931Z</time>
      </trkpt>
      <trkpt lat="43.46819" lon="6.92366">
        <ele>65.16778</ele>
        <time>2024-01-31T10:23:13.956Z</time>
      </trkpt>
      <trkpt lat="43.46812" lon="6.92375">
        <ele>65.242792</ele>
        <time>2024-01-31T10:23:16.917Z</time>
      </trkpt>
      <trkpt lat="43.46804" lon="6.92383">
        <ele>65.320204</ele>
        <time>2024-01-31T10:23:19.933Z</time>
      </trkpt>
      <trkpt lat="43.46796" lon="6.92391">
        <ele>65.399092</ele>
        <time>2024-01-31T10:23:22.926Z</time>
      </trkpt>
      <trkpt lat="43.46786" lon="6.92393">
        <ele>65.477803</ele>
        <time>2024-01-31T10:23:25.942Z</time>
      </trkpt>
      <trkpt lat="43.46776" lon="6.9239">
        <ele>65.557094</ele>
        <time>2024-01-31T10:23:28.926Z</time>
      </trkpt>
      <trkpt lat="43.46767" lon="6.92382">
        <ele>65.636231</ele>
        <time>2024-01-31T10:23:31.944Z</time>
      </trkpt>
      <trkpt lat="43.4676" lon="6.92373">
        <ele>65.747139</ele>
        <time>2024-01-31T10:23:34.940Z</time>
      </trkpt>
      <trkpt lat="43.46753" lon="6.92362">
        <ele>65.88303</ele>
        <time>2024-01-31T10:23:37.932Z</time>
      </trkpt>
      <trkpt lat="43.46746" lon="6.92355">
        <ele>66.002223</ele>
        <time>2024-01-31T10:23:40.925Z</time>
      </trkpt>
      <trkpt lat="43.46737" lon="6.9235">
        <ele>66.12033</ele>
        <time>2024-01-31T10:23:43.935Z</time>
      </trkpt>
      <trkpt lat="43.46726" lon="6.92348">
        <ele>66.269923</ele>
        <time>2024-01-31T10:23:47.932Z</time>
      </trkpt>
      <trkpt lat="43.46717" lon="6.9235">
        <ele>66.389316</ele>
        <time>2024-01-31T10:23:50.948Z</time>
      </trkpt>
      <trkpt lat="43.46708" lon="6.92356">
        <ele>66.522133</ele>
        <time>2024-01-31T10:23:53.947Z</time>
      </trkpt>
      <trkpt lat="43.46698" lon="6.92366">
        <ele>66.683587</ele>
        <time>2024-01-31T10:23:56.941Z</time>
      </trkpt>
      <trkpt lat="43.46688" lon="6.92375">
        <ele>66.837013</ele>
        <time>2024-01-31T10:23:59.942Z</time>
      </trkpt>
      <trkpt lat="43.46677" lon="6.92379">
        <ele>66.978201</ele>
        <time>2024-01-31T10:24:02.934Z</time>
      </trkpt>
      <trkpt lat="43.46667" lon="6.92379">
        <ele>67.117708</ele>
        <time>2024-01-31T10:24:05.938Z</time>
      </trkpt>
      <trkpt lat="43.46656" lon="6.92375">
        <ele>67.266216</ele>
        <time>2024-01-31T10:24:08.942Z</time>
      </trkpt>
      <trkpt lat="43.46644" lon="6.92369">
        <ele>67.423107</ele>
        <time>2024-01-31T10:24:11.949Z</time>
      </trkpt>
      <trkpt lat="43.46632" lon="6.9236">
        <ele>67.600908</ele>
        <time>2024-01-31T10:24:14.946Z</time>
      </trkpt>
      <trkpt lat="43.46624" lon="6.92353">
        <ele>67.726482</ele>
        <time>2024-01-31T10:24:16.935Z</time>
      </trkpt>
      <trkpt lat="43.46615" lon="6.92345">
        <ele>67.863826</ele>
        <time>2024-01-31T10:24:18.961Z</time>
      </trkpt>
      <trkpt lat="43.46607" lon="6.92336">
        <ele>68.000724</ele>
        <time>2024-01-31T10:24:20.948Z</time>
      </trkpt>
      <trkpt lat="43.46597" lon="6.92329">
        <ele>68.019442</ele>
        <time>2024-01-31T10:24:22.956Z</time>
      </trkpt>
      <trkpt lat="43.46586" lon="6.92323">
        <ele>68.030887</ele>
        <time>2024-01-31T10:24:24.937Z</time>
      </trkpt>
      <trkpt lat="43.46574" lon="6.92319">
        <ele>68.042776</ele>
        <time>2024-01-31T10:24:26.924Z</time>
      </trkpt>
      <trkpt lat="43.46563" lon="6.92314">
        <ele>68.054317</ele>
        <time>2024-01-31T10:24:28.952Z</time>
      </trkpt>
      <trkpt lat="43.46551" lon="6.92309">
        <ele>68.065918</ele>
        <time>2024-01-31T10:24:30.941Z</time>
      </trkpt>
      <trkpt lat="43.4654" lon="6.92302">
        <ele>68.077367</ele>
        <time>2024-01-31T10:24:32.951Z</time>
      </trkpt>
      <trkpt lat="43.4653" lon="6.92295">
        <ele>68.088412</ele>
        <time>2024-01-31T10:24:34.942Z</time>
      </trkpt>
      <trkpt lat="43.46519" lon="6.92291">
        <ele>68.09861</ele>
        <time>2024-01-31T10:24:36.931Z</time>
      </trkpt>
      <trkpt lat="43.46509" lon="6.92288">
        <ele>68.108993</ele>
        <time>2024-01-31T10:24:38.928Z</time>
      </trkpt>
      <trkpt lat="43.46498" lon="6.92286">
        <ele>68.119678</ele>
        <time>2024-01-31T10:24:40.932Z</time>
      </trkpt>
      <trkpt lat="43.46487" lon="6.92284">
        <ele>68.130354</ele>
        <time>2024-01-31T10:24:42.936Z</time>
      </trkpt>
      <trkpt lat="43.46475" lon="6.92281">
        <ele>68.141467</ele>
        <time>2024-01-31T10:24:44.939Z</time>
      </trkpt>
      <trkpt lat="43.46463" lon="6.92279">
        <ele>68.152674</ele>
        <time>2024-01-31T10:24:46.931Z</time>
      </trkpt>
      <trkpt lat="43.46451" lon="6.92275">
        <ele>68.164583</ele>
        <time>2024-01-31T10:24:48.941Z</time>
      </trkpt>
      <trkpt lat="43.46439" lon="6.92271">
        <ele>68.176399</ele>
        <time>2024-01-31T10:24:50.963Z</time>
      </trkpt>
      <trkpt lat="43.46428" lon="6.92266">
        <ele>68.438711</ele>
        <time>2024-01-31T10:24:52.937Z</time>
      </trkpt>
      <trkpt lat="43.46418" lon="6.92262">
        <ele>68.85372</ele>
        <time>2024-01-31T10:24:54.955Z</time>
      </trkpt>
      <trkpt lat="43.46406" lon="6.92256">
        <ele>69.381876</ele>
        <time>2024-01-31T10:24:57.926Z</time>
      </trkpt>
      <trkpt lat="43.46396" lon="6.92252">
        <ele>69.800792</ele>
        <time>2024-01-31T10:25:00.939Z</time>
      </trkpt>
      <trkpt lat="43.46385" lon="6.92254">
        <ele>70.259812</ele>
        <time>2024-01-31T10:25:04.933Z</time>
      </trkpt>
      <trkpt lat="43.46376" lon="6.92257">
        <ele>70.649857</ele>
        <time>2024-01-31T10:25:08.959Z</time>
      </trkpt>
      <trkpt lat="43.46366" lon="6.92261">
        <ele>71.054786</ele>
        <time>2024-01-31T10:25:12.941Z</time>
      </trkpt>
      <trkpt lat="43.46355" lon="6.92265">
        <ele>71.504118</ele>
        <time>2024-01-31T10:25:16.936Z</time>
      </trkpt>
      <trkpt lat="43.46345" lon="6.92264">
        <ele>71.933787</ele>
        <time>2024-01-31T10:25:20.941Z</time>
      </trkpt>
      <trkpt lat="43.46336" lon="6.92259">
        <ele>72.324239</ele>
        <time>2024-01-31T10:25:24.939Z</time>
      </trkpt>
      <trkpt lat="43.46327" lon="6.92249">
        <ele>72.77836</ele>
        <time>2024-01-31T10:25:29.943Z</time>
      </trkpt>
      <trkpt lat="43.46322" lon="6.92237">
        <ele>73.195471</ele>
        <time>2024-01-31T10:25:34.943Z</time>
      </trkpt>
      <trkpt lat="43.46319" lon="6.92222">
        <ele>73.654049</ele>
        <time>2024-01-31T10:25:39.937Z</time>
      </trkpt>
      <trkpt lat="43.46317" lon="6.92208">
        <ele>74.066514</ele>
        <time>2024-01-31T10:25:44.950Z</time>
      </trkpt>
      <trkpt lat="43.46316" lon="6.92195">
        <ele>74.45584</ele>
        <time>2024-01-31T10:25:49.926Z</time>
      </trkpt>
      <trkpt lat="43.46312" lon="6.92181">
        <ele>74.897658</ele>
        <time>2024-01-31T10:25:54.954Z</time>
      </trkpt>
      <trkpt lat="43.46306" lon="6.92169">
        <ele>75.351692</ele>
        <time>2024-01-31T10:25:59.943Z</time>
      </trkpt>
      <trkpt lat="43.46297" lon="6.92159">
        <ele>75.709236</ele>
        <time>2024-01-31T10:26:04.941Z</time>
      </trkpt>
      <trkpt lat="43.46288" lon="6.92156">
        <ele>75.993691</ele>
        <time>2024-01-31T10:26:08.930Z</time>
      </trkpt>
      <trkpt lat="43.46279" lon="6.92153">
        <ele>76.276907</ele>
        <time>2024-01-31T10:26:12.954Z</time>
      </trkpt>
      <trkpt lat="43.4627" lon="6.9215">
        <ele>76.568368</ele>
        <time>2024-01-31T10:26:16.946Z</time>
      </trkpt>
      <trkpt lat="43.46261" lon="6.92149">
        <ele>76.848723</ele>
        <time>2024-01-31T10:26:20.937Z</time>
      </trkpt>
      <trkpt lat="43.4625" lon="6.92147">
        <ele>77.180106</ele>
        <time>2024-01-31T10:26:24.953Z</time>
      </trkpt>
      <trkpt lat="43.4624" lon="6.92146">
        <ele>77.484164</ele>
        <time>2024-01-31T10:26:27.959Z</time>
      </trkpt>
      <trkpt lat="43.4623" lon="6.92144">
        <ele>77.795074</ele>
        <time>2024-01-31T10:26:30.944Z</time>
      </trkpt>
      <trkpt lat="43.4622" lon="6.92142">
        <ele>78.107798</ele>
        <time>2024-01-31T10:26:33.938Z</time>
      </trkpt>
      <trkpt lat="43.46209" lon="6.9214">
        <ele>78.440475</ele>
        <time>2024-01-31T10:26:36.942Z</time>
      </trkpt>
      <trkpt lat="43.46198" lon="6.92139">
        <ele>78.786162</ele>
        <time>2024-01-31T10:26:39.960Z</time>
      </trkpt>
      <trkpt lat="43.46186" lon="6.92138">
        <ele>79.126449</ele>
        <time>2024-01-31T10:26:42.946Z</time>
      </trkpt>
      <trkpt lat="43.46177" lon="6.92137">
        <ele>79.42358</ele>
        <time>2024-01-31T10:26:45.935Z</time>
      </trkpt>
      <trkpt lat="43.46165" lon="6.92135">
        <ele>79.781364</ele>
        <time>2024-01-31T10:26:49.942Z</time>
      </trkpt>
      <trkpt lat="43.46155" lon="6.92134">
        <ele>80.099489</ele>
        <time>2024-01-31T10:26:53.945Z</time>
      </trkpt>
      <trkpt lat="43.46147" lon="6.92139">
        <ele>80.377917</ele>
        <time>2024-01-31T10:26:57.951Z</time>
      </trkpt>
      <trkpt lat="43.46142" lon="6.92151">
        <ele>80.678776</ele>
        <time>2024-01-31T10:27:01.957Z</time>
      </trkpt>
      <trkpt lat="43.46139" lon="6.92163">
        <ele>80.949475</ele>
        <time>2024-01-31T10:27:05.948Z</time>
      </trkpt>
      <trkpt lat="43.46136" lon="6.92175">
        <ele>80.952867</ele>
        <time>2024-01-31T10:27:09.938Z</time>
      </trkpt>
      <trkpt lat="43.46131" lon="6.92187">
        <ele>80.956464</ele>
        <time>2024-01-31T10:27:13.943Z</time>
      </trkpt>
      <trkpt lat="43.46122" lon="6.92194">
        <ele>80.959939</ele>
        <time>2024-01-31T10:27:17.925Z</time>
      </trkpt>
      <trkpt lat="43.46112" lon="6.92196">
        <ele>80.963677</ele>
        <time>2024-01-31T10:27:21.942Z</time>
      </trkpt>
      <trkpt lat="43.46103" lon="6.92194">
        <ele>80.967214</ele>
        <time>2024-01-31T10:27:25.941Z</time>
      </trkpt>
      <trkpt lat="43.46094" lon="6.92186">
        <ele>80.970905</ele>
        <time>2024-01-31T10:27:29.920Z</time>
      </trkpt>
      <trkpt lat="43.46088" lon="6.92175">
        <ele>80.974541</ele>
        <time>2024-01-31T10:27:33.947Z</time>
      </trkpt>
      <trkpt lat="43.46082" lon="6.92161">
        <ele>80.978858</ele>
        <time>2024-01-31T10:27:37.945Z</time>
      </trkpt>
      <trkpt lat="43.46074" lon="6.9215">
        <ele>80.982809</ele>
        <time>2024-01-31T10:27:40.939Z</time>
      </trkpt>
      <trkpt lat="43.46066" lon="6.92138">
        <ele>80.987214</ele>
        <time>2024-01-31T10:27:43.946Z</time>
      </trkpt>
      <trkpt lat="43.46056" lon="6.92125">
        <ele>80.99213</ele>
        <time>2024-01-31T10:27:46.940Z</time>
      </trkpt>
      <trkpt lat="43.46047" lon="6.92118">
        <ele>80.995656</ele>
        <time>2024-01-31T10:27:48.939Z</time>
      </trkpt>
      <trkpt lat="43.46038" lon="6.92112">
        <ele>80.999243</ele>
        <time>2024-01-31T10:27:50.942Z</time>
      </trkpt>
      <trkpt lat="43.46028" lon="6.92109">
        <ele>81.003077</ele>
        <time>2024-01-31T10:27:52.934Z</time>
      </trkpt>
      <trkpt lat="43.46018" lon="6.92108">
        <ele>81.00686</ele>
        <time>2024-01-31T10:27:54.940Z</time>
      </trkpt>
      <trkpt lat="43.46007" lon="6.9211">
        <ele>81.010792</ele>
        <time>2024-01-31T10:27:56.945Z</time>
      </trkpt>
      <trkpt lat="43.45995" lon="6.92113">
        <ele>81.011288</ele>
        <time>2024-01-31T10:27:58.954Z</time>
      </trkpt>
      <trkpt lat="43.45983" lon="6.92117">
        <ele>80.995872</ele>
        <time>2024-01-31T10:28:00.943Z</time>
      </trkpt>
      <trkpt lat="43.45971" lon="6.92121">
        <ele>80.980772</ele>
        <time>2024-01-31T10:28:02.942Z</time>
      </trkpt>
      <trkpt lat="43.45959" lon="6.92122">
        <ele>80.965468</ele>
        <time>2024-01-31T10:28:04.950Z</time>
      </trkpt>
      <trkpt lat="43.45946" lon="6.92121">
        <ele>80.950407</ele>
        <time>2024-01-31T10:28:06.947Z</time>
      </trkpt>
      <trkpt lat="43.45935" lon="6.92116">
        <ele>80.935652</ele>
        <time>2024-01-31T10:28:08.937Z</time>
      </trkpt>
      <trkpt lat="43.45924" lon="6.92109">
        <ele>80.921408</ele>
        <time>2024-01-31T10:28:10.932Z</time>
      </trkpt>
      <trkpt lat="43.45914" lon="6.92102">
        <ele>80.907309</ele>
        <time>2024-01-31T10:28:12.952Z</time>
      </trkpt>
      <trkpt lat="43.45904" lon="6.92094">
        <ele>80.893486</ele>
        <time>2024-01-31T10:28:14.952Z</time>
      </trkpt>
      <trkpt lat="43.45895" lon="6.92085">
        <ele>80.8795</ele>
        <time>2024-01-31T10:28:16.937Z</time>
      </trkpt>
      <trkpt lat="43.45888" lon="6.92073">
        <ele>80.865718</ele>
        <time>2024-01-31T10:28:18.943Z</time>
      </trkpt>
      <trkpt lat="43.45884" lon="6.92059">
        <ele>80.852544</ele>
        <time>2024-01-31T10:28:21.031Z</time>
      </trkpt>
      <trkpt lat="43.4588" lon="6.92045">
        <ele>80.838951</ele>
        <time>2024-01-31T10:28:22.931Z</time>
      </trkpt>
      <trkpt lat="43.45877" lon="6.92031">
        <ele>80.826574</ele>
        <time>2024-01-31T10:28:24.940Z</time>
      </trkpt>
      <trkpt lat="43.45874" lon="6.92019">
        <ele>80.81524</ele>
        <time>2024-01-31T10:28:26.943Z</time>
      </trkpt>
      <trkpt lat="43.45868" lon="6.92004">
        <ele>80.799802</ele>
        <time>2024-01-31T10:28:29.954Z</time>
      </trkpt>
      <trkpt lat="43.45863" lon="6.91993">
        <ele>80.780466</ele>
        <time>2024-01-31T10:28:31.943Z</time>
      </trkpt>
      <trkpt lat="43.45855" lon="6.91979">
        <ele>80.742805</ele>
        <time>2024-01-31T10:28:34.943Z</time>
      </trkpt>
      <trkpt lat="43.45844" lon="6.91968">
        <ele>80.703616</ele>
        <time>2024-01-31T10:28:37.938Z</time>
      </trkpt>
      <trkpt lat="43.45835" lon="6.91963">
        <ele>80.675968</ele>
        <time>2024-01-31T10:28:39.933Z</time>
      </trkpt>
      <trkpt lat="43.45825" lon="6.9196">
        <ele>80.648767</ele>
        <time>2024-01-31T10:28:41.927Z</time>
      </trkpt>
      <trkpt lat="43.45815" lon="6.91959">
        <ele>80.620367</ele>
        <time>2024-01-31T10:28:43.955Z</time>
      </trkpt>
      <trkpt lat="43.45806" lon="6.91957">
        <ele>80.592391</ele>
        <time>2024-01-31T10:28:45.935Z</time>
      </trkpt>
      <trkpt lat="43.45796" lon="6.91955">
        <ele>80.563118</ele>
        <time>2024-01-31T10:28:47.943Z</time>
      </trkpt>
      <trkpt lat="43.45786" lon="6.91954">
        <ele>80.534536</ele>
        <time>2024-01-31T10:28:49.944Z</time>
      </trkpt>
      <trkpt lat="43.45775" lon="6.91953">
        <ele>80.505179</ele>
        <time>2024-01-31T10:28:51.952Z</time>
      </trkpt>
      <trkpt lat="43.45766" lon="6.91954">
        <ele>80.47753</ele>
        <time>2024-01-31T10:28:53.968Z</time>
      </trkpt>
      <trkpt lat="43.45756" lon="6.91954">
        <ele>80.450171</ele>
        <time>2024-01-31T10:28:55.955Z</time>
      </trkpt>
      <trkpt lat="43.45746" lon="6.91955">
        <ele>80.421004</ele>
        <time>2024-01-31T10:28:57.951Z</time>
      </trkpt>
      <trkpt lat="43.45735" lon="6.91956">
        <ele>80.390702</ele>
        <time>2024-01-31T10:28:59.956Z</time>
      </trkpt>
      <trkpt lat="43.45725" lon="6.91957">
        <ele>80.360683</ele>
        <time>2024-01-31T10:29:01.946Z</time>
      </trkpt>
      <trkpt lat="43.45714" lon="6.91959">
        <ele>80.331478</ele>
        <time>2024-01-31T10:29:03.952Z</time>
      </trkpt>
      <trkpt lat="43.45704" lon="6.91961">
        <ele>80.301782</ele>
        <time>2024-01-31T10:29:05.943Z</time>
      </trkpt>
      <trkpt lat="43.45691" lon="6.91965">
        <ele>80.41504</ele>
        <time>2024-01-31T10:29:08.946Z</time>
      </trkpt>
      <trkpt lat="43.4568" lon="6.91972">
        <ele>80.666636</ele>
        <time>2024-01-31T10:29:11.934Z</time>
      </trkpt>
      <trkpt lat="43.45671" lon="6.91982">
        <ele>80.904911</ele>
        <time>2024-01-31T10:29:14.925Z</time>
      </trkpt>
      <trkpt lat="43.45663" lon="6.91993">
        <ele>81.132793</ele>
        <time>2024-01-31T10:29:17.933Z</time>
      </trkpt>
      <trkpt lat="43.45656" lon="6.92004">
        <ele>81.344557</ele>
        <time>2024-01-31T10:29:20.952Z</time>
      </trkpt>
      <trkpt lat="43.4565" lon="6.92017">
        <ele>81.574425</ele>
        <time>2024-01-31T10:29:24.940Z</time>
      </trkpt>
      <trkpt lat="43.45648" lon="6.92031">
        <ele>81.780188</ele>
        <time>2024-01-31T10:29:28.942Z</time>
      </trkpt>
      <trkpt lat="43.45646" lon="6.92045">
        <ele>81.98306</ele>
        <time>2024-01-31T10:29:32.956Z</time>
      </trkpt>
      <trkpt lat="43.45645" lon="6.92058">
        <ele>82.180095</ele>
        <time>2024-01-31T10:29:36.937Z</time>
      </trkpt>
      <trkpt lat="43.45644" lon="6.9207">
        <ele>82.362728</ele>
        <time>2024-01-31T10:29:40.961Z</time>
      </trkpt>
      <trkpt lat="43.45642" lon="6.92083">
        <ele>82.548636</ele>
        <time>2024-01-31T10:29:44.945Z</time>
      </trkpt>
      <trkpt lat="43.4564" lon="6.92095">
        <ele>82.733945</ele>
        <time>2024-01-31T10:29:48.942Z</time>
      </trkpt>
      <trkpt lat="43.45637" lon="6.92109">
        <ele>82.941623</ele>
        <time>2024-01-31T10:29:52.949Z</time>
      </trkpt>
      <trkpt lat="43.45631" lon="6.9212">
        <ele>83.149914</ele>
        <time>2024-01-31T10:29:56.929Z</time>
      </trkpt>
      <trkpt lat="43.45624" lon="6.92129">
        <ele>83.35942</ele>
        <time>2024-01-31T10:30:00.933Z</time>
      </trkpt>
      <trkpt lat="43.45614" lon="6.92134">
        <ele>83.561608</ele>
        <time>2024-01-31T10:30:04.934Z</time>
      </trkpt>
      <trkpt lat="43.45603" lon="6.92135">
        <ele>83.786458</ele>
        <time>2024-01-31T10:30:08.942Z</time>
      </trkpt>
      <trkpt lat="43.45591" lon="6.92133">
        <ele>83.889477</ele>
        <time>2024-01-31T10:30:12.942Z</time>
      </trkpt>
      <trkpt lat="43.45581" lon="6.92132">
        <ele>83.817527</ele>
        <time>2024-01-31T10:30:15.930Z</time>
      </trkpt>
      <trkpt lat="43.45568" lon="6.9213">
        <ele>83.726394</ele>
        <time>2024-01-31T10:30:18.946Z</time>
      </trkpt>
      <trkpt lat="43.45554" lon="6.92129">
        <ele>83.633965</ele>
        <time>2024-01-31T10:30:21.942Z</time>
      </trkpt>
      <trkpt lat="43.45545" lon="6.92128">
        <ele>83.570537</ele>
        <time>2024-01-31T10:30:23.946Z</time>
      </trkpt>
      <trkpt lat="43.45536" lon="6.92126">
        <ele>83.505367</ele>
        <time>2024-01-31T10:30:25.955Z</time>
      </trkpt>
      <trkpt lat="43.45525" lon="6.92124">
        <ele>83.432548</ele>
        <time>2024-01-31T10:30:27.928Z</time>
      </trkpt>
      <trkpt lat="43.45515" lon="6.92122">
        <ele>83.360487</ele>
        <time>2024-01-31T10:30:29.946Z</time>
      </trkpt>
      <trkpt lat="43.45504" lon="6.9212">
        <ele>83.286938</ele>
        <time>2024-01-31T10:30:31.929Z</time>
      </trkpt>
      <trkpt lat="43.45493" lon="6.92118">
        <ele>83.209408</ele>
        <time>2024-01-31T10:30:33.946Z</time>
      </trkpt>
      <trkpt lat="43.45481" lon="6.92117">
        <ele>83.129328</ele>
        <time>2024-01-31T10:30:35.958Z</time>
      </trkpt>
      <trkpt lat="43.4547" lon="6.92113">
        <ele>83.051175</ele>
        <time>2024-01-31T10:30:37.965Z</time>
      </trkpt>
      <trkpt lat="43.4546" lon="6.92106">
        <ele>82.968721</ele>
        <time>2024-01-31T10:30:39.953Z</time>
      </trkpt>
      <trkpt lat="43.4545" lon="6.92097">
        <ele>82.88787</ele>
        <time>2024-01-31T10:30:41.955Z</time>
      </trkpt>
      <trkpt lat="43.45441" lon="6.92088">
        <ele>82.809353</ele>
        <time>2024-01-31T10:30:43.959Z</time>
      </trkpt>
      <trkpt lat="43.45431" lon="6.92078">
        <ele>82.726238</ele>
        <time>2024-01-31T10:30:45.960Z</time>
      </trkpt>
      <trkpt lat="43.45422" lon="6.92066">
        <ele>82.62495</ele>
        <time>2024-01-31T10:30:47.955Z</time>
      </trkpt>
      <trkpt lat="43.45414" lon="6.92052">
        <ele>82.509222</ele>
        <time>2024-01-31T10:30:49.957Z</time>
      </trkpt>
      <trkpt lat="43.45406" lon="6.92039">
        <ele>82.395812</ele>
        <time>2024-01-31T10:30:51.949Z</time>
      </trkpt>
      <trkpt lat="43.45395" lon="6.92029">
        <ele>82.275788</ele>
        <time>2024-01-31T10:30:53.955Z</time>
      </trkpt>
      <trkpt lat="43.45381" lon="6.92024">
        <ele>82.152816</ele>
        <time>2024-01-31T10:30:55.942Z</time>
      </trkpt>
      <trkpt lat="43.45368" lon="6.92019">
        <ele>82.028974</ele>
        <time>2024-01-31T10:30:57.941Z</time>
      </trkpt>
      <trkpt lat="43.45356" lon="6.92014">
        <ele>81.912246</ele>
        <time>2024-01-31T10:30:59.946Z</time>
      </trkpt>
      <trkpt lat="43.45343" lon="6.92009">
        <ele>81.797427</ele>
        <time>2024-01-31T10:31:01.943Z</time>
      </trkpt>
      <trkpt lat="43.45331" lon="6.92005">
        <ele>81.685206</ele>
        <time>2024-01-31T10:31:03.946Z</time>
      </trkpt>
      <trkpt lat="43.45319" lon="6.92">
        <ele>81.574344</ele>
        <time>2024-01-31T10:31:05.946Z</time>
      </trkpt>
      <trkpt lat="43.45308" lon="6.91995">
        <ele>81.463292</ele>
        <time>2024-01-31T10:31:07.937Z</time>
      </trkpt>
      <trkpt lat="43.45296" lon="6.91991">
        <ele>81.352791</ele>
        <time>2024-01-31T10:31:09.939Z</time>
      </trkpt>
      <trkpt lat="43.45284" lon="6.91986">
        <ele>81.245562</ele>
        <time>2024-01-31T10:31:11.934Z</time>
      </trkpt>
      <trkpt lat="43.45273" lon="6.91982">
        <ele>81.14339</ele>
        <time>2024-01-31T10:31:13.948Z</time>
      </trkpt>
      <trkpt lat="43.45263" lon="6.91978">
        <ele>81.062512</ele>
        <time>2024-01-31T10:31:15.950Z</time>
      </trkpt>
      <trkpt lat="43.45252" lon="6.91975">
        <ele>81.034708</ele>
        <time>2024-01-31T10:31:17.963Z</time>
      </trkpt>
      <trkpt lat="43.45241" lon="6.91976">
        <ele>81.008271</ele>
        <time>2024-01-31T10:31:19.926Z</time>
      </trkpt>
      <trkpt lat="43.45231" lon="6.91981">
        <ele>80.981144</ele>
        <time>2024-01-31T10:31:21.929Z</time>
      </trkpt>
      <trkpt lat="43.45221" lon="6.91986">
        <ele>80.954014</ele>
        <time>2024-01-31T10:31:23.947Z</time>
      </trkpt>
      <trkpt lat="43.45211" lon="6.91993">
        <ele>80.927345</ele>
        <time>2024-01-31T10:31:25.957Z</time>
      </trkpt>
      <trkpt lat="43.45201" lon="6.92">
        <ele>80.899957</ele>
        <time>2024-01-31T10:31:27.950Z</time>
      </trkpt>
      <trkpt lat="43.45192" lon="6.92005">
        <ele>80.874679</ele>
        <time>2024-01-31T10:31:29.939Z</time>
      </trkpt>
      <trkpt lat="43.45181" lon="6.92004">
        <ele>80.848309</ele>
        <time>2024-01-31T10:31:31.941Z</time>
      </trkpt>
      <trkpt lat="43.45171" lon="6.92001">
        <ele>80.822859</ele>
        <time>2024-01-31T10:31:33.939Z</time>
      </trkpt>
      <trkpt lat="43.45162" lon="6.91996">
        <ele>80.79794</ele>
        <time>2024-01-31T10:31:35.934Z</time>
      </trkpt>
      <trkpt lat="43.45153" lon="6.9199">
        <ele>80.773372</ele>
        <time>2024-01-31T10:31:37.937Z</time>
      </trkpt>
      <trkpt lat="43.45145" lon="6.91982">
        <ele>80.748499</ele>
        <time>2024-01-31T10:31:39.945Z</time>
      </trkpt>
      <trkpt lat="43.45138" lon="6.91972">
        <ele>80.723604</ele>
        <time>2024-01-31T10:31:41.941Z</time>
      </trkpt>
      <trkpt lat="43.45132" lon="6.91961">
        <ele>80.699214</ele>
        <time>2024-01-31T10:31:43.953Z</time>
      </trkpt>
      <trkpt lat="43.45127" lon="6.9195">
        <ele>80.674044</ele>
        <time>2024-01-31T10:31:45.954Z</time>
      </trkpt>
      <trkpt lat="43.45122" lon="6.91937">
        <ele>80.648569</ele>
        <time>2024-01-31T10:31:47.952Z</time>
      </trkpt>
      <trkpt lat="43.45116" lon="6.91925">
        <ele>80.622759</ele>
        <time>2024-01-31T10:31:49.941Z</time>
      </trkpt>
      <trkpt lat="43.45111" lon="6.91913">
        <ele>80.751425</ele>
        <time>2024-01-31T10:31:51.967Z</time>
      </trkpt>
      <trkpt lat="43.45105" lon="6.91901">
        <ele>80.878528</ele>
        <time>2024-01-31T10:31:53.948Z</time>
      </trkpt>
      <trkpt lat="43.45099" lon="6.91889">
        <ele>81.010463</ele>
        <time>2024-01-31T10:31:55.956Z</time>
      </trkpt>
      <trkpt lat="43.45091" lon="6.9188">
        <ele>81.13625</ele>
        <time>2024-01-31T10:31:57.946Z</time>
      </trkpt>
      <trkpt lat="43.45082" lon="6.91873">
        <ele>81.26241</ele>
        <time>2024-01-31T10:31:59.938Z</time>
      </trkpt>
      <trkpt lat="43.45074" lon="6.91865">
        <ele>81.388902</ele>
        <time>2024-01-31T10:32:01.950Z</time>
      </trkpt>
      <trkpt lat="43.45066" lon="6.91857">
        <ele>81.512724</ele>
        <time>2024-01-31T10:32:03.944Z</time>
      </trkpt>
      <trkpt lat="43.45058" lon="6.91848">
        <ele>81.639329</ele>
        <time>2024-01-31T10:32:05.955Z</time>
      </trkpt>
      <trkpt lat="43.45051" lon="6.9184">
        <ele>81.755307</ele>
        <time>2024-01-31T10:32:07.963Z</time>
      </trkpt>
      <trkpt lat="43.45044" lon="6.91832">
        <ele>81.873795</ele>
        <time>2024-01-31T10:32:09.955Z</time>
      </trkpt>
      <trkpt lat="43.45036" lon="6.91825">
        <ele>81.989388</ele>
        <time>2024-01-31T10:32:11.941Z</time>
      </trkpt>
      <trkpt lat="43.45025" lon="6.91819">
        <ele>82.14097</ele>
        <time>2024-01-31T10:32:14.920Z</time>
      </trkpt>
      <trkpt lat="43.45014" lon="6.9182">
        <ele>82.271174</ele>
        <time>2024-01-31T10:32:17.938Z</time>
      </trkpt>
      <trkpt lat="43.45005" lon="6.91826">
        <ele>82.392873</ele>
        <time>2024-01-31T10:32:20.941Z</time>
      </trkpt>
      <trkpt lat="43.44996" lon="6.91831">
        <ele>82.513063</ele>
        <time>2024-01-31T10:32:23.946Z</time>
      </trkpt>
      <trkpt lat="43.44988" lon="6.91838">
        <ele>82.637215</ele>
        <time>2024-01-31T10:32:26.927Z</time>
      </trkpt>
      <trkpt lat="43.44978" lon="6.91841">
        <ele>82.758612</ele>
        <time>2024-01-31T10:32:29.946Z</time>
      </trkpt>
      <trkpt lat="43.44969" lon="6.91839">
        <ele>82.876396</ele>
        <time>2024-01-31T10:32:32.931Z</time>
      </trkpt>
      <trkpt lat="43.4496" lon="6.91834">
        <ele>83.179847</ele>
        <time>2024-01-31T10:32:35.942Z</time>
      </trkpt>
      <trkpt lat="43.44953" lon="6.91826">
        <ele>83.475831</ele>
        <time>2024-01-31T10:32:38.949Z</time>
      </trkpt>
      <trkpt lat="43.44949" lon="6.91812">
        <ele>83.824769</ele>
        <time>2024-01-31T10:32:42.927Z</time>
      </trkpt>
      <trkpt lat="43.44947" lon="6.91799">
        <ele>84.131736</ele>
        <time>2024-01-31T10:32:46.947Z</time>
      </trkpt>
      <trkpt lat="43.44946" lon="6.91784">
        <ele>84.490273</ele>
        <time>2024-01-31T10:32:51.920Z</time>
      </trkpt>
      <trkpt lat="43.44945" lon="6.9177">
        <ele>84.809087</ele>
        <time>2024-01-31T10:32:55.955Z</time>
      </trkpt>
      <trkpt lat="43.44945" lon="6.91755">
        <ele>85.160185</ele>
        <time>2024-01-31T10:32:59.952Z</time>
      </trkpt>
      <trkpt lat="43.44948" lon="6.9174">
        <ele>85.518371</ele>
        <time>2024-01-31T10:33:03.938Z</time>
      </trkpt>
      <trkpt lat="43.44953" lon="6.91726">
        <ele>85.865235</ele>
        <time>2024-01-31T10:33:07.921Z</time>
      </trkpt>
      <trkpt lat="43.44959" lon="6.91714">
        <ele>86.20322</ele>
        <time>2024-01-31T10:33:11.936Z</time>
      </trkpt>
      <trkpt lat="43.44966" lon="6.91705">
        <ele>86.505546</ele>
        <time>2024-01-31T10:33:15.933Z</time>
      </trkpt>
      <trkpt lat="43.44972" lon="6.91695">
        <ele>86.818355</ele>
        <time>2024-01-31T10:33:19.943Z</time>
      </trkpt>
      <trkpt lat="43.44978" lon="6.91684">
        <ele>87.132156</ele>
        <time>2024-01-31T10:33:23.937Z</time>
      </trkpt>
      <trkpt lat="43.44983" lon="6.91672">
        <ele>87.450676</ele>
        <time>2024-01-31T10:33:27.933Z</time>
      </trkpt>
      <trkpt lat="43.44987" lon="6.9166">
        <ele>87.757003</ele>
        <time>2024-01-31T10:33:31.937Z</time>
      </trkpt>
      <trkpt lat="43.44989" lon="6.91647">
        <ele>88.071453</ele>
        <time>2024-01-31T10:33:35.954Z</time>
      </trkpt>
      <trkpt lat="43.44989" lon="6.91632">
        <ele>88.403728</ele>
        <time>2024-01-31T10:33:39.914Z</time>
      </trkpt>
      <trkpt lat="43.44985" lon="6.91619">
        <ele>88.721614</ele>
        <time>2024-01-31T10:33:43.934Z</time>
      </trkpt>
      <trkpt lat="43.44977" lon="6.91608">
        <ele>89.047622</ele>
        <time>2024-01-31T10:33:48.931Z</time>
      </trkpt>
      <trkpt lat="43.44969" lon="6.91599">
        <ele>89.370981</ele>
        <time>2024-01-31T10:33:52.927Z</time>
      </trkpt>
      <trkpt lat="43.44961" lon="6.91592">
        <ele>89.64435</ele>
        <time>2024-01-31T10:33:55.967Z</time>
      </trkpt>
      <trkpt lat="43.44952" lon="6.91586">
        <ele>89.948423</ele>
        <time>2024-01-31T10:33:58.931Z</time>
      </trkpt>
      <trkpt lat="43.44944" lon="6.91576">
        <ele>90.262283</ele>
        <time>2024-01-31T10:34:01.961Z</time>
      </trkpt>
      <trkpt lat="43.44937" lon="6.91564">
        <ele>90.584875</ele>
        <time>2024-01-31T10:34:04.944Z</time>
      </trkpt>
      <trkpt lat="43.44935" lon="6.91549">
        <ele>90.920772</ele>
        <time>2024-01-31T10:34:07.935Z</time>
      </trkpt>
      <trkpt lat="43.44935" lon="6.91534">
        <ele>91.242169</ele>
        <time>2024-01-31T10:34:10.926Z</time>
      </trkpt>
      <trkpt lat="43.44934" lon="6.91519">
        <ele>91.552295</ele>
        <time>2024-01-31T10:34:13.946Z</time>
      </trkpt>
      <trkpt lat="43.44931" lon="6.91505">
        <ele>91.865387</ele>
        <time>2024-01-31T10:34:16.938Z</time>
      </trkpt>
      <trkpt lat="43.44926" lon="6.91492">
        <ele>92.182924</ele>
        <time>2024-01-31T10:34:19.919Z</time>
      </trkpt>
      <trkpt lat="43.44919" lon="6.91479">
        <ele>92.529747</ele>
        <time>2024-01-31T10:34:22.943Z</time>
      </trkpt>
      <trkpt lat="43.44913" lon="6.91466">
        <ele>92.855766</ele>
        <time>2024-01-31T10:34:25.939Z</time>
      </trkpt>
      <trkpt lat="43.44906" lon="6.91456">
        <ele>93.155946</ele>
        <time>2024-01-31T10:34:28.936Z</time>
      </trkpt>
      <trkpt lat="43.44899" lon="6.91446">
        <ele>93.444269</ele>
        <time>2024-01-31T10:34:31.955Z</time>
      </trkpt>
      <trkpt lat="43.44892" lon="6.91437">
        <ele>93.727169</ele>
        <time>2024-01-31T10:34:34.939Z</time>
      </trkpt>
      <trkpt lat="43.44882" lon="6.9143">
        <ele>94.014285</ele>
        <time>2024-01-31T10:34:37.942Z</time>
      </trkpt>
      <trkpt lat="43.44873" lon="6.91421">
        <ele>94.25404</ele>
        <time>2024-01-31T10:34:40.950Z</time>
      </trkpt>
      <trkpt lat="43.44866" lon="6.9141">
        <ele>94.472978</ele>
        <time>2024-01-31T10:34:43.962Z</time>
      </trkpt>
      <trkpt lat="43.4486" lon="6.91398">
        <ele>94.688397</ele>
        <time>2024-01-31T10:34:46.953Z</time>
      </trkpt>
      <trkpt lat="43.44855" lon="6.91387">
        <ele>94.901413</ele>
        <time>2024-01-31T10:34:49.941Z</time>
      </trkpt>
      <trkpt lat="43.4485" lon="6.91374">
        <ele>95.124926</ele>
        <time>2024-01-31T10:34:52.942Z</time>
      </trkpt>
      <trkpt lat="43.44844" lon="6.91361">
        <ele>95.35039</ele>
        <time>2024-01-31T10:34:55.918Z</time>
      </trkpt>
      <trkpt lat="43.44839" lon="6.91348">
        <ele>95.574508</ele>
        <time>2024-01-31T10:34:58.940Z</time>
      </trkpt>
      <trkpt lat="43.44834" lon="6.91336">
        <ele>95.786979</ele>
        <time>2024-01-31T10:35:01.963Z</time>
      </trkpt>
      <trkpt lat="43.4483" lon="6.91325">
        <ele>95.980173</ele>
        <time>2024-01-31T10:35:04.953Z</time>
      </trkpt>
      <trkpt lat="43.44828" lon="6.91311">
        <ele>96.185333</ele>
        <time>2024-01-31T10:35:07.951Z</time>
      </trkpt>
      <trkpt lat="43.44827" lon="6.91298">
        <ele>96.385613</ele>
        <time>2024-01-31T10:35:10.935Z</time>
      </trkpt>
      <trkpt lat="43.44828" lon="6.91285">
        <ele>96.58882</ele>
        <time>2024-01-31T10:35:13.923Z</time>
      </trkpt>
      <trkpt lat="43.4483" lon="6.91269">
        <ele>96.829835</ele>
        <time>2024-01-31T10:35:17.926Z</time>
      </trkpt>
      <trkpt lat="43.44827" lon="6.91254">
        <ele>97.071657</ele>
        <time>2024-01-31T10:35:21.943Z</time>
      </trkpt>
      <trkpt lat="43.44825" lon="6.91242">
        <ele>97.264198</ele>
        <time>2024-01-31T10:35:24.928Z</time>
      </trkpt>
      <trkpt lat="43.44819" lon="6.91227">
        <ele>97.517136</ele>
        <time>2024-01-31T10:35:28.922Z</time>
      </trkpt>
      <trkpt lat="43.44815" lon="6.91216">
        <ele>97.625877</ele>
        <time>2024-01-31T10:35:31.936Z</time>
      </trkpt>
      <trkpt lat="43.44809" lon="6.91203">
        <ele>97.388266</ele>
        <time>2024-01-31T10:35:35.949Z</time>
      </trkpt>
      <trkpt lat="43.44804" lon="6.9119">
        <ele>97.159787</ele>
        <time>2024-01-31T10:35:39.941Z</time>
      </trkpt>
      <trkpt lat="43.44801" lon="6.91176">
        <ele>96.928523</ele>
        <time>2024-01-31T10:35:43.948Z</time>
      </trkpt>
      <trkpt lat="43.44797" lon="6.91162">
        <ele>96.69061</ele>
        <time>2024-01-31T10:35:47.935Z</time>
      </trkpt>
      <trkpt lat="43.44794" lon="6.9115">
        <ele>96.488135</ele>
        <time>2024-01-31T10:35:50.952Z</time>
      </trkpt>
      <trkpt lat="43.44792" lon="6.91138">
        <ele>96.29248</ele>
        <time>2024-01-31T10:35:53.939Z</time>
      </trkpt>
      <trkpt lat="43.44791" lon="6.91122">
        <ele>96.043656</ele>
        <time>2024-01-31T10:35:57.932Z</time>
      </trkpt>
      <trkpt lat="43.44789" lon="6.91107">
        <ele>95.809673</ele>
        <time>2024-01-31T10:36:02.941Z</time>
      </trkpt>
      <trkpt lat="43.44788" lon="6.91092">
        <ele>95.575584</ele>
        <time>2024-01-31T10:36:07.939Z</time>
      </trkpt>
      <trkpt lat="43.44786" lon="6.91079">
        <ele>95.357611</ele>
        <time>2024-01-31T10:36:12.953Z</time>
      </trkpt>
      <trkpt lat="43.44785" lon="6.91065">
        <ele>95.134192</ele>
        <time>2024-01-31T10:36:18.930Z</time>
      </trkpt>
      <trkpt lat="43.44783" lon="6.9105">
        <ele>94.906093</ele>
        <time>2024-01-31T10:36:25.928Z</time>
      </trkpt>
      <trkpt lat="43.44782" lon="6.91036">
        <ele>94.685345</ele>
        <time>2024-01-31T10:36:32.929Z</time>
      </trkpt>
      <trkpt lat="43.44782" lon="6.91024">
        <ele>94.48966</ele>
        <time>2024-01-31T10:36:38.912Z</time>
      </trkpt>
      <trkpt lat="43.44775" lon="6.91006">
        <ele>94.169877</ele>
        <time>2024-01-31T10:36:59.946Z</time>
      </trkpt>
      <trkpt lat="43.44771" lon="6.90989">
        <ele>93.887543</ele>
        <time>2024-01-31T10:37:02.956Z</time>
      </trkpt>
      <trkpt lat="43.44767" lon="6.90974">
        <ele>93.523455</ele>
        <time>2024-01-31T10:37:04.934Z</time>
      </trkpt>
      <trkpt lat="43.44763" lon="6.9096">
        <ele>93.064228</ele>
        <time>2024-01-31T10:37:06.952Z</time>
      </trkpt>
      <trkpt lat="43.4476" lon="6.90945">
        <ele>92.59634</ele>
        <time>2024-01-31T10:37:08.929Z</time>
      </trkpt>
      <trkpt lat="43.44757" lon="6.90931">
        <ele>92.129007</ele>
        <time>2024-01-31T10:37:10.934Z</time>
      </trkpt>
      <trkpt lat="43.44753" lon="6.90916">
        <ele>91.665546</ele>
        <time>2024-01-31T10:37:13.024Z</time>
      </trkpt>
      <trkpt lat="43.4475" lon="6.90901">
        <ele>91.173359</ele>
        <time>2024-01-31T10:37:14.926Z</time>
      </trkpt>
      <trkpt lat="43.44747" lon="6.90886">
        <ele>90.721535</ele>
        <time>2024-01-31T10:37:16.952Z</time>
      </trkpt>
      <trkpt lat="43.44743" lon="6.90874">
        <ele>90.297782</ele>
        <time>2024-01-31T10:37:18.929Z</time>
      </trkpt>
      <trkpt lat="43.44735" lon="6.90865">
        <ele>89.856394</ele>
        <time>2024-01-31T10:37:20.928Z</time>
      </trkpt>
      <trkpt lat="43.44723" lon="6.90863">
        <ele>89.371909</ele>
        <time>2024-01-31T10:37:22.941Z</time>
      </trkpt>
      <trkpt lat="43.44712" lon="6.90868">
        <ele>88.882395</ele>
        <time>2024-01-31T10:37:24.938Z</time>
      </trkpt>
      <trkpt lat="43.44701" lon="6.90868">
        <ele>88.417119</ele>
        <time>2024-01-31T10:37:26.942Z</time>
      </trkpt>
      <trkpt lat="43.44691" lon="6.90863">
        <ele>87.96432</ele>
        <time>2024-01-31T10:37:28.967Z</time>
      </trkpt>
      <trkpt lat="43.44681" lon="6.90855">
        <ele>87.492769</ele>
        <time>2024-01-31T10:37:30.929Z</time>
      </trkpt>
      <trkpt lat="43.44674" lon="6.90843">
        <ele>87.015955</ele>
        <time>2024-01-31T10:37:32.941Z</time>
      </trkpt>
      <trkpt lat="43.44667" lon="6.9083">
        <ele>86.543125</ele>
        <time>2024-01-31T10:37:34.912Z</time>
      </trkpt>
      <trkpt lat="43.44661" lon="6.90819">
        <ele>86.17419</ele>
        <time>2024-01-31T10:37:36.930Z</time>
      </trkpt>
      <trkpt lat="43.44655" lon="6.90808">
        <ele>85.99376</ele>
        <time>2024-01-31T10:37:38.934Z</time>
      </trkpt>
      <trkpt lat="43.44648" lon="6.90796">
        <ele>85.77576</ele>
        <time>2024-01-31T10:37:41.948Z</time>
      </trkpt>
      <trkpt lat="43.44638" lon="6.90786">
        <ele>85.561353</ele>
        <time>2024-01-31T10:37:44.939Z</time>
      </trkpt>
      <trkpt lat="43.44634" lon="6.90772">
        <ele>85.354779</ele>
        <time>2024-01-31T10:37:48.943Z</time>
      </trkpt>
      <trkpt lat="43.44633" lon="6.9076">
        <ele>85.18367</ele>
        <time>2024-01-31T10:37:52.956Z</time>
      </trkpt>
      <trkpt lat="43.44629" lon="6.90752">
        <ele>85.052471</ele>
        <time>2024-01-31T10:38:27.874Z</time>
      </trkpt>
      <trkpt lat="43.44647" lon="6.90734">
        <ele>84.648287</ele>
        <time>2024-01-31T11:04:28.936Z</time>
      </trkpt>
      <trkpt lat="43.44651" lon="6.90722">
        <ele>84.47662</ele>
        <time>2024-01-31T11:04:30.931Z</time>
      </trkpt>
      <trkpt lat="43.44654" lon="6.9071">
        <ele>84.299065</ele>
        <time>2024-01-31T11:04:32.934Z</time>
      </trkpt>
      <trkpt lat="43.44655" lon="6.90697">
        <ele>84.12192</ele>
        <time>2024-01-31T11:04:34.954Z</time>
      </trkpt>
      <trkpt lat="43.44653" lon="6.90683">
        <ele>83.925007</ele>
        <time>2024-01-31T11:04:36.934Z</time>
      </trkpt>
      <trkpt lat="43.44649" lon="6.90668">
        <ele>83.718046</ele>
        <time>2024-01-31T11:04:38.937Z</time>
      </trkpt>
      <trkpt lat="43.44644" lon="6.90654">
        <ele>83.503581</ele>
        <time>2024-01-31T11:04:40.942Z</time>
      </trkpt>
      <trkpt lat="43.44639" lon="6.9064">
        <ele>83.294824</ele>
        <time>2024-01-31T11:04:42.942Z</time>
      </trkpt>
      <trkpt lat="43.44635" lon="6.90628">
        <ele>83.104395</ele>
        <time>2024-01-31T11:04:44.930Z</time>
      </trkpt>
      <trkpt lat="43.44631" lon="6.90616">
        <ele>82.932694</ele>
        <time>2024-01-31T11:04:46.953Z</time>
      </trkpt>
      <trkpt lat="43.44625" lon="6.90602">
        <ele>83.022599</ele>
        <time>2024-01-31T11:04:49.939Z</time>
      </trkpt>
      <trkpt lat="43.44616" lon="6.90593">
        <ele>83.220881</ele>
        <time>2024-01-31T11:04:52.934Z</time>
      </trkpt>
      <trkpt lat="43.44607" lon="6.90587">
        <ele>83.396759</ele>
        <time>2024-01-31T11:04:55.926Z</time>
      </trkpt>
      <trkpt lat="43.44599" lon="6.90578">
        <ele>83.566399</ele>
        <time>2024-01-31T11:04:58.937Z</time>
      </trkpt>
      <trkpt lat="43.44593" lon="6.90566">
        <ele>83.752356</ele>
        <time>2024-01-31T11:05:02.937Z</time>
      </trkpt>
      <trkpt lat="43.44589" lon="6.90554">
        <ele>83.922562</ele>
        <time>2024-01-31T11:05:06.935Z</time>
      </trkpt>
      <trkpt lat="43.44588" lon="6.9054">
        <ele>84.097766</ele>
        <time>2024-01-31T11:05:10.950Z</time>
      </trkpt>
      <trkpt lat="43.44588" lon="6.90527">
        <ele>84.259041</ele>
        <time>2024-01-31T11:05:14.937Z</time>
      </trkpt>
      <trkpt lat="43.44591" lon="6.90515">
        <ele>84.425521</ele>
        <time>2024-01-31T11:05:18.950Z</time>
      </trkpt>
      <trkpt lat="43.44594" lon="6.90502">
        <ele>84.60039</ele>
        <time>2024-01-31T11:05:23.943Z</time>
      </trkpt>
      <trkpt lat="43.44595" lon="6.90488">
        <ele>84.780057</ele>
        <time>2024-01-31T11:05:28.937Z</time>
      </trkpt>
      <trkpt lat="43.44595" lon="6.90474">
        <ele>84.951772</ele>
        <time>2024-01-31T11:05:32.942Z</time>
      </trkpt>
      <trkpt lat="43.44594" lon="6.90459">
        <ele>85.150936</ele>
        <time>2024-01-31T11:05:36.957Z</time>
      </trkpt>
      <trkpt lat="43.44592" lon="6.90446">
        <ele>85.319887</ele>
        <time>2024-01-31T11:05:39.957Z</time>
      </trkpt>
      <trkpt lat="43.4459" lon="6.90431">
        <ele>85.506951</ele>
        <time>2024-01-31T11:05:42.941Z</time>
      </trkpt>
      <trkpt lat="43.44589" lon="6.90415">
        <ele>85.71196</ele>
        <time>2024-01-31T11:05:45.940Z</time>
      </trkpt>
      <trkpt lat="43.44585" lon="6.90399">
        <ele>85.93097</ele>
        <time>2024-01-31T11:05:48.923Z</time>
      </trkpt>
      <trkpt lat="43.44579" lon="6.90389">
        <ele>85.961363</ele>
        <time>2024-01-31T11:05:50.928Z</time>
      </trkpt>
      <trkpt lat="43.4457" lon="6.90382">
        <ele>85.831193</ele>
        <time>2024-01-31T11:05:52.937Z</time>
      </trkpt>
      <trkpt lat="43.4456" lon="6.90378">
        <ele>85.698741</ele>
        <time>2024-01-31T11:05:54.954Z</time>
      </trkpt>
      <trkpt lat="43.44549" lon="6.90378">
        <ele>85.562201</ele>
        <time>2024-01-31T11:05:56.923Z</time>
      </trkpt>
      <trkpt lat="43.44539" lon="6.90382">
        <ele>85.420714</ele>
        <time>2024-01-31T11:05:58.922Z</time>
      </trkpt>
      <trkpt lat="43.44528" lon="6.90387">
        <ele>85.279369</ele>
        <time>2024-01-31T11:06:00.931Z</time>
      </trkpt>
      <trkpt lat="43.44519" lon="6.90393">
        <ele>85.152701</ele>
        <time>2024-01-31T11:06:02.929Z</time>
      </trkpt>
      <trkpt lat="43.4451" lon="6.904">
        <ele>85.023114</ele>
        <time>2024-01-31T11:06:04.921Z</time>
      </trkpt>
      <trkpt lat="43.44499" lon="6.90403">
        <ele>84.885077</ele>
        <time>2024-01-31T11:06:06.930Z</time>
      </trkpt>
      <trkpt lat="43.44487" lon="6.904">
        <ele>84.729145</ele>
        <time>2024-01-31T11:06:08.935Z</time>
      </trkpt>
      <trkpt lat="43.44477" lon="6.90391">
        <ele>84.578553</ele>
        <time>2024-01-31T11:06:10.911Z</time>
      </trkpt>
      <trkpt lat="43.44472" lon="6.90376">
        <ele>84.422414</ele>
        <time>2024-01-31T11:06:12.929Z</time>
      </trkpt>
      <trkpt lat="43.4447" lon="6.90359">
        <ele>84.271149</ele>
        <time>2024-01-31T11:06:14.943Z</time>
      </trkpt>
      <trkpt lat="43.44465" lon="6.90343">
        <ele>84.111094</ele>
        <time>2024-01-31T11:06:16.948Z</time>
      </trkpt>
      <trkpt lat="43.44455" lon="6.90331">
        <ele>83.944717</ele>
        <time>2024-01-31T11:06:18.933Z</time>
      </trkpt>
      <trkpt lat="43.44443" lon="6.90327">
        <ele>83.780395</ele>
        <time>2024-01-31T11:06:20.940Z</time>
      </trkpt>
      <trkpt lat="43.4443" lon="6.90326">
        <ele>83.499154</ele>
        <time>2024-01-31T11:06:22.937Z</time>
      </trkpt>
      <trkpt lat="43.44419" lon="6.90322">
        <ele>83.202911</ele>
        <time>2024-01-31T11:06:24.938Z</time>
      </trkpt>
      <trkpt lat="43.44411" lon="6.9031">
        <ele>82.880508</ele>
        <time>2024-01-31T11:06:26.949Z</time>
      </trkpt>
      <trkpt lat="43.44407" lon="6.90293">
        <ele>82.549644</ele>
        <time>2024-01-31T11:06:28.944Z</time>
      </trkpt>
      <trkpt lat="43.44403" lon="6.90278">
        <ele>82.238649</ele>
        <time>2024-01-31T11:06:30.948Z</time>
      </trkpt>
      <trkpt lat="43.44399" lon="6.90262">
        <ele>81.91519</ele>
        <time>2024-01-31T11:06:32.955Z</time>
      </trkpt>
      <trkpt lat="43.44394" lon="6.90247">
        <ele>81.611844</ele>
        <time>2024-01-31T11:06:34.928Z</time>
      </trkpt>
      <trkpt lat="43.44391" lon="6.90232">
        <ele>81.314762</ele>
        <time>2024-01-31T11:06:36.942Z</time>
      </trkpt>
      <trkpt lat="43.44388" lon="6.90215">
        <ele>80.984579</ele>
        <time>2024-01-31T11:06:38.937Z</time>
      </trkpt>
      <trkpt lat="43.44389" lon="6.90197">
        <ele>80.654789</ele>
        <time>2024-01-31T11:06:40.943Z</time>
      </trkpt>
      <trkpt lat="43.4439" lon="6.90179">
        <ele>80.304882</ele>
        <time>2024-01-31T11:06:42.928Z</time>
      </trkpt>
      <trkpt lat="43.44388" lon="6.90159">
        <ele>79.931698</ele>
        <time>2024-01-31T11:06:44.946Z</time>
      </trkpt>
      <trkpt lat="43.44382" lon="6.9014">
        <ele>79.537007</ele>
        <time>2024-01-31T11:06:46.933Z</time>
      </trkpt>
      <trkpt lat="43.44376" lon="6.9012">
        <ele>79.136279</ele>
        <time>2024-01-31T11:06:48.932Z</time>
      </trkpt>
      <trkpt lat="43.4437" lon="6.90101">
        <ele>78.952266</ele>
        <time>2024-01-31T11:06:50.941Z</time>
      </trkpt>
      <trkpt lat="43.44364" lon="6.90083">
        <ele>78.82607</ele>
        <time>2024-01-31T11:06:52.949Z</time>
      </trkpt>
      <trkpt lat="43.44358" lon="6.90065">
        <ele>78.697824</ele>
        <time>2024-01-31T11:06:54.950Z</time>
      </trkpt>
      <trkpt lat="43.44352" lon="6.90048">
        <ele>78.575681</ele>
        <time>2024-01-31T11:06:56.940Z</time>
      </trkpt>
      <trkpt lat="43.44346" lon="6.90033">
        <ele>78.46325</ele>
        <time>2024-01-31T11:06:58.937Z</time>
      </trkpt>
      <trkpt lat="43.44338" lon="6.9002">
        <ele>78.359466</ele>
        <time>2024-01-31T11:07:00.935Z</time>
      </trkpt>
      <trkpt lat="43.44329" lon="6.90011">
        <ele>78.264527</ele>
        <time>2024-01-31T11:07:02.931Z</time>
      </trkpt>
      <trkpt lat="43.44321" lon="6.90001">
        <ele>78.167259</ele>
        <time>2024-01-31T11:07:04.949Z</time>
      </trkpt>
      <trkpt lat="43.44313" lon="6.8999">
        <ele>78.069618</ele>
        <time>2024-01-31T11:07:06.955Z</time>
      </trkpt>
      <trkpt lat="43.44307" lon="6.89977">
        <ele>77.968734</ele>
        <time>2024-01-31T11:07:08.927Z</time>
      </trkpt>
      <trkpt lat="43.443" lon="6.89964">
        <ele>77.86883</ele>
        <time>2024-01-31T11:07:10.939Z</time>
      </trkpt>
      <trkpt lat="43.44295" lon="6.8995">
        <ele>77.769676</ele>
        <time>2024-01-31T11:07:12.957Z</time>
      </trkpt>
      <trkpt lat="43.44288" lon="6.89937">
        <ele>77.66621</ele>
        <time>2024-01-31T11:07:14.934Z</time>
      </trkpt>
      <trkpt lat="43.44281" lon="6.89924">
        <ele>77.561196</ele>
        <time>2024-01-31T11:07:16.929Z</time>
      </trkpt>
      <trkpt lat="43.44273" lon="6.89911">
        <ele>77.465731</ele>
        <time>2024-01-31T11:07:18.935Z</time>
      </trkpt>
      <trkpt lat="43.44266" lon="6.89899">
        <ele>77.40404</ele>
        <time>2024-01-31T11:07:20.934Z</time>
      </trkpt>
      <trkpt lat="43.44258" lon="6.89888">
        <ele>77.340755</ele>
        <time>2024-01-31T11:07:22.943Z</time>
      </trkpt>
      <trkpt lat="43.44249" lon="6.89878">
        <ele>77.277582</ele>
        <time>2024-01-31T11:07:24.932Z</time>
      </trkpt>
      <trkpt lat="43.4424" lon="6.89867">
        <ele>77.213992</ele>
        <time>2024-01-31T11:07:26.951Z</time>
      </trkpt>
      <trkpt lat="43.44231" lon="6.89856">
        <ele>77.146934</ele>
        <time>2024-01-31T11:07:28.939Z</time>
      </trkpt>
      <trkpt lat="43.44221" lon="6.89846">
        <ele>77.081226</ele>
        <time>2024-01-31T11:07:30.942Z</time>
      </trkpt>
      <trkpt lat="43.44212" lon="6.89836">
        <ele>77.01797</ele>
        <time>2024-01-31T11:07:32.935Z</time>
      </trkpt>
      <trkpt lat="43.44203" lon="6.89826">
        <ele>76.955728</ele>
        <time>2024-01-31T11:07:34.927Z</time>
      </trkpt>
      <trkpt lat="43.44194" lon="6.89816">
        <ele>76.89137</ele>
        <time>2024-01-31T11:07:36.940Z</time>
      </trkpt>
      <trkpt lat="43.44185" lon="6.89807">
        <ele>76.82962</ele>
        <time>2024-01-31T11:07:38.939Z</time>
      </trkpt>
      <trkpt lat="43.44174" lon="6.89802">
        <ele>76.76842</ele>
        <time>2024-01-31T11:07:40.931Z</time>
      </trkpt>
      <trkpt lat="43.44164" lon="6.898">
        <ele>76.709454</ele>
        <time>2024-01-31T11:07:42.937Z</time>
      </trkpt>
      <trkpt lat="43.44153" lon="6.898">
        <ele>76.650837</ele>
        <time>2024-01-31T11:07:44.923Z</time>
      </trkpt>
      <trkpt lat="43.44142" lon="6.89803">
        <ele>76.59092</ele>
        <time>2024-01-31T11:07:46.927Z</time>
      </trkpt>
      <trkpt lat="43.44134" lon="6.89813">
        <ele>76.531964</ele>
        <time>2024-01-31T11:07:48.926Z</time>
      </trkpt>
      <trkpt lat="43.44128" lon="6.89826">
        <ele>76.470965</ele>
        <time>2024-01-31T11:07:51.015Z</time>
      </trkpt>
      <trkpt lat="43.44124" lon="6.89841">
        <ele>76.41467</ele>
        <time>2024-01-31T11:07:52.934Z</time>
      </trkpt>
      <trkpt lat="43.4412" lon="6.89856">
        <ele>76.35819</ele>
        <time>2024-01-31T11:07:54.955Z</time>
      </trkpt>
      <trkpt lat="43.44115" lon="6.89869">
        <ele>76.303193</ele>
        <time>2024-01-31T11:07:56.950Z</time>
      </trkpt>
      <trkpt lat="43.44106" lon="6.89878">
        <ele>76.247817</ele>
        <time>2024-01-31T11:07:58.937Z</time>
      </trkpt>
      <trkpt lat="43.44095" lon="6.89878">
        <ele>76.19181</ele>
        <time>2024-01-31T11:08:00.933Z</time>
      </trkpt>
      <trkpt lat="43.44084" lon="6.89872">
        <ele>76.131652</ele>
        <time>2024-01-31T11:08:02.926Z</time>
      </trkpt>
      <trkpt lat="43.44074" lon="6.89863">
        <ele>76.070701</ele>
        <time>2024-01-31T11:08:04.948Z</time>
      </trkpt>
      <trkpt lat="43.44064" lon="6.89852">
        <ele>76.009738</ele>
        <time>2024-01-31T11:08:06.932Z</time>
      </trkpt>
      <trkpt lat="43.44057" lon="6.89839">
        <ele>75.95035</ele>
        <time>2024-01-31T11:08:08.939Z</time>
      </trkpt>
      <trkpt lat="43.44052" lon="6.89825">
        <ele>75.89511</ele>
        <time>2024-01-31T11:08:10.932Z</time>
      </trkpt>
      <trkpt lat="43.44051" lon="6.89811">
        <ele>75.842915</ele>
        <time>2024-01-31T11:08:12.937Z</time>
      </trkpt>
      <trkpt lat="43.44051" lon="6.89797">
        <ele>75.791008</ele>
        <time>2024-01-31T11:08:14.939Z</time>
      </trkpt>
      <trkpt lat="43.44053" lon="6.89783">
        <ele>75.74056</ele>
        <time>2024-01-31T11:08:16.938Z</time>
      </trkpt>
      <trkpt lat="43.44054" lon="6.8977">
        <ele>75.694367</ele>
        <time>2024-01-31T11:08:18.954Z</time>
      </trkpt>
      <trkpt lat="43.44055" lon="6.89758">
        <ele>75.648412</ele>
        <time>2024-01-31T11:08:20.950Z</time>
      </trkpt>
      <trkpt lat="43.44056" lon="6.89744">
        <ele>75.600334</ele>
        <time>2024-01-31T11:08:22.945Z</time>
      </trkpt>
      <trkpt lat="43.44056" lon="6.89729">
        <ele>75.232931</ele>
        <time>2024-01-31T11:08:24.940Z</time>
      </trkpt>
      <trkpt lat="43.44057" lon="6.89714">
        <ele>74.833812</ele>
        <time>2024-01-31T11:08:26.937Z</time>
      </trkpt>
      <trkpt lat="43.44057" lon="6.89698">
        <ele>74.455288</ele>
        <time>2024-01-31T11:08:28.953Z</time>
      </trkpt>
      <trkpt lat="43.44052" lon="6.89684">
        <ele>74.042044</ele>
        <time>2024-01-31T11:08:30.917Z</time>
      </trkpt>
      <trkpt lat="43.44041" lon="6.89673">
        <ele>73.578776</ele>
        <time>2024-01-31T11:08:32.937Z</time>
      </trkpt>
      <trkpt lat="43.44028" lon="6.8967">
        <ele>73.129831</ele>
        <time>2024-01-31T11:08:34.933Z</time>
      </trkpt>
      <trkpt lat="43.44015" lon="6.89673">
        <ele>72.663463</ele>
        <time>2024-01-31T11:08:36.954Z</time>
      </trkpt>
      <trkpt lat="43.44002" lon="6.89676">
        <ele>72.2114</ele>
        <time>2024-01-31T11:08:38.953Z</time>
      </trkpt>
      <trkpt lat="43.43989" lon="6.89676">
        <ele>71.769946</ele>
        <time>2024-01-31T11:08:40.929Z</time>
      </trkpt>
      <trkpt lat="43.43976" lon="6.89673">
        <ele>71.314488</ele>
        <time>2024-01-31T11:08:42.925Z</time>
      </trkpt>
      <trkpt lat="43.43963" lon="6.89671">
        <ele>70.863347</ele>
        <time>2024-01-31T11:08:44.919Z</time>
      </trkpt>
      <trkpt lat="43.4395" lon="6.89669">
        <ele>70.401644</ele>
        <time>2024-01-31T11:08:46.941Z</time>
      </trkpt>
      <trkpt lat="43.43938" lon="6.89662">
        <ele>69.949585</ele>
        <time>2024-01-31T11:08:48.930Z</time>
      </trkpt>
      <trkpt lat="43.43927" lon="6.89651">
        <ele>69.484549</ele>
        <time>2024-01-31T11:08:50.947Z</time>
      </trkpt>
      <trkpt lat="43.43917" lon="6.89637">
        <ele>68.909361</ele>
        <time>2024-01-31T11:08:52.944Z</time>
      </trkpt>
      <trkpt lat="43.43908" lon="6.89623">
        <ele>68.320848</ele>
        <time>2024-01-31T11:08:54.927Z</time>
      </trkpt>
      <trkpt lat="43.43897" lon="6.8961">
        <ele>67.71939</ele>
        <time>2024-01-31T11:08:56.935Z</time>
      </trkpt>
      <trkpt lat="43.43887" lon="6.89596">
        <ele>67.097107</ele>
        <time>2024-01-31T11:08:58.934Z</time>
      </trkpt>
      <trkpt lat="43.43874" lon="6.89587">
        <ele>66.493642</ele>
        <time>2024-01-31T11:09:00.924Z</time>
      </trkpt>
      <trkpt lat="43.4386" lon="6.89584">
        <ele>65.872349</ele>
        <time>2024-01-31T11:09:02.930Z</time>
      </trkpt>
      <trkpt lat="43.43846" lon="6.8958">
        <ele>65.26527</ele>
        <time>2024-01-31T11:09:04.954Z</time>
      </trkpt>
      <trkpt lat="43.43835" lon="6.89568">
        <ele>64.68106</ele>
        <time>2024-01-31T11:09:06.936Z</time>
      </trkpt>
      <trkpt lat="43.43828" lon="6.8955">
        <ele>64.029607</ele>
        <time>2024-01-31T11:09:08.929Z</time>
      </trkpt>
      <trkpt lat="43.43822" lon="6.89531">
        <ele>63.405167</ele>
        <time>2024-01-31T11:09:10.930Z</time>
      </trkpt>
      <trkpt lat="43.43818" lon="6.89511">
        <ele>62.752005</ele>
        <time>2024-01-31T11:09:12.951Z</time>
      </trkpt>
      <trkpt lat="43.43815" lon="6.89489">
        <ele>62.07228</ele>
        <time>2024-01-31T11:09:14.942Z</time>
      </trkpt>
      <trkpt lat="43.43812" lon="6.89468">
        <ele>61.384062</ele>
        <time>2024-01-31T11:09:16.938Z</time>
      </trkpt>
      <trkpt lat="43.43809" lon="6.89446">
        <ele>60.642677</ele>
        <time>2024-01-31T11:09:18.944Z</time>
      </trkpt>
      <trkpt lat="43.43806" lon="6.89423">
        <ele>59.887223</ele>
        <time>2024-01-31T11:09:20.943Z</time>
      </trkpt>
      <trkpt lat="43.43802" lon="6.89401">
        <ele>59.130001</ele>
        <time>2024-01-31T11:09:22.945Z</time>
      </trkpt>
      <trkpt lat="43.43797" lon="6.89379">
        <ele>58.381821</ele>
        <time>2024-01-31T11:09:24.939Z</time>
      </trkpt>
      <trkpt lat="43.4379" lon="6.89359">
        <ele>57.634914</ele>
        <time>2024-01-31T11:09:26.949Z</time>
      </trkpt>
      <trkpt lat="43.43784" lon="6.89339">
        <ele>56.911375</ele>
        <time>2024-01-31T11:09:28.962Z</time>
      </trkpt>
      <trkpt lat="43.43778" lon="6.89319">
        <ele>56.205365</ele>
        <time>2024-01-31T11:09:30.953Z</time>
      </trkpt>
      <trkpt lat="43.43774" lon="6.89297">
        <ele>55.465987</ele>
        <time>2024-01-31T11:09:32.944Z</time>
      </trkpt>
      <trkpt lat="43.43777" lon="6.89273">
        <ele>54.661108</ele>
        <time>2024-01-31T11:09:34.925Z</time>
      </trkpt>
      <trkpt lat="43.43778" lon="6.89251">
        <ele>53.910613</ele>
        <time>2024-01-31T11:09:36.926Z</time>
      </trkpt>
      <trkpt lat="43.43772" lon="6.89231">
        <ele>53.599905</ele>
        <time>2024-01-31T11:09:38.944Z</time>
      </trkpt>
      <trkpt lat="43.43759" lon="6.89218">
        <ele>53.654928</ele>
        <time>2024-01-31T11:09:40.934Z</time>
      </trkpt>
      <trkpt lat="43.43745" lon="6.89212">
        <ele>53.70691</ele>
        <time>2024-01-31T11:09:42.939Z</time>
      </trkpt>
      <trkpt lat="43.43731" lon="6.89206">
        <ele>53.757413</ele>
        <time>2024-01-31T11:09:44.936Z</time>
      </trkpt>
      <trkpt lat="43.43717" lon="6.89202">
        <ele>53.805891</ele>
        <time>2024-01-31T11:09:46.937Z</time>
      </trkpt>
      <trkpt lat="43.43705" lon="6.89206">
        <ele>53.849441</ele>
        <time>2024-01-31T11:09:49.003Z</time>
      </trkpt>
      <trkpt lat="43.43693" lon="6.89215">
        <ele>53.896228</ele>
        <time>2024-01-31T11:09:50.943Z</time>
      </trkpt>
      <trkpt lat="43.43681" lon="6.89225">
        <ele>53.945169</ele>
        <time>2024-01-31T11:09:52.929Z</time>
      </trkpt>
      <trkpt lat="43.43669" lon="6.89228">
        <ele>53.987165</ele>
        <time>2024-01-31T11:09:54.940Z</time>
      </trkpt>
      <trkpt lat="43.4366" lon="6.89229">
        <ele>54.018947</ele>
        <time>2024-01-31T11:09:56.926Z</time>
      </trkpt>
      <trkpt lat="43.43649" lon="6.89232">
        <ele>54.059414</ele>
        <time>2024-01-31T11:09:59.935Z</time>
      </trkpt>
      <trkpt lat="43.43638" lon="6.89233">
        <ele>54.096786</ele>
        <time>2024-01-31T11:10:02.934Z</time>
      </trkpt>
      <trkpt lat="43.43626" lon="6.89235">
        <ele>54.13901</ele>
        <time>2024-01-31T11:10:05.944Z</time>
      </trkpt>
      <trkpt lat="43.43613" lon="6.89237">
        <ele>54.182391</ele>
        <time>2024-01-31T11:10:08.931Z</time>
      </trkpt>
      <trkpt lat="43.43601" lon="6.89239">
        <ele>54.458109</ele>
        <time>2024-01-31T11:10:11.938Z</time>
      </trkpt>
      <trkpt lat="43.4359" lon="6.89243">
        <ele>54.841367</ele>
        <time>2024-01-31T11:10:14.945Z</time>
      </trkpt>
      <trkpt lat="43.43579" lon="6.89245">
        <ele>55.211817</ele>
        <time>2024-01-31T11:10:17.938Z</time>
      </trkpt>
      <trkpt lat="43.43568" lon="6.89247">
        <ele>55.555367</ele>
        <time>2024-01-31T11:10:20.934Z</time>
      </trkpt>
      <trkpt lat="43.43558" lon="6.89251">
        <ele>55.894232</ele>
        <time>2024-01-31T11:10:23.931Z</time>
      </trkpt>
      <trkpt lat="43.43548" lon="6.89257">
        <ele>56.261508</ele>
        <time>2024-01-31T11:10:26.954Z</time>
      </trkpt>
      <trkpt lat="43.43539" lon="6.89264">
        <ele>56.60541</ele>
        <time>2024-01-31T11:10:29.945Z</time>
      </trkpt>
      <trkpt lat="43.4353" lon="6.89272">
        <ele>56.928382</ele>
        <time>2024-01-31T11:10:32.950Z</time>
      </trkpt>
      <trkpt lat="43.43522" lon="6.8928">
        <ele>57.25806</ele>
        <time>2024-01-31T11:10:35.943Z</time>
      </trkpt>
      <trkpt lat="43.43514" lon="6.89289">
        <ele>57.597816</ele>
        <time>2024-01-31T11:10:38.939Z</time>
      </trkpt>
      <trkpt lat="43.43505" lon="6.89298">
        <ele>57.969069</ele>
        <time>2024-01-31T11:10:41.947Z</time>
      </trkpt>
      <trkpt lat="43.43497" lon="6.89308">
        <ele>58.302475</ele>
        <time>2024-01-31T11:10:44.944Z</time>
      </trkpt>
      <trkpt lat="43.43491" lon="6.89317">
        <ele>58.610368</ele>
        <time>2024-01-31T11:10:47.936Z</time>
      </trkpt>
      <trkpt lat="43.43484" lon="6.89326">
        <ele>58.913139</ele>
        <time>2024-01-31T11:10:50.937Z</time>
      </trkpt>
      <trkpt lat="43.43477" lon="6.89339">
        <ele>59.294239</ele>
        <time>2024-01-31T11:10:54.934Z</time>
      </trkpt>
      <trkpt lat="43.43471" lon="6.89349">
        <ele>59.58494</ele>
        <time>2024-01-31T11:10:57.950Z</time>
      </trkpt>
      <trkpt lat="43.43464" lon="6.89361">
        <ele>59.964473</ele>
        <time>2024-01-31T11:11:01.947Z</time>
      </trkpt>
      <trkpt lat="43.43458" lon="6.89374">
        <ele>60.03924</ele>
        <time>2024-01-31T11:11:05.959Z</time>
      </trkpt>
      <trkpt lat="43.43452" lon="6.89388">
        <ele>60.02455</ele>
        <time>2024-01-31T11:11:09.928Z</time>
      </trkpt>
      <trkpt lat="43.43449" lon="6.89402">
        <ele>60.011534</ele>
        <time>2024-01-31T11:11:12.936Z</time>
      </trkpt>
      <trkpt lat="43.43444" lon="6.89417">
        <ele>59.996281</ele>
        <time>2024-01-31T11:11:15.925Z</time>
      </trkpt>
      <trkpt lat="43.43441" lon="6.89434">
        <ele>59.980218</ele>
        <time>2024-01-31T11:11:18.945Z</time>
      </trkpt>
      <trkpt lat="43.43434" lon="6.89444">
        <ele>59.968086</ele>
        <time>2024-01-31T11:11:20.915Z</time>
      </trkpt>
      <trkpt lat="43.43425" lon="6.8945">
        <ele>59.95481</ele>
        <time>2024-01-31T11:11:22.933Z</time>
      </trkpt>
      <trkpt lat="43.43414" lon="6.89448">
        <ele>59.941297</ele>
        <time>2024-01-31T11:11:24.942Z</time>
      </trkpt>
      <trkpt lat="43.43405" lon="6.89443">
        <ele>59.928325</ele>
        <time>2024-01-31T11:11:26.918Z</time>
      </trkpt>
      <trkpt lat="43.43395" lon="6.89435">
        <ele>59.914618</ele>
        <time>2024-01-31T11:11:28.918Z</time>
      </trkpt>
      <trkpt lat="43.43387" lon="6.89427">
        <ele>59.901861</ele>
        <time>2024-01-31T11:11:30.931Z</time>
      </trkpt>
      <trkpt lat="43.43378" lon="6.89421">
        <ele>59.889005</ele>
        <time>2024-01-31T11:11:32.954Z</time>
      </trkpt>
      <trkpt lat="43.43368" lon="6.89416">
        <ele>59.876445</ele>
        <time>2024-01-31T11:11:34.940Z</time>
      </trkpt>
      <trkpt lat="43.43359" lon="6.89414">
        <ele>59.864209</ele>
        <time>2024-01-31T11:11:36.938Z</time>
      </trkpt>
      <trkpt lat="43.43349" lon="6.89418">
        <ele>59.851584</ele>
        <time>2024-01-31T11:11:38.937Z</time>
      </trkpt>
      <trkpt lat="43.43341" lon="6.89427">
        <ele>59.838774</ele>
        <time>2024-01-31T11:11:40.928Z</time>
      </trkpt>
      <trkpt lat="43.43332" lon="6.89433">
        <ele>59.826315</ele>
        <time>2024-01-31T11:11:42.947Z</time>
      </trkpt>
      <trkpt lat="43.43323" lon="6.89437">
        <ele>59.774721</ele>
        <time>2024-01-31T11:11:44.937Z</time>
      </trkpt>
      <trkpt lat="43.43313" lon="6.89435">
        <ele>59.712656</ele>
        <time>2024-01-31T11:11:46.921Z</time>
      </trkpt>
      <trkpt lat="43.43304" lon="6.89432">
        <ele>59.651867</ele>
        <time>2024-01-31T11:11:48.925Z</time>
      </trkpt>
      <trkpt lat="43.43291" lon="6.89429">
        <ele>59.56883</ele>
        <time>2024-01-31T11:11:51.952Z</time>
      </trkpt>
      <trkpt lat="43.43279" lon="6.89424">
        <ele>59.486527</ele>
        <time>2024-01-31T11:11:54.937Z</time>
      </trkpt>
      <trkpt lat="43.4327" lon="6.8942">
        <ele>59.426722</ele>
        <time>2024-01-31T11:11:56.950Z</time>
      </trkpt>
      <trkpt lat="43.43262" lon="6.89416">
        <ele>59.368275</ele>
        <time>2024-01-31T11:11:58.935Z</time>
      </trkpt>
      <trkpt lat="43.43252" lon="6.8941">
        <ele>59.30372</ele>
        <time>2024-01-31T11:12:00.932Z</time>
      </trkpt>
      <trkpt lat="43.43244" lon="6.89403">
        <ele>59.236993</ele>
        <time>2024-01-31T11:12:02.942Z</time>
      </trkpt>
      <trkpt lat="43.43235" lon="6.89395">
        <ele>59.169779</ele>
        <time>2024-01-31T11:12:04.950Z</time>
      </trkpt>
      <trkpt lat="43.43225" lon="6.89389">
        <ele>59.104643</ele>
        <time>2024-01-31T11:12:06.928Z</time>
      </trkpt>
      <trkpt lat="43.43216" lon="6.89381">
        <ele>59.03085</ele>
        <time>2024-01-31T11:12:08.937Z</time>
      </trkpt>
      <trkpt lat="43.43206" lon="6.89373">
        <ele>58.955511</ele>
        <time>2024-01-31T11:12:10.934Z</time>
      </trkpt>
      <trkpt lat="43.43196" lon="6.89365">
        <ele>58.886169</ele>
        <time>2024-01-31T11:12:12.935Z</time>
      </trkpt>
      <trkpt lat="43.43187" lon="6.89357">
        <ele>58.81336</ele>
        <time>2024-01-31T11:12:14.937Z</time>
      </trkpt>
      <trkpt lat="43.43178" lon="6.8935">
        <ele>58.749154</ele>
        <time>2024-01-31T11:12:16.931Z</time>
      </trkpt>
      <trkpt lat="43.43167" lon="6.89342">
        <ele>58.672803</ele>
        <time>2024-01-31T11:12:19.937Z</time>
      </trkpt>
      <trkpt lat="43.43156" lon="6.89335">
        <ele>58.631306</ele>
        <time>2024-01-31T11:12:22.945Z</time>
      </trkpt>
      <trkpt lat="43.43145" lon="6.89328">
        <ele>58.591418</ele>
        <time>2024-01-31T11:12:25.948Z</time>
      </trkpt>
      <trkpt lat="43.43133" lon="6.89324">
        <ele>58.552086</ele>
        <time>2024-01-31T11:12:28.934Z</time>
      </trkpt>
      <trkpt lat="43.4312" lon="6.89322">
        <ele>58.511543</ele>
        <time>2024-01-31T11:12:31.937Z</time>
      </trkpt>
      <trkpt lat="43.43107" lon="6.8932">
        <ele>58.469265</ele>
        <time>2024-01-31T11:12:34.925Z</time>
      </trkpt>
      <trkpt lat="43.43094" lon="6.89316">
        <ele>58.427435</ele>
        <time>2024-01-31T11:12:37.942Z</time>
      </trkpt>
      <trkpt lat="43.43085" lon="6.89314">
        <ele>58.398273</ele>
        <time>2024-01-31T11:12:39.947Z</time>
      </trkpt>
      <trkpt lat="43.43072" lon="6.89308">
        <ele>58.354925</ele>
        <time>2024-01-31T11:12:42.939Z</time>
      </trkpt>
      <trkpt lat="43.4306" lon="6.89299">
        <ele>58.312103</ele>
        <time>2024-01-31T11:12:45.943Z</time>
      </trkpt>
      <trkpt lat="43.43053" lon="6.89293">
        <ele>58.282882</ele>
        <time>2024-01-31T11:12:47.926Z</time>
      </trkpt>
      <trkpt lat="43.43045" lon="6.89285">
        <ele>58.250914</ele>
        <time>2024-01-31T11:12:49.961Z</time>
      </trkpt>
      <trkpt lat="43.43037" lon="6.89278">
        <ele>58.220637</ele>
        <time>2024-01-31T11:12:51.943Z</time>
      </trkpt>
      <trkpt lat="43.43028" lon="6.8927">
        <ele>58.187578</ele>
        <time>2024-01-31T11:12:53.953Z</time>
      </trkpt>
      <trkpt lat="43.4302" lon="6.89262">
        <ele>58.155742</ele>
        <time>2024-01-31T11:12:55.944Z</time>
      </trkpt>
      <trkpt lat="43.43011" lon="6.89254">
        <ele>58.123246</ele>
        <time>2024-01-31T11:12:57.943Z</time>
      </trkpt>
      <trkpt lat="43.43003" lon="6.89246">
        <ele>58.109535</ele>
        <time>2024-01-31T11:12:59.953Z</time>
      </trkpt>
      <trkpt lat="43.42996" lon="6.89237">
        <ele>58.234396</ele>
        <time>2024-01-31T11:13:01.945Z</time>
      </trkpt>
      <trkpt lat="43.4299" lon="6.89226">
        <ele>58.358231</ele>
        <time>2024-01-31T11:13:03.943Z</time>
      </trkpt>
      <trkpt lat="43.42985" lon="6.89215">
        <ele>58.475453</ele>
        <time>2024-01-31T11:13:05.939Z</time>
      </trkpt>
      <trkpt lat="43.42979" lon="6.89199">
        <ele>58.642103</ele>
        <time>2024-01-31T11:13:08.929Z</time>
      </trkpt>
      <trkpt lat="43.42975" lon="6.89188">
        <ele>58.759417</ele>
        <time>2024-01-31T11:13:10.935Z</time>
      </trkpt>
      <trkpt lat="43.42967" lon="6.89173">
        <ele>58.924614</ele>
        <time>2024-01-31T11:13:13.937Z</time>
      </trkpt>
      <trkpt lat="43.42958" lon="6.8916">
        <ele>59.091113</ele>
        <time>2024-01-31T11:13:16.945Z</time>
      </trkpt>
      <trkpt lat="43.4295" lon="6.89146">
        <ele>59.255178</ele>
        <time>2024-01-31T11:13:19.923Z</time>
      </trkpt>
      <trkpt lat="43.42944" lon="6.89132">
        <ele>59.408331</ele>
        <time>2024-01-31T11:13:22.941Z</time>
      </trkpt>
      <trkpt lat="43.42938" lon="6.89116">
        <ele>59.568626</ele>
        <time>2024-01-31T11:13:25.938Z</time>
      </trkpt>
      <trkpt lat="43.42933" lon="6.89105">
        <ele>59.686511</ele>
        <time>2024-01-31T11:13:27.933Z</time>
      </trkpt>
      <trkpt lat="43.42929" lon="6.89095">
        <ele>59.80058</ele>
        <time>2024-01-31T11:13:29.957Z</time>
      </trkpt>
      <trkpt lat="43.42925" lon="6.89083">
        <ele>59.915098</ele>
        <time>2024-01-31T11:13:31.926Z</time>
      </trkpt>
      <trkpt lat="43.42919" lon="6.89067">
        <ele>60.080635</ele>
        <time>2024-01-31T11:13:34.941Z</time>
      </trkpt>
      <trkpt lat="43.42914" lon="6.8905">
        <ele>60.251859</ele>
        <time>2024-01-31T11:13:37.934Z</time>
      </trkpt>
      <trkpt lat="43.42912" lon="6.89032">
        <ele>60.410923</ele>
        <time>2024-01-31T11:13:40.920Z</time>
      </trkpt>
      <trkpt lat="43.42912" lon="6.8902">
        <ele>60.507241</ele>
        <time>2024-01-31T11:13:42.931Z</time>
      </trkpt>
      <trkpt lat="43.42914" lon="6.89007">
        <ele>60.604895</ele>
        <time>2024-01-31T11:13:44.932Z</time>
      </trkpt>
      <trkpt lat="43.42915" lon="6.8899">
        <ele>60.739013</ele>
        <time>2024-01-31T11:13:47.951Z</time>
      </trkpt>
      <trkpt lat="43.42916" lon="6.88973">
        <ele>60.874303</ele>
        <time>2024-01-31T11:13:50.935Z</time>
      </trkpt>
      <trkpt lat="43.42917" lon="6.88957">
        <ele>60.996346</ele>
        <time>2024-01-31T11:13:53.937Z</time>
      </trkpt>
      <trkpt lat="43.42918" lon="6.88943">
        <ele>61.107437</ele>
        <time>2024-01-31T11:13:56.942Z</time>
      </trkpt>
      <trkpt lat="43.42916" lon="6.88928">
        <ele>61.221349</ele>
        <time>2024-01-31T11:13:59.919Z</time>
      </trkpt>
      <trkpt lat="43.42914" lon="6.88914">
        <ele>61.334716</ele>
        <time>2024-01-31T11:14:02.941Z</time>
      </trkpt>
      <trkpt lat="43.42912" lon="6.88898">
        <ele>61.457203</ele>
        <time>2024-01-31T11:14:05.952Z</time>
      </trkpt>
      <trkpt lat="43.4291" lon="6.88884">
        <ele>61.573413</ele>
        <time>2024-01-31T11:14:08.936Z</time>
      </trkpt>
      <trkpt lat="43.42908" lon="6.88867">
        <ele>61.708695</ele>
        <time>2024-01-31T11:14:11.938Z</time>
      </trkpt>
      <trkpt lat="43.42905" lon="6.88849">
        <ele>61.846818</ele>
        <time>2024-01-31T11:14:14.964Z</time>
      </trkpt>
      <trkpt lat="43.42905" lon="6.88836">
        <ele>61.945314</ele>
        <time>2024-01-31T11:14:16.917Z</time>
      </trkpt>
      <trkpt lat="43.42908" lon="6.88819">
        <ele>62.082538</ele>
        <time>2024-01-31T11:14:19.917Z</time>
      </trkpt>
      <trkpt lat="43.42913" lon="6.88805">
        <ele>62.206833</ele>
        <time>2024-01-31T11:14:22.936Z</time>
      </trkpt>
      <trkpt lat="43.42918" lon="6.88788">
        <ele>62.272545</ele>
        <time>2024-01-31T11:14:25.935Z</time>
      </trkpt>
      <trkpt lat="43.42921" lon="6.88776">
        <ele>62.233626</ele>
        <time>2024-01-31T11:14:27.928Z</time>
      </trkpt>
      <trkpt lat="43.42923" lon="6.88764">
        <ele>62.194663</ele>
        <time>2024-01-31T11:14:29.949Z</time>
      </trkpt>
      <trkpt lat="43.42924" lon="6.88751">
        <ele>62.154423</ele>
        <time>2024-01-31T11:14:31.938Z</time>
      </trkpt>
      <trkpt lat="43.42925" lon="6.88738">
        <ele>62.115803</ele>
        <time>2024-01-31T11:14:33.930Z</time>
      </trkpt>
      <trkpt lat="43.42924" lon="6.88725">
        <ele>62.074263</ele>
        <time>2024-01-31T11:14:35.925Z</time>
      </trkpt>
      <trkpt lat="43.42922" lon="6.88711">
        <ele>62.031155</ele>
        <time>2024-01-31T11:14:37.922Z</time>
      </trkpt>
      <trkpt lat="43.4292" lon="6.88698">
        <ele>61.989288</ele>
        <time>2024-01-31T11:14:39.919Z</time>
      </trkpt>
      <trkpt lat="43.42916" lon="6.88684">
        <ele>61.944193</ele>
        <time>2024-01-31T11:14:41.942Z</time>
      </trkpt>
      <trkpt lat="43.42913" lon="6.8867">
        <ele>61.899947</ele>
        <time>2024-01-31T11:14:43.956Z</time>
      </trkpt>
      <trkpt lat="43.42909" lon="6.88656">
        <ele>61.853418</ele>
        <time>2024-01-31T11:14:45.946Z</time>
      </trkpt>
      <trkpt lat="43.42905" lon="6.88642">
        <ele>61.80802</ele>
        <time>2024-01-31T11:14:47.949Z</time>
      </trkpt>
      <trkpt lat="43.42901" lon="6.88629">
        <ele>61.761806</ele>
        <time>2024-01-31T11:14:49.937Z</time>
      </trkpt>
      <trkpt lat="43.42894" lon="6.88616">
        <ele>61.715012</ele>
        <time>2024-01-31T11:14:51.946Z</time>
      </trkpt>
      <trkpt lat="43.42889" lon="6.88603">
        <ele>61.668541</ele>
        <time>2024-01-31T11:14:53.937Z</time>
      </trkpt>
      <trkpt lat="43.42886" lon="6.88588">
        <ele>61.619832</ele>
        <time>2024-01-31T11:14:55.943Z</time>
      </trkpt>
      <trkpt lat="43.42886" lon="6.88572">
        <ele>61.57216</ele>
        <time>2024-01-31T11:14:57.923Z</time>
      </trkpt>
      <trkpt lat="43.42887" lon="6.88557">
        <ele>61.53897</ele>
        <time>2024-01-31T11:14:59.930Z</time>
      </trkpt>
      <trkpt lat="43.42888" lon="6.88542">
        <ele>61.592631</ele>
        <time>2024-01-31T11:15:01.934Z</time>
      </trkpt>
      <trkpt lat="43.42888" lon="6.88528">
        <ele>61.642882</ele>
        <time>2024-01-31T11:15:03.946Z</time>
      </trkpt>
      <trkpt lat="43.42887" lon="6.88514">
        <ele>61.691886</ele>
        <time>2024-01-31T11:15:05.928Z</time>
      </trkpt>
      <trkpt lat="43.42886" lon="6.88501">
        <ele>61.739002</ele>
        <time>2024-01-31T11:15:07.939Z</time>
      </trkpt>
      <trkpt lat="43.42885" lon="6.88488">
        <ele>61.786324</ele>
        <time>2024-01-31T11:15:09.937Z</time>
      </trkpt>
      <trkpt lat="43.42883" lon="6.88471">
        <ele>61.847574</ele>
        <time>2024-01-31T11:15:12.936Z</time>
      </trkpt>
      <trkpt lat="43.42882" lon="6.88457">
        <ele>61.897739</ele>
        <time>2024-01-31T11:15:15.947Z</time>
      </trkpt>
      <trkpt lat="43.42881" lon="6.88443">
        <ele>61.948436</ele>
        <time>2024-01-31T11:15:18.948Z</time>
      </trkpt>
      <trkpt lat="43.42879" lon="6.88428">
        <ele>62.002678</ele>
        <time>2024-01-31T11:15:21.916Z</time>
      </trkpt>
      <trkpt lat="43.42877" lon="6.88413">
        <ele>62.056488</ele>
        <time>2024-01-31T11:15:24.934Z</time>
      </trkpt>
      <trkpt lat="43.42876" lon="6.88398">
        <ele>62.109893</ele>
        <time>2024-01-31T11:15:27.944Z</time>
      </trkpt>
      <trkpt lat="43.42875" lon="6.88383">
        <ele>62.163083</ele>
        <time>2024-01-31T11:15:30.912Z</time>
      </trkpt>
      <trkpt lat="43.42876" lon="6.88369">
        <ele>62.211691</ele>
        <time>2024-01-31T11:15:33.946Z</time>
      </trkpt>
      <trkpt lat="43.42878" lon="6.88356">
        <ele>62.259356</ele>
        <time>2024-01-31T11:15:36.951Z</time>
      </trkpt>
      <trkpt lat="43.42881" lon="6.88343">
        <ele>62.3081</ele>
        <time>2024-01-31T11:15:39.935Z</time>
      </trkpt>
      <trkpt lat="43.42885" lon="6.8833">
        <ele>62.361185</ele>
        <time>2024-01-31T11:15:43.915Z</time>
      </trkpt>
      <trkpt lat="43.4289" lon="6.88314">
        <ele>62.373367</ele>
        <time>2024-01-31T11:16:04.937Z</time>
      </trkpt>
      <trkpt lat="43.42894" lon="6.88298">
        <ele>62.07772</ele>
        <time>2024-01-31T11:16:08.937Z</time>
      </trkpt>
      <trkpt lat="43.42898" lon="6.88284">
        <ele>61.792261</ele>
        <time>2024-01-31T11:16:11.933Z</time>
      </trkpt>
      <trkpt lat="43.429" lon="6.88266">
        <ele>61.471141</ele>
        <time>2024-01-31T11:16:14.934Z</time>
      </trkpt>
      <trkpt lat="43.429" lon="6.88249">
        <ele>61.154792</ele>
        <time>2024-01-31T11:16:17.934Z</time>
      </trkpt>
      <trkpt lat="43.429" lon="6.88234">
        <ele>60.891927</ele>
        <time>2024-01-31T11:16:19.935Z</time>
      </trkpt>
      <trkpt lat="43.42899" lon="6.88219">
        <ele>60.609758</ele>
        <time>2024-01-31T11:16:21.920Z</time>
      </trkpt>
      <trkpt lat="43.42898" lon="6.88201">
        <ele>60.287912</ele>
        <time>2024-01-31T11:16:23.938Z</time>
      </trkpt>
      <trkpt lat="43.42896" lon="6.88183">
        <ele>59.967282</ele>
        <time>2024-01-31T11:16:25.911Z</time>
      </trkpt>
      <trkpt lat="43.42893" lon="6.88166">
        <ele>59.641974</ele>
        <time>2024-01-31T11:16:27.926Z</time>
      </trkpt>
      <trkpt lat="43.42886" lon="6.88151">
        <ele>59.322466</ele>
        <time>2024-01-31T11:16:29.924Z</time>
      </trkpt>
      <trkpt lat="43.42875" lon="6.88139">
        <ele>58.979781</ele>
        <time>2024-01-31T11:16:31.930Z</time>
      </trkpt>
      <trkpt lat="43.42863" lon="6.88131">
        <ele>58.627508</ele>
        <time>2024-01-31T11:16:33.925Z</time>
      </trkpt>
      <trkpt lat="43.42849" lon="6.88122">
        <ele>58.261001</ele>
        <time>2024-01-31T11:16:35.934Z</time>
      </trkpt>
      <trkpt lat="43.4284" lon="6.88109">
        <ele>57.935428</ele>
        <time>2024-01-31T11:16:37.946Z</time>
      </trkpt>
      <trkpt lat="43.42835" lon="6.88095">
        <ele>57.889497</ele>
        <time>2024-01-31T11:16:39.929Z</time>
      </trkpt>
      <trkpt lat="43.42834" lon="6.88081">
        <ele>57.849504</ele>
        <time>2024-01-31T11:16:41.927Z</time>
      </trkpt>
      <trkpt lat="43.42833" lon="6.88067">
        <ele>57.810396</ele>
        <time>2024-01-31T11:16:43.918Z</time>
      </trkpt>
      <trkpt lat="43.42832" lon="6.88054">
        <ele>57.772452</ele>
        <time>2024-01-31T11:16:45.930Z</time>
      </trkpt>
      <trkpt lat="43.42832" lon="6.88041">
        <ele>57.73567</ele>
        <time>2024-01-31T11:16:47.937Z</time>
      </trkpt>
      <trkpt lat="43.4283" lon="6.88023">
        <ele>57.68402</ele>
        <time>2024-01-31T11:16:50.944Z</time>
      </trkpt>
      <trkpt lat="43.42829" lon="6.88004">
        <ele>57.631876</ele>
        <time>2024-01-31T11:16:53.939Z</time>
      </trkpt>
      <trkpt lat="43.4283" lon="6.87987">
        <ele>57.582025</ele>
        <time>2024-01-31T11:16:56.932Z</time>
      </trkpt>
      <trkpt lat="43.4283" lon="6.87974">
        <ele>57.546118</ele>
        <time>2024-01-31T11:16:58.925Z</time>
      </trkpt>
      <trkpt lat="43.42833" lon="6.87956">
        <ele>57.491867</ele>
        <time>2024-01-31T11:17:01.952Z</time>
      </trkpt>
      <trkpt lat="43.42835" lon="6.87942">
        <ele>57.45134</ele>
        <time>2024-01-31T11:17:03.946Z</time>
      </trkpt>
      <trkpt lat="43.42837" lon="6.87926">
        <ele>57.407665</ele>
        <time>2024-01-31T11:17:05.933Z</time>
      </trkpt>
      <trkpt lat="43.42838" lon="6.87911">
        <ele>57.364581</ele>
        <time>2024-01-31T11:17:07.956Z</time>
      </trkpt>
      <trkpt lat="43.42841" lon="6.87896">
        <ele>57.320479</ele>
        <time>2024-01-31T11:17:09.951Z</time>
      </trkpt>
      <trkpt lat="43.42843" lon="6.8788">
        <ele>57.274626</ele>
        <time>2024-01-31T11:17:11.917Z</time>
      </trkpt>
      <trkpt lat="43.42844" lon="6.87864">
        <ele>57.23086</ele>
        <time>2024-01-31T11:17:13.933Z</time>
      </trkpt>
      <trkpt lat="43.42841" lon="6.87849">
        <ele>57.216117</ele>
        <time>2024-01-31T11:17:15.943Z</time>
      </trkpt>
      <trkpt lat="43.42835" lon="6.87835">
        <ele>57.19984</ele>
        <time>2024-01-31T11:17:17.930Z</time>
      </trkpt>
      <trkpt lat="43.42824" lon="6.87827">
        <ele>57.183485</ele>
        <time>2024-01-31T11:17:19.925Z</time>
      </trkpt>
      <trkpt lat="43.42811" lon="6.87822">
        <ele>57.166221</ele>
        <time>2024-01-31T11:17:21.927Z</time>
      </trkpt>
      <trkpt lat="43.42799" lon="6.87819">
        <ele>57.149828</ele>
        <time>2024-01-31T11:17:23.941Z</time>
      </trkpt>
      <trkpt lat="43.42787" lon="6.87817">
        <ele>57.133509</ele>
        <time>2024-01-31T11:17:25.942Z</time>
      </trkpt>
      <trkpt lat="43.42775" lon="6.87815">
        <ele>57.117554</ele>
        <time>2024-01-31T11:17:27.936Z</time>
      </trkpt>
      <trkpt lat="43.42763" lon="6.87813">
        <ele>57.102311</ele>
        <time>2024-01-31T11:17:29.920Z</time>
      </trkpt>
      <trkpt lat="43.42752" lon="6.87811">
        <ele>57.087447</ele>
        <time>2024-01-31T11:17:31.936Z</time>
      </trkpt>
      <trkpt lat="43.42742" lon="6.87808">
        <ele>57.073614</ele>
        <time>2024-01-31T11:17:33.939Z</time>
      </trkpt>
      <trkpt lat="43.42732" lon="6.87806">
        <ele>57.05971</ele>
        <time>2024-01-31T11:17:35.930Z</time>
      </trkpt>
      <trkpt lat="43.42722" lon="6.87804">
        <ele>57.046476</ele>
        <time>2024-01-31T11:17:37.921Z</time>
      </trkpt>
      <trkpt lat="43.42713" lon="6.87798">
        <ele>57.033919</ele>
        <time>2024-01-31T11:17:39.918Z</time>
      </trkpt>
      <trkpt lat="43.42706" lon="6.8779">
        <ele>57.021531</ele>
        <time>2024-01-31T11:17:41.912Z</time>
      </trkpt>
      <trkpt lat="43.42699" lon="6.87781">
        <ele>57.00884</ele>
        <time>2024-01-31T11:17:43.911Z</time>
      </trkpt>
      <trkpt lat="43.42694" lon="6.8777">
        <ele>56.996866</ele>
        <time>2024-01-31T11:17:45.934Z</time>
      </trkpt>
      <trkpt lat="43.42692" lon="6.87758">
        <ele>57.103424</ele>
        <time>2024-01-31T11:17:47.911Z</time>
      </trkpt>
      <trkpt lat="43.42691" lon="6.87744">
        <ele>57.251806</ele>
        <time>2024-01-31T11:17:49.938Z</time>
      </trkpt>
      <trkpt lat="43.42691" lon="6.87729">
        <ele>57.413526</ele>
        <time>2024-01-31T11:17:51.934Z</time>
      </trkpt>
      <trkpt lat="43.4269" lon="6.87715">
        <ele>57.573253</ele>
        <time>2024-01-31T11:17:53.939Z</time>
      </trkpt>
      <trkpt lat="43.4269" lon="6.877">
        <ele>57.729448</ele>
        <time>2024-01-31T11:17:55.941Z</time>
      </trkpt>
      <trkpt lat="43.42691" lon="6.87686">
        <ele>57.890125</ele>
        <time>2024-01-31T11:17:57.947Z</time>
      </trkpt>
      <trkpt lat="43.42691" lon="6.87672">
        <ele>58.041951</ele>
        <time>2024-01-31T11:17:59.938Z</time>
      </trkpt>
      <trkpt lat="43.4269" lon="6.87658">
        <ele>58.192752</ele>
        <time>2024-01-31T11:18:01.928Z</time>
      </trkpt>
      <trkpt lat="43.42691" lon="6.87644">
        <ele>58.342461</ele>
        <time>2024-01-31T11:18:03.942Z</time>
      </trkpt>
      <trkpt lat="43.42691" lon="6.87632">
        <ele>58.482272</ele>
        <time>2024-01-31T11:18:05.935Z</time>
      </trkpt>
      <trkpt lat="43.42691" lon="6.87618">
        <ele>58.627553</ele>
        <time>2024-01-31T11:18:07.938Z</time>
      </trkpt>
      <trkpt lat="43.42691" lon="6.87605">
        <ele>58.776292</ele>
        <time>2024-01-31T11:18:09.937Z</time>
      </trkpt>
      <trkpt lat="43.42692" lon="6.87591">
        <ele>58.922002</ele>
        <time>2024-01-31T11:18:11.937Z</time>
      </trkpt>
      <trkpt lat="43.42695" lon="6.87579">
        <ele>59.064283</ele>
        <time>2024-01-31T11:18:13.937Z</time>
      </trkpt>
      <trkpt lat="43.42699" lon="6.87564">
        <ele>59.245155</ele>
        <time>2024-01-31T11:18:16.930Z</time>
      </trkpt>
      <trkpt lat="43.42704" lon="6.87551">
        <ele>59.403199</ele>
        <time>2024-01-31T11:18:19.933Z</time>
      </trkpt>
      <trkpt lat="43.42708" lon="6.87538">
        <ele>59.554693</ele>
        <time>2024-01-31T11:18:22.944Z</time>
      </trkpt>
      <trkpt lat="43.42712" lon="6.87525">
        <ele>59.690758</ele>
        <time>2024-01-31T11:18:25.936Z</time>
      </trkpt>
      <trkpt lat="43.42716" lon="6.87513">
        <ele>59.556254</ele>
        <time>2024-01-31T11:18:28.925Z</time>
      </trkpt>
      <trkpt lat="43.4272" lon="6.87501">
        <ele>59.419294</ele>
        <time>2024-01-31T11:18:31.938Z</time>
      </trkpt>
      <trkpt lat="43.42724" lon="6.87488">
        <ele>59.266988</ele>
        <time>2024-01-31T11:18:34.927Z</time>
      </trkpt>
      <trkpt lat="43.42728" lon="6.87473">
        <ele>59.103559</ele>
        <time>2024-01-31T11:18:37.936Z</time>
      </trkpt>
      <trkpt lat="43.4273" lon="6.87455">
        <ele>58.914878</ele>
        <time>2024-01-31T11:18:40.934Z</time>
      </trkpt>
      <trkpt lat="43.42729" lon="6.87441">
        <ele>58.773981</ele>
        <time>2024-01-31T11:18:42.930Z</time>
      </trkpt>
      <trkpt lat="43.42725" lon="6.87429">
        <ele>58.638645</ele>
        <time>2024-01-31T11:18:44.926Z</time>
      </trkpt>
      <trkpt lat="43.42722" lon="6.87415">
        <ele>58.484443</ele>
        <time>2024-01-31T11:18:46.928Z</time>
      </trkpt>
      <trkpt lat="43.42717" lon="6.87401">
        <ele>58.324023</ele>
        <time>2024-01-31T11:18:48.947Z</time>
      </trkpt>
      <trkpt lat="43.42714" lon="6.87384">
        <ele>58.151842</ele>
        <time>2024-01-31T11:18:50.932Z</time>
      </trkpt>
      <trkpt lat="43.42714" lon="6.87368">
        <ele>57.983615</ele>
        <time>2024-01-31T11:18:52.930Z</time>
      </trkpt>
      <trkpt lat="43.42713" lon="6.87352">
        <ele>57.815607</ele>
        <time>2024-01-31T11:18:54.935Z</time>
      </trkpt>
      <trkpt lat="43.42708" lon="6.87337">
        <ele>57.646109</ele>
        <time>2024-01-31T11:18:56.932Z</time>
      </trkpt>
      <trkpt lat="43.42701" lon="6.87323">
        <ele>57.473193</ele>
        <time>2024-01-31T11:18:59.133Z</time>
      </trkpt>
      <trkpt lat="43.42691" lon="6.87312">
        <ele>57.292424</ele>
        <time>2024-01-31T11:19:00.937Z</time>
      </trkpt>
      <trkpt lat="43.42682" lon="6.87301">
        <ele>57.143197</ele>
        <time>2024-01-31T11:19:02.926Z</time>
      </trkpt>
      <trkpt lat="43.42673" lon="6.87291">
        <ele>57.138024</ele>
        <time>2024-01-31T11:19:04.935Z</time>
      </trkpt>
      <trkpt lat="43.42665" lon="6.87281">
        <ele>57.132954</ele>
        <time>2024-01-31T11:19:06.951Z</time>
      </trkpt>
      <trkpt lat="43.42656" lon="6.87272">
        <ele>57.12796</ele>
        <time>2024-01-31T11:19:08.942Z</time>
      </trkpt>
      <trkpt lat="43.42647" lon="6.87262">
        <ele>57.122931</ele>
        <time>2024-01-31T11:19:10.938Z</time>
      </trkpt>
      <trkpt lat="43.42639" lon="6.87252">
        <ele>57.117993</ele>
        <time>2024-01-31T11:19:12.951Z</time>
      </trkpt>
      <trkpt lat="43.42632" lon="6.8724">
        <ele>57.113029</ele>
        <time>2024-01-31T11:19:14.950Z</time>
      </trkpt>
      <trkpt lat="43.42626" lon="6.87226">
        <ele>57.10755</ele>
        <time>2024-01-31T11:19:16.945Z</time>
      </trkpt>
      <trkpt lat="43.42623" lon="6.8721">
        <ele>57.10231</ele>
        <time>2024-01-31T11:19:18.928Z</time>
      </trkpt>
      <trkpt lat="43.42622" lon="6.87193">
        <ele>57.096866</ele>
        <time>2024-01-31T11:19:20.929Z</time>
      </trkpt>
      <trkpt lat="43.42622" lon="6.87176">
        <ele>57.091304</ele>
        <time>2024-01-31T11:19:22.942Z</time>
      </trkpt>
      <trkpt lat="43.42625" lon="6.87159">
        <ele>57.085479</ele>
        <time>2024-01-31T11:19:24.952Z</time>
      </trkpt>
      <trkpt lat="43.42629" lon="6.87143">
        <ele>57.079873</ele>
        <time>2024-01-31T11:19:26.938Z</time>
      </trkpt>
      <trkpt lat="43.42635" lon="6.87129">
        <ele>57.07469</ele>
        <time>2024-01-31T11:19:28.932Z</time>
      </trkpt>
      <trkpt lat="43.42644" lon="6.8712">
        <ele>57.06974</ele>
        <time>2024-01-31T11:19:30.938Z</time>
      </trkpt>
      <trkpt lat="43.42654" lon="6.87116">
        <ele>57.06489</ele>
        <time>2024-01-31T11:19:32.947Z</time>
      </trkpt>
      <trkpt lat="43.42665" lon="6.87116">
        <ele>57.081729</ele>
        <time>2024-01-31T11:19:34.944Z</time>
      </trkpt>
      <trkpt lat="43.42674" lon="6.87119">
        <ele>57.111349</ele>
        <time>2024-01-31T11:19:36.937Z</time>
      </trkpt>
      <trkpt lat="43.42683" lon="6.87124">
        <ele>57.139416</ele>
        <time>2024-01-31T11:19:38.949Z</time>
      </trkpt>
      <trkpt lat="43.42691" lon="6.87131">
        <ele>57.168674</ele>
        <time>2024-01-31T11:19:40.940Z</time>
      </trkpt>
      <trkpt lat="43.42703" lon="6.87139">
        <ele>57.209774</ele>
        <time>2024-01-31T11:19:43.939Z</time>
      </trkpt>
      <trkpt lat="43.42715" lon="6.87144">
        <ele>57.248966</ele>
        <time>2024-01-31T11:19:46.953Z</time>
      </trkpt>
      <trkpt lat="43.42724" lon="6.87145">
        <ele>57.276713</ele>
        <time>2024-01-31T11:19:48.922Z</time>
      </trkpt>
      <trkpt lat="43.42737" lon="6.87145">
        <ele>57.316646</ele>
        <time>2024-01-31T11:19:51.930Z</time>
      </trkpt>
      <trkpt lat="43.4275" lon="6.87143">
        <ele>57.356511</ele>
        <time>2024-01-31T11:19:54.940Z</time>
      </trkpt>
      <trkpt lat="43.4276" lon="6.87142">
        <ele>57.384654</ele>
        <time>2024-01-31T11:19:56.926Z</time>
      </trkpt>
      <trkpt lat="43.42773" lon="6.8714">
        <ele>57.424241</ele>
        <time>2024-01-31T11:19:59.939Z</time>
      </trkpt>
      <trkpt lat="43.42785" lon="6.8714">
        <ele>57.463251</ele>
        <time>2024-01-31T11:20:02.937Z</time>
      </trkpt>
      <trkpt lat="43.42794" lon="6.87141">
        <ele>57.491133</ele>
        <time>2024-01-31T11:20:04.937Z</time>
      </trkpt>
      <trkpt lat="43.42807" lon="6.87147">
        <ele>57.530402</ele>
        <time>2024-01-31T11:20:07.914Z</time>
      </trkpt>
      <trkpt lat="43.42817" lon="6.87156">
        <ele>57.567603</ele>
        <time>2024-01-31T11:20:10.952Z</time>
      </trkpt>
      <trkpt lat="43.42828" lon="6.87164">
        <ele>57.604938</ele>
        <time>2024-01-31T11:20:13.944Z</time>
      </trkpt>
      <trkpt lat="43.42838" lon="6.87166">
        <ele>57.432764</ele>
        <time>2024-01-31T11:20:15.942Z</time>
      </trkpt>
      <trkpt lat="43.4285" lon="6.87162">
        <ele>57.178537</ele>
        <time>2024-01-31T11:20:17.943Z</time>
      </trkpt>
      <trkpt lat="43.42861" lon="6.87155">
        <ele>56.904835</ele>
        <time>2024-01-31T11:20:19.935Z</time>
      </trkpt>
      <trkpt lat="43.42874" lon="6.87149">
        <ele>56.612585</ele>
        <time>2024-01-31T11:20:21.929Z</time>
      </trkpt>
      <trkpt lat="43.42888" lon="6.87144">
        <ele>56.304554</ele>
        <time>2024-01-31T11:20:23.939Z</time>
      </trkpt>
      <trkpt lat="43.42902" lon="6.87142">
        <ele>55.993372</ele>
        <time>2024-01-31T11:20:25.935Z</time>
      </trkpt>
      <trkpt lat="43.42917" lon="6.87139">
        <ele>55.668547</ele>
        <time>2024-01-31T11:20:27.944Z</time>
      </trkpt>
      <trkpt lat="43.42933" lon="6.87136">
        <ele>55.321002</ele>
        <time>2024-01-31T11:20:29.934Z</time>
      </trkpt>
      <trkpt lat="43.42949" lon="6.87132">
        <ele>54.96368</ele>
        <time>2024-01-31T11:20:31.933Z</time>
      </trkpt>
      <trkpt lat="43.42965" lon="6.87128">
        <ele>54.617535</ele>
        <time>2024-01-31T11:20:33.932Z</time>
      </trkpt>
      <trkpt lat="43.4298" lon="6.87125">
        <ele>54.276158</ele>
        <time>2024-01-31T11:20:35.941Z</time>
      </trkpt>
      <trkpt lat="43.42996" lon="6.87122">
        <ele>53.941671</ele>
        <time>2024-01-31T11:20:37.946Z</time>
      </trkpt>
      <trkpt lat="43.4301" lon="6.87118">
        <ele>53.79571</ele>
        <time>2024-01-31T11:20:39.946Z</time>
      </trkpt>
      <trkpt lat="43.43024" lon="6.87114">
        <ele>54.027569</ele>
        <time>2024-01-31T11:20:41.940Z</time>
      </trkpt>
      <trkpt lat="43.43036" lon="6.87107">
        <ele>54.235883</ele>
        <time>2024-01-31T11:20:43.940Z</time>
      </trkpt>
      <trkpt lat="43.43047" lon="6.87098">
        <ele>54.442118</ele>
        <time>2024-01-31T11:20:45.963Z</time>
      </trkpt>
      <trkpt lat="43.43057" lon="6.87087">
        <ele>54.646912</ele>
        <time>2024-01-31T11:20:47.947Z</time>
      </trkpt>
      <trkpt lat="43.43067" lon="6.87077">
        <ele>54.853275</ele>
        <time>2024-01-31T11:20:49.952Z</time>
      </trkpt>
      <trkpt lat="43.43076" lon="6.87066">
        <ele>55.053311</ele>
        <time>2024-01-31T11:20:51.935Z</time>
      </trkpt>
      <trkpt lat="43.43085" lon="6.87055">
        <ele>55.245157</ele>
        <time>2024-01-31T11:20:53.947Z</time>
      </trkpt>
      <trkpt lat="43.43094" lon="6.87045">
        <ele>55.434597</ele>
        <time>2024-01-31T11:20:55.938Z</time>
      </trkpt>
      <trkpt lat="43.43103" lon="6.87036">
        <ele>55.617111</ele>
        <time>2024-01-31T11:20:57.939Z</time>
      </trkpt>
      <trkpt lat="43.43112" lon="6.87026">
        <ele>55.7954</ele>
        <time>2024-01-31T11:20:59.936Z</time>
      </trkpt>
      <trkpt lat="43.4312" lon="6.87017">
        <ele>55.970651</ele>
        <time>2024-01-31T11:21:01.943Z</time>
      </trkpt>
      <trkpt lat="43.43128" lon="6.87008">
        <ele>56.133415</ele>
        <time>2024-01-31T11:21:03.937Z</time>
      </trkpt>
      <trkpt lat="43.43134" lon="6.86999">
        <ele>56.28175</ele>
        <time>2024-01-31T11:21:05.945Z</time>
      </trkpt>
      <trkpt lat="43.43143" lon="6.86989">
        <ele>56.471596</ele>
        <time>2024-01-31T11:21:08.941Z</time>
      </trkpt>
      <trkpt lat="43.43152" lon="6.86978">
        <ele>56.644148</ele>
        <time>2024-01-31T11:21:12.937Z</time>
      </trkpt>
      <trkpt lat="43.43161" lon="6.86968">
        <ele>56.6443</ele>
        <time>2024-01-31T11:21:16.932Z</time>
      </trkpt>
      <trkpt lat="43.4317" lon="6.86958">
        <ele>56.644458</ele>
        <time>2024-01-31T11:21:20.948Z</time>
      </trkpt>
      <trkpt lat="43.4318" lon="6.8695">
        <ele>56.644608</ele>
        <time>2024-01-31T11:21:24.935Z</time>
      </trkpt>
      <trkpt lat="43.4319" lon="6.86945">
        <ele>56.644755</ele>
        <time>2024-01-31T11:21:28.932Z</time>
      </trkpt>
      <trkpt lat="43.43202" lon="6.86941">
        <ele>56.644909</ele>
        <time>2024-01-31T11:21:32.942Z</time>
      </trkpt>
      <trkpt lat="43.43211" lon="6.86938">
        <ele>56.645033</ele>
        <time>2024-01-31T11:21:35.963Z</time>
      </trkpt>
      <trkpt lat="43.43221" lon="6.86936">
        <ele>56.645166</ele>
        <time>2024-01-31T11:21:38.940Z</time>
      </trkpt>
      <trkpt lat="43.43232" lon="6.86935">
        <ele>56.645316</ele>
        <time>2024-01-31T11:21:41.959Z</time>
      </trkpt>
      <trkpt lat="43.43245" lon="6.86933">
        <ele>56.645481</ele>
        <time>2024-01-31T11:21:44.935Z</time>
      </trkpt>
      <trkpt lat="43.43258" lon="6.86931">
        <ele>56.645662</ele>
        <time>2024-01-31T11:21:47.952Z</time>
      </trkpt>
      <trkpt lat="43.43267" lon="6.86929">
        <ele>56.645785</ele>
        <time>2024-01-31T11:21:49.940Z</time>
      </trkpt>
      <trkpt lat="43.43277" lon="6.86926">
        <ele>56.645918</ele>
        <time>2024-01-31T11:21:51.953Z</time>
      </trkpt>
      <trkpt lat="43.43287" lon="6.8692">
        <ele>56.646055</ele>
        <time>2024-01-31T11:21:53.928Z</time>
      </trkpt>
      <trkpt lat="43.43296" lon="6.86911">
        <ele>56.646206</ele>
        <time>2024-01-31T11:21:55.920Z</time>
      </trkpt>
      <trkpt lat="43.43304" lon="6.86899">
        <ele>56.646369</ele>
        <time>2024-01-31T11:21:57.944Z</time>
      </trkpt>
      <trkpt lat="43.43312" lon="6.86885">
        <ele>56.605378</ele>
        <time>2024-01-31T11:21:59.940Z</time>
      </trkpt>
      <trkpt lat="43.4332" lon="6.8687">
        <ele>56.31252</ele>
        <time>2024-01-31T11:22:01.931Z</time>
      </trkpt>
      <trkpt lat="43.43329" lon="6.86855">
        <ele>55.991356</ele>
        <time>2024-01-31T11:22:03.947Z</time>
      </trkpt>
      <trkpt lat="43.43338" lon="6.86839">
        <ele>55.647612</ele>
        <time>2024-01-31T11:22:05.950Z</time>
      </trkpt>
      <trkpt lat="43.43347" lon="6.86821">
        <ele>55.294005</ele>
        <time>2024-01-31T11:22:07.931Z</time>
      </trkpt>
      <trkpt lat="43.43357" lon="6.86803">
        <ele>54.925816</ele>
        <time>2024-01-31T11:22:09.942Z</time>
      </trkpt>
      <trkpt lat="43.43367" lon="6.86785">
        <ele>54.557739</ele>
        <time>2024-01-31T11:22:11.936Z</time>
      </trkpt>
      <trkpt lat="43.43377" lon="6.86767">
        <ele>54.198823</ele>
        <time>2024-01-31T11:22:13.953Z</time>
      </trkpt>
      <trkpt lat="43.43386" lon="6.86749">
        <ele>53.842231</ele>
        <time>2024-01-31T11:22:15.935Z</time>
      </trkpt>
      <trkpt lat="43.43393" lon="6.8673">
        <ele>53.490737</ele>
        <time>2024-01-31T11:22:17.945Z</time>
      </trkpt>
      <trkpt lat="43.43398" lon="6.8671">
        <ele>53.15027</ele>
        <time>2024-01-31T11:22:19.938Z</time>
      </trkpt>
      <trkpt lat="43.434" lon="6.8669">
        <ele>52.810137</ele>
        <time>2024-01-31T11:22:21.948Z</time>
      </trkpt>
      <trkpt lat="43.43402" lon="6.8667">
        <ele>52.557994</ele>
        <time>2024-01-31T11:22:23.939Z</time>
      </trkpt>
      <trkpt lat="43.43405" lon="6.86649">
        <ele>52.423427</ele>
        <time>2024-01-31T11:22:25.943Z</time>
      </trkpt>
      <trkpt lat="43.43407" lon="6.8663">
        <ele>52.29733</ele>
        <time>2024-01-31T11:22:27.937Z</time>
      </trkpt>
      <trkpt lat="43.4341" lon="6.86611">
        <ele>52.170924</ele>
        <time>2024-01-31T11:22:29.942Z</time>
      </trkpt>
      <trkpt lat="43.43412" lon="6.86593">
        <ele>52.051231</ele>
        <time>2024-01-31T11:22:31.954Z</time>
      </trkpt>
      <trkpt lat="43.43414" lon="6.86575">
        <ele>51.935929</ele>
        <time>2024-01-31T11:22:33.955Z</time>
      </trkpt>
      <trkpt lat="43.43416" lon="6.86559">
        <ele>51.827032</ele>
        <time>2024-01-31T11:22:35.945Z</time>
      </trkpt>
      <trkpt lat="43.43419" lon="6.86543">
        <ele>51.721494</ele>
        <time>2024-01-31T11:22:37.944Z</time>
      </trkpt>
      <trkpt lat="43.43421" lon="6.86528">
        <ele>51.622857</ele>
        <time>2024-01-31T11:22:39.942Z</time>
      </trkpt>
      <trkpt lat="43.43424" lon="6.86512">
        <ele>51.520082</ele>
        <time>2024-01-31T11:22:41.944Z</time>
      </trkpt>
      <trkpt lat="43.43426" lon="6.86496">
        <ele>51.414442</ele>
        <time>2024-01-31T11:22:43.942Z</time>
      </trkpt>
      <trkpt lat="43.43428" lon="6.86481">
        <ele>51.31423</ele>
        <time>2024-01-31T11:22:45.937Z</time>
      </trkpt>
      <trkpt lat="43.4343" lon="6.86465">
        <ele>51.209696</ele>
        <time>2024-01-31T11:22:47.950Z</time>
      </trkpt>
      <trkpt lat="43.43432" lon="6.8645">
        <ele>51.106442</ele>
        <time>2024-01-31T11:22:49.941Z</time>
      </trkpt>
      <trkpt lat="43.43433" lon="6.86435">
        <ele>51.008089</ele>
        <time>2024-01-31T11:22:51.949Z</time>
      </trkpt>
      <trkpt lat="43.43434" lon="6.86419">
        <ele>50.995973</ele>
        <time>2024-01-31T11:22:53.947Z</time>
      </trkpt>
      <trkpt lat="43.43434" lon="6.86404">
        <ele>50.989948</ele>
        <time>2024-01-31T11:22:55.935Z</time>
      </trkpt>
      <trkpt lat="43.43434" lon="6.86388">
        <ele>50.98388</ele>
        <time>2024-01-31T11:22:57.915Z</time>
      </trkpt>
      <trkpt lat="43.43433" lon="6.86374">
        <ele>50.978274</ele>
        <time>2024-01-31T11:22:59.937Z</time>
      </trkpt>
      <trkpt lat="43.43433" lon="6.86358">
        <ele>50.972247</ele>
        <time>2024-01-31T11:23:01.941Z</time>
      </trkpt>
      <trkpt lat="43.43432" lon="6.86343">
        <ele>50.966212</ele>
        <time>2024-01-31T11:23:03.936Z</time>
      </trkpt>
      <trkpt lat="43.43431" lon="6.86328">
        <ele>50.96056</ele>
        <time>2024-01-31T11:23:05.942Z</time>
      </trkpt>
      <trkpt lat="43.43432" lon="6.86313">
        <ele>50.954845</ele>
        <time>2024-01-31T11:23:07.939Z</time>
      </trkpt>
      <trkpt lat="43.43431" lon="6.86299">
        <ele>50.949126</ele>
        <time>2024-01-31T11:23:09.941Z</time>
      </trkpt>
      <trkpt lat="43.4343" lon="6.86284">
        <ele>50.943277</ele>
        <time>2024-01-31T11:23:11.931Z</time>
      </trkpt>
      <trkpt lat="43.4343" lon="6.86269">
        <ele>50.937482</ele>
        <time>2024-01-31T11:23:13.943Z</time>
      </trkpt>
      <trkpt lat="43.4343" lon="6.86255">
        <ele>50.931924</ele>
        <time>2024-01-31T11:23:15.932Z</time>
      </trkpt>
      <trkpt lat="43.43429" lon="6.8624">
        <ele>50.926234</ele>
        <time>2024-01-31T11:23:17.951Z</time>
      </trkpt>
      <trkpt lat="43.43429" lon="6.86225">
        <ele>50.920519</ele>
        <time>2024-01-31T11:23:19.945Z</time>
      </trkpt>
      <trkpt lat="43.43428" lon="6.86211">
        <ele>50.915061</ele>
        <time>2024-01-31T11:23:21.963Z</time>
      </trkpt>
      <trkpt lat="43.43426" lon="6.86197">
        <ele>50.909468</ele>
        <time>2024-01-31T11:23:23.943Z</time>
      </trkpt>
      <trkpt lat="43.43424" lon="6.86182">
        <ele>50.893932</ele>
        <time>2024-01-31T11:23:25.958Z</time>
      </trkpt>
      <trkpt lat="43.43422" lon="6.86167">
        <ele>50.856358</ele>
        <time>2024-01-31T11:23:27.943Z</time>
      </trkpt>
      <trkpt lat="43.4342" lon="6.86152">
        <ele>50.81706</ele>
        <time>2024-01-31T11:23:29.932Z</time>
      </trkpt>
      <trkpt lat="43.43419" lon="6.86138">
        <ele>50.781031</ele>
        <time>2024-01-31T11:23:31.943Z</time>
      </trkpt>
      <trkpt lat="43.43417" lon="6.86123">
        <ele>50.743372</ele>
        <time>2024-01-31T11:23:33.929Z</time>
      </trkpt>
      <trkpt lat="43.43415" lon="6.86107">
        <ele>50.704144</ele>
        <time>2024-01-31T11:23:35.942Z</time>
      </trkpt>
      <trkpt lat="43.43413" lon="6.86092">
        <ele>50.665835</ele>
        <time>2024-01-31T11:23:37.946Z</time>
      </trkpt>
      <trkpt lat="43.43412" lon="6.86078">
        <ele>50.629663</ele>
        <time>2024-01-31T11:23:39.952Z</time>
      </trkpt>
      <trkpt lat="43.4341" lon="6.86064">
        <ele>50.594745</ele>
        <time>2024-01-31T11:23:41.941Z</time>
      </trkpt>
      <trkpt lat="43.43408" lon="6.86051">
        <ele>50.559936</ele>
        <time>2024-01-31T11:23:43.949Z</time>
      </trkpt>
      <trkpt lat="43.43405" lon="6.86037">
        <ele>50.52449</ele>
        <time>2024-01-31T11:23:45.952Z</time>
      </trkpt>
      <trkpt lat="43.434" lon="6.86024">
        <ele>50.48841</ele>
        <time>2024-01-31T11:23:47.958Z</time>
      </trkpt>
      <trkpt lat="43.43396" lon="6.86011">
        <ele>50.451077</ele>
        <time>2024-01-31T11:23:49.942Z</time>
      </trkpt>
      <trkpt lat="43.43391" lon="6.85999">
        <ele>50.415915</ele>
        <time>2024-01-31T11:23:51.957Z</time>
      </trkpt>
      <trkpt lat="43.43383" lon="6.85982">
        <ele>50.368151</ele>
        <time>2024-01-31T11:23:54.923Z</time>
      </trkpt>
      <trkpt lat="43.43378" lon="6.85971">
        <ele>50.335662</ele>
        <time>2024-01-31T11:23:56.935Z</time>
      </trkpt>
      <trkpt lat="43.43373" lon="6.8596">
        <ele>50.30378</ele>
        <time>2024-01-31T11:23:58.942Z</time>
      </trkpt>
      <trkpt lat="43.43369" lon="6.85949">
        <ele>50.307284</ele>
        <time>2024-01-31T11:24:00.948Z</time>
      </trkpt>
      <trkpt lat="43.43364" lon="6.85938">
        <ele>50.356431</ele>
        <time>2024-01-31T11:24:02.923Z</time>
      </trkpt>
      <trkpt lat="43.43362" lon="6.85925">
        <ele>50.40931</ele>
        <time>2024-01-31T11:24:04.949Z</time>
      </trkpt>
      <trkpt lat="43.43358" lon="6.85913">
        <ele>50.46016</ele>
        <time>2024-01-31T11:24:06.939Z</time>
      </trkpt>
      <trkpt lat="43.4335" lon="6.85904">
        <ele>50.511323</ele>
        <time>2024-01-31T11:24:08.933Z</time>
      </trkpt>
      <trkpt lat="43.43344" lon="6.85893">
        <ele>50.56539</ele>
        <time>2024-01-31T11:24:10.949Z</time>
      </trkpt>
      <trkpt lat="43.43338" lon="6.85881">
        <ele>50.621053</ele>
        <time>2024-01-31T11:24:12.909Z</time>
      </trkpt>
      <trkpt lat="43.43333" lon="6.85869">
        <ele>50.677518</ele>
        <time>2024-01-31T11:24:14.941Z</time>
      </trkpt>
      <trkpt lat="43.43328" lon="6.85856">
        <ele>50.733189</ele>
        <time>2024-01-31T11:24:16.936Z</time>
      </trkpt>
      <trkpt lat="43.43323" lon="6.85845">
        <ele>50.785719</ele>
        <time>2024-01-31T11:24:18.932Z</time>
      </trkpt>
      <trkpt lat="43.43318" lon="6.85833">
        <ele>50.835378</ele>
        <time>2024-01-31T11:24:20.921Z</time>
      </trkpt>
      <trkpt lat="43.43313" lon="6.85822">
        <ele>50.884634</ele>
        <time>2024-01-31T11:24:22.922Z</time>
      </trkpt>
      <trkpt lat="43.43306" lon="6.85807">
        <ele>50.955459</ele>
        <time>2024-01-31T11:24:25.946Z</time>
      </trkpt>
      <trkpt lat="43.433" lon="6.85794">
        <ele>51.017919</ele>
        <time>2024-01-31T11:24:28.932Z</time>
      </trkpt>
      <trkpt lat="43.43292" lon="6.8578">
        <ele>51.083191</ele>
        <time>2024-01-31T11:24:31.940Z</time>
      </trkpt>
      <trkpt lat="43.43285" lon="6.85766">
        <ele>51.148837</ele>
        <time>2024-01-31T11:24:34.969Z</time>
      </trkpt>
      <trkpt lat="43.43276" lon="6.85754">
        <ele>51.216183</ele>
        <time>2024-01-31T11:24:37.953Z</time>
      </trkpt>
      <trkpt lat="43.43266" lon="6.85744">
        <ele>51.364964</ele>
        <time>2024-01-31T11:24:40.935Z</time>
      </trkpt>
      <trkpt lat="43.43255" lon="6.85736">
        <ele>51.547126</ele>
        <time>2024-01-31T11:24:43.956Z</time>
      </trkpt>
      <trkpt lat="43.43245" lon="6.8573">
        <ele>51.712731</ele>
        <time>2024-01-31T11:24:46.947Z</time>
      </trkpt>
      <trkpt lat="43.43235" lon="6.85726">
        <ele>51.879066</ele>
        <time>2024-01-31T11:24:49.949Z</time>
      </trkpt>
      <trkpt lat="43.43225" lon="6.85722">
        <ele>52.047385</ele>
        <time>2024-01-31T11:24:52.926Z</time>
      </trkpt>
      <trkpt lat="43.43214" lon="6.8572">
        <ele>52.215079</ele>
        <time>2024-01-31T11:24:55.943Z</time>
      </trkpt>
      <trkpt lat="43.43203" lon="6.85719">
        <ele>52.388289</ele>
        <time>2024-01-31T11:24:58.935Z</time>
      </trkpt>
      <trkpt lat="43.43191" lon="6.85717">
        <ele>52.581259</ele>
        <time>2024-01-31T11:25:01.952Z</time>
      </trkpt>
      <trkpt lat="43.43178" lon="6.85716">
        <ele>52.769833</ele>
        <time>2024-01-31T11:25:04.941Z</time>
      </trkpt>
      <trkpt lat="43.43167" lon="6.85714">
        <ele>52.951386</ele>
        <time>2024-01-31T11:25:07.948Z</time>
      </trkpt>
      <trkpt lat="43.43155" lon="6.85712">
        <ele>53.133726</ele>
        <time>2024-01-31T11:25:10.936Z</time>
      </trkpt>
      <trkpt lat="43.43145" lon="6.85709">
        <ele>53.297877</ele>
        <time>2024-01-31T11:25:13.934Z</time>
      </trkpt>
      <trkpt lat="43.43136" lon="6.85703">
        <ele>53.457371</ele>
        <time>2024-01-31T11:25:16.935Z</time>
      </trkpt>
      <trkpt lat="43.43127" lon="6.85696">
        <ele>53.616257</ele>
        <time>2024-01-31T11:25:19.949Z</time>
      </trkpt>
      <trkpt lat="43.43118" lon="6.85689">
        <ele>53.766824</ele>
        <time>2024-01-31T11:25:22.926Z</time>
      </trkpt>
      <trkpt lat="43.4311" lon="6.85684">
        <ele>53.911759</ele>
        <time>2024-01-31T11:25:25.942Z</time>
      </trkpt>
      <trkpt lat="43.43101" lon="6.85679">
        <ele>54.060644</ele>
        <time>2024-01-31T11:25:28.936Z</time>
      </trkpt>
      <trkpt lat="43.43092" lon="6.85676">
        <ele>54.195393</ele>
        <time>2024-01-31T11:25:31.950Z</time>
      </trkpt>
      <trkpt lat="43.43081" lon="6.85671">
        <ele>54.356693</ele>
        <time>2024-01-31T11:25:35.933Z</time>
      </trkpt>
      <trkpt lat="43.4307" lon="6.85665">
        <ele>54.523388</ele>
        <time>2024-01-31T11:25:39.931Z</time>
      </trkpt>
      <trkpt lat="43.43061" lon="6.85662">
        <ele>54.653179</ele>
        <time>2024-01-31T11:25:42.940Z</time>
      </trkpt>
      <trkpt lat="43.43052" lon="6.85658">
        <ele>54.792166</ele>
        <time>2024-01-31T11:25:45.951Z</time>
      </trkpt>
      <trkpt lat="43.4304" lon="6.85654">
        <ele>54.964492</ele>
        <time>2024-01-31T11:25:49.941Z</time>
      </trkpt>
      <trkpt lat="43.43031" lon="6.85652">
        <ele>55.098492</ele>
        <time>2024-01-31T11:25:52.928Z</time>
      </trkpt>
      <trkpt lat="43.43021" lon="6.85648">
        <ele>55.236772</ele>
        <time>2024-01-31T11:25:55.938Z</time>
      </trkpt>
      <trkpt lat="43.43011" lon="6.85645">
        <ele>55.3863</ele>
        <time>2024-01-31T11:25:58.945Z</time>
      </trkpt>
      <trkpt lat="43.43" lon="6.85643">
        <ele>55.537253</ele>
        <time>2024-01-31T11:26:01.930Z</time>
      </trkpt>
      <trkpt lat="43.4299" lon="6.85643">
        <ele>55.68365</ele>
        <time>2024-01-31T11:26:04.953Z</time>
      </trkpt>
      <trkpt lat="43.4298" lon="6.85646">
        <ele>55.830595</ele>
        <time>2024-01-31T11:26:07.929Z</time>
      </trkpt>
      <trkpt lat="43.4297" lon="6.8565">
        <ele>55.973328</ele>
        <time>2024-01-31T11:26:10.931Z</time>
      </trkpt>
      <trkpt lat="43.42961" lon="6.85654">
        <ele>56.111085</ele>
        <time>2024-01-31T11:26:13.943Z</time>
      </trkpt>
      <trkpt lat="43.42949" lon="6.85653">
        <ele>56.279035</ele>
        <time>2024-01-31T11:26:17.920Z</time>
      </trkpt>
      <trkpt lat="43.42939" lon="6.85651">
        <ele>56.421126</ele>
        <time>2024-01-31T11:26:20.945Z</time>
      </trkpt>
      <trkpt lat="43.42928" lon="6.85646">
        <ele>56.591845</ele>
        <time>2024-01-31T11:26:23.953Z</time>
      </trkpt>
      <trkpt lat="43.42916" lon="6.85643">
        <ele>56.687116</ele>
        <time>2024-01-31T11:26:26.921Z</time>
      </trkpt>
      <trkpt lat="43.42903" lon="6.85645">
        <ele>56.788723</ele>
        <time>2024-01-31T11:26:29.954Z</time>
      </trkpt>
      <trkpt lat="43.42891" lon="6.85648">
        <ele>56.878826</ele>
        <time>2024-01-31T11:26:32.946Z</time>
      </trkpt>
      <trkpt lat="43.42883" lon="6.85654">
        <ele>56.952375</ele>
        <time>2024-01-31T11:26:35.926Z</time>
      </trkpt>
      <trkpt lat="43.42875" lon="6.85662">
        <ele>57.027687</ele>
        <time>2024-01-31T11:26:39.945Z</time>
      </trkpt>
      <trkpt lat="43.42866" lon="6.85671">
        <ele>57.11447</ele>
        <time>2024-01-31T11:26:44.948Z</time>
      </trkpt>
      <trkpt lat="43.42857" lon="6.8568">
        <ele>57.200293</ele>
        <time>2024-01-31T11:26:49.932Z</time>
      </trkpt>
      <trkpt lat="43.42848" lon="6.85688">
        <ele>57.284512</ele>
        <time>2024-01-31T11:26:54.936Z</time>
      </trkpt>
      <trkpt lat="43.42839" lon="6.85697">
        <ele>57.367423</ele>
        <time>2024-01-31T11:26:59.915Z</time>
      </trkpt>
      <trkpt lat="43.4283" lon="6.85704">
        <ele>57.452145</ele>
        <time>2024-01-31T11:27:04.947Z</time>
      </trkpt>
      <trkpt lat="43.42819" lon="6.85709">
        <ele>57.537287</ele>
        <time>2024-01-31T11:27:09.933Z</time>
      </trkpt>
      <trkpt lat="43.42809" lon="6.85709">
        <ele>57.615886</ele>
        <time>2024-01-31T11:27:13.930Z</time>
      </trkpt>
      <trkpt lat="43.428" lon="6.85711">
        <ele>57.686112</ele>
        <time>2024-01-31T11:27:16.934Z</time>
      </trkpt>
      <trkpt lat="43.42791" lon="6.85711">
        <ele>57.760779</ele>
        <time>2024-01-31T11:27:19.941Z</time>
      </trkpt>
      <trkpt lat="43.4278" lon="6.85714">
        <ele>57.847827</ele>
        <time>2024-01-31T11:27:22.915Z</time>
      </trkpt>
      <trkpt lat="43.42768" lon="6.8572">
        <ele>57.943727</ele>
        <time>2024-01-31T11:27:25.938Z</time>
      </trkpt>
      <trkpt lat="43.42762" lon="6.8573">
        <ele>57.915325</ele>
        <time>2024-01-31T11:27:27.925Z</time>
      </trkpt>
      <trkpt lat="43.42756" lon="6.85741">
        <ele>57.731832</ele>
        <time>2024-01-31T11:27:29.944Z</time>
      </trkpt>
      <trkpt lat="43.42751" lon="6.85755">
        <ele>57.522873</ele>
        <time>2024-01-31T11:27:31.934Z</time>
      </trkpt>
      <trkpt lat="43.42746" lon="6.8577">
        <ele>57.302168</ele>
        <time>2024-01-31T11:27:33.942Z</time>
      </trkpt>
      <trkpt lat="43.42743" lon="6.85786">
        <ele>57.078125</ele>
        <time>2024-01-31T11:27:35.924Z</time>
      </trkpt>
      <trkpt lat="43.42735" lon="6.85799">
        <ele>56.854452</ele>
        <time>2024-01-31T11:27:37.944Z</time>
      </trkpt>
      <trkpt lat="43.42724" lon="6.85808">
        <ele>56.61816</ele>
        <time>2024-01-31T11:27:39.953Z</time>
      </trkpt>
      <trkpt lat="43.42711" lon="6.85809">
        <ele>56.375385</ele>
        <time>2024-01-31T11:27:41.931Z</time>
      </trkpt>
      <trkpt lat="43.42698" lon="6.85805">
        <ele>56.11756</ele>
        <time>2024-01-31T11:27:43.940Z</time>
      </trkpt>
      <trkpt lat="43.42684" lon="6.858">
        <ele>55.854626</ele>
        <time>2024-01-31T11:27:45.955Z</time>
      </trkpt>
      <trkpt lat="43.4267" lon="6.85791">
        <ele>55.57416</ele>
        <time>2024-01-31T11:27:47.932Z</time>
      </trkpt>
      <trkpt lat="43.42657" lon="6.85779">
        <ele>55.296222</ele>
        <time>2024-01-31T11:27:49.947Z</time>
      </trkpt>
      <trkpt lat="43.42645" lon="6.85768">
        <ele>55.02986</ele>
        <time>2024-01-31T11:27:51.953Z</time>
      </trkpt>
      <trkpt lat="43.42634" lon="6.85757">
        <ele>54.765051</ele>
        <time>2024-01-31T11:27:53.946Z</time>
      </trkpt>
      <trkpt lat="43.42623" lon="6.85746">
        <ele>54.498847</ele>
        <time>2024-01-31T11:27:55.947Z</time>
      </trkpt>
      <trkpt lat="43.42611" lon="6.85736">
        <ele>54.217034</ele>
        <time>2024-01-31T11:27:57.934Z</time>
      </trkpt>
      <trkpt lat="43.426" lon="6.85725">
        <ele>53.941086</ele>
        <time>2024-01-31T11:27:59.940Z</time>
      </trkpt>
      <trkpt lat="43.4259" lon="6.85713">
        <ele>53.662468</ele>
        <time>2024-01-31T11:28:01.957Z</time>
      </trkpt>
      <trkpt lat="43.42583" lon="6.85695">
        <ele>53.361782</ele>
        <time>2024-01-31T11:28:03.922Z</time>
      </trkpt>
      <trkpt lat="43.4258" lon="6.85675">
        <ele>53.053363</ele>
        <time>2024-01-31T11:28:05.945Z</time>
      </trkpt>
      <trkpt lat="43.42581" lon="6.85654">
        <ele>52.744101</ele>
        <time>2024-01-31T11:28:07.934Z</time>
      </trkpt>
      <trkpt lat="43.42583" lon="6.85634">
        <ele>52.442216</ele>
        <time>2024-01-31T11:28:09.935Z</time>
      </trkpt>
      <trkpt lat="43.42582" lon="6.85615">
        <ele>52.161164</ele>
        <time>2024-01-31T11:28:11.953Z</time>
      </trkpt>
      <trkpt lat="43.42574" lon="6.85599">
        <ele>51.860475</ele>
        <time>2024-01-31T11:28:13.951Z</time>
      </trkpt>
      <trkpt lat="43.42561" lon="6.8559">
        <ele>51.556636</ele>
        <time>2024-01-31T11:28:15.966Z</time>
      </trkpt>
      <trkpt lat="43.42546" lon="6.85588">
        <ele>51.25542</ele>
        <time>2024-01-31T11:28:17.938Z</time>
      </trkpt>
      <trkpt lat="43.42531" lon="6.85587">
        <ele>50.974086</ele>
        <time>2024-01-31T11:28:19.940Z</time>
      </trkpt>
      <trkpt lat="43.42517" lon="6.85588">
        <ele>51.099725</ele>
        <time>2024-01-31T11:28:21.928Z</time>
      </trkpt>
      <trkpt lat="43.42504" lon="6.85587">
        <ele>51.215701</ele>
        <time>2024-01-31T11:28:23.937Z</time>
      </trkpt>
      <trkpt lat="43.42491" lon="6.85587">
        <ele>51.327335</ele>
        <time>2024-01-31T11:28:25.951Z</time>
      </trkpt>
      <trkpt lat="43.42479" lon="6.85588">
        <ele>51.434122</ele>
        <time>2024-01-31T11:28:27.927Z</time>
      </trkpt>
      <trkpt lat="43.42468" lon="6.85591">
        <ele>51.52894</ele>
        <time>2024-01-31T11:28:29.942Z</time>
      </trkpt>
      <trkpt lat="43.4246" lon="6.85598">
        <ele>51.612062</ele>
        <time>2024-01-31T11:28:31.919Z</time>
      </trkpt>
      <trkpt lat="43.42451" lon="6.85609">
        <ele>51.717127</ele>
        <time>2024-01-31T11:28:34.961Z</time>
      </trkpt>
      <trkpt lat="43.42445" lon="6.85621">
        <ele>51.814762</ele>
        <time>2024-01-31T11:28:37.931Z</time>
      </trkpt>
      <trkpt lat="43.42439" lon="6.85635">
        <ele>51.917043</ele>
        <time>2024-01-31T11:28:40.939Z</time>
      </trkpt>
      <trkpt lat="43.42434" lon="6.85649">
        <ele>52.014869</ele>
        <time>2024-01-31T11:28:43.940Z</time>
      </trkpt>
      <trkpt lat="43.4243" lon="6.85663">
        <ele>52.112494</ele>
        <time>2024-01-31T11:28:46.946Z</time>
      </trkpt>
      <trkpt lat="43.42424" lon="6.85676">
        <ele>52.210843</ele>
        <time>2024-01-31T11:28:49.938Z</time>
      </trkpt>
      <trkpt lat="43.42418" lon="6.8569">
        <ele>52.312879</ele>
        <time>2024-01-31T11:28:52.934Z</time>
      </trkpt>
      <trkpt lat="43.42412" lon="6.85705">
        <ele>52.419356</ele>
        <time>2024-01-31T11:28:55.938Z</time>
      </trkpt>
      <trkpt lat="43.42407" lon="6.85715">
        <ele>52.498893</ele>
        <time>2024-01-31T11:28:57.961Z</time>
      </trkpt>
      <trkpt lat="43.42398" lon="6.85728">
        <ele>52.485657</ele>
        <time>2024-01-31T11:29:00.917Z</time>
      </trkpt>
      <trkpt lat="43.42388" lon="6.85738">
        <ele>52.386486</ele>
        <time>2024-01-31T11:29:03.936Z</time>
      </trkpt>
      <trkpt lat="43.4238" lon="6.85744">
        <ele>52.314463</ele>
        <time>2024-01-31T11:29:05.943Z</time>
      </trkpt>
      <trkpt lat="43.42371" lon="6.85746">
        <ele>52.243435</ele>
        <time>2024-01-31T11:29:07.940Z</time>
      </trkpt>
      <trkpt lat="43.42362" lon="6.85749">
        <ele>52.169851</ele>
        <time>2024-01-31T11:29:09.939Z</time>
      </trkpt>
      <trkpt lat="43.42349" lon="6.85753">
        <ele>52.063972</ele>
        <time>2024-01-31T11:29:12.943Z</time>
      </trkpt>
      <trkpt lat="43.4234" lon="6.85754">
        <ele>51.991967</ele>
        <time>2024-01-31T11:29:14.943Z</time>
      </trkpt>
      <trkpt lat="43.42327" lon="6.85758">
        <ele>51.890737</ele>
        <time>2024-01-31T11:29:17.951Z</time>
      </trkpt>
      <trkpt lat="43.42315" lon="6.85761">
        <ele>51.790558</ele>
        <time>2024-01-31T11:29:20.931Z</time>
      </trkpt>
      <trkpt lat="43.42302" lon="6.8576">
        <ele>51.687527</ele>
        <time>2024-01-31T11:29:23.944Z</time>
      </trkpt>
      <trkpt lat="43.42291" lon="6.85755">
        <ele>51.600119</ele>
        <time>2024-01-31T11:29:27.935Z</time>
      </trkpt>
      <trkpt lat="43.42282" lon="6.85749">
        <ele>51.516329</ele>
        <time>2024-01-31T11:29:29.940Z</time>
      </trkpt>
      <trkpt lat="43.42273" lon="6.85744">
        <ele>51.437652</ele>
        <time>2024-01-31T11:29:31.940Z</time>
      </trkpt>
      <trkpt lat="43.42264" lon="6.85738">
        <ele>51.361603</ele>
        <time>2024-01-31T11:29:33.950Z</time>
      </trkpt>
      <trkpt lat="43.42255" lon="6.85735">
        <ele>51.286639</ele>
        <time>2024-01-31T11:29:35.946Z</time>
      </trkpt>
      <trkpt lat="43.42245" lon="6.85732">
        <ele>51.20783</ele>
        <time>2024-01-31T11:29:37.947Z</time>
      </trkpt>
      <trkpt lat="43.42235" lon="6.85731">
        <ele>51.131904</ele>
        <time>2024-01-31T11:29:39.937Z</time>
      </trkpt>
      <trkpt lat="43.42226" lon="6.8573">
        <ele>51.050375</ele>
        <time>2024-01-31T11:29:41.951Z</time>
      </trkpt>
      <trkpt lat="43.42216" lon="6.85731">
        <ele>50.967573</ele>
        <time>2024-01-31T11:29:43.959Z</time>
      </trkpt>
      <trkpt lat="43.42205" lon="6.85733">
        <ele>50.882886</ele>
        <time>2024-01-31T11:29:45.939Z</time>
      </trkpt>
      <trkpt lat="43.42196" lon="6.85736">
        <ele>50.801836</ele>
        <time>2024-01-31T11:29:47.946Z</time>
      </trkpt>
      <trkpt lat="43.42186" lon="6.85739">
        <ele>50.720658</ele>
        <time>2024-01-31T11:29:49.941Z</time>
      </trkpt>
      <trkpt lat="43.42176" lon="6.85742">
        <ele>50.634117</ele>
        <time>2024-01-31T11:29:51.949Z</time>
      </trkpt>
      <trkpt lat="43.42166" lon="6.85746">
        <ele>50.550513</ele>
        <time>2024-01-31T11:29:53.941Z</time>
      </trkpt>
      <trkpt lat="43.42156" lon="6.85748">
        <ele>50.465622</ele>
        <time>2024-01-31T11:29:55.940Z</time>
      </trkpt>
      <trkpt lat="43.42147" lon="6.85752">
        <ele>50.385068</ele>
        <time>2024-01-31T11:29:57.929Z</time>
      </trkpt>
      <trkpt lat="43.42137" lon="6.85754">
        <ele>50.298651</ele>
        <time>2024-01-31T11:29:59.941Z</time>
      </trkpt>
      <trkpt lat="43.42126" lon="6.85751">
        <ele>50.21075</ele>
        <time>2024-01-31T11:30:01.941Z</time>
      </trkpt>
      <trkpt lat="43.42116" lon="6.85747">
        <ele>50.119415</ele>
        <time>2024-01-31T11:30:03.937Z</time>
      </trkpt>
      <trkpt lat="43.42106" lon="6.85741">
        <ele>50.030213</ele>
        <time>2024-01-31T11:30:05.927Z</time>
      </trkpt>
      <trkpt lat="43.42095" lon="6.85736">
        <ele>49.939594</ele>
        <time>2024-01-31T11:30:07.942Z</time>
      </trkpt>
      <trkpt lat="43.42086" lon="6.85729">
        <ele>49.849728</ele>
        <time>2024-01-31T11:30:09.936Z</time>
      </trkpt>
      <trkpt lat="43.42076" lon="6.85722">
        <ele>49.762619</ele>
        <time>2024-01-31T11:30:11.931Z</time>
      </trkpt>
      <trkpt lat="43.42067" lon="6.85715">
        <ele>49.676811</ele>
        <time>2024-01-31T11:30:13.939Z</time>
      </trkpt>
      <trkpt lat="43.42059" lon="6.85707">
        <ele>49.782795</ele>
        <time>2024-01-31T11:30:15.940Z</time>
      </trkpt>
      <trkpt lat="43.42052" lon="6.85698">
        <ele>50.061495</ele>
        <time>2024-01-31T11:30:17.936Z</time>
      </trkpt>
      <trkpt lat="43.42046" lon="6.85688">
        <ele>50.325167</ele>
        <time>2024-01-31T11:30:19.946Z</time>
      </trkpt>
      <trkpt lat="43.4204" lon="6.85679">
        <ele>50.592711</ele>
        <time>2024-01-31T11:30:21.946Z</time>
      </trkpt>
      <trkpt lat="43.42034" lon="6.85669">
        <ele>50.857947</ele>
        <time>2024-01-31T11:30:23.938Z</time>
      </trkpt>
      <trkpt lat="43.42027" lon="6.85659">
        <ele>51.138654</ele>
        <time>2024-01-31T11:30:25.941Z</time>
      </trkpt>
      <trkpt lat="43.42023" lon="6.85649">
        <ele>51.400543</ele>
        <time>2024-01-31T11:30:27.938Z</time>
      </trkpt>
      <trkpt lat="43.42018" lon="6.85631">
        <ele>51.782098</ele>
        <time>2024-01-31T11:30:30.922Z</time>
      </trkpt>
      <trkpt lat="43.42016" lon="6.85615">
        <ele>52.12742</ele>
        <time>2024-01-31T11:30:33.942Z</time>
      </trkpt>
      <trkpt lat="43.42015" lon="6.85598">
        <ele>52.489457</ele>
        <time>2024-01-31T11:30:36.937Z</time>
      </trkpt>
      <trkpt lat="43.42014" lon="6.85581">
        <ele>52.853265</ele>
        <time>2024-01-31T11:30:39.946Z</time>
      </trkpt>
      <trkpt lat="43.42012" lon="6.85564">
        <ele>53.201862</ele>
        <time>2024-01-31T11:30:42.941Z</time>
      </trkpt>
      <trkpt lat="43.4201" lon="6.85548">
        <ele>53.536403</ele>
        <time>2024-01-31T11:30:45.944Z</time>
      </trkpt>
      <trkpt lat="43.4201" lon="6.85533">
        <ele>53.85038</ele>
        <time>2024-01-31T11:30:48.943Z</time>
      </trkpt>
      <trkpt lat="43.42008" lon="6.8552">
        <ele>54.133375</ele>
        <time>2024-01-31T11:30:51.965Z</time>
      </trkpt>
      <trkpt lat="43.42007" lon="6.85504">
        <ele>54.466325</ele>
        <time>2024-01-31T11:30:55.943Z</time>
      </trkpt>
      <trkpt lat="43.42006" lon="6.85492">
        <ele>54.727633</ele>
        <time>2024-01-31T11:30:59.946Z</time>
      </trkpt>
      <trkpt lat="43.42004" lon="6.85479">
        <ele>55.113304</ele>
        <time>2024-01-31T11:31:03.939Z</time>
      </trkpt>
      <trkpt lat="43.42004" lon="6.85465">
        <ele>55.633348</ele>
        <time>2024-01-31T11:31:08.936Z</time>
      </trkpt>
      <trkpt lat="43.42002" lon="6.8545">
        <ele>56.147894</ele>
        <time>2024-01-31T11:31:13.946Z</time>
      </trkpt>
      <trkpt lat="43.42001" lon="6.85435">
        <ele>56.67446</ele>
        <time>2024-01-31T11:31:18.938Z</time>
      </trkpt>
      <trkpt lat="43.41998" lon="6.8542">
        <ele>57.21916</ele>
        <time>2024-01-31T11:31:23.956Z</time>
      </trkpt>
      <trkpt lat="43.41996" lon="6.85406">
        <ele>57.725101</ele>
        <time>2024-01-31T11:31:28.959Z</time>
      </trkpt>
      <trkpt lat="43.41993" lon="6.85392">
        <ele>58.246116</ele>
        <time>2024-01-31T11:31:33.955Z</time>
      </trkpt>
      <trkpt lat="43.4199" lon="6.85379">
        <ele>58.716911</ele>
        <time>2024-01-31T11:31:38.937Z</time>
      </trkpt>
      <trkpt lat="43.41987" lon="6.85368">
        <ele>59.157327</ele>
        <time>2024-01-31T11:31:42.935Z</time>
      </trkpt>
      <trkpt lat="43.41983" lon="6.85357">
        <ele>59.597163</ele>
        <time>2024-01-31T11:31:46.930Z</time>
      </trkpt>
      <trkpt lat="43.41979" lon="6.85344">
        <ele>60.094165</ele>
        <time>2024-01-31T11:31:51.939Z</time>
      </trkpt>
      <trkpt lat="43.41974" lon="6.8533">
        <ele>60.632529</ele>
        <time>2024-01-31T11:31:56.918Z</time>
      </trkpt>
      <trkpt lat="43.41969" lon="6.85318">
        <ele>61.113321</ele>
        <time>2024-01-31T11:32:01.948Z</time>
      </trkpt>
      <trkpt lat="43.41964" lon="6.85306">
        <ele>61.614942</ele>
        <time>2024-01-31T11:32:06.938Z</time>
      </trkpt>
      <trkpt lat="43.41957" lon="6.85296">
        <ele>62.0922</ele>
        <time>2024-01-31T11:32:11.918Z</time>
      </trkpt>
      <trkpt lat="43.41952" lon="6.85285">
        <ele>62.536904</ele>
        <time>2024-01-31T11:32:16.940Z</time>
      </trkpt>
      <trkpt lat="43.41947" lon="6.85274">
        <ele>63.014995</ele>
        <time>2024-01-31T11:32:21.943Z</time>
      </trkpt>
      <trkpt lat="43.41941" lon="6.85263">
        <ele>63.48689</ele>
        <time>2024-01-31T11:32:25.944Z</time>
      </trkpt>
      <trkpt lat="43.41935" lon="6.85253">
        <ele>63.84409</ele>
        <time>2024-01-31T11:32:29.943Z</time>
      </trkpt>
      <trkpt lat="43.41929" lon="6.85244">
        <ele>64.172135</ele>
        <time>2024-01-31T11:32:33.938Z</time>
      </trkpt>
      <trkpt lat="43.41922" lon="6.85234">
        <ele>64.509918</ele>
        <time>2024-01-31T11:32:37.978Z</time>
      </trkpt>
      <trkpt lat="43.41916" lon="6.85223">
        <ele>64.863387</ele>
        <time>2024-01-31T11:32:42.946Z</time>
      </trkpt>
      <trkpt lat="43.4191" lon="6.85212">
        <ele>65.229944</ele>
        <time>2024-01-31T11:32:47.940Z</time>
      </trkpt>
      <trkpt lat="43.41902" lon="6.852">
        <ele>65.628952</ele>
        <time>2024-01-31T11:32:52.931Z</time>
      </trkpt>
      <trkpt lat="43.41898" lon="6.85189">
        <ele>65.948997</ele>
        <time>2024-01-31T11:32:56.923Z</time>
      </trkpt>
      <trkpt lat="43.41892" lon="6.85179">
        <ele>66.268048</ele>
        <time>2024-01-31T11:33:00.932Z</time>
      </trkpt>
      <trkpt lat="43.41887" lon="6.85167">
        <ele>66.627177</ele>
        <time>2024-01-31T11:33:05.935Z</time>
      </trkpt>
      <trkpt lat="43.41882" lon="6.85154">
        <ele>66.999159</ele>
        <time>2024-01-31T11:33:10.957Z</time>
      </trkpt>
      <trkpt lat="43.41879" lon="6.85142">
        <ele>67.336</ele>
        <time>2024-01-31T11:33:14.943Z</time>
      </trkpt>
      <trkpt lat="43.41874" lon="6.85129">
        <ele>67.707422</ele>
        <time>2024-01-31T11:33:19.932Z</time>
      </trkpt>
      <trkpt lat="43.41869" lon="6.85116">
        <ele>68.092256</ele>
        <time>2024-01-31T11:33:24.945Z</time>
      </trkpt>
      <trkpt lat="43.41865" lon="6.85101">
        <ele>68.494034</ele>
        <time>2024-01-31T11:33:29.935Z</time>
      </trkpt>
      <trkpt lat="43.41861" lon="6.85088">
        <ele>68.864836</ele>
        <time>2024-01-31T11:33:33.945Z</time>
      </trkpt>
      <trkpt lat="43.41858" lon="6.85073">
        <ele>69.265644</ele>
        <time>2024-01-31T11:33:37.959Z</time>
      </trkpt>
      <trkpt lat="43.41855" lon="6.8506">
        <ele>69.592553</ele>
        <time>2024-01-31T11:33:40.943Z</time>
      </trkpt>
      <trkpt lat="43.41852" lon="6.85044">
        <ele>69.85154</ele>
        <time>2024-01-31T11:33:44.974Z</time>
      </trkpt>
      <trkpt lat="43.41849" lon="6.85031">
        <ele>69.715804</ele>
        <time>2024-01-31T11:33:47.954Z</time>
      </trkpt>
      <trkpt lat="43.41847" lon="6.85015">
        <ele>69.549164</ele>
        <time>2024-01-31T11:33:50.928Z</time>
      </trkpt>
      <trkpt lat="43.41845" lon="6.85003">
        <ele>69.421367</ele>
        <time>2024-01-31T11:33:52.955Z</time>
      </trkpt>
      <trkpt lat="43.41843" lon="6.8499">
        <ele>69.284359</ele>
        <time>2024-01-31T11:33:54.960Z</time>
      </trkpt>
      <trkpt lat="43.41841" lon="6.84976">
        <ele>69.137962</ele>
        <time>2024-01-31T11:33:56.956Z</time>
      </trkpt>
      <trkpt lat="43.41838" lon="6.84962">
        <ele>68.997335</ele>
        <time>2024-01-31T11:33:58.924Z</time>
      </trkpt>
      <trkpt lat="43.41838" lon="6.84947">
        <ele>68.845243</ele>
        <time>2024-01-31T11:34:01.938Z</time>
      </trkpt>
      <trkpt lat="43.41844" lon="6.84932">
        <ele>68.673601</ele>
        <time>2024-01-31T11:34:04.947Z</time>
      </trkpt>
      <trkpt lat="43.41842" lon="6.84914">
        <ele>68.487052</ele>
        <time>2024-01-31T11:34:07.947Z</time>
      </trkpt>
      <trkpt lat="43.41834" lon="6.84903">
        <ele>68.336165</ele>
        <time>2024-01-31T11:34:09.951Z</time>
      </trkpt>
      <trkpt lat="43.41829" lon="6.84891">
        <ele>68.185867</ele>
        <time>2024-01-31T11:34:11.947Z</time>
      </trkpt>
      <trkpt lat="43.41826" lon="6.84875">
        <ele>68.027857</ele>
        <time>2024-01-31T11:34:13.933Z</time>
      </trkpt>
      <trkpt lat="43.41823" lon="6.84861">
        <ele>67.87805</ele>
        <time>2024-01-31T11:34:15.944Z</time>
      </trkpt>
      <trkpt lat="43.4182" lon="6.84847">
        <ele>67.729224</ele>
        <time>2024-01-31T11:34:17.953Z</time>
      </trkpt>
      <trkpt lat="43.41818" lon="6.84832">
        <ele>67.577794</ele>
        <time>2024-01-31T11:34:19.953Z</time>
      </trkpt>
      <trkpt lat="43.41815" lon="6.84818">
        <ele>67.426283</ele>
        <time>2024-01-31T11:34:21.949Z</time>
      </trkpt>
      <trkpt lat="43.41812" lon="6.84804">
        <ele>67.18189</ele>
        <time>2024-01-31T11:34:23.927Z</time>
      </trkpt>
      <trkpt lat="43.41808" lon="6.84789">
        <ele>66.898909</ele>
        <time>2024-01-31T11:34:25.959Z</time>
      </trkpt>
      <trkpt lat="43.41806" lon="6.84774">
        <ele>66.612927</ele>
        <time>2024-01-31T11:34:27.943Z</time>
      </trkpt>
      <trkpt lat="43.41803" lon="6.84759">
        <ele>66.314266</ele>
        <time>2024-01-31T11:34:29.943Z</time>
      </trkpt>
      <trkpt lat="43.41801" lon="6.84743">
        <ele>66.007547</ele>
        <time>2024-01-31T11:34:31.941Z</time>
      </trkpt>
      <trkpt lat="43.41799" lon="6.84726">
        <ele>65.689777</ele>
        <time>2024-01-31T11:34:33.940Z</time>
      </trkpt>
      <trkpt lat="43.41797" lon="6.84708">
        <ele>65.367226</ele>
        <time>2024-01-31T11:34:35.946Z</time>
      </trkpt>
      <trkpt lat="43.41796" lon="6.84691">
        <ele>65.040993</ele>
        <time>2024-01-31T11:34:37.955Z</time>
      </trkpt>
      <trkpt lat="43.41794" lon="6.84673">
        <ele>64.697491</ele>
        <time>2024-01-31T11:34:39.942Z</time>
      </trkpt>
      <trkpt lat="43.41792" lon="6.84655">
        <ele>64.361346</ele>
        <time>2024-01-31T11:34:41.947Z</time>
      </trkpt>
      <trkpt lat="43.4179" lon="6.84637">
        <ele>64.024821</ele>
        <time>2024-01-31T11:34:43.943Z</time>
      </trkpt>
      <trkpt lat="43.41788" lon="6.8462">
        <ele>63.701915</ele>
        <time>2024-01-31T11:34:45.951Z</time>
      </trkpt>
      <trkpt lat="43.41787" lon="6.84603">
        <ele>63.393784</ele>
        <time>2024-01-31T11:34:47.940Z</time>
      </trkpt>
      <trkpt lat="43.41785" lon="6.84587">
        <ele>63.097695</ele>
        <time>2024-01-31T11:34:49.944Z</time>
      </trkpt>
      <trkpt lat="43.41784" lon="6.84571">
        <ele>62.795742</ele>
        <time>2024-01-31T11:34:51.942Z</time>
      </trkpt>
      <trkpt lat="43.41782" lon="6.84556">
        <ele>62.754025</ele>
        <time>2024-01-31T11:34:53.967Z</time>
      </trkpt>
      <trkpt lat="43.4178" lon="6.8454">
        <ele>62.719484</ele>
        <time>2024-01-31T11:34:55.955Z</time>
      </trkpt>
      <trkpt lat="43.41779" lon="6.84525">
        <ele>62.686197</ele>
        <time>2024-01-31T11:34:57.959Z</time>
      </trkpt>
      <trkpt lat="43.41778" lon="6.8451">
        <ele>62.654317</ele>
        <time>2024-01-31T11:34:59.945Z</time>
      </trkpt>
      <trkpt lat="43.41776" lon="6.84497">
        <ele>62.624519</ele>
        <time>2024-01-31T11:35:01.930Z</time>
      </trkpt>
      <trkpt lat="43.41775" lon="6.84484">
        <ele>62.596473</ele>
        <time>2024-01-31T11:35:03.921Z</time>
      </trkpt>
      <trkpt lat="43.41773" lon="6.8447">
        <ele>62.565744</ele>
        <time>2024-01-31T11:35:05.949Z</time>
      </trkpt>
      <trkpt lat="43.41772" lon="6.84458">
        <ele>62.537559</ele>
        <time>2024-01-31T11:35:07.959Z</time>
      </trkpt>
      <trkpt lat="43.4177" lon="6.84445">
        <ele>62.509859</ele>
        <time>2024-01-31T11:35:09.944Z</time>
      </trkpt>
      <trkpt lat="43.41768" lon="6.84428">
        <ele>62.470777</ele>
        <time>2024-01-31T11:35:12.940Z</time>
      </trkpt>
      <trkpt lat="43.41767" lon="6.8441">
        <ele>62.431301</ele>
        <time>2024-01-31T11:35:15.949Z</time>
      </trkpt>
      <trkpt lat="43.41765" lon="6.84397">
        <ele>62.402632</ele>
        <time>2024-01-31T11:35:17.946Z</time>
      </trkpt>
      <trkpt lat="43.41763" lon="6.84384">
        <ele>62.374643</ele>
        <time>2024-01-31T11:35:19.939Z</time>
      </trkpt>
      <trkpt lat="43.41761" lon="6.84366">
        <ele>62.334652</ele>
        <time>2024-01-31T11:35:22.928Z</time>
      </trkpt>
      <trkpt lat="43.4176" lon="6.8435">
        <ele>62.298426</ele>
        <time>2024-01-31T11:35:25.946Z</time>
      </trkpt>
      <trkpt lat="43.41758" lon="6.84332">
        <ele>62.260545</ele>
        <time>2024-01-31T11:35:28.949Z</time>
      </trkpt>
      <trkpt lat="43.41757" lon="6.84319">
        <ele>62.204136</ele>
        <time>2024-01-31T11:35:30.945Z</time>
      </trkpt>
      <trkpt lat="43.41756" lon="6.84307">
        <ele>62.124517</ele>
        <time>2024-01-31T11:35:32.959Z</time>
      </trkpt>
      <trkpt lat="43.41755" lon="6.84294">
        <ele>62.044014</ele>
        <time>2024-01-31T11:35:34.941Z</time>
      </trkpt>
      <trkpt lat="43.41754" lon="6.84281">
        <ele>61.963602</ele>
        <time>2024-01-31T11:35:36.947Z</time>
      </trkpt>
      <trkpt lat="43.41754" lon="6.84268">
        <ele>61.882806</ele>
        <time>2024-01-31T11:35:38.949Z</time>
      </trkpt>
      <trkpt lat="43.41753" lon="6.84255">
        <ele>61.799726</ele>
        <time>2024-01-31T11:35:40.940Z</time>
      </trkpt>
      <trkpt lat="43.41752" lon="6.84242">
        <ele>61.716874</ele>
        <time>2024-01-31T11:35:42.937Z</time>
      </trkpt>
      <trkpt lat="43.4175" lon="6.84223">
        <ele>61.599292</ele>
        <time>2024-01-31T11:35:45.944Z</time>
      </trkpt>
      <trkpt lat="43.41749" lon="6.84211">
        <ele>61.518789</ele>
        <time>2024-01-31T11:35:47.946Z</time>
      </trkpt>
      <trkpt lat="43.41748" lon="6.84198">
        <ele>61.43781</ele>
        <time>2024-01-31T11:35:49.941Z</time>
      </trkpt>
      <trkpt lat="43.41748" lon="6.84185">
        <ele>61.356941</ele>
        <time>2024-01-31T11:35:51.943Z</time>
      </trkpt>
      <trkpt lat="43.41747" lon="6.84172">
        <ele>61.274483</ele>
        <time>2024-01-31T11:35:53.968Z</time>
      </trkpt>
      <trkpt lat="43.41746" lon="6.84158">
        <ele>61.191689</ele>
        <time>2024-01-31T11:35:55.947Z</time>
      </trkpt>
      <trkpt lat="43.41745" lon="6.84145">
        <ele>61.108052</ele>
        <time>2024-01-31T11:35:57.918Z</time>
      </trkpt>
      <trkpt lat="43.41744" lon="6.84133">
        <ele>61.029229</ele>
        <time>2024-01-31T11:35:59.958Z</time>
      </trkpt>
      <trkpt lat="43.41742" lon="6.84115">
        <ele>60.917054</ele>
        <time>2024-01-31T11:36:02.950Z</time>
      </trkpt>
      <trkpt lat="43.41741" lon="6.84098">
        <ele>60.80726</ele>
        <time>2024-01-31T11:36:05.944Z</time>
      </trkpt>
      <trkpt lat="43.41739" lon="6.8408">
        <ele>60.697846</ele>
        <time>2024-01-31T11:36:08.939Z</time>
      </trkpt>
      <trkpt lat="43.41738" lon="6.84062">
        <ele>60.682671</ele>
        <time>2024-01-31T11:36:11.936Z</time>
      </trkpt>
      <trkpt lat="43.41736" lon="6.8405">
        <ele>60.672979</ele>
        <time>2024-01-31T11:36:13.952Z</time>
      </trkpt>
      <trkpt lat="43.41735" lon="6.84037">
        <ele>60.663357</ele>
        <time>2024-01-31T11:36:15.935Z</time>
      </trkpt>
      <trkpt lat="43.41732" lon="6.84019">
        <ele>60.649111</ele>
        <time>2024-01-31T11:36:18.936Z</time>
      </trkpt>
      <trkpt lat="43.41732" lon="6.84006">
        <ele>60.63946</ele>
        <time>2024-01-31T11:36:20.951Z</time>
      </trkpt>
      <trkpt lat="43.4173" lon="6.83994">
        <ele>60.629914</ele>
        <time>2024-01-31T11:36:22.925Z</time>
      </trkpt>
      <trkpt lat="43.41729" lon="6.83981">
        <ele>60.61991</ele>
        <time>2024-01-31T11:36:24.955Z</time>
      </trkpt>
      <trkpt lat="43.41727" lon="6.83968">
        <ele>60.610167</ele>
        <time>2024-01-31T11:36:26.949Z</time>
      </trkpt>
      <trkpt lat="43.41726" lon="6.83956">
        <ele>60.600647</ele>
        <time>2024-01-31T11:36:28.942Z</time>
      </trkpt>
      <trkpt lat="43.41725" lon="6.83943">
        <ele>60.590811</ele>
        <time>2024-01-31T11:36:30.951Z</time>
      </trkpt>
      <trkpt lat="43.41724" lon="6.83931">
        <ele>60.58115</ele>
        <time>2024-01-31T11:36:32.934Z</time>
      </trkpt>
      <trkpt lat="43.41722" lon="6.83918">
        <ele>60.571146</ele>
        <time>2024-01-31T11:36:34.945Z</time>
      </trkpt>
      <trkpt lat="43.4172" lon="6.83905">
        <ele>60.561067</ele>
        <time>2024-01-31T11:36:36.954Z</time>
      </trkpt>
      <trkpt lat="43.41719" lon="6.83892">
        <ele>60.551431</ele>
        <time>2024-01-31T11:36:38.946Z</time>
      </trkpt>
      <trkpt lat="43.41718" lon="6.83879">
        <ele>60.541569</ele>
        <time>2024-01-31T11:36:40.934Z</time>
      </trkpt>
      <trkpt lat="43.41716" lon="6.83866">
        <ele>60.531253</ele>
        <time>2024-01-31T11:36:42.942Z</time>
      </trkpt>
      <trkpt lat="43.41715" lon="6.83852">
        <ele>60.520862</ele>
        <time>2024-01-31T11:36:44.947Z</time>
      </trkpt>
      <trkpt lat="43.41713" lon="6.83839">
        <ele>60.510349</ele>
        <time>2024-01-31T11:36:46.937Z</time>
      </trkpt>
      <trkpt lat="43.41712" lon="6.83825">
        <ele>60.490385</ele>
        <time>2024-01-31T11:36:48.952Z</time>
      </trkpt>
      <trkpt lat="43.4171" lon="6.8381">
        <ele>60.465907</ele>
        <time>2024-01-31T11:36:50.935Z</time>
      </trkpt>
      <trkpt lat="43.41708" lon="6.83796">
        <ele>60.442455</ele>
        <time>2024-01-31T11:36:52.939Z</time>
      </trkpt>
      <trkpt lat="43.41707" lon="6.83781">
        <ele>60.418712</ele>
        <time>2024-01-31T11:36:54.936Z</time>
      </trkpt>
      <trkpt lat="43.41706" lon="6.83767">
        <ele>60.395447</ele>
        <time>2024-01-31T11:36:56.936Z</time>
      </trkpt>
      <trkpt lat="43.41705" lon="6.83752">
        <ele>60.371049</ele>
        <time>2024-01-31T11:36:58.928Z</time>
      </trkpt>
      <trkpt lat="43.41705" lon="6.83738">
        <ele>60.347811</ele>
        <time>2024-01-31T11:37:00.941Z</time>
      </trkpt>
      <trkpt lat="43.41704" lon="6.83723">
        <ele>60.3235</ele>
        <time>2024-01-31T11:37:02.938Z</time>
      </trkpt>
      <trkpt lat="43.41703" lon="6.83708">
        <ele>60.299278</ele>
        <time>2024-01-31T11:37:04.917Z</time>
      </trkpt>
      <trkpt lat="43.41702" lon="6.83692">
        <ele>60.273893</ele>
        <time>2024-01-31T11:37:06.956Z</time>
      </trkpt>
      <trkpt lat="43.41702" lon="6.83678">
        <ele>60.250816</ele>
        <time>2024-01-31T11:37:08.939Z</time>
      </trkpt>
      <trkpt lat="43.41702" lon="6.83664">
        <ele>60.228899</ele>
        <time>2024-01-31T11:37:10.951Z</time>
      </trkpt>
      <trkpt lat="43.41701" lon="6.83652">
        <ele>60.208279</ele>
        <time>2024-01-31T11:37:12.950Z</time>
      </trkpt>
      <trkpt lat="43.41702" lon="6.83639">
        <ele>60.187492</ele>
        <time>2024-01-31T11:37:14.936Z</time>
      </trkpt>
      <trkpt lat="43.41701" lon="6.83625">
        <ele>60.164227</ele>
        <time>2024-01-31T11:37:17.951Z</time>
      </trkpt>
      <trkpt lat="43.41701" lon="6.83611">
        <ele>60.142151</ele>
        <time>2024-01-31T11:37:20.942Z</time>
      </trkpt>
      <trkpt lat="43.417" lon="6.83598">
        <ele>60.120447</ele>
        <time>2024-01-31T11:37:23.954Z</time>
      </trkpt>
      <trkpt lat="43.41697" lon="6.83584">
        <ele>60.039973</ele>
        <time>2024-01-31T11:37:26.935Z</time>
      </trkpt>
      <trkpt lat="43.41694" lon="6.83569">
        <ele>59.826239</ele>
        <time>2024-01-31T11:37:29.953Z</time>
      </trkpt>
      <trkpt lat="43.4169" lon="6.83554">
        <ele>59.610122</ele>
        <time>2024-01-31T11:37:32.933Z</time>
      </trkpt>
      <trkpt lat="43.41686" lon="6.83539">
        <ele>59.397488</ele>
        <time>2024-01-31T11:37:35.942Z</time>
      </trkpt>
      <trkpt lat="43.41683" lon="6.83524">
        <ele>59.181995</ele>
        <time>2024-01-31T11:37:38.930Z</time>
      </trkpt>
      <trkpt lat="43.4168" lon="6.83508">
        <ele>58.965058</ele>
        <time>2024-01-31T11:37:41.945Z</time>
      </trkpt>
      <trkpt lat="43.41681" lon="6.8349">
        <ele>58.717946</ele>
        <time>2024-01-31T11:37:44.932Z</time>
      </trkpt>
      <trkpt lat="43.41682" lon="6.83476">
        <ele>58.525736</ele>
        <time>2024-01-31T11:37:46.949Z</time>
      </trkpt>
      <trkpt lat="43.41683" lon="6.83461">
        <ele>58.323584</ele>
        <time>2024-01-31T11:37:48.962Z</time>
      </trkpt>
      <trkpt lat="43.41685" lon="6.83446">
        <ele>58.122862</ele>
        <time>2024-01-31T11:37:50.944Z</time>
      </trkpt>
      <trkpt lat="43.41688" lon="6.83431">
        <ele>57.909837</ele>
        <time>2024-01-31T11:37:52.957Z</time>
      </trkpt>
      <trkpt lat="43.41694" lon="6.83415">
        <ele>57.673933</ele>
        <time>2024-01-31T11:37:54.989Z</time>
      </trkpt>
      <trkpt lat="43.41702" lon="6.834">
        <ele>57.424081</ele>
        <time>2024-01-31T11:37:56.936Z</time>
      </trkpt>
      <trkpt lat="43.41711" lon="6.83385">
        <ele>57.158975</ele>
        <time>2024-01-31T11:37:58.951Z</time>
      </trkpt>
      <trkpt lat="43.4172" lon="6.8337">
        <ele>56.89162</ele>
        <time>2024-01-31T11:38:00.940Z</time>
      </trkpt>
      <trkpt lat="43.41727" lon="6.83353">
        <ele>56.594826</ele>
        <time>2024-01-31T11:38:02.938Z</time>
      </trkpt>
      <trkpt lat="43.41734" lon="6.83336">
        <ele>56.281128</ele>
        <time>2024-01-31T11:38:04.947Z</time>
      </trkpt>
      <trkpt lat="43.41741" lon="6.83319">
        <ele>55.972393</ele>
        <time>2024-01-31T11:38:06.933Z</time>
      </trkpt>
      <trkpt lat="43.41748" lon="6.83303">
        <ele>55.670396</ele>
        <time>2024-01-31T11:38:08.937Z</time>
      </trkpt>
      <trkpt lat="43.41754" lon="6.83288">
        <ele>55.389401</ele>
        <time>2024-01-31T11:38:10.948Z</time>
      </trkpt>
      <trkpt lat="43.4176" lon="6.83273">
        <ele>55.10391</ele>
        <time>2024-01-31T11:38:12.938Z</time>
      </trkpt>
      <trkpt lat="43.41767" lon="6.83257">
        <ele>54.818997</ele>
        <time>2024-01-31T11:38:14.942Z</time>
      </trkpt>
      <trkpt lat="43.41773" lon="6.83243">
        <ele>54.54572</ele>
        <time>2024-01-31T11:38:16.945Z</time>
      </trkpt>
      <trkpt lat="43.41779" lon="6.83229">
        <ele>54.280301</ele>
        <time>2024-01-31T11:38:18.942Z</time>
      </trkpt>
      <trkpt lat="43.41786" lon="6.83215">
        <ele>54.009364</ele>
        <time>2024-01-31T11:38:20.943Z</time>
      </trkpt>
      <trkpt lat="43.41792" lon="6.83201">
        <ele>53.739811</ele>
        <time>2024-01-31T11:38:22.923Z</time>
      </trkpt>
      <trkpt lat="43.41798" lon="6.83187">
        <ele>53.481798</ele>
        <time>2024-01-31T11:38:24.939Z</time>
      </trkpt>
      <trkpt lat="43.41803" lon="6.83175">
        <ele>53.247811</ele>
        <time>2024-01-31T11:38:26.938Z</time>
      </trkpt>
      <trkpt lat="43.41809" lon="6.83162">
        <ele>53.017753</ele>
        <time>2024-01-31T11:38:28.929Z</time>
      </trkpt>
      <trkpt lat="43.41814" lon="6.8315">
        <ele>52.78299</ele>
        <time>2024-01-31T11:38:30.914Z</time>
      </trkpt>
      <trkpt lat="43.41819" lon="6.83137">
        <ele>52.712909</ele>
        <time>2024-01-31T11:38:32.940Z</time>
      </trkpt>
      <trkpt lat="43.41824" lon="6.83123">
        <ele>52.661588</ele>
        <time>2024-01-31T11:38:34.933Z</time>
      </trkpt>
      <trkpt lat="43.41831" lon="6.83111">
        <ele>52.613437</ele>
        <time>2024-01-31T11:38:36.946Z</time>
      </trkpt>
      <trkpt lat="43.41837" lon="6.83097">
        <ele>52.559967</ele>
        <time>2024-01-31T11:38:38.926Z</time>
      </trkpt>
      <trkpt lat="43.41843" lon="6.83083">
        <ele>52.506069</ele>
        <time>2024-01-31T11:38:40.935Z</time>
      </trkpt>
      <trkpt lat="43.41849" lon="6.83069">
        <ele>52.452819</ele>
        <time>2024-01-31T11:38:42.943Z</time>
      </trkpt>
      <trkpt lat="43.41855" lon="6.83054">
        <ele>52.397187</ele>
        <time>2024-01-31T11:38:44.930Z</time>
      </trkpt>
      <trkpt lat="43.41859" lon="6.83039">
        <ele>52.344336</ele>
        <time>2024-01-31T11:38:46.940Z</time>
      </trkpt>
      <trkpt lat="43.41863" lon="6.83024">
        <ele>52.292964</ele>
        <time>2024-01-31T11:38:48.928Z</time>
      </trkpt>
      <trkpt lat="43.41867" lon="6.8301">
        <ele>52.243185</ele>
        <time>2024-01-31T11:38:50.935Z</time>
      </trkpt>
      <trkpt lat="43.41871" lon="6.82997">
        <ele>52.195824</ele>
        <time>2024-01-31T11:38:52.916Z</time>
      </trkpt>
      <trkpt lat="43.41875" lon="6.82984">
        <ele>52.149239</ele>
        <time>2024-01-31T11:38:54.987Z</time>
      </trkpt>
      <trkpt lat="43.41879" lon="6.82971">
        <ele>52.105964</ele>
        <time>2024-01-31T11:38:56.953Z</time>
      </trkpt>
      <trkpt lat="43.41882" lon="6.8296">
        <ele>52.064635</ele>
        <time>2024-01-31T11:38:58.936Z</time>
      </trkpt>
      <trkpt lat="43.41884" lon="6.82947">
        <ele>52.024258</ele>
        <time>2024-01-31T11:39:00.926Z</time>
      </trkpt>
      <trkpt lat="43.41888" lon="6.82934">
        <ele>51.975511</ele>
        <time>2024-01-31T11:39:03.952Z</time>
      </trkpt>
      <trkpt lat="43.41891" lon="6.8292">
        <ele>51.960688</ele>
        <time>2024-01-31T11:39:06.912Z</time>
      </trkpt>
      <trkpt lat="43.41891" lon="6.82906">
        <ele>52.000914</ele>
        <time>2024-01-31T11:39:09.932Z</time>
      </trkpt>
      <trkpt lat="43.4189" lon="6.82891">
        <ele>52.043885</ele>
        <time>2024-01-31T11:39:12.930Z</time>
      </trkpt>
      <trkpt lat="43.41886" lon="6.82877">
        <ele>52.088222</ele>
        <time>2024-01-31T11:39:15.922Z</time>
      </trkpt>
      <trkpt lat="43.41881" lon="6.82861">
        <ele>52.138247</ele>
        <time>2024-01-31T11:39:18.928Z</time>
      </trkpt>
      <trkpt lat="43.41875" lon="6.82846">
        <ele>52.186864</ele>
        <time>2024-01-31T11:39:21.945Z</time>
      </trkpt>
      <trkpt lat="43.4187" lon="6.82832">
        <ele>52.232983</ele>
        <time>2024-01-31T11:39:24.937Z</time>
      </trkpt>
      <trkpt lat="43.41865" lon="6.82819">
        <ele>52.276057</ele>
        <time>2024-01-31T11:39:27.947Z</time>
      </trkpt>
      <trkpt lat="43.4186" lon="6.82805">
        <ele>52.32181</ele>
        <time>2024-01-31T11:39:30.942Z</time>
      </trkpt>
      <trkpt lat="43.41855" lon="6.8279">
        <ele>52.36773</ele>
        <time>2024-01-31T11:39:33.939Z</time>
      </trkpt>
      <trkpt lat="43.41849" lon="6.82776">
        <ele>52.413782</ele>
        <time>2024-01-31T11:39:36.939Z</time>
      </trkpt>
      <trkpt lat="43.41845" lon="6.82763">
        <ele>52.456168</ele>
        <time>2024-01-31T11:39:39.951Z</time>
      </trkpt>
      <trkpt lat="43.4184" lon="6.82751">
        <ele>52.495171</ele>
        <time>2024-01-31T11:39:42.937Z</time>
      </trkpt>
      <trkpt lat="43.41835" lon="6.82737">
        <ele>52.539533</ele>
        <time>2024-01-31T11:39:46.954Z</time>
      </trkpt>
      <trkpt lat="43.41831" lon="6.82724">
        <ele>52.58294</ele>
        <time>2024-01-31T11:39:50.941Z</time>
      </trkpt>
      <trkpt lat="43.41826" lon="6.8271">
        <ele>52.626281</ele>
        <time>2024-01-31T11:39:54.937Z</time>
      </trkpt>
      <trkpt lat="43.41821" lon="6.82696">
        <ele>52.698118</ele>
        <time>2024-01-31T11:39:58.932Z</time>
      </trkpt>
      <trkpt lat="43.41817" lon="6.82684">
        <ele>52.832072</ele>
        <time>2024-01-31T11:40:01.950Z</time>
      </trkpt>
      <trkpt lat="43.41814" lon="6.82671">
        <ele>52.968371</ele>
        <time>2024-01-31T11:40:04.938Z</time>
      </trkpt>
      <trkpt lat="43.41812" lon="6.82657">
        <ele>53.113333</ele>
        <time>2024-01-31T11:40:07.933Z</time>
      </trkpt>
      <trkpt lat="43.4181" lon="6.82642">
        <ele>53.257185</ele>
        <time>2024-01-31T11:40:10.937Z</time>
      </trkpt>
      <trkpt lat="43.41807" lon="6.82627">
        <ele>53.421925</ele>
        <time>2024-01-31T11:40:13.943Z</time>
      </trkpt>
      <trkpt lat="43.41804" lon="6.8261">
        <ele>53.588758</ele>
        <time>2024-01-31T11:40:16.940Z</time>
      </trkpt>
      <trkpt lat="43.41803" lon="6.82594">
        <ele>53.753752</ele>
        <time>2024-01-31T11:40:19.954Z</time>
      </trkpt>
      <trkpt lat="43.41799" lon="6.82577">
        <ele>53.930628</ele>
        <time>2024-01-31T11:40:22.929Z</time>
      </trkpt>
      <trkpt lat="43.41796" lon="6.8256">
        <ele>54.110678</ele>
        <time>2024-01-31T11:40:25.944Z</time>
      </trkpt>
      <trkpt lat="43.41794" lon="6.82543">
        <ele>54.283154</ele>
        <time>2024-01-31T11:40:28.923Z</time>
      </trkpt>
      <trkpt lat="43.41791" lon="6.82526">
        <ele>54.457376</ele>
        <time>2024-01-31T11:40:31.940Z</time>
      </trkpt>
      <trkpt lat="43.41788" lon="6.82508">
        <ele>54.644285</ele>
        <time>2024-01-31T11:40:34.941Z</time>
      </trkpt>
      <trkpt lat="43.41786" lon="6.82495">
        <ele>54.777038</ele>
        <time>2024-01-31T11:40:36.924Z</time>
      </trkpt>
      <trkpt lat="43.41784" lon="6.82482">
        <ele>54.912051</ele>
        <time>2024-01-31T11:40:38.951Z</time>
      </trkpt>
      <trkpt lat="43.41782" lon="6.82468">
        <ele>55.056035</ele>
        <time>2024-01-31T11:40:40.942Z</time>
      </trkpt>
      <trkpt lat="43.4178" lon="6.82454">
        <ele>55.123827</ele>
        <time>2024-01-31T11:40:42.939Z</time>
      </trkpt>
      <trkpt lat="43.41778" lon="6.8244">
        <ele>55.061668</ele>
        <time>2024-01-31T11:40:44.935Z</time>
      </trkpt>
      <trkpt lat="43.41777" lon="6.82425">
        <ele>54.997182</ele>
        <time>2024-01-31T11:40:46.954Z</time>
      </trkpt>
      <trkpt lat="43.41776" lon="6.8241">
        <ele>54.933118</ele>
        <time>2024-01-31T11:40:48.943Z</time>
      </trkpt>
      <trkpt lat="43.41777" lon="6.82396">
        <ele>54.871691</ele>
        <time>2024-01-31T11:40:50.956Z</time>
      </trkpt>
      <trkpt lat="43.41777" lon="6.82382">
        <ele>54.810895</ele>
        <time>2024-01-31T11:40:52.954Z</time>
      </trkpt>
      <trkpt lat="43.41778" lon="6.82368">
        <ele>54.749668</ele>
        <time>2024-01-31T11:40:54.933Z</time>
      </trkpt>
      <trkpt lat="43.4178" lon="6.82353">
        <ele>54.687169</ele>
        <time>2024-01-31T11:40:56.957Z</time>
      </trkpt>
      <trkpt lat="43.41781" lon="6.82339">
        <ele>54.623788</ele>
        <time>2024-01-31T11:40:58.952Z</time>
      </trkpt>
      <trkpt lat="43.41783" lon="6.82324">
        <ele>54.557597</ele>
        <time>2024-01-31T11:41:00.928Z</time>
      </trkpt>
      <trkpt lat="43.41785" lon="6.82308">
        <ele>54.488221</ele>
        <time>2024-01-31T11:41:02.922Z</time>
      </trkpt>
      <trkpt lat="43.41786" lon="6.82292">
        <ele>54.417418</ele>
        <time>2024-01-31T11:41:04.931Z</time>
      </trkpt>
      <trkpt lat="43.41788" lon="6.82276">
        <ele>54.347126</ele>
        <time>2024-01-31T11:41:06.935Z</time>
      </trkpt>
      <trkpt lat="43.41788" lon="6.8226">
        <ele>54.277916</ele>
        <time>2024-01-31T11:41:08.939Z</time>
      </trkpt>
      <trkpt lat="43.41785" lon="6.82244">
        <ele>54.209292</ele>
        <time>2024-01-31T11:41:10.944Z</time>
      </trkpt>
      <trkpt lat="43.4178" lon="6.8223">
        <ele>54.141149</ele>
        <time>2024-01-31T11:41:12.939Z</time>
      </trkpt>
      <trkpt lat="43.41773" lon="6.82217">
        <ele>54.081883</ele>
        <time>2024-01-31T11:41:14.927Z</time>
      </trkpt>
      <trkpt lat="43.41766" lon="6.82207">
        <ele>54.275038</ele>
        <time>2024-01-31T11:41:16.930Z</time>
      </trkpt>
      <trkpt lat="43.41759" lon="6.82193">
        <ele>54.511758</ele>
        <time>2024-01-31T11:41:19.945Z</time>
      </trkpt>
      <trkpt lat="43.41752" lon="6.82182">
        <ele>54.713553</ele>
        <time>2024-01-31T11:41:22.927Z</time>
      </trkpt>
      <trkpt lat="43.41747" lon="6.82171">
        <ele>54.901696</ele>
        <time>2024-01-31T11:41:25.945Z</time>
      </trkpt>
      <trkpt lat="43.41741" lon="6.82158">
        <ele>55.116503</ele>
        <time>2024-01-31T11:41:29.919Z</time>
      </trkpt>
      <trkpt lat="43.41736" lon="6.82145">
        <ele>55.318867</ele>
        <time>2024-01-31T11:41:33.943Z</time>
      </trkpt>
      <trkpt lat="43.41731" lon="6.8213">
        <ele>55.545405</ele>
        <time>2024-01-31T11:41:37.945Z</time>
      </trkpt>
      <trkpt lat="43.41729" lon="6.82118">
        <ele>55.719577</ele>
        <time>2024-01-31T11:41:40.944Z</time>
      </trkpt>
      <trkpt lat="43.41726" lon="6.82106">
        <ele>55.89474</ele>
        <time>2024-01-31T11:41:43.953Z</time>
      </trkpt>
      <trkpt lat="43.41723" lon="6.82094">
        <ele>56.070236</ele>
        <time>2024-01-31T11:41:46.956Z</time>
      </trkpt>
      <trkpt lat="43.41721" lon="6.82081">
        <ele>56.249322</ele>
        <time>2024-01-31T11:41:49.951Z</time>
      </trkpt>
      <trkpt lat="43.41719" lon="6.82068">
        <ele>56.433826</ele>
        <time>2024-01-31T11:41:52.945Z</time>
      </trkpt>
      <trkpt lat="43.41717" lon="6.82055">
        <ele>56.621041</ele>
        <time>2024-01-31T11:41:55.950Z</time>
      </trkpt>
      <trkpt lat="43.41715" lon="6.82042">
        <ele>56.805116</ele>
        <time>2024-01-31T11:41:58.940Z</time>
      </trkpt>
      <trkpt lat="43.41713" lon="6.8203">
        <ele>56.987668</ele>
        <time>2024-01-31T11:42:01.949Z</time>
      </trkpt>
      <trkpt lat="43.41711" lon="6.82015">
        <ele>57.192027</ele>
        <time>2024-01-31T11:42:04.939Z</time>
      </trkpt>
      <trkpt lat="43.41709" lon="6.82">
        <ele>57.403007</ele>
        <time>2024-01-31T11:42:07.939Z</time>
      </trkpt>
      <trkpt lat="43.41707" lon="6.81987">
        <ele>57.55224</ele>
        <time>2024-01-31T11:42:10.944Z</time>
      </trkpt>
      <trkpt lat="43.41705" lon="6.81974">
        <ele>57.626567</ele>
        <time>2024-01-31T11:42:13.937Z</time>
      </trkpt>
      <trkpt lat="43.41703" lon="6.81961">
        <ele>57.704616</ele>
        <time>2024-01-31T11:42:16.942Z</time>
      </trkpt>
      <trkpt lat="43.41701" lon="6.81947">
        <ele>57.784461</ele>
        <time>2024-01-31T11:42:19.962Z</time>
      </trkpt>
      <trkpt lat="43.417" lon="6.81934">
        <ele>57.862751</ele>
        <time>2024-01-31T11:42:22.947Z</time>
      </trkpt>
      <trkpt lat="43.41698" lon="6.81921">
        <ele>57.937868</ele>
        <time>2024-01-31T11:42:25.946Z</time>
      </trkpt>
      <trkpt lat="43.41697" lon="6.81908">
        <ele>58.013204</ele>
        <time>2024-01-31T11:42:28.939Z</time>
      </trkpt>
      <trkpt lat="43.41695" lon="6.81896">
        <ele>58.08695</ele>
        <time>2024-01-31T11:42:31.951Z</time>
      </trkpt>
      <trkpt lat="43.41695" lon="6.81882">
        <ele>58.163917</ele>
        <time>2024-01-31T11:42:34.936Z</time>
      </trkpt>
      <trkpt lat="43.41694" lon="6.81868">
        <ele>58.247332</ele>
        <time>2024-01-31T11:42:37.931Z</time>
      </trkpt>
      <trkpt lat="43.41694" lon="6.81852">
        <ele>58.340409</ele>
        <time>2024-01-31T11:42:40.924Z</time>
      </trkpt>
      <trkpt lat="43.41693" lon="6.81836">
        <ele>58.433991</ele>
        <time>2024-01-31T11:42:43.939Z</time>
      </trkpt>
      <trkpt lat="43.41692" lon="6.81819">
        <ele>58.528703</ele>
        <time>2024-01-31T11:42:46.955Z</time>
      </trkpt>
      <trkpt lat="43.41692" lon="6.81803">
        <ele>58.624636</ele>
        <time>2024-01-31T11:42:49.943Z</time>
      </trkpt>
      <trkpt lat="43.41691" lon="6.81786">
        <ele>58.723662</ele>
        <time>2024-01-31T11:42:52.913Z</time>
      </trkpt>
      <trkpt lat="43.4169" lon="6.81769">
        <ele>58.822009</ele>
        <time>2024-01-31T11:42:55.936Z</time>
      </trkpt>
      <trkpt lat="43.4169" lon="6.81752">
        <ele>58.919702</ele>
        <time>2024-01-31T11:42:58.938Z</time>
      </trkpt>
      <trkpt lat="43.41689" lon="6.81736">
        <ele>58.766563</ele>
        <time>2024-01-31T11:43:01.959Z</time>
      </trkpt>
      <trkpt lat="43.41688" lon="6.81718">
        <ele>58.443034</ele>
        <time>2024-01-31T11:43:04.940Z</time>
      </trkpt>
      <trkpt lat="43.41687" lon="6.81705">
        <ele>58.21447</ele>
        <time>2024-01-31T11:43:06.939Z</time>
      </trkpt>
      <trkpt lat="43.41685" lon="6.81692">
        <ele>57.977709</ele>
        <time>2024-01-31T11:43:08.942Z</time>
      </trkpt>
      <trkpt lat="43.41684" lon="6.81679">
        <ele>57.744505</ele>
        <time>2024-01-31T11:43:10.946Z</time>
      </trkpt>
      <trkpt lat="43.41683" lon="6.81666">
        <ele>57.508039</ele>
        <time>2024-01-31T11:43:12.940Z</time>
      </trkpt>
      <trkpt lat="43.41681" lon="6.81653">
        <ele>57.275143</ele>
        <time>2024-01-31T11:43:14.941Z</time>
      </trkpt>
      <trkpt lat="43.41679" lon="6.81639">
        <ele>57.014887</ele>
        <time>2024-01-31T11:43:16.944Z</time>
      </trkpt>
      <trkpt lat="43.41676" lon="6.81625">
        <ele>56.746934</ele>
        <time>2024-01-31T11:43:18.952Z</time>
      </trkpt>
      <trkpt lat="43.41673" lon="6.81611">
        <ele>56.493028</ele>
        <time>2024-01-31T11:43:20.955Z</time>
      </trkpt>
      <trkpt lat="43.4167" lon="6.81597">
        <ele>56.232509</ele>
        <time>2024-01-31T11:43:22.939Z</time>
      </trkpt>
      <trkpt lat="43.41668" lon="6.81584">
        <ele>55.984429</ele>
        <time>2024-01-31T11:43:24.956Z</time>
      </trkpt>
      <trkpt lat="43.41665" lon="6.8157">
        <ele>55.734403</ele>
        <time>2024-01-31T11:43:26.946Z</time>
      </trkpt>
      <trkpt lat="43.41661" lon="6.81558">
        <ele>55.489156</ele>
        <time>2024-01-31T11:43:28.944Z</time>
      </trkpt>
      <trkpt lat="43.41658" lon="6.81544">
        <ele>55.238834</ele>
        <time>2024-01-31T11:43:30.926Z</time>
      </trkpt>
      <trkpt lat="43.41654" lon="6.8153">
        <ele>54.962384</ele>
        <time>2024-01-31T11:43:32.934Z</time>
      </trkpt>
      <trkpt lat="43.4165" lon="6.81515">
        <ele>54.683373</ele>
        <time>2024-01-31T11:43:34.955Z</time>
      </trkpt>
      <trkpt lat="43.41645" lon="6.81501">
        <ele>54.491842</ele>
        <time>2024-01-31T11:43:36.942Z</time>
      </trkpt>
      <trkpt lat="43.41641" lon="6.81487">
        <ele>54.438659</ele>
        <time>2024-01-31T11:43:38.931Z</time>
      </trkpt>
      <trkpt lat="43.41635" lon="6.81471">
        <ele>54.380439</ele>
        <time>2024-01-31T11:43:40.939Z</time>
      </trkpt>
      <trkpt lat="43.41629" lon="6.81455">
        <ele>54.319773</ele>
        <time>2024-01-31T11:43:42.940Z</time>
      </trkpt>
      <trkpt lat="43.41624" lon="6.8144">
        <ele>54.261345</ele>
        <time>2024-01-31T11:43:44.940Z</time>
      </trkpt>
      <trkpt lat="43.41619" lon="6.81424">
        <ele>54.202496</ele>
        <time>2024-01-31T11:43:46.940Z</time>
      </trkpt>
      <trkpt lat="43.41614" lon="6.8141">
        <ele>54.148743</ele>
        <time>2024-01-31T11:43:48.942Z</time>
      </trkpt>
      <trkpt lat="43.41609" lon="6.81397">
        <ele>54.101672</ele>
        <time>2024-01-31T11:43:50.955Z</time>
      </trkpt>
      <trkpt lat="43.41605" lon="6.81386">
        <ele>54.058021</ele>
        <time>2024-01-31T11:43:52.954Z</time>
      </trkpt>
      <trkpt lat="43.41599" lon="6.81371">
        <ele>54.000206</ele>
        <time>2024-01-31T11:43:55.949Z</time>
      </trkpt>
      <trkpt lat="43.41595" lon="6.81357">
        <ele>53.950196</ele>
        <time>2024-01-31T11:43:58.936Z</time>
      </trkpt>
      <trkpt lat="43.4159" lon="6.81345">
        <ele>53.901625</ele>
        <time>2024-01-31T11:44:01.920Z</time>
      </trkpt>
      <trkpt lat="43.41585" lon="6.8133">
        <ele>53.847371</ele>
        <time>2024-01-31T11:44:04.927Z</time>
      </trkpt>
      <trkpt lat="43.4158" lon="6.81317">
        <ele>53.795563</ele>
        <time>2024-01-31T11:44:07.953Z</time>
      </trkpt>
      <trkpt lat="43.41576" lon="6.81303">
        <ele>53.74381</ele>
        <time>2024-01-31T11:44:10.940Z</time>
      </trkpt>
      <trkpt lat="43.41571" lon="6.8129">
        <ele>53.694204</ele>
        <time>2024-01-31T11:44:13.947Z</time>
      </trkpt>
      <trkpt lat="43.41566" lon="6.81277">
        <ele>53.679622</ele>
        <time>2024-01-31T11:44:16.947Z</time>
      </trkpt>
      <trkpt lat="43.41562" lon="6.81264">
        <ele>53.691775</ele>
        <time>2024-01-31T11:44:19.962Z</time>
      </trkpt>
      <trkpt lat="43.41558" lon="6.81252">
        <ele>53.703657</ele>
        <time>2024-01-31T11:44:22.940Z</time>
      </trkpt>
      <trkpt lat="43.41554" lon="6.81239">
        <ele>53.716116</ele>
        <time>2024-01-31T11:44:25.950Z</time>
      </trkpt>
      <trkpt lat="43.41549" lon="6.81227">
        <ele>53.727655</ele>
        <time>2024-01-31T11:44:28.934Z</time>
      </trkpt>
      <trkpt lat="43.41543" lon="6.81195">
        <ele>53.756709</ele>
        <time>2024-01-31T11:46:13.967Z</time>
      </trkpt>
      <trkpt lat="43.41541" lon="6.81182">
        <ele>53.768436</ele>
        <time>2024-01-31T11:46:16.945Z</time>
      </trkpt>
      <trkpt lat="43.41538" lon="6.81168">
        <ele>53.780933</ele>
        <time>2024-01-31T11:46:19.942Z</time>
      </trkpt>
      <trkpt lat="43.41536" lon="6.81155">
        <ele>53.792413</ele>
        <time>2024-01-31T11:46:22.942Z</time>
      </trkpt>
      <trkpt lat="43.41534" lon="6.81142">
        <ele>53.804111</ele>
        <time>2024-01-31T11:46:25.924Z</time>
      </trkpt>
      <trkpt lat="43.41531" lon="6.81129">
        <ele>53.815806</ele>
        <time>2024-01-31T11:46:28.952Z</time>
      </trkpt>
      <trkpt lat="43.41529" lon="6.81113">
        <ele>53.829799</ele>
        <time>2024-01-31T11:46:32.955Z</time>
      </trkpt>
      <trkpt lat="43.41526" lon="6.811">
        <ele>53.842029</ele>
        <time>2024-01-31T11:46:36.948Z</time>
      </trkpt>
      <trkpt lat="43.41525" lon="6.81086">
        <ele>53.853809</ele>
        <time>2024-01-31T11:46:40.926Z</time>
      </trkpt>
      <trkpt lat="43.41522" lon="6.81075">
        <ele>53.864699</ele>
        <time>2024-01-31T11:46:43.939Z</time>
      </trkpt>
      <trkpt lat="43.41519" lon="6.81062">
        <ele>53.876408</ele>
        <time>2024-01-31T11:46:46.937Z</time>
      </trkpt>
      <trkpt lat="43.41517" lon="6.81048">
        <ele>53.883962</ele>
        <time>2024-01-31T11:46:49.955Z</time>
      </trkpt>
      <trkpt lat="43.41514" lon="6.81034">
        <ele>53.80893</ele>
        <time>2024-01-31T11:46:52.945Z</time>
      </trkpt>
      <trkpt lat="43.41511" lon="6.8102">
        <ele>53.734974</ele>
        <time>2024-01-31T11:46:55.942Z</time>
      </trkpt>
      <trkpt lat="43.41509" lon="6.81006">
        <ele>53.660347</ele>
        <time>2024-01-31T11:46:58.948Z</time>
      </trkpt>
      <trkpt lat="43.41507" lon="6.80991">
        <ele>53.581423</ele>
        <time>2024-01-31T11:47:01.952Z</time>
      </trkpt>
      <trkpt lat="43.41504" lon="6.80973">
        <ele>53.490508</ele>
        <time>2024-01-31T11:47:04.971Z</time>
      </trkpt>
      <trkpt lat="43.41502" lon="6.80955">
        <ele>53.396078</ele>
        <time>2024-01-31T11:47:07.953Z</time>
      </trkpt>
      <trkpt lat="43.415" lon="6.80943">
        <ele>53.328393</ele>
        <time>2024-01-31T11:47:09.981Z</time>
      </trkpt>
      <trkpt lat="43.41498" lon="6.80929">
        <ele>53.257329</ele>
        <time>2024-01-31T11:47:11.924Z</time>
      </trkpt>
      <trkpt lat="43.41496" lon="6.80915">
        <ele>53.183136</ele>
        <time>2024-01-31T11:47:13.970Z</time>
      </trkpt>
      <trkpt lat="43.41494" lon="6.80899">
        <ele>53.101551</ele>
        <time>2024-01-31T11:47:15.947Z</time>
      </trkpt>
      <trkpt lat="43.41491" lon="6.80884">
        <ele>53.01984</ele>
        <time>2024-01-31T11:47:17.958Z</time>
      </trkpt>
      <trkpt lat="43.41489" lon="6.80869">
        <ele>52.941272</ele>
        <time>2024-01-31T11:47:19.947Z</time>
      </trkpt>
      <trkpt lat="43.41486" lon="6.80854">
        <ele>52.861231</ele>
        <time>2024-01-31T11:47:21.953Z</time>
      </trkpt>
      <trkpt lat="43.41483" lon="6.80838">
        <ele>52.777812</ele>
        <time>2024-01-31T11:47:23.939Z</time>
      </trkpt>
      <trkpt lat="43.41481" lon="6.80823">
        <ele>52.698086</ele>
        <time>2024-01-31T11:47:25.944Z</time>
      </trkpt>
      <trkpt lat="43.41479" lon="6.80808">
        <ele>52.615747</ele>
        <time>2024-01-31T11:47:27.943Z</time>
      </trkpt>
      <trkpt lat="43.41476" lon="6.80792">
        <ele>52.589327</ele>
        <time>2024-01-31T11:47:29.960Z</time>
      </trkpt>
      <trkpt lat="43.41475" lon="6.80776">
        <ele>52.565331</ele>
        <time>2024-01-31T11:47:31.964Z</time>
      </trkpt>
      <trkpt lat="43.41474" lon="6.80759">
        <ele>52.540662</ele>
        <time>2024-01-31T11:47:33.959Z</time>
      </trkpt>
      <trkpt lat="43.41474" lon="6.80741">
        <ele>52.515081</ele>
        <time>2024-01-31T11:47:35.959Z</time>
      </trkpt>
      <trkpt lat="43.41473" lon="6.80724">
        <ele>52.490418</ele>
        <time>2024-01-31T11:47:37.946Z</time>
      </trkpt>
      <trkpt lat="43.41473" lon="6.80707">
        <ele>52.465166</ele>
        <time>2024-01-31T11:47:39.925Z</time>
      </trkpt>
      <trkpt lat="43.41472" lon="6.8069">
        <ele>52.440927</ele>
        <time>2024-01-31T11:47:41.949Z</time>
      </trkpt>
      <trkpt lat="43.41472" lon="6.80674">
        <ele>52.416834</ele>
        <time>2024-01-31T11:47:43.952Z</time>
      </trkpt>
      <trkpt lat="43.41472" lon="6.80658">
        <ele>52.393053</ele>
        <time>2024-01-31T11:47:45.949Z</time>
      </trkpt>
      <trkpt lat="43.41472" lon="6.80642">
        <ele>52.370717</ele>
        <time>2024-01-31T11:47:47.950Z</time>
      </trkpt>
      <trkpt lat="43.41471" lon="6.80627">
        <ele>52.348541</ele>
        <time>2024-01-31T11:47:49.963Z</time>
      </trkpt>
      <trkpt lat="43.41472" lon="6.80613">
        <ele>52.327378</ele>
        <time>2024-01-31T11:47:51.958Z</time>
      </trkpt>
      <trkpt lat="43.41472" lon="6.80599">
        <ele>52.308121</ele>
        <time>2024-01-31T11:47:53.958Z</time>
      </trkpt>
      <trkpt lat="43.41473" lon="6.80586">
        <ele>52.287778</ele>
        <time>2024-01-31T11:47:55.958Z</time>
      </trkpt>
      <trkpt lat="43.41473" lon="6.80571">
        <ele>52.266547</ele>
        <time>2024-01-31T11:47:57.936Z</time>
      </trkpt>
      <trkpt lat="43.41474" lon="6.80558">
        <ele>52.264234</ele>
        <time>2024-01-31T11:47:59.956Z</time>
      </trkpt>
      <trkpt lat="43.41474" lon="6.80545">
        <ele>52.36864</ele>
        <time>2024-01-31T11:48:01.953Z</time>
      </trkpt>
      <trkpt lat="43.41475" lon="6.80532">
        <ele>52.467677</ele>
        <time>2024-01-31T11:48:03.949Z</time>
      </trkpt>
      <trkpt lat="43.41475" lon="6.80519">
        <ele>52.571569</ele>
        <time>2024-01-31T11:48:05.982Z</time>
      </trkpt>
      <trkpt lat="43.41476" lon="6.80506">
        <ele>52.670327</ele>
        <time>2024-01-31T11:48:07.955Z</time>
      </trkpt>
      <trkpt lat="43.41477" lon="6.80493">
        <ele>52.775781</ele>
        <time>2024-01-31T11:48:09.952Z</time>
      </trkpt>
      <trkpt lat="43.41478" lon="6.80481">
        <ele>52.873188</ele>
        <time>2024-01-31T11:48:11.965Z</time>
      </trkpt>
      <trkpt lat="43.41478" lon="6.80464">
        <ele>53.007313</ele>
        <time>2024-01-31T11:48:14.940Z</time>
      </trkpt>
      <trkpt lat="43.41478" lon="6.80448">
        <ele>53.131237</ele>
        <time>2024-01-31T11:48:17.951Z</time>
      </trkpt>
      <trkpt lat="43.41478" lon="6.80433">
        <ele>53.245011</ele>
        <time>2024-01-31T11:48:20.945Z</time>
      </trkpt>
      <trkpt lat="43.41476" lon="6.80419">
        <ele>53.354932</ele>
        <time>2024-01-31T11:48:23.933Z</time>
      </trkpt>
      <trkpt lat="43.41475" lon="6.80406">
        <ele>53.461624</ele>
        <time>2024-01-31T11:48:26.959Z</time>
      </trkpt>
      <trkpt lat="43.41472" lon="6.80393">
        <ele>53.565312</ele>
        <time>2024-01-31T11:48:29.957Z</time>
      </trkpt>
      <trkpt lat="43.4147" lon="6.80379">
        <ele>53.677891</ele>
        <time>2024-01-31T11:48:32.950Z</time>
      </trkpt>
      <trkpt lat="43.41467" lon="6.80365">
        <ele>53.795297</ele>
        <time>2024-01-31T11:48:35.941Z</time>
      </trkpt>
      <trkpt lat="43.41465" lon="6.80351">
        <ele>53.907116</ele>
        <time>2024-01-31T11:48:38.961Z</time>
      </trkpt>
      <trkpt lat="43.41462" lon="6.80336">
        <ele>54.029734</ele>
        <time>2024-01-31T11:48:41.955Z</time>
      </trkpt>
      <trkpt lat="43.41459" lon="6.8032">
        <ele>54.152977</ele>
        <time>2024-01-31T11:48:44.945Z</time>
      </trkpt>
      <trkpt lat="43.41456" lon="6.80305">
        <ele>54.14894</ele>
        <time>2024-01-31T11:48:47.955Z</time>
      </trkpt>
      <trkpt lat="43.41454" lon="6.80289">
        <ele>54.087586</ele>
        <time>2024-01-31T11:48:50.949Z</time>
      </trkpt>
      <trkpt lat="43.41451" lon="6.80273">
        <ele>54.022387</ele>
        <time>2024-01-31T11:48:53.956Z</time>
      </trkpt>
      <trkpt lat="43.41448" lon="6.80257">
        <ele>53.960016</ele>
        <time>2024-01-31T11:48:56.943Z</time>
      </trkpt>
      <trkpt lat="43.41446" lon="6.80242">
        <ele>53.9022</ele>
        <time>2024-01-31T11:48:59.957Z</time>
      </trkpt>
      <trkpt lat="43.41443" lon="6.80226">
        <ele>53.840227</ele>
        <time>2024-01-31T11:49:02.942Z</time>
      </trkpt>
      <trkpt lat="43.41441" lon="6.80212">
        <ele>53.782688</ele>
        <time>2024-01-31T11:49:05.962Z</time>
      </trkpt>
      <trkpt lat="43.41439" lon="6.80197">
        <ele>53.726173</ele>
        <time>2024-01-31T11:49:08.958Z</time>
      </trkpt>
      <trkpt lat="43.41436" lon="6.80183">
        <ele>53.670518</ele>
        <time>2024-01-31T11:49:11.944Z</time>
      </trkpt>
      <trkpt lat="43.41434" lon="6.80169">
        <ele>53.614588</ele>
        <time>2024-01-31T11:49:14.947Z</time>
      </trkpt>
      <trkpt lat="43.41432" lon="6.80155">
        <ele>53.558712</ele>
        <time>2024-01-31T11:49:17.952Z</time>
      </trkpt>
      <trkpt lat="43.4143" lon="6.8014">
        <ele>53.500316</ele>
        <time>2024-01-31T11:49:20.943Z</time>
      </trkpt>
      <trkpt lat="43.41428" lon="6.80125">
        <ele>53.441167</ele>
        <time>2024-01-31T11:49:23.940Z</time>
      </trkpt>
      <trkpt lat="43.41425" lon="6.80108">
        <ele>53.375968</ele>
        <time>2024-01-31T11:49:26.946Z</time>
      </trkpt>
      <trkpt lat="43.41421" lon="6.80092">
        <ele>53.310787</ele>
        <time>2024-01-31T11:49:29.961Z</time>
      </trkpt>
      <trkpt lat="43.41416" lon="6.80076">
        <ele>53.244146</ele>
        <time>2024-01-31T11:49:32.945Z</time>
      </trkpt>
      <trkpt lat="43.41412" lon="6.80064">
        <ele>53.140367</ele>
        <time>2024-01-31T11:49:34.950Z</time>
      </trkpt>
      <trkpt lat="43.41408" lon="6.80051">
        <ele>53.023684</ele>
        <time>2024-01-31T11:49:36.945Z</time>
      </trkpt>
      <trkpt lat="43.41403" lon="6.80038">
        <ele>52.903288</ele>
        <time>2024-01-31T11:49:38.957Z</time>
      </trkpt>
      <trkpt lat="43.41398" lon="6.80024">
        <ele>52.774124</ele>
        <time>2024-01-31T11:49:40.957Z</time>
      </trkpt>
      <trkpt lat="43.41393" lon="6.80008">
        <ele>52.638973</ele>
        <time>2024-01-31T11:49:42.944Z</time>
      </trkpt>
      <trkpt lat="43.4139" lon="6.79991">
        <ele>52.49342</ele>
        <time>2024-01-31T11:49:44.942Z</time>
      </trkpt>
      <trkpt lat="43.41389" lon="6.79973">
        <ele>52.342901</ele>
        <time>2024-01-31T11:49:46.935Z</time>
      </trkpt>
      <trkpt lat="43.41389" lon="6.79956">
        <ele>52.204478</ele>
        <time>2024-01-31T11:49:48.945Z</time>
      </trkpt>
      <trkpt lat="43.41392" lon="6.79939">
        <ele>52.063581</ele>
        <time>2024-01-31T11:49:50.930Z</time>
      </trkpt>
      <trkpt lat="43.41394" lon="6.79921">
        <ele>51.918477</ele>
        <time>2024-01-31T11:49:52.952Z</time>
      </trkpt>
      <trkpt lat="43.41396" lon="6.79902">
        <ele>51.764529</ele>
        <time>2024-01-31T11:49:54.964Z</time>
      </trkpt>
      <trkpt lat="43.41399" lon="6.79884">
        <ele>51.610211</ele>
        <time>2024-01-31T11:49:56.941Z</time>
      </trkpt>
      <trkpt lat="43.41401" lon="6.79866">
        <ele>51.460103</ele>
        <time>2024-01-31T11:49:58.946Z</time>
      </trkpt>
      <trkpt lat="43.41404" lon="6.79849">
        <ele>51.320803</ele>
        <time>2024-01-31T11:50:00.952Z</time>
      </trkpt>
      <trkpt lat="43.41406" lon="6.79833">
        <ele>51.276</ele>
        <time>2024-01-31T11:50:02.937Z</time>
      </trkpt>
      <trkpt lat="43.41408" lon="6.79818">
        <ele>51.440469</ele>
        <time>2024-01-31T11:50:04.947Z</time>
      </trkpt>
      <trkpt lat="43.4141" lon="6.79803">
        <ele>51.603737</ele>
        <time>2024-01-31T11:50:06.934Z</time>
      </trkpt>
      <trkpt lat="43.41413" lon="6.79788">
        <ele>51.764096</ele>
        <time>2024-01-31T11:50:08.946Z</time>
      </trkpt>
      <trkpt lat="43.41416" lon="6.79774">
        <ele>51.915911</ele>
        <time>2024-01-31T11:50:10.945Z</time>
      </trkpt>
      <trkpt lat="43.41419" lon="6.79762">
        <ele>52.055839</ele>
        <time>2024-01-31T11:50:12.945Z</time>
      </trkpt>
      <trkpt lat="43.41421" lon="6.79749">
        <ele>52.194158</ele>
        <time>2024-01-31T11:50:14.949Z</time>
      </trkpt>
      <trkpt lat="43.41424" lon="6.79733">
        <ele>52.374119</ele>
        <time>2024-01-31T11:50:17.963Z</time>
      </trkpt>
      <trkpt lat="43.41428" lon="6.79718">
        <ele>52.541574</ele>
        <time>2024-01-31T11:50:20.955Z</time>
      </trkpt>
      <trkpt lat="43.41429" lon="6.79704">
        <ele>52.684357</ele>
        <time>2024-01-31T11:50:23.937Z</time>
      </trkpt>
      <trkpt lat="43.4143" lon="6.7969">
        <ele>52.835909</ele>
        <time>2024-01-31T11:50:26.937Z</time>
      </trkpt>
      <trkpt lat="43.41431" lon="6.79677">
        <ele>52.974342</ele>
        <time>2024-01-31T11:50:29.940Z</time>
      </trkpt>
      <trkpt lat="43.4143" lon="6.79664">
        <ele>53.115771</ele>
        <time>2024-01-31T11:50:32.944Z</time>
      </trkpt>
      <trkpt lat="43.41429" lon="6.7965">
        <ele>53.262079</ele>
        <time>2024-01-31T11:50:35.940Z</time>
      </trkpt>
      <trkpt lat="43.41427" lon="6.79637">
        <ele>53.405274</ele>
        <time>2024-01-31T11:50:38.941Z</time>
      </trkpt>
      <trkpt lat="43.41424" lon="6.79624">
        <ele>53.549429</ele>
        <time>2024-01-31T11:50:41.942Z</time>
      </trkpt>
      <trkpt lat="43.41422" lon="6.7961">
        <ele>53.700829</ele>
        <time>2024-01-31T11:50:44.957Z</time>
      </trkpt>
      <trkpt lat="43.41419" lon="6.79595">
        <ele>53.865428</ele>
        <time>2024-01-31T11:50:47.938Z</time>
      </trkpt>
      <trkpt lat="43.41415" lon="6.79581">
        <ele>54.060108</ele>
        <time>2024-01-31T11:50:50.946Z</time>
      </trkpt>
      <trkpt lat="43.4141" lon="6.79565">
        <ele>54.280503</ele>
        <time>2024-01-31T11:50:53.945Z</time>
      </trkpt>
      <trkpt lat="43.41406" lon="6.79548">
        <ele>54.50295</ele>
        <time>2024-01-31T11:50:56.942Z</time>
      </trkpt>
      <trkpt lat="43.41402" lon="6.79537">
        <ele>54.659893</ele>
        <time>2024-01-31T11:50:58.943Z</time>
      </trkpt>
      <trkpt lat="43.41398" lon="6.79525">
        <ele>54.821667</ele>
        <time>2024-01-31T11:51:00.952Z</time>
      </trkpt>
      <trkpt lat="43.41395" lon="6.79513">
        <ele>54.980208</ele>
        <time>2024-01-31T11:51:02.937Z</time>
      </trkpt>
      <trkpt lat="43.41392" lon="6.79501">
        <ele>55.143628</ele>
        <time>2024-01-31T11:51:04.945Z</time>
      </trkpt>
      <trkpt lat="43.41388" lon="6.7949">
        <ele>55.299411</ele>
        <time>2024-01-31T11:51:06.951Z</time>
      </trkpt>
      <trkpt lat="43.41383" lon="6.79473">
        <ele>55.523134</ele>
        <time>2024-01-31T11:51:09.957Z</time>
      </trkpt>
      <trkpt lat="43.41378" lon="6.79457">
        <ele>55.741218</ele>
        <time>2024-01-31T11:51:12.941Z</time>
      </trkpt>
      <trkpt lat="43.41373" lon="6.79442">
        <ele>55.947091</ele>
        <time>2024-01-31T11:51:15.943Z</time>
      </trkpt>
      <trkpt lat="43.41368" lon="6.79427">
        <ele>56.157813</ele>
        <time>2024-01-31T11:51:18.949Z</time>
      </trkpt>
      <trkpt lat="43.41363" lon="6.79413">
        <ele>56.357969</ele>
        <time>2024-01-31T11:51:21.955Z</time>
      </trkpt>
      <trkpt lat="43.41358" lon="6.79398">
        <ele>56.560409</ele>
        <time>2024-01-31T11:51:24.942Z</time>
      </trkpt>
      <trkpt lat="43.41353" lon="6.79383">
        <ele>56.764877</ele>
        <time>2024-01-31T11:51:27.959Z</time>
      </trkpt>
      <trkpt lat="43.4135" lon="6.79369">
        <ele>56.952998</ele>
        <time>2024-01-31T11:51:30.943Z</time>
      </trkpt>
      <trkpt lat="43.41346" lon="6.79356">
        <ele>57.331206</ele>
        <time>2024-01-31T11:51:33.941Z</time>
      </trkpt>
      <trkpt lat="43.41341" lon="6.79344">
        <ele>57.719237</ele>
        <time>2024-01-31T11:51:36.948Z</time>
      </trkpt>
      <trkpt lat="43.41337" lon="6.79331">
        <ele>58.098008</ele>
        <time>2024-01-31T11:51:39.943Z</time>
      </trkpt>
      <trkpt lat="43.41333" lon="6.7932">
        <ele>58.454126</ele>
        <time>2024-01-31T11:51:42.959Z</time>
      </trkpt>
      <trkpt lat="43.41329" lon="6.79308">
        <ele>58.828715</ele>
        <time>2024-01-31T11:51:45.954Z</time>
      </trkpt>
      <trkpt lat="43.41324" lon="6.79296">
        <ele>59.204116</ele>
        <time>2024-01-31T11:51:48.938Z</time>
      </trkpt>
      <trkpt lat="43.4132" lon="6.79284">
        <ele>59.592147</ele>
        <time>2024-01-31T11:51:51.940Z</time>
      </trkpt>
      <trkpt lat="43.41315" lon="6.79271">
        <ele>59.985719</ele>
        <time>2024-01-31T11:51:54.938Z</time>
      </trkpt>
      <trkpt lat="43.41311" lon="6.79259">
        <ele>60.370378</ele>
        <time>2024-01-31T11:51:57.934Z</time>
      </trkpt>
      <trkpt lat="43.41307" lon="6.79247">
        <ele>60.733167</ele>
        <time>2024-01-31T11:52:00.935Z</time>
      </trkpt>
      <trkpt lat="43.41303" lon="6.79236">
        <ele>61.08762</ele>
        <time>2024-01-31T11:52:03.947Z</time>
      </trkpt>
      <trkpt lat="43.41299" lon="6.79224">
        <ele>61.442812</ele>
        <time>2024-01-31T11:52:06.936Z</time>
      </trkpt>
      <trkpt lat="43.41295" lon="6.79213">
        <ele>61.795684</ele>
        <time>2024-01-31T11:52:09.942Z</time>
      </trkpt>
      <trkpt lat="43.41292" lon="6.79201">
        <ele>62.155253</ele>
        <time>2024-01-31T11:52:12.954Z</time>
      </trkpt>
      <trkpt lat="43.41287" lon="6.79189">
        <ele>62.531493</ele>
        <time>2024-01-31T11:52:15.943Z</time>
      </trkpt>
      <trkpt lat="43.41283" lon="6.79177">
        <ele>62.892655</ele>
        <time>2024-01-31T11:52:18.940Z</time>
      </trkpt>
      <trkpt lat="43.41279" lon="6.79164">
        <ele>63.297573</ele>
        <time>2024-01-31T11:52:22.946Z</time>
      </trkpt>
      <trkpt lat="43.41274" lon="6.7915">
        <ele>63.736099</ele>
        <time>2024-01-31T11:52:26.953Z</time>
      </trkpt>
      <trkpt lat="43.4127" lon="6.79136">
        <ele>63.994277</ele>
        <time>2024-01-31T11:52:30.940Z</time>
      </trkpt>
      <trkpt lat="43.41266" lon="6.79122">
        <ele>64.12358</ele>
        <time>2024-01-31T11:52:34.921Z</time>
      </trkpt>
      <trkpt lat="43.41263" lon="6.79108">
        <ele>64.257847</ele>
        <time>2024-01-31T11:52:38.959Z</time>
      </trkpt>
      <trkpt lat="43.41261" lon="6.79092">
        <ele>64.395142</ele>
        <time>2024-01-31T11:52:42.945Z</time>
      </trkpt>
      <trkpt lat="43.41258" lon="6.79078">
        <ele>64.521506</ele>
        <time>2024-01-31T11:52:46.941Z</time>
      </trkpt>
      <trkpt lat="43.41255" lon="6.79064">
        <ele>64.654291</ele>
        <time>2024-01-31T11:52:50.939Z</time>
      </trkpt>
      <trkpt lat="43.41253" lon="6.79048">
        <ele>64.792825</ele>
        <time>2024-01-31T11:52:54.931Z</time>
      </trkpt>
      <trkpt lat="43.4125" lon="6.79033">
        <ele>64.93392</ele>
        <time>2024-01-31T11:52:58.945Z</time>
      </trkpt>
      <trkpt lat="43.41247" lon="6.79018">
        <ele>65.071331</ele>
        <time>2024-01-31T11:53:02.941Z</time>
      </trkpt>
      <trkpt lat="43.41245" lon="6.79003">
        <ele>65.19881</ele>
        <time>2024-01-31T11:53:06.940Z</time>
      </trkpt>
      <trkpt lat="43.41238" lon="6.78992">
        <ele>65.328737</ele>
        <time>2024-01-31T11:53:10.954Z</time>
      </trkpt>
      <trkpt lat="43.41234" lon="6.78978">
        <ele>65.459188</ele>
        <time>2024-01-31T11:53:15.947Z</time>
      </trkpt>
      <trkpt lat="43.41228" lon="6.78967">
        <ele>65.579262</ele>
        <time>2024-01-31T11:53:21.114Z</time>
      </trkpt>
      <trkpt lat="43.41222" lon="6.78957">
        <ele>65.691163</ele>
        <time>2024-01-31T11:53:25.947Z</time>
      </trkpt>
      <trkpt lat="43.41216" lon="6.78946">
        <ele>65.813158</ele>
        <time>2024-01-31T11:53:30.945Z</time>
      </trkpt>
      <trkpt lat="43.41211" lon="6.78935">
        <ele>65.931966</ele>
        <time>2024-01-31T11:53:34.961Z</time>
      </trkpt>
      <trkpt lat="43.41205" lon="6.78925">
        <ele>66.041173</ele>
        <time>2024-01-31T11:53:38.927Z</time>
      </trkpt>
      <trkpt lat="43.41198" lon="6.78913">
        <ele>65.955914</ele>
        <time>2024-01-31T11:53:43.954Z</time>
      </trkpt>
      <trkpt lat="43.41192" lon="6.78902">
        <ele>65.765733</ele>
        <time>2024-01-31T11:53:48.945Z</time>
      </trkpt>
      <trkpt lat="43.41185" lon="6.7889">
        <ele>65.56036</ele>
        <time>2024-01-31T11:53:52.926Z</time>
      </trkpt>
      <trkpt lat="43.4118" lon="6.7888">
        <ele>65.391268</ele>
        <time>2024-01-31T11:53:55.960Z</time>
      </trkpt>
      <trkpt lat="43.41173" lon="6.78867">
        <ele>65.177021</ele>
        <time>2024-01-31T11:53:59.966Z</time>
      </trkpt>
      <trkpt lat="43.41166" lon="6.78854">
        <ele>64.953056</ele>
        <time>2024-01-31T11:54:03.943Z</time>
      </trkpt>
      <trkpt lat="43.41161" lon="6.78843">
        <ele>64.772904</ele>
        <time>2024-01-31T11:54:06.941Z</time>
      </trkpt>
      <trkpt lat="43.41156" lon="6.78831">
        <ele>64.596533</ele>
        <time>2024-01-31T11:54:09.961Z</time>
      </trkpt>
      <trkpt lat="43.41151" lon="6.78819">
        <ele>64.403472</ele>
        <time>2024-01-31T11:54:12.957Z</time>
      </trkpt>
      <trkpt lat="43.41148" lon="6.78804">
        <ele>64.195539</ele>
        <time>2024-01-31T11:54:15.930Z</time>
      </trkpt>
      <trkpt lat="43.41146" lon="6.78786">
        <ele>63.944692</ele>
        <time>2024-01-31T11:54:18.920Z</time>
      </trkpt>
      <trkpt lat="43.41145" lon="6.78773">
        <ele>63.770386</ele>
        <time>2024-01-31T11:54:20.948Z</time>
      </trkpt>
      <trkpt lat="43.41143" lon="6.7876">
        <ele>63.587785</ele>
        <time>2024-01-31T11:54:22.954Z</time>
      </trkpt>
      <trkpt lat="43.4114" lon="6.78746">
        <ele>63.396068</ele>
        <time>2024-01-31T11:54:24.937Z</time>
      </trkpt>
      <trkpt lat="43.41139" lon="6.78732">
        <ele>63.198102</ele>
        <time>2024-01-31T11:54:26.988Z</time>
      </trkpt>
      <trkpt lat="43.41137" lon="6.78718">
        <ele>63.002815</ele>
        <time>2024-01-31T11:54:28.992Z</time>
      </trkpt>
      <trkpt lat="43.41135" lon="6.78704">
        <ele>62.810161</ele>
        <time>2024-01-31T11:54:31.009Z</time>
      </trkpt>
      <trkpt lat="43.41133" lon="6.7869">
        <ele>62.504787</ele>
        <time>2024-01-31T11:54:32.958Z</time>
      </trkpt>
      <trkpt lat="43.4113" lon="6.78676">
        <ele>62.113546</ele>
        <time>2024-01-31T11:54:34.959Z</time>
      </trkpt>
      <trkpt lat="43.41128" lon="6.78662">
        <ele>61.704112</ele>
        <time>2024-01-31T11:54:36.919Z</time>
      </trkpt>
      <trkpt lat="43.41128" lon="6.78646">
        <ele>61.268282</ele>
        <time>2024-01-31T11:54:38.957Z</time>
      </trkpt>
      <trkpt lat="43.41128" lon="6.7863">
        <ele>60.83337</ele>
        <time>2024-01-31T11:54:40.925Z</time>
      </trkpt>
      <trkpt lat="43.41129" lon="6.78614">
        <ele>60.378385</ele>
        <time>2024-01-31T11:54:42.934Z</time>
      </trkpt>
      <trkpt lat="43.41133" lon="6.78598">
        <ele>59.907703</ele>
        <time>2024-01-31T11:54:44.930Z</time>
      </trkpt>
      <trkpt lat="43.41137" lon="6.78582">
        <ele>59.436288</ele>
        <time>2024-01-31T11:54:46.927Z</time>
      </trkpt>
      <trkpt lat="43.41141" lon="6.78564">
        <ele>58.931175</ele>
        <time>2024-01-31T11:54:48.991Z</time>
      </trkpt>
      <trkpt lat="43.41145" lon="6.78547">
        <ele>58.436555</ele>
        <time>2024-01-31T11:54:50.966Z</time>
      </trkpt>
      <trkpt lat="43.41152" lon="6.7853">
        <ele>57.902783</ele>
        <time>2024-01-31T11:54:52.958Z</time>
      </trkpt>
      <trkpt lat="43.41162" lon="6.78515">
        <ele>57.329191</ele>
        <time>2024-01-31T11:54:54.947Z</time>
      </trkpt>
      <trkpt lat="43.41174" lon="6.78502">
        <ele>56.743128</ele>
        <time>2024-01-31T11:54:56.946Z</time>
      </trkpt>
      <trkpt lat="43.41184" lon="6.78486">
        <ele>56.142371</ele>
        <time>2024-01-31T11:54:58.929Z</time>
      </trkpt>
      <trkpt lat="43.41192" lon="6.78467">
        <ele>55.649131</ele>
        <time>2024-01-31T11:55:00.943Z</time>
      </trkpt>
      <trkpt lat="43.412" lon="6.78447">
        <ele>55.211232</ele>
        <time>2024-01-31T11:55:02.957Z</time>
      </trkpt>
      <trkpt lat="43.41208" lon="6.78426">
        <ele>54.764567</ele>
        <time>2024-01-31T11:55:04.959Z</time>
      </trkpt>
      <trkpt lat="43.41216" lon="6.78404">
        <ele>54.296563</ele>
        <time>2024-01-31T11:55:06.955Z</time>
      </trkpt>
      <trkpt lat="43.41222" lon="6.78395">
        <ele>54.060348</ele>
        <time>2024-01-31T11:55:07.970Z</time>
      </trkpt>
      <trkpt lat="43.41234" lon="6.78377">
        <ele>53.588655</ele>
        <time>2024-01-31T11:55:09.972Z</time>
      </trkpt>
      <trkpt lat="43.41247" lon="6.78361">
        <ele>53.146278</ele>
        <time>2024-01-31T11:55:11.953Z</time>
      </trkpt>
      <trkpt lat="43.41259" lon="6.78344">
        <ele>52.699935</ele>
        <time>2024-01-31T11:55:13.937Z</time>
      </trkpt>
      <trkpt lat="43.41269" lon="6.78329">
        <ele>52.302024</ele>
        <time>2024-01-31T11:55:15.949Z</time>
      </trkpt>
      <trkpt lat="43.4128" lon="6.78315">
        <ele>51.916402</ele>
        <time>2024-01-31T11:55:17.950Z</time>
      </trkpt>
      <trkpt lat="43.41289" lon="6.78302">
        <ele>51.576709</ele>
        <time>2024-01-31T11:55:19.947Z</time>
      </trkpt>
      <trkpt lat="43.41297" lon="6.78289">
        <ele>51.255888</ele>
        <time>2024-01-31T11:55:21.960Z</time>
      </trkpt>
      <trkpt lat="43.41302" lon="6.78275">
        <ele>51.134993</ele>
        <time>2024-01-31T11:55:23.948Z</time>
      </trkpt>
      <trkpt lat="43.41307" lon="6.78262">
        <ele>51.094956</ele>
        <time>2024-01-31T11:55:25.947Z</time>
      </trkpt>
      <trkpt lat="43.41313" lon="6.78249">
        <ele>51.055442</ele>
        <time>2024-01-31T11:55:27.955Z</time>
      </trkpt>
      <trkpt lat="43.41317" lon="6.78236">
        <ele>51.017941</ele>
        <time>2024-01-31T11:55:29.963Z</time>
      </trkpt>
      <trkpt lat="43.41323" lon="6.78224">
        <ele>50.979757</ele>
        <time>2024-01-31T11:55:31.954Z</time>
      </trkpt>
      <trkpt lat="43.4133" lon="6.78213">
        <ele>50.940161</ele>
        <time>2024-01-31T11:55:33.950Z</time>
      </trkpt>
      <trkpt lat="43.41337" lon="6.78202">
        <ele>50.899442</ele>
        <time>2024-01-31T11:55:35.950Z</time>
      </trkpt>
      <trkpt lat="43.41345" lon="6.78192">
        <ele>50.859307</ele>
        <time>2024-01-31T11:55:37.941Z</time>
      </trkpt>
      <trkpt lat="43.41354" lon="6.78182">
        <ele>50.817971</ele>
        <time>2024-01-31T11:55:39.945Z</time>
      </trkpt>
      <trkpt lat="43.41363" lon="6.78175">
        <ele>50.779077</ele>
        <time>2024-01-31T11:55:41.953Z</time>
      </trkpt>
      <trkpt lat="43.41372" lon="6.78168">
        <ele>50.741845</ele>
        <time>2024-01-31T11:55:43.949Z</time>
      </trkpt>
      <trkpt lat="43.41381" lon="6.78162">
        <ele>50.705703</ele>
        <time>2024-01-31T11:55:45.950Z</time>
      </trkpt>
      <trkpt lat="43.4139" lon="6.78156">
        <ele>50.671116</ele>
        <time>2024-01-31T11:55:47.950Z</time>
      </trkpt>
      <trkpt lat="43.41398" lon="6.78151">
        <ele>50.637156</ele>
        <time>2024-01-31T11:55:49.948Z</time>
      </trkpt>
      <trkpt lat="43.41406" lon="6.78144">
        <ele>50.602816</ele>
        <time>2024-01-31T11:55:51.966Z</time>
      </trkpt>
      <trkpt lat="43.41413" lon="6.78136">
        <ele>50.568402</ele>
        <time>2024-01-31T11:55:53.942Z</time>
      </trkpt>
      <trkpt lat="43.4142" lon="6.78128">
        <ele>50.535179</ele>
        <time>2024-01-31T11:55:55.952Z</time>
      </trkpt>
      <trkpt lat="43.41429" lon="6.78115">
        <ele>50.475158</ele>
        <time>2024-01-31T11:55:58.959Z</time>
      </trkpt>
      <trkpt lat="43.41436" lon="6.78104">
        <ele>50.403363</ele>
        <time>2024-01-31T11:56:01.943Z</time>
      </trkpt>
      <trkpt lat="43.41442" lon="6.78093">
        <ele>50.333345</ele>
        <time>2024-01-31T11:56:04.949Z</time>
      </trkpt>
      <trkpt lat="43.41447" lon="6.78081">
        <ele>50.263278</ele>
        <time>2024-01-31T11:56:07.968Z</time>
      </trkpt>
      <trkpt lat="43.41452" lon="6.78069">
        <ele>50.193587</ele>
        <time>2024-01-31T11:56:10.954Z</time>
      </trkpt>
      <trkpt lat="43.41457" lon="6.78058">
        <ele>50.129008</ele>
        <time>2024-01-31T11:56:13.962Z</time>
      </trkpt>
      <trkpt lat="43.41463" lon="6.78046">
        <ele>50.062953</ele>
        <time>2024-01-31T11:56:16.964Z</time>
      </trkpt>
      <trkpt lat="43.4147" lon="6.78037">
        <ele>49.998402</ele>
        <time>2024-01-31T11:56:19.946Z</time>
      </trkpt>
      <trkpt lat="43.41477" lon="6.78026">
        <ele>49.926541</ele>
        <time>2024-01-31T11:56:22.943Z</time>
      </trkpt>
      <trkpt lat="43.41481" lon="6.78014">
        <ele>49.858138</ele>
        <time>2024-01-31T11:56:25.951Z</time>
      </trkpt>
      <trkpt lat="43.41487" lon="6.78004">
        <ele>49.793433</ele>
        <time>2024-01-31T11:56:28.953Z</time>
      </trkpt>
      <trkpt lat="43.41495" lon="6.77992">
        <ele>49.713814</ele>
        <time>2024-01-31T11:56:32.950Z</time>
      </trkpt>
      <trkpt lat="43.41502" lon="6.7798">
        <ele>49.636189</ele>
        <time>2024-01-31T11:56:36.958Z</time>
      </trkpt>
      <trkpt lat="43.41508" lon="6.77968">
        <ele>49.56656</ele>
        <time>2024-01-31T11:56:40.956Z</time>
      </trkpt>
      <trkpt lat="43.41514" lon="6.77956">
        <ele>49.496493</ele>
        <time>2024-01-31T11:56:45.965Z</time>
      </trkpt>
      <trkpt lat="43.41518" lon="6.77945">
        <ele>49.433293</ele>
        <time>2024-01-31T11:56:52.949Z</time>
      </trkpt>
      <trkpt lat="43.41523" lon="6.77934">
        <ele>49.36844</ele>
        <time>2024-01-31T11:56:58.927Z</time>
      </trkpt>
      <trkpt lat="43.41527" lon="6.77923">
        <ele>49.306019</ele>
        <time>2024-01-31T11:57:03.945Z</time>
      </trkpt>
      <trkpt lat="43.41531" lon="6.7791">
        <ele>49.340011</ele>
        <time>2024-01-31T11:57:08.970Z</time>
      </trkpt>
      <trkpt lat="43.41535" lon="6.77897">
        <ele>49.434029</ele>
        <time>2024-01-31T11:57:13.980Z</time>
      </trkpt>
      <trkpt lat="43.41537" lon="6.77884">
        <ele>49.526608</ele>
        <time>2024-01-31T11:57:18.952Z</time>
      </trkpt>
      <trkpt lat="43.41538" lon="6.77868">
        <ele>49.637815</ele>
        <time>2024-01-31T11:57:22.955Z</time>
      </trkpt>
      <trkpt lat="43.41543" lon="6.77856">
        <ele>49.727039</ele>
        <time>2024-01-31T11:57:25.942Z</time>
      </trkpt>
      <trkpt lat="43.41548" lon="6.77844">
        <ele>49.8262</ele>
        <time>2024-01-31T11:57:28.947Z</time>
      </trkpt>
      <trkpt lat="43.41554" lon="6.7783">
        <ele>49.937566</ele>
        <time>2024-01-31T11:57:31.952Z</time>
      </trkpt>
      <trkpt lat="43.41561" lon="6.77816">
        <ele>50.053476</ele>
        <time>2024-01-31T11:57:34.965Z</time>
      </trkpt>
      <trkpt lat="43.41568" lon="6.77802">
        <ele>50.168255</ele>
        <time>2024-01-31T11:57:37.937Z</time>
      </trkpt>
      <trkpt lat="43.41574" lon="6.77788">
        <ele>50.284011</ele>
        <time>2024-01-31T11:57:40.940Z</time>
      </trkpt>
      <trkpt lat="43.41581" lon="6.77773">
        <ele>50.400536</ele>
        <time>2024-01-31T11:57:43.948Z</time>
      </trkpt>
      <trkpt lat="43.41588" lon="6.77759">
        <ele>50.515919</ele>
        <time>2024-01-31T11:57:46.944Z</time>
      </trkpt>
      <trkpt lat="43.41595" lon="6.77744">
        <ele>50.63905</ele>
        <time>2024-01-31T11:57:49.952Z</time>
      </trkpt>
      <trkpt lat="43.41602" lon="6.77729">
        <ele>50.763319</ele>
        <time>2024-01-31T11:57:52.956Z</time>
      </trkpt>
      <trkpt lat="43.41609" lon="6.77715">
        <ele>50.884219</ele>
        <time>2024-01-31T11:57:55.960Z</time>
      </trkpt>
      <trkpt lat="43.41617" lon="6.777">
        <ele>50.982592</ele>
        <time>2024-01-31T11:57:58.957Z</time>
      </trkpt>
      <trkpt lat="43.41624" lon="6.77685">
        <ele>51.005424</ele>
        <time>2024-01-31T11:58:01.950Z</time>
      </trkpt>
      <trkpt lat="43.41633" lon="6.77672">
        <ele>51.027334</ele>
        <time>2024-01-31T11:58:04.957Z</time>
      </trkpt>
      <trkpt lat="43.41639" lon="6.77663">
        <ele>51.043039</ele>
        <time>2024-01-31T11:58:06.945Z</time>
      </trkpt>
      <trkpt lat="43.4165" lon="6.77652">
        <ele>51.065444</ele>
        <time>2024-01-31T11:58:09.941Z</time>
      </trkpt>
      <trkpt lat="43.4166" lon="6.77643">
        <ele>51.087061</ele>
        <time>2024-01-31T11:58:12.960Z</time>
      </trkpt>
      <trkpt lat="43.4167" lon="6.77635">
        <ele>51.106754</ele>
        <time>2024-01-31T11:58:15.924Z</time>
      </trkpt>
      <trkpt lat="43.4168" lon="6.77627">
        <ele>51.1264</ele>
        <time>2024-01-31T11:58:18.935Z</time>
      </trkpt>
      <trkpt lat="43.41692" lon="6.77623">
        <ele>51.147173</ele>
        <time>2024-01-31T11:58:21.936Z</time>
      </trkpt>
      <trkpt lat="43.41704" lon="6.77617">
        <ele>51.168515</ele>
        <time>2024-01-31T11:58:24.958Z</time>
      </trkpt>
      <trkpt lat="43.41715" lon="6.77609">
        <ele>51.190469</ele>
        <time>2024-01-31T11:58:27.936Z</time>
      </trkpt>
      <trkpt lat="43.41725" lon="6.77598">
        <ele>51.212284</ele>
        <time>2024-01-31T11:58:30.952Z</time>
      </trkpt>
      <trkpt lat="43.41735" lon="6.77587">
        <ele>51.234129</ele>
        <time>2024-01-31T11:58:33.947Z</time>
      </trkpt>
      <trkpt lat="43.41745" lon="6.77577">
        <ele>51.255649</ele>
        <time>2024-01-31T11:58:36.950Z</time>
      </trkpt>
      <trkpt lat="43.41754" lon="6.77566">
        <ele>51.277091</ele>
        <time>2024-01-31T11:58:39.943Z</time>
      </trkpt>
      <trkpt lat="43.41761" lon="6.77557">
        <ele>51.277491</ele>
        <time>2024-01-31T11:58:41.945Z</time>
      </trkpt>
      <trkpt lat="43.4177" lon="6.77544">
        <ele>51.248688</ele>
        <time>2024-01-31T11:58:44.946Z</time>
      </trkpt>
      <trkpt lat="43.41777" lon="6.77536">
        <ele>51.229066</ele>
        <time>2024-01-31T11:58:46.950Z</time>
      </trkpt>
      <trkpt lat="43.41787" lon="6.77524">
        <ele>51.2006</ele>
        <time>2024-01-31T11:58:49.950Z</time>
      </trkpt>
      <trkpt lat="43.41796" lon="6.77511">
        <ele>51.172208</ele>
        <time>2024-01-31T11:58:52.963Z</time>
      </trkpt>
      <trkpt lat="43.41802" lon="6.77502">
        <ele>51.15232</ele>
        <time>2024-01-31T11:58:54.963Z</time>
      </trkpt>
      <trkpt lat="43.41808" lon="6.77492">
        <ele>51.132697</ele>
        <time>2024-01-31T11:58:56.963Z</time>
      </trkpt>
      <trkpt lat="43.41814" lon="6.77484">
        <ele>51.113003</ele>
        <time>2024-01-31T11:58:58.951Z</time>
      </trkpt>
      <trkpt lat="43.41822" lon="6.77472">
        <ele>51.088149</ele>
        <time>2024-01-31T11:59:01.946Z</time>
      </trkpt>
      <trkpt lat="43.41819" lon="6.77458">
        <ele>51.065042</ele>
        <time>2024-01-31T11:59:08.943Z</time>
      </trkpt>
      <trkpt lat="43.41813" lon="6.77448">
        <ele>51.044763</ele>
        <time>2024-01-31T11:59:12.955Z</time>
      </trkpt>
      <trkpt lat="43.41813" lon="6.77436">
        <ele>51.02445</ele>
        <time>2024-01-31T11:59:16.951Z</time>
      </trkpt>
      <trkpt lat="43.41817" lon="6.77449">
        <ele>51.001199</ele>
        <time>2024-01-31T12:02:06.961Z</time>
      </trkpt>
      <trkpt lat="43.41827" lon="6.77446">
        <ele>50.979483</ele>
        <time>2024-01-31T12:02:13.953Z</time>
      </trkpt>
      <trkpt lat="43.41836" lon="6.77446">
        <ele>50.958945</ele>
        <time>2024-01-31T12:02:19.943Z</time>
      </trkpt>
      <trkpt lat="43.41844" lon="6.77439">
        <ele>50.938302</ele>
        <time>2024-01-31T12:02:22.937Z</time>
      </trkpt>
      <trkpt lat="43.4185" lon="6.77426">
        <ele>50.913491</ele>
        <time>2024-01-31T12:02:25.945Z</time>
      </trkpt>
      <trkpt lat="43.41858" lon="6.77415">
        <ele>50.860915</ele>
        <time>2024-01-31T12:02:28.958Z</time>
      </trkpt>
      <trkpt lat="43.41866" lon="6.77402">
        <ele>50.683906</ele>
        <time>2024-01-31T12:02:31.944Z</time>
      </trkpt>
      <trkpt lat="43.41875" lon="6.77389">
        <ele>50.487549</ele>
        <time>2024-01-31T12:02:34.926Z</time>
      </trkpt>
      <trkpt lat="43.41884" lon="6.77375">
        <ele>50.291384</ele>
        <time>2024-01-31T12:02:37.954Z</time>
      </trkpt>
      <trkpt lat="43.41889" lon="6.77364">
        <ele>50.157162</ele>
        <time>2024-01-31T12:02:39.946Z</time>
      </trkpt>
      <trkpt lat="43.41893" lon="6.77353">
        <ele>50.022041</ele>
        <time>2024-01-31T12:02:41.946Z</time>
      </trkpt>
      <trkpt lat="43.41898" lon="6.77335">
        <ele>49.820096</ele>
        <time>2024-01-31T12:02:44.950Z</time>
      </trkpt>
      <trkpt lat="43.41902" lon="6.77323">
        <ele>49.678565</ele>
        <time>2024-01-31T12:02:46.957Z</time>
      </trkpt>
      <trkpt lat="43.41905" lon="6.77311">
        <ele>49.54449</ele>
        <time>2024-01-31T12:02:48.954Z</time>
      </trkpt>
      <trkpt lat="43.41908" lon="6.77298">
        <ele>49.400014</ele>
        <time>2024-01-31T12:02:50.959Z</time>
      </trkpt>
      <trkpt lat="43.41911" lon="6.77286">
        <ele>49.262072</ele>
        <time>2024-01-31T12:02:52.940Z</time>
      </trkpt>
      <trkpt lat="43.41914" lon="6.77274">
        <ele>49.128643</ele>
        <time>2024-01-31T12:02:54.943Z</time>
      </trkpt>
      <trkpt lat="43.41916" lon="6.77262">
        <ele>48.990256</ele>
        <time>2024-01-31T12:02:56.939Z</time>
      </trkpt>
      <trkpt lat="43.41919" lon="6.77249">
        <ele>48.851485</ele>
        <time>2024-01-31T12:02:58.940Z</time>
      </trkpt>
      <trkpt lat="43.41922" lon="6.77231">
        <ele>48.654052</ele>
        <time>2024-01-31T12:03:01.939Z</time>
      </trkpt>
      <trkpt lat="43.41923" lon="6.77218">
        <ele>48.510286</ele>
        <time>2024-01-31T12:03:03.938Z</time>
      </trkpt>
      <trkpt lat="43.41925" lon="6.77205">
        <ele>48.370678</ele>
        <time>2024-01-31T12:03:05.954Z</time>
      </trkpt>
      <trkpt lat="43.41929" lon="6.77193">
        <ele>48.273449</ele>
        <time>2024-01-31T12:03:07.950Z</time>
      </trkpt>
      <trkpt lat="43.41931" lon="6.7718">
        <ele>48.405139</ele>
        <time>2024-01-31T12:03:09.951Z</time>
      </trkpt>
      <trkpt lat="43.41933" lon="6.77168">
        <ele>48.536984</ele>
        <time>2024-01-31T12:03:11.969Z</time>
      </trkpt>
      <trkpt lat="43.41935" lon="6.77156">
        <ele>48.667416</ele>
        <time>2024-01-31T12:03:13.972Z</time>
      </trkpt>
      <trkpt lat="43.41939" lon="6.77138">
        <ele>48.861095</ele>
        <time>2024-01-31T12:03:16.952Z</time>
      </trkpt>
      <trkpt lat="43.41941" lon="6.77126">
        <ele>48.994238</ele>
        <time>2024-01-31T12:03:18.949Z</time>
      </trkpt>
      <trkpt lat="43.41945" lon="6.77114">
        <ele>49.130292</ele>
        <time>2024-01-31T12:03:20.948Z</time>
      </trkpt>
      <trkpt lat="43.41949" lon="6.77097">
        <ele>49.314437</ele>
        <time>2024-01-31T12:03:23.934Z</time>
      </trkpt>
      <trkpt lat="43.41954" lon="6.77083">
        <ele>49.476187</ele>
        <time>2024-01-31T12:03:26.962Z</time>
      </trkpt>
      <trkpt lat="43.4196" lon="6.7707">
        <ele>49.645601</ele>
        <time>2024-01-31T12:03:29.949Z</time>
      </trkpt>
      <trkpt lat="43.41968" lon="6.77056">
        <ele>49.828198</ele>
        <time>2024-01-31T12:03:32.947Z</time>
      </trkpt>
      <trkpt lat="43.41976" lon="6.77043">
        <ele>50.005919</ele>
        <time>2024-01-31T12:03:35.957Z</time>
      </trkpt>
      <trkpt lat="43.41986" lon="6.77034">
        <ele>50.177772</ele>
        <time>2024-01-31T12:03:38.931Z</time>
      </trkpt>
      <trkpt lat="43.41995" lon="6.77027">
        <ele>50.324697</ele>
        <time>2024-01-31T12:03:41.955Z</time>
      </trkpt>
      <trkpt lat="43.42005" lon="6.77027">
        <ele>50.465728</ele>
        <time>2024-01-31T12:03:45.934Z</time>
      </trkpt>
      <trkpt lat="43.42015" lon="6.77022">
        <ele>50.617777</ele>
        <time>2024-01-31T12:03:50.949Z</time>
      </trkpt>
      <trkpt lat="43.42024" lon="6.77017">
        <ele>50.763329</ele>
        <time>2024-01-31T12:03:54.950Z</time>
      </trkpt>
      <trkpt lat="43.42033" lon="6.77013">
        <ele>50.848499</ele>
        <time>2024-01-31T12:04:01.934Z</time>
      </trkpt>
      <trkpt lat="43.42043" lon="6.77007">
        <ele>50.872974</ele>
        <time>2024-01-31T12:04:07.941Z</time>
      </trkpt>
      <trkpt lat="43.42052" lon="6.77001">
        <ele>50.898011</ele>
        <time>2024-01-31T12:04:11.946Z</time>
      </trkpt>
      <trkpt lat="43.42062" lon="6.76996">
        <ele>50.92318</ele>
        <time>2024-01-31T12:04:15.924Z</time>
      </trkpt>
      <trkpt lat="43.42073" lon="6.76993">
        <ele>50.949414</ele>
        <time>2024-01-31T12:04:19.942Z</time>
      </trkpt>
      <trkpt lat="43.42083" lon="6.76988">
        <ele>50.973517</ele>
        <time>2024-01-31T12:04:26.930Z</time>
      </trkpt>
      <trkpt lat="43.42093" lon="6.76984">
        <ele>50.999922</ele>
        <time>2024-01-31T12:04:30.928Z</time>
      </trkpt>
      <trkpt lat="43.42104" lon="6.7698">
        <ele>51.026863</ele>
        <time>2024-01-31T12:04:34.948Z</time>
      </trkpt>
      <trkpt lat="43.42113" lon="6.76974">
        <ele>51.049749</ele>
        <time>2024-01-31T12:04:38.953Z</time>
      </trkpt>
      <trkpt lat="43.42122" lon="6.76971">
        <ele>51.071793</ele>
        <time>2024-01-31T12:04:41.943Z</time>
      </trkpt>
      <trkpt lat="43.42134" lon="6.76972">
        <ele>51.098969</ele>
        <time>2024-01-31T12:04:45.959Z</time>
      </trkpt>
      <trkpt lat="43.42146" lon="6.76971">
        <ele>51.126647</ele>
        <time>2024-01-31T12:04:49.949Z</time>
      </trkpt>
      <trkpt lat="43.42154" lon="6.76967">
        <ele>51.148349</ele>
        <time>2024-01-31T12:04:52.941Z</time>
      </trkpt>
      <trkpt lat="43.42163" lon="6.76958">
        <ele>51.173435</ele>
        <time>2024-01-31T12:04:55.949Z</time>
      </trkpt>
      <trkpt lat="43.42171" lon="6.7695">
        <ele>51.196912</ele>
        <time>2024-01-31T12:05:00.970Z</time>
      </trkpt>
      <trkpt lat="43.42175" lon="6.76938">
        <ele>51.219701</ele>
        <time>2024-01-31T12:05:11.934Z</time>
      </trkpt>
      <trkpt lat="43.42172" lon="6.76924">
        <ele>51.244859</ele>
        <time>2024-01-31T12:05:15.926Z</time>
      </trkpt>
      <trkpt lat="43.42169" lon="6.76909">
        <ele>51.295557</ele>
        <time>2024-01-31T12:05:19.950Z</time>
      </trkpt>
      <trkpt lat="43.42167" lon="6.76895">
        <ele>51.379593</ele>
        <time>2024-01-31T12:05:23.975Z</time>
      </trkpt>
      <trkpt lat="43.42169" lon="6.76881">
        <ele>51.468832</ele>
        <time>2024-01-31T12:05:27.945Z</time>
      </trkpt>
      <trkpt lat="43.42171" lon="6.76869">
        <ele>51.550072</ele>
        <time>2024-01-31T12:05:31.951Z</time>
      </trkpt>
      <trkpt lat="43.42175" lon="6.76856">
        <ele>51.638696</ele>
        <time>2024-01-31T12:05:37.954Z</time>
      </trkpt>
      <trkpt lat="43.42177" lon="6.76843">
        <ele>51.716376</ele>
        <time>2024-01-31T12:05:43.942Z</time>
      </trkpt>
      <trkpt lat="43.4218" lon="6.76831">
        <ele>51.799724</ele>
        <time>2024-01-31T12:05:48.938Z</time>
      </trkpt>
      <trkpt lat="43.4218" lon="6.76815">
        <ele>51.899283</ele>
        <time>2024-01-31T12:05:52.974Z</time>
      </trkpt>
      <trkpt lat="43.42181" lon="6.76801">
        <ele>51.98624</ele>
        <time>2024-01-31T12:05:55.957Z</time>
      </trkpt>
      <trkpt lat="43.42183" lon="6.76786">
        <ele>52.08377</ele>
        <time>2024-01-31T12:05:59.959Z</time>
      </trkpt>
      <trkpt lat="43.42186" lon="6.76772">
        <ele>52.169897</ele>
        <time>2024-01-31T12:06:03.931Z</time>
      </trkpt>
      <trkpt lat="43.4219" lon="6.7676">
        <ele>52.254902</ele>
        <time>2024-01-31T12:06:08.940Z</time>
      </trkpt>
      <trkpt lat="43.42194" lon="6.76745">
        <ele>52.353688</ele>
        <time>2024-01-31T12:06:33.945Z</time>
      </trkpt>
      <trkpt lat="43.42195" lon="6.76732">
        <ele>52.437299</ele>
        <time>2024-01-31T12:06:43.939Z</time>
      </trkpt>
      <trkpt lat="43.422" lon="6.7672">
        <ele>52.526637</ele>
        <time>2024-01-31T12:06:50.941Z</time>
      </trkpt>
      <trkpt lat="43.42209" lon="6.76715">
        <ele>52.609289</ele>
        <time>2024-01-31T12:06:58.922Z</time>
      </trkpt>
      <trkpt lat="43.42226" lon="6.7671">
        <ele>52.76183</ele>
        <time>2024-01-31T12:07:29.934Z</time>
      </trkpt>
      <trkpt lat="43.42236" lon="6.76714">
        <ele>52.838539</ele>
        <time>2024-01-31T12:07:33.937Z</time>
      </trkpt>
      <trkpt lat="43.42247" lon="6.76718">
        <ele>52.906173</ele>
        <time>2024-01-31T12:07:37.944Z</time>
      </trkpt>
      <trkpt lat="43.42257" lon="6.76722">
        <ele>52.967539</ele>
        <time>2024-01-31T12:07:40.963Z</time>
      </trkpt>
      <trkpt lat="43.42267" lon="6.76726">
        <ele>53.030749</ele>
        <time>2024-01-31T12:07:43.956Z</time>
      </trkpt>
      <trkpt lat="43.42276" lon="6.76729">
        <ele>53.087727</ele>
        <time>2024-01-31T12:07:46.943Z</time>
      </trkpt>
      <trkpt lat="43.42287" lon="6.76734">
        <ele>53.15695</ele>
        <time>2024-01-31T12:07:50.953Z</time>
      </trkpt>
      <trkpt lat="43.42297" lon="6.76738">
        <ele>53.221326</ele>
        <time>2024-01-31T12:07:54.942Z</time>
      </trkpt>
      <trkpt lat="43.42308" lon="6.76741">
        <ele>53.287338</ele>
        <time>2024-01-31T12:07:57.946Z</time>
      </trkpt>
      <trkpt lat="43.42319" lon="6.76746">
        <ele>53.356426</ele>
        <time>2024-01-31T12:08:01.952Z</time>
      </trkpt>
      <trkpt lat="43.42329" lon="6.76749">
        <ele>53.417131</ele>
        <time>2024-01-31T12:08:05.947Z</time>
      </trkpt>
      <trkpt lat="43.4234" lon="6.76752">
        <ele>53.484802</ele>
        <time>2024-01-31T12:08:09.959Z</time>
      </trkpt>
      <trkpt lat="43.42349" lon="6.76758">
        <ele>53.546081</ele>
        <time>2024-01-31T12:08:13.950Z</time>
      </trkpt>
      <trkpt lat="43.42358" lon="6.76763">
        <ele>53.602439</ele>
        <time>2024-01-31T12:08:17.953Z</time>
      </trkpt>
      <trkpt lat="43.42367" lon="6.76766">
        <ele>53.660914</ele>
        <time>2024-01-31T12:08:21.924Z</time>
      </trkpt>
      <trkpt lat="43.42375" lon="6.76771">
        <ele>53.717645</ele>
        <time>2024-01-31T12:08:27.946Z</time>
      </trkpt>
      <trkpt lat="43.42386" lon="6.76759">
        <ele>53.799282</ele>
        <time>2024-01-31T12:08:56.060Z</time>
      </trkpt>
      <trkpt lat="43.4239" lon="6.76746">
        <ele>53.864431</ele>
        <time>2024-01-31T12:08:59.966Z</time>
      </trkpt>
      <trkpt lat="43.42393" lon="6.76732">
        <ele>53.797739</ele>
        <time>2024-01-31T12:09:03.930Z</time>
      </trkpt>
      <trkpt lat="43.42396" lon="6.76719">
        <ele>53.605648</ele>
        <time>2024-01-31T12:09:07.920Z</time>
      </trkpt>
      <trkpt lat="43.42399" lon="6.76706">
        <ele>53.417114</ele>
        <time>2024-01-31T12:09:11.945Z</time>
      </trkpt>
      <trkpt lat="43.42401" lon="6.76692">
        <ele>53.219073</ele>
        <time>2024-01-31T12:09:15.953Z</time>
      </trkpt>
      <trkpt lat="43.42403" lon="6.76677">
        <ele>52.999974</ele>
        <time>2024-01-31T12:09:19.932Z</time>
      </trkpt>
      <trkpt lat="43.42406" lon="6.76665">
        <ele>52.818037</ele>
        <time>2024-01-31T12:09:23.940Z</time>
      </trkpt>
      <trkpt lat="43.42417" lon="6.7666">
        <ele>52.589241</ele>
        <time>2024-01-31T12:10:55.940Z</time>
      </trkpt>
      <trkpt lat="43.42417" lon="6.76647">
        <ele>52.405132</ele>
        <time>2024-01-31T12:11:02.929Z</time>
      </trkpt>
      <trkpt lat="43.42418" lon="6.76634">
        <ele>52.223166</ele>
        <time>2024-01-31T12:11:10.926Z</time>
      </trkpt>
      <trkpt lat="43.42419" lon="6.7662">
        <ele>52.029373</ele>
        <time>2024-01-31T12:11:15.951Z</time>
      </trkpt>
      <trkpt lat="43.42421" lon="6.76606">
        <ele>51.830881</ele>
        <time>2024-01-31T12:11:19.939Z</time>
      </trkpt>
      <trkpt lat="43.42423" lon="6.76594">
        <ele>51.648161</ele>
        <time>2024-01-31T12:11:22.950Z</time>
      </trkpt>
      <trkpt lat="43.42428" lon="6.7658">
        <ele>51.438052</ele>
        <time>2024-01-31T12:11:26.951Z</time>
      </trkpt>
      <trkpt lat="43.42431" lon="6.76567">
        <ele>51.246218</ele>
        <time>2024-01-31T12:11:31.942Z</time>
      </trkpt>
      <trkpt lat="43.42428" lon="6.76566">
        <ele>51.186607</ele>
        <time>2024-01-31T12:12:49.120Z</time>
      </trkpt>
      <trkpt lat="43.4243" lon="6.76563">
        <ele>51.128749</ele>
        <time>2024-01-31T12:13:49.293Z</time>
      </trkpt>
      <trkpt lat="43.42432" lon="6.76549">
        <ele>50.92219</ele>
        <time>2024-01-31T13:23:35.949Z</time>
      </trkpt>
      <trkpt lat="43.42435" lon="6.76536">
        <ele>50.730356</ele>
        <time>2024-01-31T13:23:39.933Z</time>
      </trkpt>
      <trkpt lat="43.42437" lon="6.7652">
        <ele>50.504706</ele>
        <time>2024-01-31T13:23:43.949Z</time>
      </trkpt>
      <trkpt lat="43.42439" lon="6.76505">
        <ele>50.396553</ele>
        <time>2024-01-31T13:23:47.906Z</time>
      </trkpt>
      <trkpt lat="43.42441" lon="6.76492">
        <ele>50.361769</ele>
        <time>2024-01-31T13:23:51.933Z</time>
      </trkpt>
      <trkpt lat="43.4244" lon="6.7648">
        <ele>50.326702</ele>
        <time>2024-01-31T13:23:58.933Z</time>
      </trkpt>
      <trkpt lat="43.42443" lon="6.76466">
        <ele>50.285618</ele>
        <time>2024-01-31T13:24:15.942Z</time>
      </trkpt>
      <trkpt lat="43.42447" lon="6.76451">
        <ele>50.241824</ele>
        <time>2024-01-31T13:24:19.935Z</time>
      </trkpt>
      <trkpt lat="43.42455" lon="6.76442">
        <ele>50.203209</ele>
        <time>2024-01-31T13:24:23.934Z</time>
      </trkpt>
      <trkpt lat="43.4246" lon="6.7643">
        <ele>50.162999</ele>
        <time>2024-01-31T13:24:29.942Z</time>
      </trkpt>
      <trkpt lat="43.42462" lon="6.76417">
        <ele>50.126057</ele>
        <time>2024-01-31T13:24:33.952Z</time>
      </trkpt>
      <trkpt lat="43.42459" lon="6.76403">
        <ele>50.085352</ele>
        <time>2024-01-31T13:24:38.010Z</time>
      </trkpt>
      <trkpt lat="43.4246" lon="6.76387">
        <ele>50.041209</ele>
        <time>2024-01-31T13:24:41.917Z</time>
      </trkpt>
      <trkpt lat="43.42464" lon="6.76375">
        <ele>50.006274</ele>
        <time>2024-01-31T13:24:44.933Z</time>
      </trkpt>
      <trkpt lat="43.42466" lon="6.76363">
        <ele>49.971301</ele>
        <time>2024-01-31T13:24:47.926Z</time>
      </trkpt>
      <trkpt lat="43.42466" lon="6.7635">
        <ele>49.935701</ele>
        <time>2024-01-31T13:24:50.933Z</time>
      </trkpt>
      <trkpt lat="43.42467" lon="6.76338">
        <ele>49.901185</ele>
        <time>2024-01-31T13:24:53.933Z</time>
      </trkpt>
      <trkpt lat="43.4247" lon="6.76323">
        <ele>49.857574</ele>
        <time>2024-01-31T13:24:57.950Z</time>
      </trkpt>
      <trkpt lat="43.4247" lon="6.76309">
        <ele>49.818621</ele>
        <time>2024-01-31T13:25:03.942Z</time>
      </trkpt>
      <trkpt lat="43.42471" lon="6.76297">
        <ele>49.783799</ele>
        <time>2024-01-31T13:25:07.938Z</time>
      </trkpt>
      <trkpt lat="43.42473" lon="6.76281">
        <ele>49.739256</ele>
        <time>2024-01-31T13:25:11.951Z</time>
      </trkpt>
      <trkpt lat="43.42475" lon="6.76265">
        <ele>49.656593</ele>
        <time>2024-01-31T13:25:15.930Z</time>
      </trkpt>
      <trkpt lat="43.42479" lon="6.76254">
        <ele>49.587596</ele>
        <time>2024-01-31T13:25:18.932Z</time>
      </trkpt>
      <trkpt lat="43.42485" lon="6.7624">
        <ele>49.501239</ele>
        <time>2024-01-31T13:25:21.950Z</time>
      </trkpt>
      <trkpt lat="43.42484" lon="6.76224">
        <ele>49.411683</ele>
        <time>2024-01-31T13:25:24.924Z</time>
      </trkpt>
      <trkpt lat="43.42481" lon="6.76208">
        <ele>49.322235</ele>
        <time>2024-01-31T13:25:27.932Z</time>
      </trkpt>
      <trkpt lat="43.42481" lon="6.76192">
        <ele>49.23165</ele>
        <time>2024-01-31T13:25:30.936Z</time>
      </trkpt>
      <trkpt lat="43.42482" lon="6.76174">
        <ele>49.136896</ele>
        <time>2024-01-31T13:25:33.927Z</time>
      </trkpt>
      <trkpt lat="43.42483" lon="6.76162">
        <ele>49.069035</ele>
        <time>2024-01-31T13:25:35.950Z</time>
      </trkpt>
      <trkpt lat="43.42484" lon="6.76144">
        <ele>48.972107</ele>
        <time>2024-01-31T13:25:38.944Z</time>
      </trkpt>
      <trkpt lat="43.42483" lon="6.76126">
        <ele>48.874419</ele>
        <time>2024-01-31T13:25:41.933Z</time>
      </trkpt>
      <trkpt lat="43.42482" lon="6.7611">
        <ele>48.785824</ele>
        <time>2024-01-31T13:25:44.959Z</time>
      </trkpt>
      <trkpt lat="43.42481" lon="6.76093">
        <ele>48.691002</ele>
        <time>2024-01-31T13:25:47.959Z</time>
      </trkpt>
      <trkpt lat="43.42479" lon="6.76081">
        <ele>48.623287</ele>
        <time>2024-01-31T13:25:49.937Z</time>
      </trkpt>
      <trkpt lat="43.42477" lon="6.76068">
        <ele>48.55523</ele>
        <time>2024-01-31T13:25:51.931Z</time>
      </trkpt>
      <trkpt lat="43.42475" lon="6.76056">
        <ele>48.486643</ele>
        <time>2024-01-31T13:25:53.930Z</time>
      </trkpt>
      <trkpt lat="43.42472" lon="6.76043">
        <ele>48.412737</ele>
        <time>2024-01-31T13:25:55.926Z</time>
      </trkpt>
      <trkpt lat="43.42469" lon="6.76031">
        <ele>48.359015</ele>
        <time>2024-01-31T13:25:57.940Z</time>
      </trkpt>
      <trkpt lat="43.42466" lon="6.76018">
        <ele>48.315085</ele>
        <time>2024-01-31T13:25:59.945Z</time>
      </trkpt>
      <trkpt lat="43.42462" lon="6.76005">
        <ele>48.26921</ele>
        <time>2024-01-31T13:26:01.932Z</time>
      </trkpt>
      <trkpt lat="43.4246" lon="6.75992">
        <ele>48.226537</ele>
        <time>2024-01-31T13:26:03.934Z</time>
      </trkpt>
      <trkpt lat="43.42458" lon="6.75979">
        <ele>48.184406</ele>
        <time>2024-01-31T13:26:05.927Z</time>
      </trkpt>
      <trkpt lat="43.42456" lon="6.75966">
        <ele>48.141114</ele>
        <time>2024-01-31T13:26:07.944Z</time>
      </trkpt>
      <trkpt lat="43.42455" lon="6.75952">
        <ele>48.09718</ele>
        <time>2024-01-31T13:26:09.943Z</time>
      </trkpt>
      <trkpt lat="43.42452" lon="6.75939">
        <ele>48.053692</ele>
        <time>2024-01-31T13:26:11.961Z</time>
      </trkpt>
      <trkpt lat="43.42446" lon="6.75929">
        <ele>48.011827</ele>
        <time>2024-01-31T13:26:13.936Z</time>
      </trkpt>
      <trkpt lat="43.42443" lon="6.75917">
        <ele>47.970474</ele>
        <time>2024-01-31T13:26:15.961Z</time>
      </trkpt>
      <trkpt lat="43.4244" lon="6.75904">
        <ele>47.926563</ele>
        <time>2024-01-31T13:26:17.929Z</time>
      </trkpt>
      <trkpt lat="43.42437" lon="6.75891">
        <ele>47.883075</ele>
        <time>2024-01-31T13:26:19.939Z</time>
      </trkpt>
      <trkpt lat="43.42434" lon="6.75878">
        <ele>47.840675</ele>
        <time>2024-01-31T13:26:21.935Z</time>
      </trkpt>
      <trkpt lat="43.42431" lon="6.75866">
        <ele>47.798189</ele>
        <time>2024-01-31T13:26:23.935Z</time>
      </trkpt>
      <trkpt lat="43.42428" lon="6.75853">
        <ele>47.753827</ele>
        <time>2024-01-31T13:26:25.939Z</time>
      </trkpt>
      <trkpt lat="43.42424" lon="6.75839">
        <ele>47.708844</ele>
        <time>2024-01-31T13:26:27.934Z</time>
      </trkpt>
      <trkpt lat="43.42421" lon="6.75826">
        <ele>47.664131</ele>
        <time>2024-01-31T13:26:29.942Z</time>
      </trkpt>
      <trkpt lat="43.42418" lon="6.75813">
        <ele>47.618399</ele>
        <time>2024-01-31T13:26:31.954Z</time>
      </trkpt>
      <trkpt lat="43.42415" lon="6.75799">
        <ele>47.606442</ele>
        <time>2024-01-31T13:26:33.930Z</time>
      </trkpt>
      <trkpt lat="43.42412" lon="6.75786">
        <ele>47.655678</ele>
        <time>2024-01-31T13:26:35.926Z</time>
      </trkpt>
      <trkpt lat="43.42409" lon="6.75773">
        <ele>47.707743</ele>
        <time>2024-01-31T13:26:37.916Z</time>
      </trkpt>
      <trkpt lat="43.42406" lon="6.7576">
        <ele>47.759023</ele>
        <time>2024-01-31T13:26:39.934Z</time>
      </trkpt>
      <trkpt lat="43.42403" lon="6.75747">
        <ele>47.807111</ele>
        <time>2024-01-31T13:26:41.947Z</time>
      </trkpt>
      <trkpt lat="43.424" lon="6.75735">
        <ele>47.853867</ele>
        <time>2024-01-31T13:26:43.935Z</time>
      </trkpt>
      <trkpt lat="43.42397" lon="6.75723">
        <ele>47.902452</ele>
        <time>2024-01-31T13:26:45.933Z</time>
      </trkpt>
      <trkpt lat="43.42394" lon="6.75711">
        <ele>47.949738</ele>
        <time>2024-01-31T13:26:47.937Z</time>
      </trkpt>
      <trkpt lat="43.42391" lon="6.75698">
        <ele>47.998939</ele>
        <time>2024-01-31T13:26:49.933Z</time>
      </trkpt>
      <trkpt lat="43.42388" lon="6.75685">
        <ele>48.051005</ele>
        <time>2024-01-31T13:26:51.934Z</time>
      </trkpt>
      <trkpt lat="43.42385" lon="6.75671">
        <ele>48.103721</ele>
        <time>2024-01-31T13:26:53.949Z</time>
      </trkpt>
      <trkpt lat="43.42383" lon="6.75658">
        <ele>48.152573</ele>
        <time>2024-01-31T13:26:55.937Z</time>
      </trkpt>
      <trkpt lat="43.42386" lon="6.75646">
        <ele>48.198295</ele>
        <time>2024-01-31T13:26:57.927Z</time>
      </trkpt>
      <trkpt lat="43.42388" lon="6.75634">
        <ele>48.246246</ele>
        <time>2024-01-31T13:26:59.938Z</time>
      </trkpt>
      <trkpt lat="43.42382" lon="6.75623">
        <ele>48.295034</ele>
        <time>2024-01-31T13:27:01.952Z</time>
      </trkpt>
      <trkpt lat="43.42375" lon="6.75616">
        <ele>48.341175</ele>
        <time>2024-01-31T13:27:03.954Z</time>
      </trkpt>
      <trkpt lat="43.4237" lon="6.75604">
        <ele>48.389161</ele>
        <time>2024-01-31T13:27:05.951Z</time>
      </trkpt>
      <trkpt lat="43.42367" lon="6.75592">
        <ele>48.436447</ele>
        <time>2024-01-31T13:27:07.936Z</time>
      </trkpt>
      <trkpt lat="43.42364" lon="6.75581">
        <ele>48.482855</ele>
        <time>2024-01-31T13:27:09.942Z</time>
      </trkpt>
      <trkpt lat="43.4236" lon="6.75569">
        <ele>48.461353</ele>
        <time>2024-01-31T13:27:11.942Z</time>
      </trkpt>
      <trkpt lat="43.42354" lon="6.75553">
        <ele>48.352048</ele>
        <time>2024-01-31T13:27:14.928Z</time>
      </trkpt>
      <trkpt lat="43.4235" lon="6.75542">
        <ele>48.274586</ele>
        <time>2024-01-31T13:27:16.913Z</time>
      </trkpt>
      <trkpt lat="43.42346" lon="6.75531">
        <ele>48.198238</ele>
        <time>2024-01-31T13:27:18.942Z</time>
      </trkpt>
      <trkpt lat="43.42339" lon="6.75515">
        <ele>48.084583</ele>
        <time>2024-01-31T13:27:21.955Z</time>
      </trkpt>
      <trkpt lat="43.42334" lon="6.75504">
        <ele>48.007916</ele>
        <time>2024-01-31T13:27:23.950Z</time>
      </trkpt>
      <trkpt lat="43.42329" lon="6.75493">
        <ele>47.930913</ele>
        <time>2024-01-31T13:27:25.929Z</time>
      </trkpt>
      <trkpt lat="43.42322" lon="6.75476">
        <ele>47.814554</ele>
        <time>2024-01-31T13:27:28.948Z</time>
      </trkpt>
      <trkpt lat="43.42315" lon="6.75461">
        <ele>47.702893</ele>
        <time>2024-01-31T13:27:31.936Z</time>
      </trkpt>
      <trkpt lat="43.42308" lon="6.75445">
        <ele>47.588465</ele>
        <time>2024-01-31T13:27:34.918Z</time>
      </trkpt>
      <trkpt lat="43.42303" lon="6.75434">
        <ele>47.511439</ele>
        <time>2024-01-31T13:27:36.916Z</time>
      </trkpt>
      <trkpt lat="43.42298" lon="6.75424">
        <ele>47.435199</ele>
        <time>2024-01-31T13:27:38.953Z</time>
      </trkpt>
      <trkpt lat="43.42293" lon="6.75413">
        <ele>47.355324</ele>
        <time>2024-01-31T13:27:40.939Z</time>
      </trkpt>
      <trkpt lat="43.42288" lon="6.75402">
        <ele>47.27761</ele>
        <time>2024-01-31T13:27:42.928Z</time>
      </trkpt>
      <trkpt lat="43.42284" lon="6.7539">
        <ele>47.196313</ele>
        <time>2024-01-31T13:27:44.941Z</time>
      </trkpt>
      <trkpt lat="43.42278" lon="6.75379">
        <ele>47.11434</ele>
        <time>2024-01-31T13:27:46.938Z</time>
      </trkpt>
      <trkpt lat="43.42275" lon="6.75367">
        <ele>47.037054</ele>
        <time>2024-01-31T13:27:48.937Z</time>
      </trkpt>
      <trkpt lat="43.42272" lon="6.75355">
        <ele>47.01632</ele>
        <time>2024-01-31T13:27:50.939Z</time>
      </trkpt>
      <trkpt lat="43.42265" lon="6.75346">
        <ele>47.06088</ele>
        <time>2024-01-31T13:27:52.922Z</time>
      </trkpt>
      <trkpt lat="43.42257" lon="6.75331">
        <ele>47.122366</ele>
        <time>2024-01-31T13:27:55.944Z</time>
      </trkpt>
      <trkpt lat="43.42253" lon="6.7532">
        <ele>47.164409</ele>
        <time>2024-01-31T13:27:57.917Z</time>
      </trkpt>
      <trkpt lat="43.42248" lon="6.75309">
        <ele>47.207562</ele>
        <time>2024-01-31T13:27:59.964Z</time>
      </trkpt>
      <trkpt lat="43.42241" lon="6.75293">
        <ele>47.270344</ele>
        <time>2024-01-31T13:28:02.960Z</time>
      </trkpt>
      <trkpt lat="43.42236" lon="6.75282">
        <ele>47.313386</ele>
        <time>2024-01-31T13:28:04.949Z</time>
      </trkpt>
      <trkpt lat="43.42231" lon="6.75271">
        <ele>47.357247</ele>
        <time>2024-01-31T13:28:06.945Z</time>
      </trkpt>
      <trkpt lat="43.42226" lon="6.75261">
        <ele>47.400701</ele>
        <time>2024-01-31T13:28:08.943Z</time>
      </trkpt>
      <trkpt lat="43.42221" lon="6.7525">
        <ele>47.443413</ele>
        <time>2024-01-31T13:28:10.952Z</time>
      </trkpt>
      <trkpt lat="43.42216" lon="6.75239">
        <ele>47.487167</ele>
        <time>2024-01-31T13:28:12.941Z</time>
      </trkpt>
      <trkpt lat="43.42211" lon="6.75229">
        <ele>47.529346</ele>
        <time>2024-01-31T13:28:14.939Z</time>
      </trkpt>
      <trkpt lat="43.42206" lon="6.75218">
        <ele>47.57362</ele>
        <time>2024-01-31T13:28:16.941Z</time>
      </trkpt>
      <trkpt lat="43.42201" lon="6.75207">
        <ele>47.615606</ele>
        <time>2024-01-31T13:28:18.932Z</time>
      </trkpt>
      <trkpt lat="43.42196" lon="6.75196">
        <ele>47.660686</ele>
        <time>2024-01-31T13:28:20.914Z</time>
      </trkpt>
      <trkpt lat="43.42192" lon="6.75184">
        <ele>47.704547</ele>
        <time>2024-01-31T13:28:22.930Z</time>
      </trkpt>
      <trkpt lat="43.42187" lon="6.75173">
        <ele>47.748879</ele>
        <time>2024-01-31T13:28:24.936Z</time>
      </trkpt>
      <trkpt lat="43.42182" lon="6.75162">
        <ele>47.79274</ele>
        <time>2024-01-31T13:28:26.914Z</time>
      </trkpt>
      <trkpt lat="43.42177" lon="6.75151">
        <ele>47.830087</ele>
        <time>2024-01-31T13:28:28.931Z</time>
      </trkpt>
      <trkpt lat="43.42169" lon="6.75135">
        <ele>47.79238</ele>
        <time>2024-01-31T13:28:31.939Z</time>
      </trkpt>
      <trkpt lat="43.42164" lon="6.75125">
        <ele>47.767453</ele>
        <time>2024-01-31T13:28:33.940Z</time>
      </trkpt>
      <trkpt lat="43.42159" lon="6.75111">
        <ele>47.735843</ele>
        <time>2024-01-31T13:28:36.918Z</time>
      </trkpt>
      <trkpt lat="43.42152" lon="6.75098">
        <ele>47.703136</ele>
        <time>2024-01-31T13:28:40.933Z</time>
      </trkpt>
      <trkpt lat="43.42147" lon="6.75086">
        <ele>47.675536</ele>
        <time>2024-01-31T13:28:43.923Z</time>
      </trkpt>
      <trkpt lat="43.42142" lon="6.75073">
        <ele>47.646692</ele>
        <time>2024-01-31T13:28:46.945Z</time>
      </trkpt>
      <trkpt lat="43.42138" lon="6.75061">
        <ele>47.620834</ele>
        <time>2024-01-31T13:28:50.929Z</time>
      </trkpt>
      <trkpt lat="43.42134" lon="6.75048">
        <ele>47.591063</ele>
        <time>2024-01-31T13:28:55.969Z</time>
      </trkpt>
      <trkpt lat="43.42136" lon="6.75034">
        <ele>47.563529</ele>
        <time>2024-01-31T13:29:01.949Z</time>
      </trkpt>
      <trkpt lat="43.4213" lon="6.75045">
        <ele>47.535173</ele>
        <time>2024-01-31T13:29:07.956Z</time>
      </trkpt>
      <trkpt lat="43.4213" lon="6.75062">
        <ele>47.501723</ele>
        <time>2024-01-31T13:29:11.933Z</time>
      </trkpt>
      <trkpt lat="43.42131" lon="6.75075">
        <ele>47.474915</ele>
        <time>2024-01-31T13:29:14.944Z</time>
      </trkpt>
      <trkpt lat="43.42138" lon="6.75089">
        <ele>47.441261</ele>
        <time>2024-01-31T13:29:17.941Z</time>
      </trkpt>
      <trkpt lat="43.42144" lon="6.75103">
        <ele>47.409638</ele>
        <time>2024-01-31T13:29:20.954Z</time>
      </trkpt>
      <trkpt lat="43.42149" lon="6.75115">
        <ele>47.381187</ele>
        <time>2024-01-31T13:29:23.945Z</time>
      </trkpt>
      <trkpt lat="43.42154" lon="6.75127">
        <ele>47.352728</ele>
        <time>2024-01-31T13:29:26.938Z</time>
      </trkpt>
      <trkpt lat="43.4216" lon="6.75137">
        <ele>47.379426</ele>
        <time>2024-01-31T13:29:29.934Z</time>
      </trkpt>
      <trkpt lat="43.42169" lon="6.75138">
        <ele>47.485715</ele>
        <time>2024-01-31T13:29:32.927Z</time>
      </trkpt>
      <trkpt lat="43.4218" lon="6.75134">
        <ele>47.608006</ele>
        <time>2024-01-31T13:29:35.938Z</time>
      </trkpt>
      <trkpt lat="43.42191" lon="6.75124">
        <ele>47.751769</ele>
        <time>2024-01-31T13:29:38.915Z</time>
      </trkpt>
      <trkpt lat="43.42202" lon="6.75115">
        <ele>47.898544</ele>
        <time>2024-01-31T13:29:41.940Z</time>
      </trkpt>
      <trkpt lat="43.42212" lon="6.75105">
        <ele>48.039508</ele>
        <time>2024-01-31T13:29:44.928Z</time>
      </trkpt>
      <trkpt lat="43.42223" lon="6.75096">
        <ele>48.17917</ele>
        <time>2024-01-31T13:29:47.952Z</time>
      </trkpt>
      <trkpt lat="43.42233" lon="6.75086">
        <ele>48.312893</ele>
        <time>2024-01-31T13:29:50.928Z</time>
      </trkpt>
      <trkpt lat="43.4224" lon="6.75073">
        <ele>48.445954</ele>
        <time>2024-01-31T13:29:53.928Z</time>
      </trkpt>
      <trkpt lat="43.42244" lon="6.75057">
        <ele>48.586766</ele>
        <time>2024-01-31T13:29:56.934Z</time>
      </trkpt>
      <trkpt lat="43.42249" lon="6.75041">
        <ele>48.724911</ele>
        <time>2024-01-31T13:29:59.947Z</time>
      </trkpt>
      <trkpt lat="43.42256" lon="6.75028">
        <ele>48.860746</ele>
        <time>2024-01-31T13:30:02.921Z</time>
      </trkpt>
      <trkpt lat="43.42265" lon="6.75021">
        <ele>48.967889</ele>
        <time>2024-01-31T13:30:04.948Z</time>
      </trkpt>
      <trkpt lat="43.42274" lon="6.75014">
        <ele>49.086056</ele>
        <time>2024-01-31T13:30:06.915Z</time>
      </trkpt>
      <trkpt lat="43.42283" lon="6.75007">
        <ele>49.201491</ele>
        <time>2024-01-31T13:30:08.937Z</time>
      </trkpt>
      <trkpt lat="43.42292" lon="6.74999">
        <ele>49.318581</ele>
        <time>2024-01-31T13:30:10.934Z</time>
      </trkpt>
      <trkpt lat="43.423" lon="6.74992">
        <ele>49.327693</ele>
        <time>2024-01-31T13:30:12.933Z</time>
      </trkpt>
      <trkpt lat="43.42308" lon="6.74984">
        <ele>49.309672</ele>
        <time>2024-01-31T13:30:14.956Z</time>
      </trkpt>
      <trkpt lat="43.42317" lon="6.74977">
        <ele>49.291347</ele>
        <time>2024-01-31T13:30:16.953Z</time>
      </trkpt>
      <trkpt lat="43.42324" lon="6.7497">
        <ele>49.273866</ele>
        <time>2024-01-31T13:30:18.959Z</time>
      </trkpt>
      <trkpt lat="43.42333" lon="6.74963">
        <ele>49.255863</ele>
        <time>2024-01-31T13:30:20.940Z</time>
      </trkpt>
      <trkpt lat="43.42341" lon="6.74956">
        <ele>49.238043</ele>
        <time>2024-01-31T13:30:22.935Z</time>
      </trkpt>
      <trkpt lat="43.42352" lon="6.74946">
        <ele>49.212587</ele>
        <time>2024-01-31T13:30:25.934Z</time>
      </trkpt>
      <trkpt lat="43.42359" lon="6.74936">
        <ele>49.194644</ele>
        <time>2024-01-31T13:30:27.940Z</time>
      </trkpt>
      <trkpt lat="43.42363" lon="6.74923">
        <ele>49.175359</ele>
        <time>2024-01-31T13:30:29.942Z</time>
      </trkpt>
      <trkpt lat="43.42367" lon="6.74911">
        <ele>49.156983</ele>
        <time>2024-01-31T13:30:31.926Z</time>
      </trkpt>
      <trkpt lat="43.42371" lon="6.74899">
        <ele>49.139622</ele>
        <time>2024-01-31T13:30:33.932Z</time>
      </trkpt>
      <trkpt lat="43.42375" lon="6.74886">
        <ele>49.120186</ele>
        <time>2024-01-31T13:30:35.934Z</time>
      </trkpt>
      <trkpt lat="43.4238" lon="6.74873">
        <ele>49.100148</ele>
        <time>2024-01-31T13:30:37.951Z</time>
      </trkpt>
      <trkpt lat="43.42385" lon="6.7486">
        <ele>49.080678</ele>
        <time>2024-01-31T13:30:39.938Z</time>
      </trkpt>
      <trkpt lat="43.4239" lon="6.74846">
        <ele>49.059828</ele>
        <time>2024-01-31T13:30:41.945Z</time>
      </trkpt>
      <trkpt lat="43.42394" lon="6.74833">
        <ele>49.039786</ele>
        <time>2024-01-31T13:30:43.933Z</time>
      </trkpt>
      <trkpt lat="43.42399" lon="6.7482">
        <ele>49.020842</ele>
        <time>2024-01-31T13:30:45.943Z</time>
      </trkpt>
      <trkpt lat="43.42403" lon="6.74807">
        <ele>48.974889</ele>
        <time>2024-01-31T13:30:47.955Z</time>
      </trkpt>
      <trkpt lat="43.42407" lon="6.74794">
        <ele>48.878179</ele>
        <time>2024-01-31T13:30:49.948Z</time>
      </trkpt>
      <trkpt lat="43.42411" lon="6.74781">
        <ele>48.785865</ele>
        <time>2024-01-31T13:30:51.958Z</time>
      </trkpt>
      <trkpt lat="43.42419" lon="6.74774">
        <ele>48.693779</ele>
        <time>2024-01-31T13:30:53.926Z</time>
      </trkpt>
      <trkpt lat="43.4243" lon="6.74764">
        <ele>48.568622</ele>
        <time>2024-01-31T13:30:56.930Z</time>
      </trkpt>
      <trkpt lat="43.42435" lon="6.74748">
        <ele>48.452711</ele>
        <time>2024-01-31T13:30:59.922Z</time>
      </trkpt>
      <trkpt lat="43.42432" lon="6.74736">
        <ele>48.366539</ele>
        <time>2024-01-31T13:31:02.027Z</time>
      </trkpt>
      <trkpt lat="43.42426" lon="6.74726">
        <ele>48.276996</ele>
        <time>2024-01-31T13:31:03.940Z</time>
      </trkpt>
      <trkpt lat="43.42417" lon="6.7472">
        <ele>48.184708</ele>
        <time>2024-01-31T13:31:05.930Z</time>
      </trkpt>
      <trkpt lat="43.42408" lon="6.74717">
        <ele>48.095596</ele>
        <time>2024-01-31T13:31:07.942Z</time>
      </trkpt>
      <trkpt lat="43.424" lon="6.74711">
        <ele>48.008336</ele>
        <time>2024-01-31T13:31:09.935Z</time>
      </trkpt>
      <trkpt lat="43.42393" lon="6.747">
        <ele>47.908866</ele>
        <time>2024-01-31T13:31:11.937Z</time>
      </trkpt>
      <trkpt lat="43.42388" lon="6.74687">
        <ele>47.810059</ele>
        <time>2024-01-31T13:31:13.918Z</time>
      </trkpt>
      <trkpt lat="43.42383" lon="6.74674">
        <ele>47.711194</ele>
        <time>2024-01-31T13:31:15.957Z</time>
      </trkpt>
      <trkpt lat="43.42378" lon="6.74663">
        <ele>47.61948</ele>
        <time>2024-01-31T13:31:17.957Z</time>
      </trkpt>
      <trkpt lat="43.42371" lon="6.74648">
        <ele>47.49533</ele>
        <time>2024-01-31T13:31:20.919Z</time>
      </trkpt>
      <trkpt lat="43.42362" lon="6.74636">
        <ele>47.383788</ele>
        <time>2024-01-31T13:31:23.939Z</time>
      </trkpt>
      <trkpt lat="43.42356" lon="6.74624">
        <ele>47.30241</ele>
        <time>2024-01-31T13:31:27.933Z</time>
      </trkpt>
      <trkpt lat="43.42351" lon="6.74614">
        <ele>47.275994</ele>
        <time>2024-01-31T13:31:30.934Z</time>
      </trkpt>
      <trkpt lat="43.42345" lon="6.74601">
        <ele>47.243633</ele>
        <time>2024-01-31T13:31:33.945Z</time>
      </trkpt>
      <trkpt lat="43.4234" lon="6.74589">
        <ele>47.213945</ele>
        <time>2024-01-31T13:31:35.933Z</time>
      </trkpt>
      <trkpt lat="43.42335" lon="6.74576">
        <ele>47.18267</ele>
        <time>2024-01-31T13:31:37.928Z</time>
      </trkpt>
      <trkpt lat="43.42329" lon="6.74563">
        <ele>47.150579</ele>
        <time>2024-01-31T13:31:39.942Z</time>
      </trkpt>
      <trkpt lat="43.42323" lon="6.7455">
        <ele>47.117561</ele>
        <time>2024-01-31T13:31:41.950Z</time>
      </trkpt>
      <trkpt lat="43.42319" lon="6.74535">
        <ele>47.085062</ele>
        <time>2024-01-31T13:31:43.948Z</time>
      </trkpt>
      <trkpt lat="43.42316" lon="6.74523">
        <ele>47.058192</ele>
        <time>2024-01-31T13:31:45.944Z</time>
      </trkpt>
      <trkpt lat="43.42321" lon="6.74506">
        <ele>47.020193</ele>
        <time>2024-01-31T13:31:48.926Z</time>
      </trkpt>
      <trkpt lat="43.42328" lon="6.74492">
        <ele>46.98254</ele>
        <time>2024-01-31T13:31:51.933Z</time>
      </trkpt>
      <trkpt lat="43.42339" lon="6.7448">
        <ele>46.944687</ele>
        <time>2024-01-31T13:31:54.914Z</time>
      </trkpt>
      <trkpt lat="43.42346" lon="6.74471">
        <ele>46.916566</ele>
        <time>2024-01-31T13:31:56.956Z</time>
      </trkpt>
      <trkpt lat="43.42352" lon="6.74462">
        <ele>46.889345</ele>
        <time>2024-01-31T13:31:58.946Z</time>
      </trkpt>
      <trkpt lat="43.42359" lon="6.74452">
        <ele>46.861986</ele>
        <time>2024-01-31T13:32:00.950Z</time>
      </trkpt>
      <trkpt lat="43.42366" lon="6.74443">
        <ele>46.833438</ele>
        <time>2024-01-31T13:32:02.929Z</time>
      </trkpt>
      <trkpt lat="43.42374" lon="6.74435">
        <ele>46.804763</ele>
        <time>2024-01-31T13:32:04.931Z</time>
      </trkpt>
      <trkpt lat="43.4238" lon="6.74424">
        <ele>46.778744</ele>
        <time>2024-01-31T13:32:06.939Z</time>
      </trkpt>
      <trkpt lat="43.42385" lon="6.74412">
        <ele>46.755103</ele>
        <time>2024-01-31T13:32:08.932Z</time>
      </trkpt>
      <trkpt lat="43.4239" lon="6.74399">
        <ele>46.731354</ele>
        <time>2024-01-31T13:32:10.926Z</time>
      </trkpt>
      <trkpt lat="43.42395" lon="6.74387">
        <ele>46.707123</ele>
        <time>2024-01-31T13:32:12.943Z</time>
      </trkpt>
      <trkpt lat="43.424" lon="6.74374">
        <ele>46.683482</ele>
        <time>2024-01-31T13:32:14.955Z</time>
      </trkpt>
      <trkpt lat="43.42405" lon="6.74362">
        <ele>46.659541</ele>
        <time>2024-01-31T13:32:16.923Z</time>
      </trkpt>
      <trkpt lat="43.4241" lon="6.7435">
        <ele>46.637334</ele>
        <time>2024-01-31T13:32:18.941Z</time>
      </trkpt>
      <trkpt lat="43.42414" lon="6.74338">
        <ele>46.61525</ele>
        <time>2024-01-31T13:32:20.943Z</time>
      </trkpt>
      <trkpt lat="43.42419" lon="6.74326">
        <ele>46.592529</ele>
        <time>2024-01-31T13:32:22.934Z</time>
      </trkpt>
      <trkpt lat="43.42425" lon="6.7431">
        <ele>46.561964</ele>
        <time>2024-01-31T13:32:25.930Z</time>
      </trkpt>
      <trkpt lat="43.42431" lon="6.74294">
        <ele>46.532117</ele>
        <time>2024-01-31T13:32:28.936Z</time>
      </trkpt>
      <trkpt lat="43.42441" lon="6.74287">
        <ele>46.507195</ele>
        <time>2024-01-31T13:32:31.939Z</time>
      </trkpt>
      <trkpt lat="43.42453" lon="6.74288">
        <ele>46.478638</ele>
        <time>2024-01-31T13:32:34.924Z</time>
      </trkpt>
      <trkpt lat="43.42457" lon="6.74274">
        <ele>46.453911</ele>
        <time>2024-01-31T13:32:37.919Z</time>
      </trkpt>
      <trkpt lat="43.42448" lon="6.74264">
        <ele>46.429019</ele>
        <time>2024-01-31T13:32:40.931Z</time>
      </trkpt>
      <trkpt lat="43.42444" lon="6.74254">
        <ele>46.408004</ele>
        <time>2024-01-31T13:32:43.935Z</time>
      </trkpt>
      <trkpt lat="43.42437" lon="6.74243">
        <ele>46.384752</ele>
        <time>2024-01-31T13:32:46.929Z</time>
      </trkpt>
      <trkpt lat="43.4243" lon="6.74232">
        <ele>46.330542</ele>
        <time>2024-01-31T13:32:49.911Z</time>
      </trkpt>
      <trkpt lat="43.42424" lon="6.74219">
        <ele>46.25728</ele>
        <time>2024-01-31T13:32:52.941Z</time>
      </trkpt>
      <trkpt lat="43.42416" lon="6.74207">
        <ele>46.184239</ele>
        <time>2024-01-31T13:32:55.940Z</time>
      </trkpt>
      <trkpt lat="43.42409" lon="6.74194">
        <ele>46.108721</ele>
        <time>2024-01-31T13:32:58.916Z</time>
      </trkpt>
      <trkpt lat="43.42401" lon="6.74181">
        <ele>46.032479</ele>
        <time>2024-01-31T13:33:01.936Z</time>
      </trkpt>
      <trkpt lat="43.42393" lon="6.74169">
        <ele>45.952627</ele>
        <time>2024-01-31T13:33:04.950Z</time>
      </trkpt>
      <trkpt lat="43.42384" lon="6.74157">
        <ele>45.874094</ele>
        <time>2024-01-31T13:33:07.942Z</time>
      </trkpt>
      <trkpt lat="43.42376" lon="6.74145">
        <ele>45.796908</ele>
        <time>2024-01-31T13:33:10.923Z</time>
      </trkpt>
      <trkpt lat="43.42367" lon="6.74134">
        <ele>45.719968</ele>
        <time>2024-01-31T13:33:13.931Z</time>
      </trkpt>
      <trkpt lat="43.42359" lon="6.74123">
        <ele>45.648531</ele>
        <time>2024-01-31T13:33:16.927Z</time>
      </trkpt>
      <trkpt lat="43.42356" lon="6.74109">
        <ele>45.579759</ele>
        <time>2024-01-31T13:33:20.934Z</time>
      </trkpt>
      <trkpt lat="43.42363" lon="6.74097">
        <ele>45.506662</ele>
        <time>2024-01-31T13:33:23.928Z</time>
      </trkpt>
      <trkpt lat="43.42373" lon="6.74084">
        <ele>45.42062</ele>
        <time>2024-01-31T13:33:26.957Z</time>
      </trkpt>
      <trkpt lat="43.4238" lon="6.74076">
        <ele>45.363134</ele>
        <time>2024-01-31T13:33:28.925Z</time>
      </trkpt>
      <trkpt lat="43.4239" lon="6.74065">
        <ele>45.279341</ele>
        <time>2024-01-31T13:33:31.943Z</time>
      </trkpt>
      <trkpt lat="43.424" lon="6.74054">
        <ele>45.26597</ele>
        <time>2024-01-31T13:33:34.931Z</time>
      </trkpt>
      <trkpt lat="43.42408" lon="6.74046">
        <ele>45.337437</ele>
        <time>2024-01-31T13:33:36.933Z</time>
      </trkpt>
      <trkpt lat="43.42415" lon="6.74037">
        <ele>45.411017</ele>
        <time>2024-01-31T13:33:38.933Z</time>
      </trkpt>
      <trkpt lat="43.42422" lon="6.74029">
        <ele>45.485558</ele>
        <time>2024-01-31T13:33:40.945Z</time>
      </trkpt>
      <trkpt lat="43.4243" lon="6.74022">
        <ele>45.558454</ele>
        <time>2024-01-31T13:33:42.953Z</time>
      </trkpt>
      <trkpt lat="43.42437" lon="6.74013">
        <ele>45.633369</ele>
        <time>2024-01-31T13:33:44.952Z</time>
      </trkpt>
      <trkpt lat="43.42445" lon="6.74004">
        <ele>45.708417</ele>
        <time>2024-01-31T13:33:46.987Z</time>
      </trkpt>
      <trkpt lat="43.42452" lon="6.73995">
        <ele>45.789244</ele>
        <time>2024-01-31T13:33:48.933Z</time>
      </trkpt>
      <trkpt lat="43.4246" lon="6.73985">
        <ele>45.867427</ele>
        <time>2024-01-31T13:33:50.932Z</time>
      </trkpt>
      <trkpt lat="43.42468" lon="6.73977">
        <ele>45.946214</ele>
        <time>2024-01-31T13:33:52.943Z</time>
      </trkpt>
      <trkpt lat="43.42475" lon="6.73968">
        <ele>46.020559</ele>
        <time>2024-01-31T13:33:54.928Z</time>
      </trkpt>
      <trkpt lat="43.42482" lon="6.73959">
        <ele>46.093567</ele>
        <time>2024-01-31T13:33:56.930Z</time>
      </trkpt>
      <trkpt lat="43.42489" lon="6.7395">
        <ele>46.167912</ele>
        <time>2024-01-31T13:33:58.948Z</time>
      </trkpt>
      <trkpt lat="43.42496" lon="6.73942">
        <ele>46.240689</ele>
        <time>2024-01-31T13:34:00.949Z</time>
      </trkpt>
      <trkpt lat="43.42504" lon="6.73934">
        <ele>46.31711</ele>
        <time>2024-01-31T13:34:02.936Z</time>
      </trkpt>
      <trkpt lat="43.42512" lon="6.73925">
        <ele>46.396244</ele>
        <time>2024-01-31T13:34:04.957Z</time>
      </trkpt>
      <trkpt lat="43.42519" lon="6.73917">
        <ele>46.47156</ele>
        <time>2024-01-31T13:34:06.960Z</time>
      </trkpt>
      <trkpt lat="43.42527" lon="6.73908">
        <ele>46.545921</ele>
        <time>2024-01-31T13:34:08.931Z</time>
      </trkpt>
      <trkpt lat="43.42534" lon="6.73899">
        <ele>46.622966</ele>
        <time>2024-01-31T13:34:10.943Z</time>
      </trkpt>
      <trkpt lat="43.42542" lon="6.7389">
        <ele>46.636929</ele>
        <time>2024-01-31T13:34:12.926Z</time>
      </trkpt>
      <trkpt lat="43.42549" lon="6.73881">
        <ele>46.650455</ele>
        <time>2024-01-31T13:34:14.939Z</time>
      </trkpt>
      <trkpt lat="43.42557" lon="6.73873">
        <ele>46.663596</ele>
        <time>2024-01-31T13:34:16.933Z</time>
      </trkpt>
      <trkpt lat="43.42561" lon="6.73861">
        <ele>46.6763</ele>
        <time>2024-01-31T13:34:18.931Z</time>
      </trkpt>
      <trkpt lat="43.42557" lon="6.73847">
        <ele>46.690679</ele>
        <time>2024-01-31T13:34:20.934Z</time>
      </trkpt>
      <trkpt lat="43.42552" lon="6.73834">
        <ele>46.705373</ele>
        <time>2024-01-31T13:34:22.948Z</time>
      </trkpt>
      <trkpt lat="43.42548" lon="6.73821">
        <ele>46.719659</ele>
        <time>2024-01-31T13:34:24.932Z</time>
      </trkpt>
      <trkpt lat="43.42544" lon="6.73808">
        <ele>46.733483</ele>
        <time>2024-01-31T13:34:26.959Z</time>
      </trkpt>
      <trkpt lat="43.4254" lon="6.73796">
        <ele>46.746771</ele>
        <time>2024-01-31T13:34:28.935Z</time>
      </trkpt>
      <trkpt lat="43.42537" lon="6.73783">
        <ele>46.759942</ele>
        <time>2024-01-31T13:34:30.942Z</time>
      </trkpt>
      <trkpt lat="43.42533" lon="6.73771">
        <ele>46.772868</ele>
        <time>2024-01-31T13:34:32.952Z</time>
      </trkpt>
      <trkpt lat="43.42529" lon="6.73759">
        <ele>46.786266</ele>
        <time>2024-01-31T13:34:34.953Z</time>
      </trkpt>
      <trkpt lat="43.42524" lon="6.73747">
        <ele>46.799812</ele>
        <time>2024-01-31T13:34:36.917Z</time>
      </trkpt>
      <trkpt lat="43.4252" lon="6.73736">
        <ele>46.81211</ele>
        <time>2024-01-31T13:34:38.948Z</time>
      </trkpt>
      <trkpt lat="43.42517" lon="6.73723">
        <ele>46.825375</ele>
        <time>2024-01-31T13:34:40.941Z</time>
      </trkpt>
      <trkpt lat="43.42512" lon="6.73706">
        <ele>46.844018</ele>
        <time>2024-01-31T13:34:43.955Z</time>
      </trkpt>
      <trkpt lat="43.42508" lon="6.73693">
        <ele>46.857559</ele>
        <time>2024-01-31T13:34:45.930Z</time>
      </trkpt>
      <trkpt lat="43.42505" lon="6.7368">
        <ele>46.872075</ele>
        <time>2024-01-31T13:34:47.924Z</time>
      </trkpt>
      <trkpt lat="43.42501" lon="6.73668">
        <ele>46.889792</ele>
        <time>2024-01-31T13:34:49.953Z</time>
      </trkpt>
      <trkpt lat="43.42497" lon="6.73655">
        <ele>46.90766</ele>
        <time>2024-01-31T13:34:51.939Z</time>
      </trkpt>
      <trkpt lat="43.42493" lon="6.73643">
        <ele>46.924624</ele>
        <time>2024-01-31T13:34:53.940Z</time>
      </trkpt>
      <trkpt lat="43.42489" lon="6.73631">
        <ele>46.940641</ele>
        <time>2024-01-31T13:34:55.933Z</time>
      </trkpt>
      <trkpt lat="43.42486" lon="6.73619">
        <ele>46.956977</ele>
        <time>2024-01-31T13:34:57.934Z</time>
      </trkpt>
      <trkpt lat="43.42483" lon="6.73607">
        <ele>46.973687</ele>
        <time>2024-01-31T13:34:59.950Z</time>
      </trkpt>
      <trkpt lat="43.42477" lon="6.73592">
        <ele>46.996327</ele>
        <time>2024-01-31T13:35:02.931Z</time>
      </trkpt>
      <trkpt lat="43.42474" lon="6.73577">
        <ele>47.016562</ele>
        <time>2024-01-31T13:35:05.948Z</time>
      </trkpt>
      <trkpt lat="43.42468" lon="6.73565">
        <ele>47.035592</ele>
        <time>2024-01-31T13:35:08.921Z</time>
      </trkpt>
      <trkpt lat="43.42458" lon="6.73556">
        <ele>47.056111</ele>
        <time>2024-01-31T13:35:11.923Z</time>
      </trkpt>
      <trkpt lat="43.42449" lon="6.73554">
        <ele>47.072626</ele>
        <time>2024-01-31T13:35:15.933Z</time>
      </trkpt>
      <trkpt lat="43.42442" lon="6.73563">
        <ele>47.088882</ele>
        <time>2024-01-31T13:35:20.924Z</time>
      </trkpt>
      <trkpt lat="43.42434" lon="6.73556">
        <ele>47.106285</ele>
        <time>2024-01-31T13:35:23.948Z</time>
      </trkpt>
      <trkpt lat="43.42428" lon="6.73546">
        <ele>47.123134</ele>
        <time>2024-01-31T13:35:26.938Z</time>
      </trkpt>
      <trkpt lat="43.42422" lon="6.73533">
        <ele>47.142443</ele>
        <time>2024-01-31T13:35:29.927Z</time>
      </trkpt>
      <trkpt lat="43.42416" lon="6.73521">
        <ele>47.161264</ele>
        <time>2024-01-31T13:35:32.934Z</time>
      </trkpt>
      <trkpt lat="43.4241" lon="6.73509">
        <ele>47.179882</ele>
        <time>2024-01-31T13:35:35.934Z</time>
      </trkpt>
      <trkpt lat="43.42403" lon="6.73496">
        <ele>47.236502</ele>
        <time>2024-01-31T13:35:38.951Z</time>
      </trkpt>
      <trkpt lat="43.42395" lon="6.73482">
        <ele>47.316492</ele>
        <time>2024-01-31T13:35:41.944Z</time>
      </trkpt>
      <trkpt lat="43.42388" lon="6.73468">
        <ele>47.398017</ele>
        <time>2024-01-31T13:35:44.933Z</time>
      </trkpt>
      <trkpt lat="43.42382" lon="6.73458">
        <ele>47.455657</ele>
        <time>2024-01-31T13:35:46.928Z</time>
      </trkpt>
      <trkpt lat="43.42374" lon="6.73444">
        <ele>47.541071</ele>
        <time>2024-01-31T13:35:49.934Z</time>
      </trkpt>
      <trkpt lat="43.42365" lon="6.73429">
        <ele>47.626393</ele>
        <time>2024-01-31T13:35:52.932Z</time>
      </trkpt>
      <trkpt lat="43.42356" lon="6.73416">
        <ele>47.712159</ele>
        <time>2024-01-31T13:35:55.933Z</time>
      </trkpt>
      <trkpt lat="43.4235" lon="6.73405">
        <ele>47.774274</ele>
        <time>2024-01-31T13:35:57.950Z</time>
      </trkpt>
      <trkpt lat="43.42344" lon="6.73395">
        <ele>47.836789</ele>
        <time>2024-01-31T13:35:59.945Z</time>
      </trkpt>
      <trkpt lat="43.42338" lon="6.73385">
        <ele>47.894182</ele>
        <time>2024-01-31T13:36:01.949Z</time>
      </trkpt>
      <trkpt lat="43.42332" lon="6.73375">
        <ele>47.953637</ele>
        <time>2024-01-31T13:36:03.937Z</time>
      </trkpt>
      <trkpt lat="43.42326" lon="6.73366">
        <ele>48.014036</ele>
        <time>2024-01-31T13:36:05.946Z</time>
      </trkpt>
      <trkpt lat="43.42319" lon="6.73356">
        <ele>48.072354</ele>
        <time>2024-01-31T13:36:07.948Z</time>
      </trkpt>
      <trkpt lat="43.42313" lon="6.73346">
        <ele>48.134562</ele>
        <time>2024-01-31T13:36:09.930Z</time>
      </trkpt>
      <trkpt lat="43.42307" lon="6.73335">
        <ele>48.195864</ele>
        <time>2024-01-31T13:36:11.934Z</time>
      </trkpt>
      <trkpt lat="43.42302" lon="6.73325">
        <ele>48.254953</ele>
        <time>2024-01-31T13:36:13.940Z</time>
      </trkpt>
      <trkpt lat="43.42296" lon="6.73315">
        <ele>48.316753</ele>
        <time>2024-01-31T13:36:15.946Z</time>
      </trkpt>
      <trkpt lat="43.4229" lon="6.73305">
        <ele>48.370069</ele>
        <time>2024-01-31T13:36:17.952Z</time>
      </trkpt>
      <trkpt lat="43.42284" lon="6.73295">
        <ele>48.422571</ele>
        <time>2024-01-31T13:36:19.924Z</time>
      </trkpt>
      <trkpt lat="43.42278" lon="6.73284">
        <ele>48.475971</ele>
        <time>2024-01-31T13:36:21.949Z</time>
      </trkpt>
      <trkpt lat="43.42271" lon="6.73274">
        <ele>48.530088</ele>
        <time>2024-01-31T13:36:23.934Z</time>
      </trkpt>
      <trkpt lat="43.42265" lon="6.73263">
        <ele>48.586526</ele>
        <time>2024-01-31T13:36:25.943Z</time>
      </trkpt>
      <trkpt lat="43.42258" lon="6.73253">
        <ele>48.638828</ele>
        <time>2024-01-31T13:36:27.932Z</time>
      </trkpt>
      <trkpt lat="43.42252" lon="6.73243">
        <ele>48.692152</ele>
        <time>2024-01-31T13:36:29.917Z</time>
      </trkpt>
      <trkpt lat="43.42245" lon="6.73233">
        <ele>48.746138</ele>
        <time>2024-01-31T13:36:31.931Z</time>
      </trkpt>
      <trkpt lat="43.42239" lon="6.73223">
        <ele>48.800419</ele>
        <time>2024-01-31T13:36:33.933Z</time>
      </trkpt>
      <trkpt lat="43.42233" lon="6.73213">
        <ele>48.851103</ele>
        <time>2024-01-31T13:36:35.937Z</time>
      </trkpt>
      <trkpt lat="43.42226" lon="6.73203">
        <ele>48.903629</ele>
        <time>2024-01-31T13:36:37.934Z</time>
      </trkpt>
      <trkpt lat="43.42219" lon="6.73194">
        <ele>48.95578</ele>
        <time>2024-01-31T13:36:39.933Z</time>
      </trkpt>
      <trkpt lat="43.42213" lon="6.73184">
        <ele>49.009471</ele>
        <time>2024-01-31T13:36:41.962Z</time>
      </trkpt>
      <trkpt lat="43.42207" lon="6.73173">
        <ele>49.063242</ele>
        <time>2024-01-31T13:36:43.935Z</time>
      </trkpt>
      <trkpt lat="43.422" lon="6.73163">
        <ele>49.115789</ele>
        <time>2024-01-31T13:36:45.931Z</time>
      </trkpt>
      <trkpt lat="43.42194" lon="6.73153">
        <ele>49.168291</ele>
        <time>2024-01-31T13:36:47.939Z</time>
      </trkpt>
      <trkpt lat="43.42188" lon="6.73142">
        <ele>49.221719</ele>
        <time>2024-01-31T13:36:49.945Z</time>
      </trkpt>
      <trkpt lat="43.42182" lon="6.73133">
        <ele>49.273425</ele>
        <time>2024-01-31T13:36:51.943Z</time>
      </trkpt>
      <trkpt lat="43.42176" lon="6.73123">
        <ele>49.31398</ele>
        <time>2024-01-31T13:36:53.942Z</time>
      </trkpt>
      <trkpt lat="43.4217" lon="6.73113">
        <ele>49.29996</ele>
        <time>2024-01-31T13:36:55.936Z</time>
      </trkpt>
      <trkpt lat="43.42164" lon="6.73103">
        <ele>49.2861</ele>
        <time>2024-01-31T13:36:57.933Z</time>
      </trkpt>
      <trkpt lat="43.42158" lon="6.73093">
        <ele>49.27225</ele>
        <time>2024-01-31T13:36:59.930Z</time>
      </trkpt>
      <trkpt lat="43.42151" lon="6.73084">
        <ele>49.258576</ele>
        <time>2024-01-31T13:37:01.937Z</time>
      </trkpt>
      <trkpt lat="43.42144" lon="6.73075">
        <ele>49.244505</ele>
        <time>2024-01-31T13:37:03.926Z</time>
      </trkpt>
      <trkpt lat="43.42137" lon="6.73066">
        <ele>49.230058</ele>
        <time>2024-01-31T13:37:05.954Z</time>
      </trkpt>
      <trkpt lat="43.42129" lon="6.73058">
        <ele>49.215255</ele>
        <time>2024-01-31T13:37:07.948Z</time>
      </trkpt>
      <trkpt lat="43.42121" lon="6.73051">
        <ele>49.20111</ele>
        <time>2024-01-31T13:37:09.943Z</time>
      </trkpt>
      <trkpt lat="43.42112" lon="6.73045">
        <ele>49.186692</ele>
        <time>2024-01-31T13:37:11.940Z</time>
      </trkpt>
      <trkpt lat="43.42103" lon="6.7304">
        <ele>49.171832</ele>
        <time>2024-01-31T13:37:13.931Z</time>
      </trkpt>
      <trkpt lat="43.42094" lon="6.73034">
        <ele>49.157772</ele>
        <time>2024-01-31T13:37:15.931Z</time>
      </trkpt>
      <trkpt lat="43.42085" lon="6.73029">
        <ele>49.14383</ele>
        <time>2024-01-31T13:37:17.951Z</time>
      </trkpt>
      <trkpt lat="43.42076" lon="6.73024">
        <ele>49.129055</ele>
        <time>2024-01-31T13:37:19.949Z</time>
      </trkpt>
      <trkpt lat="43.42068" lon="6.73019">
        <ele>49.115532</ele>
        <time>2024-01-31T13:37:21.943Z</time>
      </trkpt>
      <trkpt lat="43.42059" lon="6.73014">
        <ele>49.101999</ele>
        <time>2024-01-31T13:37:23.944Z</time>
      </trkpt>
      <trkpt lat="43.42051" lon="6.73009">
        <ele>49.088507</ele>
        <time>2024-01-31T13:37:25.932Z</time>
      </trkpt>
      <trkpt lat="43.42042" lon="6.73004">
        <ele>49.074661</ele>
        <time>2024-01-31T13:37:27.928Z</time>
      </trkpt>
      <trkpt lat="43.42033" lon="6.72999">
        <ele>49.060867</ele>
        <time>2024-01-31T13:37:29.937Z</time>
      </trkpt>
      <trkpt lat="43.42025" lon="6.72994">
        <ele>49.066121</ele>
        <time>2024-01-31T13:37:31.932Z</time>
      </trkpt>
      <trkpt lat="43.42016" lon="6.7299">
        <ele>49.11884</ele>
        <time>2024-01-31T13:37:33.932Z</time>
      </trkpt>
      <trkpt lat="43.42007" lon="6.72985">
        <ele>49.170942</ele>
        <time>2024-01-31T13:37:35.956Z</time>
      </trkpt>
      <trkpt lat="43.41999" lon="6.7298">
        <ele>49.223946</ele>
        <time>2024-01-31T13:37:37.938Z</time>
      </trkpt>
      <trkpt lat="43.4199" lon="6.72975">
        <ele>49.275995</ele>
        <time>2024-01-31T13:37:39.923Z</time>
      </trkpt>
      <trkpt lat="43.41979" lon="6.72969">
        <ele>49.345539</ele>
        <time>2024-01-31T13:37:42.938Z</time>
      </trkpt>
      <trkpt lat="43.41971" lon="6.72957">
        <ele>49.410348</ele>
        <time>2024-01-31T13:37:45.924Z</time>
      </trkpt>
      <trkpt lat="43.41969" lon="6.72944">
        <ele>49.466796</ele>
        <time>2024-01-31T13:37:50.940Z</time>
      </trkpt>
      <trkpt lat="43.4197" lon="6.72927">
        <ele>49.535691</ele>
        <time>2024-01-31T13:38:12.935Z</time>
      </trkpt>
      <trkpt lat="43.41975" lon="6.72915">
        <ele>49.591791</ele>
        <time>2024-01-31T13:38:16.924Z</time>
      </trkpt>
      <trkpt lat="43.41981" lon="6.72906">
        <ele>49.642863</ele>
        <time>2024-01-31T13:38:19.938Z</time>
      </trkpt>
      <trkpt lat="43.4198" lon="6.72891">
        <ele>49.703562</ele>
        <time>2024-01-31T13:38:22.937Z</time>
      </trkpt>
      <trkpt lat="43.41981" lon="6.72875">
        <ele>49.769023</ele>
        <time>2024-01-31T13:38:25.934Z</time>
      </trkpt>
      <trkpt lat="43.41975" lon="6.7286">
        <ele>49.83688</ele>
        <time>2024-01-31T13:38:28.925Z</time>
      </trkpt>
      <trkpt lat="43.41969" lon="6.72848">
        <ele>49.898762</ele>
        <time>2024-01-31T13:38:31.921Z</time>
      </trkpt>
      <trkpt lat="43.4196" lon="6.72841">
        <ele>49.954306</ele>
        <time>2024-01-31T13:38:34.923Z</time>
      </trkpt>
      <trkpt lat="43.4195" lon="6.72837">
        <ele>50.013274</ele>
        <time>2024-01-31T13:38:37.918Z</time>
      </trkpt>
      <trkpt lat="43.41939" lon="6.72836">
        <ele>50.067936</ele>
        <time>2024-01-31T13:38:40.922Z</time>
      </trkpt>
      <trkpt lat="43.41926" lon="6.72836">
        <ele>50.090309</ele>
        <time>2024-01-31T13:38:43.945Z</time>
      </trkpt>
      <trkpt lat="43.41914" lon="6.72834">
        <ele>50.112774</ele>
        <time>2024-01-31T13:38:46.949Z</time>
      </trkpt>
      <trkpt lat="43.41901" lon="6.72832">
        <ele>50.135643</ele>
        <time>2024-01-31T13:38:49.939Z</time>
      </trkpt>
      <trkpt lat="43.41888" lon="6.72831">
        <ele>50.1591</ele>
        <time>2024-01-31T13:38:52.939Z</time>
      </trkpt>
      <trkpt lat="43.41874" lon="6.72833">
        <ele>50.182844</ele>
        <time>2024-01-31T13:38:55.924Z</time>
      </trkpt>
      <trkpt lat="43.41865" lon="6.72838">
        <ele>50.199503</ele>
        <time>2024-01-31T13:38:57.926Z</time>
      </trkpt>
      <trkpt lat="43.41853" lon="6.72844">
        <ele>50.222337</ele>
        <time>2024-01-31T13:39:00.934Z</time>
      </trkpt>
      <trkpt lat="43.41842" lon="6.7285">
        <ele>50.243162</ele>
        <time>2024-01-31T13:39:03.930Z</time>
      </trkpt>
      <trkpt lat="43.41831" lon="6.72853">
        <ele>50.263781</ele>
        <time>2024-01-31T13:39:06.919Z</time>
      </trkpt>
      <trkpt lat="43.41822" lon="6.72848">
        <ele>50.279902</ele>
        <time>2024-01-31T13:39:08.932Z</time>
      </trkpt>
      <trkpt lat="43.41811" lon="6.72843">
        <ele>50.301808</ele>
        <time>2024-01-31T13:39:11.951Z</time>
      </trkpt>
      <trkpt lat="43.41799" lon="6.72836">
        <ele>50.324783</ele>
        <time>2024-01-31T13:39:14.940Z</time>
      </trkpt>
      <trkpt lat="43.41786" lon="6.72829">
        <ele>50.347922</ele>
        <time>2024-01-31T13:39:17.942Z</time>
      </trkpt>
      <trkpt lat="43.41774" lon="6.72823">
        <ele>50.371341</ele>
        <time>2024-01-31T13:39:20.934Z</time>
      </trkpt>
      <trkpt lat="43.41766" lon="6.72818">
        <ele>50.423672</ele>
        <time>2024-01-31T13:39:22.941Z</time>
      </trkpt>
      <trkpt lat="43.41753" lon="6.72811">
        <ele>50.582639</ele>
        <time>2024-01-31T13:39:25.949Z</time>
      </trkpt>
      <trkpt lat="43.41745" lon="6.72807">
        <ele>50.691465</ele>
        <time>2024-01-31T13:39:27.946Z</time>
      </trkpt>
      <trkpt lat="43.41732" lon="6.72801">
        <ele>50.850432</ele>
        <time>2024-01-31T13:39:30.927Z</time>
      </trkpt>
      <trkpt lat="43.4172" lon="6.72793">
        <ele>51.006928</ele>
        <time>2024-01-31T13:39:33.925Z</time>
      </trkpt>
      <trkpt lat="43.41709" lon="6.72786">
        <ele>51.158118</ele>
        <time>2024-01-31T13:39:36.932Z</time>
      </trkpt>
      <trkpt lat="43.41697" lon="6.7278">
        <ele>51.304367</ele>
        <time>2024-01-31T13:39:39.940Z</time>
      </trkpt>
      <trkpt lat="43.41686" lon="6.72774">
        <ele>51.446753</ele>
        <time>2024-01-31T13:39:42.932Z</time>
      </trkpt>
      <trkpt lat="43.41675" lon="6.72768">
        <ele>51.595448</ele>
        <time>2024-01-31T13:39:45.946Z</time>
      </trkpt>
      <trkpt lat="43.41664" lon="6.72761">
        <ele>51.736733</ele>
        <time>2024-01-31T13:39:48.917Z</time>
      </trkpt>
      <trkpt lat="43.41652" lon="6.72755">
        <ele>51.886265</ele>
        <time>2024-01-31T13:39:51.936Z</time>
      </trkpt>
      <trkpt lat="43.41641" lon="6.72749">
        <ele>52.02508</ele>
        <time>2024-01-31T13:39:54.951Z</time>
      </trkpt>
      <trkpt lat="43.4163" lon="6.72744">
        <ele>52.168958</ele>
        <time>2024-01-31T13:39:57.942Z</time>
      </trkpt>
      <trkpt lat="43.41618" lon="6.72737">
        <ele>52.318388</ele>
        <time>2024-01-31T13:40:00.937Z</time>
      </trkpt>
      <trkpt lat="43.41608" lon="6.72734">
        <ele>52.449135</ele>
        <time>2024-01-31T13:40:03.940Z</time>
      </trkpt>
      <trkpt lat="43.41598" lon="6.72731">
        <ele>52.495584</ele>
        <time>2024-01-31T13:40:06.930Z</time>
      </trkpt>
      <trkpt lat="43.41589" lon="6.72728">
        <ele>52.368589</ele>
        <time>2024-01-31T13:40:09.929Z</time>
      </trkpt>
      <trkpt lat="43.4158" lon="6.72722">
        <ele>52.234884</ele>
        <time>2024-01-31T13:40:12.919Z</time>
      </trkpt>
      <trkpt lat="43.4157" lon="6.72717">
        <ele>52.101085</ele>
        <time>2024-01-31T13:40:15.931Z</time>
      </trkpt>
      <trkpt lat="43.41561" lon="6.72711">
        <ele>51.96375</ele>
        <time>2024-01-31T13:40:18.943Z</time>
      </trkpt>
      <trkpt lat="43.41551" lon="6.72706">
        <ele>51.826416</ele>
        <time>2024-01-31T13:40:21.943Z</time>
      </trkpt>
      <trkpt lat="43.41541" lon="6.72701">
        <ele>51.687727</ele>
        <time>2024-01-31T13:40:24.946Z</time>
      </trkpt>
      <trkpt lat="43.41531" lon="6.72695">
        <ele>51.545162</ele>
        <time>2024-01-31T13:40:27.939Z</time>
      </trkpt>
      <trkpt lat="43.41521" lon="6.7269">
        <ele>51.40559</ele>
        <time>2024-01-31T13:40:30.931Z</time>
      </trkpt>
      <trkpt lat="43.41511" lon="6.72684">
        <ele>51.251664</ele>
        <time>2024-01-31T13:40:33.936Z</time>
      </trkpt>
      <trkpt lat="43.41499" lon="6.72678">
        <ele>51.087408</ele>
        <time>2024-01-31T13:40:36.930Z</time>
      </trkpt>
      <trkpt lat="43.41487" lon="6.7267">
        <ele>50.915411</ele>
        <time>2024-01-31T13:40:39.934Z</time>
      </trkpt>
      <trkpt lat="43.41479" lon="6.72664">
        <ele>50.790316</ele>
        <time>2024-01-31T13:40:41.949Z</time>
      </trkpt>
      <trkpt lat="43.4147" lon="6.72658">
        <ele>50.659013</ele>
        <time>2024-01-31T13:40:43.947Z</time>
      </trkpt>
      <trkpt lat="43.4146" lon="6.72652">
        <ele>50.526124</ele>
        <time>2024-01-31T13:40:45.921Z</time>
      </trkpt>
      <trkpt lat="43.41451" lon="6.72647">
        <ele>50.391461</ele>
        <time>2024-01-31T13:40:47.937Z</time>
      </trkpt>
      <trkpt lat="43.41441" lon="6.72642">
        <ele>50.251545</ele>
        <time>2024-01-31T13:40:49.949Z</time>
      </trkpt>
      <trkpt lat="43.41431" lon="6.72636">
        <ele>50.15436</ele>
        <time>2024-01-31T13:40:51.950Z</time>
      </trkpt>
      <trkpt lat="43.41421" lon="6.72631">
        <ele>50.132376</ele>
        <time>2024-01-31T13:40:53.937Z</time>
      </trkpt>
      <trkpt lat="43.4141" lon="6.72624">
        <ele>50.110407</ele>
        <time>2024-01-31T13:40:55.931Z</time>
      </trkpt>
      <trkpt lat="43.414" lon="6.72618">
        <ele>50.088504</ele>
        <time>2024-01-31T13:40:57.932Z</time>
      </trkpt>
      <trkpt lat="43.41394" lon="6.72606">
        <ele>50.067086</ele>
        <time>2024-01-31T13:40:59.936Z</time>
      </trkpt>
      <trkpt lat="43.41386" lon="6.72595">
        <ele>50.046265</ele>
        <time>2024-01-31T13:41:01.915Z</time>
      </trkpt>
      <trkpt lat="43.41376" lon="6.72591">
        <ele>50.025608</ele>
        <time>2024-01-31T13:41:03.930Z</time>
      </trkpt>
      <trkpt lat="43.41366" lon="6.72585">
        <ele>50.004457</ele>
        <time>2024-01-31T13:41:05.925Z</time>
      </trkpt>
      <trkpt lat="43.41355" lon="6.72583">
        <ele>49.982912</ele>
        <time>2024-01-31T13:41:07.933Z</time>
      </trkpt>
      <trkpt lat="43.41345" lon="6.7258">
        <ele>49.962727</ele>
        <time>2024-01-31T13:41:09.931Z</time>
      </trkpt>
      <trkpt lat="43.41336" lon="6.72576">
        <ele>49.943267</ele>
        <time>2024-01-31T13:41:11.937Z</time>
      </trkpt>
      <trkpt lat="43.41323" lon="6.72569">
        <ele>49.916881</ele>
        <time>2024-01-31T13:41:14.934Z</time>
      </trkpt>
      <trkpt lat="43.41315" lon="6.72565">
        <ele>49.898818</ele>
        <time>2024-01-31T13:41:16.932Z</time>
      </trkpt>
      <trkpt lat="43.41307" lon="6.72559">
        <ele>49.881009</ele>
        <time>2024-01-31T13:41:18.928Z</time>
      </trkpt>
      <trkpt lat="43.41296" lon="6.72549">
        <ele>49.85672</ele>
        <time>2024-01-31T13:41:21.934Z</time>
      </trkpt>
      <trkpt lat="43.41285" lon="6.72548">
        <ele>49.834087</ele>
        <time>2024-01-31T13:41:24.923Z</time>
      </trkpt>
      <trkpt lat="43.41273" lon="6.72543">
        <ele>49.810356</ele>
        <time>2024-01-31T13:41:27.936Z</time>
      </trkpt>
      <trkpt lat="43.41261" lon="6.72539">
        <ele>49.847354</ele>
        <time>2024-01-31T13:41:30.919Z</time>
      </trkpt>
      <trkpt lat="43.4125" lon="6.72532">
        <ele>49.88412</ele>
        <time>2024-01-31T13:41:33.942Z</time>
      </trkpt>
      <trkpt lat="43.41238" lon="6.72525">
        <ele>49.923011</ele>
        <time>2024-01-31T13:41:36.929Z</time>
      </trkpt>
      <trkpt lat="43.4123" lon="6.7252">
        <ele>49.950673</ele>
        <time>2024-01-31T13:41:38.931Z</time>
      </trkpt>
      <trkpt lat="43.41218" lon="6.72514">
        <ele>49.989388</ele>
        <time>2024-01-31T13:41:41.940Z</time>
      </trkpt>
      <trkpt lat="43.41206" lon="6.72508">
        <ele>50.028219</ele>
        <time>2024-01-31T13:41:44.915Z</time>
      </trkpt>
      <trkpt lat="43.41194" lon="6.72505">
        <ele>50.065917</ele>
        <time>2024-01-31T13:41:47.932Z</time>
      </trkpt>
      <trkpt lat="43.41182" lon="6.7251">
        <ele>50.102987</ele>
        <time>2024-01-31T13:41:50.931Z</time>
      </trkpt>
      <trkpt lat="43.41174" lon="6.72513">
        <ele>50.13067</ele>
        <time>2024-01-31T13:41:53.930Z</time>
      </trkpt>
      <trkpt lat="43.41165" lon="6.72507">
        <ele>50.161281</ele>
        <time>2024-01-31T13:41:57.938Z</time>
      </trkpt>
      <trkpt lat="43.41156" lon="6.72502">
        <ele>50.189572</ele>
        <time>2024-01-31T13:42:01.933Z</time>
      </trkpt>
      <trkpt lat="43.41147" lon="6.72497">
        <ele>50.21842</ele>
        <time>2024-01-31T13:42:05.910Z</time>
      </trkpt>
      <trkpt lat="43.41138" lon="6.72492">
        <ele>50.247939</ele>
        <time>2024-01-31T13:42:09.955Z</time>
      </trkpt>
      <trkpt lat="43.41129" lon="6.72487">
        <ele>50.279237</ele>
        <time>2024-01-31T13:42:13.937Z</time>
      </trkpt>
      <trkpt lat="43.41118" lon="6.72481">
        <ele>50.313168</ele>
        <time>2024-01-31T13:42:18.930Z</time>
      </trkpt>
      <trkpt lat="43.4111" lon="6.72475">
        <ele>50.342105</ele>
        <time>2024-01-31T13:42:22.929Z</time>
      </trkpt>
      <trkpt lat="43.411" lon="6.72469">
        <ele>50.310379</ele>
        <time>2024-01-31T13:42:26.948Z</time>
      </trkpt>
      <trkpt lat="43.4109" lon="6.72462">
        <ele>50.22193</ele>
        <time>2024-01-31T13:42:30.938Z</time>
      </trkpt>
      <trkpt lat="43.41081" lon="6.72456">
        <ele>50.148425</ele>
        <time>2024-01-31T13:42:33.941Z</time>
      </trkpt>
      <trkpt lat="43.41074" lon="6.72448">
        <ele>50.075868</ele>
        <time>2024-01-31T13:42:36.949Z</time>
      </trkpt>
      <trkpt lat="43.41065" lon="6.72438">
        <ele>49.984029</ele>
        <time>2024-01-31T13:42:39.946Z</time>
      </trkpt>
      <trkpt lat="43.41058" lon="6.7243">
        <ele>49.913747</ele>
        <time>2024-01-31T13:42:41.922Z</time>
      </trkpt>
      <trkpt lat="43.41045" lon="6.72422">
        <ele>49.804242</ele>
        <time>2024-01-31T13:42:44.963Z</time>
      </trkpt>
      <trkpt lat="43.41036" lon="6.72418">
        <ele>49.729584</ele>
        <time>2024-01-31T13:42:46.916Z</time>
      </trkpt>
      <trkpt lat="43.41027" lon="6.72416">
        <ele>49.657985</ele>
        <time>2024-01-31T13:42:48.933Z</time>
      </trkpt>
      <trkpt lat="43.41018" lon="6.72415">
        <ele>49.586623</ele>
        <time>2024-01-31T13:42:50.942Z</time>
      </trkpt>
      <trkpt lat="43.41005" lon="6.72412">
        <ele>49.481883</ele>
        <time>2024-01-31T13:42:53.929Z</time>
      </trkpt>
      <trkpt lat="43.40992" lon="6.7241">
        <ele>49.380915</ele>
        <time>2024-01-31T13:42:56.931Z</time>
      </trkpt>
      <trkpt lat="43.40983" lon="6.7241">
        <ele>49.309736</ele>
        <time>2024-01-31T13:42:58.921Z</time>
      </trkpt>
      <trkpt lat="43.40974" lon="6.72409">
        <ele>49.238501</ele>
        <time>2024-01-31T13:43:00.918Z</time>
      </trkpt>
      <trkpt lat="43.40964" lon="6.7241">
        <ele>49.164055</ele>
        <time>2024-01-31T13:43:02.935Z</time>
      </trkpt>
      <trkpt lat="43.40955" lon="6.72412">
        <ele>49.091787</ele>
        <time>2024-01-31T13:43:04.934Z</time>
      </trkpt>
      <trkpt lat="43.40947" lon="6.72415">
        <ele>49.021387</ele>
        <time>2024-01-31T13:43:06.930Z</time>
      </trkpt>
      <trkpt lat="43.40935" lon="6.7242">
        <ele>48.903623</ele>
        <time>2024-01-31T13:43:09.958Z</time>
      </trkpt>
      <trkpt lat="43.40923" lon="6.7242">
        <ele>48.75097</ele>
        <time>2024-01-31T13:43:12.923Z</time>
      </trkpt>
      <trkpt lat="43.40913" lon="6.72416">
        <ele>48.609063</ele>
        <time>2024-01-31T13:43:15.930Z</time>
      </trkpt>
      <trkpt lat="43.40904" lon="6.72423">
        <ele>48.463149</ele>
        <time>2024-01-31T13:43:18.921Z</time>
      </trkpt>
      <trkpt lat="43.40895" lon="6.72434">
        <ele>48.305839</ele>
        <time>2024-01-31T13:43:21.924Z</time>
      </trkpt>
      <trkpt lat="43.40886" lon="6.72445">
        <ele>48.131841</ele>
        <time>2024-01-31T13:43:24.943Z</time>
      </trkpt>
      <trkpt lat="43.40875" lon="6.72451">
        <ele>47.970817</ele>
        <time>2024-01-31T13:43:27.951Z</time>
      </trkpt>
      <trkpt lat="43.40867" lon="6.72458">
        <ele>47.843848</ele>
        <time>2024-01-31T13:43:30.921Z</time>
      </trkpt>
      <trkpt lat="43.40856" lon="6.72467">
        <ele>47.676329</ele>
        <time>2024-01-31T13:43:33.910Z</time>
      </trkpt>
      <trkpt lat="43.40848" lon="6.72476">
        <ele>47.536324</ele>
        <time>2024-01-31T13:43:36.930Z</time>
      </trkpt>
      <trkpt lat="43.40839" lon="6.72485">
        <ele>47.3786</ele>
        <time>2024-01-31T13:43:39.929Z</time>
      </trkpt>
      <trkpt lat="43.4083" lon="6.72493">
        <ele>47.242208</ele>
        <time>2024-01-31T13:43:41.926Z</time>
      </trkpt>
      <trkpt lat="43.40821" lon="6.72502">
        <ele>47.079986</ele>
        <time>2024-01-31T13:43:44.928Z</time>
      </trkpt>
      <trkpt lat="43.40813" lon="6.72509">
        <ele>46.952977</ele>
        <time>2024-01-31T13:43:46.928Z</time>
      </trkpt>
      <trkpt lat="43.40806" lon="6.72517">
        <ele>46.826689</ele>
        <time>2024-01-31T13:43:48.929Z</time>
      </trkpt>
      <trkpt lat="43.40797" lon="6.72525">
        <ele>46.686304</ele>
        <time>2024-01-31T13:43:50.921Z</time>
      </trkpt>
      <trkpt lat="43.40789" lon="6.72534">
        <ele>46.543537</ele>
        <time>2024-01-31T13:43:52.943Z</time>
      </trkpt>
      <trkpt lat="43.40781" lon="6.72543">
        <ele>46.521409</ele>
        <time>2024-01-31T13:43:54.941Z</time>
      </trkpt>
      <trkpt lat="43.40773" lon="6.72551">
        <ele>46.551847</ele>
        <time>2024-01-31T13:43:56.930Z</time>
      </trkpt>
      <trkpt lat="43.40766" lon="6.72559">
        <ele>46.582118</ele>
        <time>2024-01-31T13:43:58.928Z</time>
      </trkpt>
      <trkpt lat="43.40758" lon="6.72566">
        <ele>46.611751</ele>
        <time>2024-01-31T13:44:00.928Z</time>
      </trkpt>
      <trkpt lat="43.4075" lon="6.72574">
        <ele>46.643187</ele>
        <time>2024-01-31T13:44:02.944Z</time>
      </trkpt>
      <trkpt lat="43.40741" lon="6.72581">
        <ele>46.673523</ele>
        <time>2024-01-31T13:44:04.924Z</time>
      </trkpt>
      <trkpt lat="43.40734" lon="6.7259">
        <ele>46.703794</ele>
        <time>2024-01-31T13:44:06.931Z</time>
      </trkpt>
      <trkpt lat="43.40727" lon="6.72598">
        <ele>46.733347</ele>
        <time>2024-01-31T13:44:08.917Z</time>
      </trkpt>
      <trkpt lat="43.40719" lon="6.72606">
        <ele>46.763259</ele>
        <time>2024-01-31T13:44:10.925Z</time>
      </trkpt>
      <trkpt lat="43.40711" lon="6.72613">
        <ele>46.793171</ele>
        <time>2024-01-31T13:44:12.927Z</time>
      </trkpt>
      <trkpt lat="43.40704" lon="6.72622">
        <ele>46.824136</ele>
        <time>2024-01-31T13:44:14.927Z</time>
      </trkpt>
      <trkpt lat="43.40693" lon="6.72634">
        <ele>46.866427</ele>
        <time>2024-01-31T13:44:17.943Z</time>
      </trkpt>
      <trkpt lat="43.40686" lon="6.72642">
        <ele>46.896202</ele>
        <time>2024-01-31T13:44:19.932Z</time>
      </trkpt>
      <trkpt lat="43.40678" lon="6.72649">
        <ele>46.926993</ele>
        <time>2024-01-31T13:44:21.921Z</time>
      </trkpt>
      <trkpt lat="43.4067" lon="6.72657">
        <ele>46.9561</ele>
        <time>2024-01-31T13:44:23.925Z</time>
      </trkpt>
      <trkpt lat="43.40661" lon="6.72665">
        <ele>46.990769</ele>
        <time>2024-01-31T13:44:26.937Z</time>
      </trkpt>
      <trkpt lat="43.4065" lon="6.72677">
        <ele>47.032879</ele>
        <time>2024-01-31T13:44:29.933Z</time>
      </trkpt>
      <trkpt lat="43.40639" lon="6.72687">
        <ele>47.075178</ele>
        <time>2024-01-31T13:44:32.926Z</time>
      </trkpt>
      <trkpt lat="43.4063" lon="6.72695">
        <ele>47.106528</ele>
        <time>2024-01-31T13:44:34.925Z</time>
      </trkpt>
      <trkpt lat="43.40622" lon="6.72702">
        <ele>47.134628</ele>
        <time>2024-01-31T13:44:36.942Z</time>
      </trkpt>
      <trkpt lat="43.40614" lon="6.7271">
        <ele>47.163464</ele>
        <time>2024-01-31T13:44:38.944Z</time>
      </trkpt>
      <trkpt lat="43.40607" lon="6.72717">
        <ele>47.191216</ele>
        <time>2024-01-31T13:44:40.927Z</time>
      </trkpt>
      <trkpt lat="43.40599" lon="6.72725">
        <ele>47.220307</ele>
        <time>2024-01-31T13:44:42.928Z</time>
      </trkpt>
      <trkpt lat="43.40592" lon="6.72734">
        <ele>47.24909</ele>
        <time>2024-01-31T13:44:44.910Z</time>
      </trkpt>
      <trkpt lat="43.40584" lon="6.72742">
        <ele>47.277209</ele>
        <time>2024-01-31T13:44:46.949Z</time>
      </trkpt>
      <trkpt lat="43.40576" lon="6.7275">
        <ele>47.306532</ele>
        <time>2024-01-31T13:44:48.934Z</time>
      </trkpt>
      <trkpt lat="43.40567" lon="6.72757">
        <ele>47.335982</ele>
        <time>2024-01-31T13:44:50.928Z</time>
      </trkpt>
      <trkpt lat="43.40556" lon="6.72767">
        <ele>47.37558</ele>
        <time>2024-01-31T13:44:53.967Z</time>
      </trkpt>
      <trkpt lat="43.40545" lon="6.72778">
        <ele>47.416999</ele>
        <time>2024-01-31T13:44:56.909Z</time>
      </trkpt>
      <trkpt lat="43.40538" lon="6.72787">
        <ele>47.444683</ele>
        <time>2024-01-31T13:44:58.908Z</time>
      </trkpt>
      <trkpt lat="43.40527" lon="6.72797">
        <ele>47.48537</ele>
        <time>2024-01-31T13:45:01.923Z</time>
      </trkpt>
      <trkpt lat="43.40519" lon="6.72805">
        <ele>47.512283</ele>
        <time>2024-01-31T13:45:03.919Z</time>
      </trkpt>
      <trkpt lat="43.40513" lon="6.72814">
        <ele>47.540299</ele>
        <time>2024-01-31T13:45:05.920Z</time>
      </trkpt>
      <trkpt lat="43.40502" lon="6.72824">
        <ele>47.579321</ele>
        <time>2024-01-31T13:45:08.945Z</time>
      </trkpt>
      <trkpt lat="43.40494" lon="6.72831">
        <ele>47.598536</ele>
        <time>2024-01-31T13:45:10.925Z</time>
      </trkpt>
      <trkpt lat="43.40483" lon="6.72843">
        <ele>47.601887</ele>
        <time>2024-01-31T13:45:13.942Z</time>
      </trkpt>
      <trkpt lat="43.40476" lon="6.72851">
        <ele>47.604227</ele>
        <time>2024-01-31T13:45:15.933Z</time>
      </trkpt>
      <trkpt lat="43.40469" lon="6.72858">
        <ele>47.606593</ele>
        <time>2024-01-31T13:45:17.932Z</time>
      </trkpt>
      <trkpt lat="43.40461" lon="6.72865">
        <ele>47.608918</ele>
        <time>2024-01-31T13:45:19.939Z</time>
      </trkpt>
      <trkpt lat="43.40452" lon="6.72873">
        <ele>47.611621</ele>
        <time>2024-01-31T13:45:22.931Z</time>
      </trkpt>
      <trkpt lat="43.40445" lon="6.72881">
        <ele>47.61397</ele>
        <time>2024-01-31T13:45:25.933Z</time>
      </trkpt>
      <trkpt lat="43.40435" lon="6.7289">
        <ele>47.617079</ele>
        <time>2024-01-31T13:45:28.930Z</time>
      </trkpt>
      <trkpt lat="43.40425" lon="6.729">
        <ele>47.620021</ele>
        <time>2024-01-31T13:45:31.938Z</time>
      </trkpt>
      <trkpt lat="43.40417" lon="6.72907">
        <ele>47.62257</ele>
        <time>2024-01-31T13:45:34.947Z</time>
      </trkpt>
      <trkpt lat="43.40407" lon="6.72914">
        <ele>47.62542</ele>
        <time>2024-01-31T13:45:37.909Z</time>
      </trkpt>
      <trkpt lat="43.40397" lon="6.72921">
        <ele>47.628333</ele>
        <time>2024-01-31T13:45:40.943Z</time>
      </trkpt>
      <trkpt lat="43.40384" lon="6.72928">
        <ele>47.631678</ele>
        <time>2024-01-31T13:45:43.927Z</time>
      </trkpt>
      <trkpt lat="43.40373" lon="6.72935">
        <ele>47.63482</ele>
        <time>2024-01-31T13:45:46.949Z</time>
      </trkpt>
      <trkpt lat="43.40362" lon="6.72941">
        <ele>47.637849</ele>
        <time>2024-01-31T13:45:49.911Z</time>
      </trkpt>
      <trkpt lat="43.40353" lon="6.72947">
        <ele>47.64049</ele>
        <time>2024-01-31T13:45:52.946Z</time>
      </trkpt>
      <trkpt lat="43.40343" lon="6.72951">
        <ele>47.643062</ele>
        <time>2024-01-31T13:45:55.911Z</time>
      </trkpt>
      <trkpt lat="43.40334" lon="6.72958">
        <ele>47.708381</ele>
        <time>2024-01-31T13:45:58.943Z</time>
      </trkpt>
      <trkpt lat="43.40325" lon="6.72962">
        <ele>47.780489</ele>
        <time>2024-01-31T13:46:01.922Z</time>
      </trkpt>
      <trkpt lat="43.40315" lon="6.72967">
        <ele>47.855726</ele>
        <time>2024-01-31T13:46:04.926Z</time>
      </trkpt>
      <trkpt lat="43.40305" lon="6.72969">
        <ele>47.933975</ele>
        <time>2024-01-31T13:46:07.923Z</time>
      </trkpt>
      <trkpt lat="43.40295" lon="6.72973">
        <ele>48.011224</ele>
        <time>2024-01-31T13:46:10.926Z</time>
      </trkpt>
      <trkpt lat="43.40285" lon="6.72976">
        <ele>48.088241</ele>
        <time>2024-01-31T13:46:13.943Z</time>
      </trkpt>
      <trkpt lat="43.40273" lon="6.72978">
        <ele>48.172588</ele>
        <time>2024-01-31T13:46:16.933Z</time>
      </trkpt>
      <trkpt lat="43.40262" lon="6.72981">
        <ele>48.260053</ele>
        <time>2024-01-31T13:46:19.924Z</time>
      </trkpt>
      <trkpt lat="43.4025" lon="6.72984">
        <ele>48.343834</ele>
        <time>2024-01-31T13:46:22.927Z</time>
      </trkpt>
      <trkpt lat="43.40239" lon="6.72987">
        <ele>48.43032</ele>
        <time>2024-01-31T13:46:25.936Z</time>
      </trkpt>
      <trkpt lat="43.40228" lon="6.72989">
        <ele>48.510528</ele>
        <time>2024-01-31T13:46:28.910Z</time>
      </trkpt>
      <trkpt lat="43.40217" lon="6.7299">
        <ele>48.59058</ele>
        <time>2024-01-31T13:46:31.939Z</time>
      </trkpt>
      <trkpt lat="43.40207" lon="6.72991">
        <ele>48.668159</ele>
        <time>2024-01-31T13:46:34.935Z</time>
      </trkpt>
      <trkpt lat="43.40196" lon="6.72991">
        <ele>48.747167</ele>
        <time>2024-01-31T13:46:37.933Z</time>
      </trkpt>
      <trkpt lat="43.40186" lon="6.72991">
        <ele>48.825467</ele>
        <time>2024-01-31T13:46:40.917Z</time>
      </trkpt>
      <trkpt lat="43.40175" lon="6.72991">
        <ele>48.906755</ele>
        <time>2024-01-31T13:46:43.931Z</time>
      </trkpt>
      <trkpt lat="43.40164" lon="6.72989">
        <ele>48.976599</ele>
        <time>2024-01-31T13:46:46.939Z</time>
      </trkpt>
      <trkpt lat="43.40151" lon="6.72989">
        <ele>49.002831</ele>
        <time>2024-01-31T13:46:49.939Z</time>
      </trkpt>
      <trkpt lat="43.4014" lon="6.72988">
        <ele>49.027517</ele>
        <time>2024-01-31T13:46:52.937Z</time>
      </trkpt>
      <trkpt lat="43.40129" lon="6.72988">
        <ele>49.051997</ele>
        <time>2024-01-31T13:46:55.948Z</time>
      </trkpt>
      <trkpt lat="43.40118" lon="6.72987">
        <ele>49.075814</ele>
        <time>2024-01-31T13:46:58.929Z</time>
      </trkpt>
      <trkpt lat="43.40107" lon="6.72987">
        <ele>49.099413</ele>
        <time>2024-01-31T13:47:01.947Z</time>
      </trkpt>
      <trkpt lat="43.40096" lon="6.72987">
        <ele>49.12366</ele>
        <time>2024-01-31T13:47:04.943Z</time>
      </trkpt>
      <trkpt lat="43.40085" lon="6.72986">
        <ele>49.147485</ele>
        <time>2024-01-31T13:47:07.928Z</time>
      </trkpt>
      <trkpt lat="43.40073" lon="6.72986">
        <ele>49.173061</ele>
        <time>2024-01-31T13:47:10.926Z</time>
      </trkpt>
      <trkpt lat="43.40061" lon="6.72984">
        <ele>49.199095</ele>
        <time>2024-01-31T13:47:13.943Z</time>
      </trkpt>
      <trkpt lat="43.40049" lon="6.72984">
        <ele>49.225726</ele>
        <time>2024-01-31T13:47:16.937Z</time>
      </trkpt>
      <trkpt lat="43.40038" lon="6.72984">
        <ele>49.249541</ele>
        <time>2024-01-31T13:47:19.936Z</time>
      </trkpt>
      <trkpt lat="43.40027" lon="6.72984">
        <ele>49.271622</ele>
        <time>2024-01-31T13:47:22.930Z</time>
      </trkpt>
      <trkpt lat="43.40017" lon="6.72982">
        <ele>49.294939</ele>
        <time>2024-01-31T13:47:25.924Z</time>
      </trkpt>
      <trkpt lat="43.40006" lon="6.72981">
        <ele>49.318352</ele>
        <time>2024-01-31T13:47:28.926Z</time>
      </trkpt>
      <trkpt lat="43.39995" lon="6.72981">
        <ele>49.3424</ele>
        <time>2024-01-31T13:47:31.950Z</time>
      </trkpt>
      <trkpt lat="43.39983" lon="6.72981">
        <ele>49.350193</ele>
        <time>2024-01-31T13:47:34.910Z</time>
      </trkpt>
      <trkpt lat="43.39971" lon="6.7298">
        <ele>49.309768</ele>
        <time>2024-01-31T13:47:37.939Z</time>
      </trkpt>
      <trkpt lat="43.3996" lon="6.72979">
        <ele>49.271814</ele>
        <time>2024-01-31T13:47:40.935Z</time>
      </trkpt>
      <trkpt lat="43.39949" lon="6.72977">
        <ele>49.232384</ele>
        <time>2024-01-31T13:47:43.934Z</time>
      </trkpt>
      <trkpt lat="43.39937" lon="6.72974">
        <ele>49.190793</ele>
        <time>2024-01-31T13:47:46.946Z</time>
      </trkpt>
      <trkpt lat="43.39925" lon="6.72973">
        <ele>49.149302</ele>
        <time>2024-01-31T13:47:49.908Z</time>
      </trkpt>
      <trkpt lat="43.39914" lon="6.72969">
        <ele>49.108001</ele>
        <time>2024-01-31T13:47:52.927Z</time>
      </trkpt>
      <trkpt lat="43.39902" lon="6.72967">
        <ele>49.067654</ele>
        <time>2024-01-31T13:47:55.946Z</time>
      </trkpt>
      <trkpt lat="43.3989" lon="6.72964">
        <ele>49.026861</ele>
        <time>2024-01-31T13:47:58.938Z</time>
      </trkpt>
      <trkpt lat="43.39879" lon="6.72958">
        <ele>48.985041</ele>
        <time>2024-01-31T13:48:01.942Z</time>
      </trkpt>
      <trkpt lat="43.39868" lon="6.72953">
        <ele>48.944002</ele>
        <time>2024-01-31T13:48:04.939Z</time>
      </trkpt>
      <trkpt lat="43.39856" lon="6.72949">
        <ele>48.902573</ele>
        <time>2024-01-31T13:48:07.932Z</time>
      </trkpt>
      <trkpt lat="43.39845" lon="6.72945">
        <ele>48.861876</ele>
        <time>2024-01-31T13:48:10.928Z</time>
      </trkpt>
      <trkpt lat="43.39833" lon="6.7294">
        <ele>48.819448</ele>
        <time>2024-01-31T13:48:13.927Z</time>
      </trkpt>
      <trkpt lat="43.39821" lon="6.72938">
        <ele>48.777093</ele>
        <time>2024-01-31T13:48:16.943Z</time>
      </trkpt>
      <trkpt lat="43.39809" lon="6.72935">
        <ele>48.739322</ele>
        <time>2024-01-31T13:48:19.935Z</time>
      </trkpt>
      <trkpt lat="43.39797" lon="6.7293">
        <ele>48.723547</ele>
        <time>2024-01-31T13:48:22.926Z</time>
      </trkpt>
      <trkpt lat="43.39785" lon="6.72926">
        <ele>48.707986</ele>
        <time>2024-01-31T13:48:25.937Z</time>
      </trkpt>
      <trkpt lat="43.39774" lon="6.72921">
        <ele>48.693428</ele>
        <time>2024-01-31T13:48:28.921Z</time>
      </trkpt>
      <trkpt lat="43.39763" lon="6.72917">
        <ele>48.67843</ele>
        <time>2024-01-31T13:48:31.943Z</time>
      </trkpt>
      <trkpt lat="43.39751" lon="6.72913">
        <ele>48.663359</ele>
        <time>2024-01-31T13:48:34.931Z</time>
      </trkpt>
      <trkpt lat="43.3974" lon="6.72909">
        <ele>48.648608</ele>
        <time>2024-01-31T13:48:37.929Z</time>
      </trkpt>
      <trkpt lat="43.39728" lon="6.72905">
        <ele>48.632758</ele>
        <time>2024-01-31T13:48:40.930Z</time>
      </trkpt>
      <trkpt lat="43.39716" lon="6.72901">
        <ele>48.617008</ele>
        <time>2024-01-31T13:48:43.934Z</time>
      </trkpt>
      <trkpt lat="43.39703" lon="6.72896">
        <ele>48.601258</ele>
        <time>2024-01-31T13:48:46.927Z</time>
      </trkpt>
      <trkpt lat="43.39692" lon="6.72892">
        <ele>48.585777</ele>
        <time>2024-01-31T13:48:49.938Z</time>
      </trkpt>
      <trkpt lat="43.3968" lon="6.72888">
        <ele>48.570093</ele>
        <time>2024-01-31T13:48:52.937Z</time>
      </trkpt>
      <trkpt lat="43.39668" lon="6.72884">
        <ele>48.555243</ele>
        <time>2024-01-31T13:48:55.932Z</time>
      </trkpt>
      <trkpt lat="43.39656" lon="6.72878">
        <ele>48.539748</ele>
        <time>2024-01-31T13:48:58.922Z</time>
      </trkpt>
      <trkpt lat="43.39645" lon="6.72874">
        <ele>48.52424</ele>
        <time>2024-01-31T13:49:01.909Z</time>
      </trkpt>
      <trkpt lat="43.39634" lon="6.7287">
        <ele>48.52356</ele>
        <time>2024-01-31T13:49:04.925Z</time>
      </trkpt>
      <trkpt lat="43.39623" lon="6.72866">
        <ele>48.556984</ele>
        <time>2024-01-31T13:49:07.942Z</time>
      </trkpt>
      <trkpt lat="43.39613" lon="6.72862">
        <ele>48.588735</ele>
        <time>2024-01-31T13:49:10.918Z</time>
      </trkpt>
      <trkpt lat="43.39603" lon="6.72858">
        <ele>48.618795</ele>
        <time>2024-01-31T13:49:13.934Z</time>
      </trkpt>
      <trkpt lat="43.39593" lon="6.72855">
        <ele>48.649547</ele>
        <time>2024-01-31T13:49:16.947Z</time>
      </trkpt>
      <trkpt lat="43.39583" lon="6.72852">
        <ele>48.680783</ele>
        <time>2024-01-31T13:49:19.938Z</time>
      </trkpt>
      <trkpt lat="43.39572" lon="6.72848">
        <ele>48.71328</ele>
        <time>2024-01-31T13:49:22.945Z</time>
      </trkpt>
      <trkpt lat="43.39562" lon="6.72843">
        <ele>48.745589</ele>
        <time>2024-01-31T13:49:25.931Z</time>
      </trkpt>
      <trkpt lat="43.39552" lon="6.72839">
        <ele>48.778716</ele>
        <time>2024-01-31T13:49:28.928Z</time>
      </trkpt>
      <trkpt lat="43.39541" lon="6.72836">
        <ele>48.812187</ele>
        <time>2024-01-31T13:49:31.933Z</time>
      </trkpt>
      <trkpt lat="43.39531" lon="6.72832">
        <ele>48.843466</ele>
        <time>2024-01-31T13:49:34.925Z</time>
      </trkpt>
      <trkpt lat="43.39521" lon="6.72829">
        <ele>48.874163</ele>
        <time>2024-01-31T13:49:37.943Z</time>
      </trkpt>
      <trkpt lat="43.39511" lon="6.72826">
        <ele>48.90417</ele>
        <time>2024-01-31T13:49:40.926Z</time>
      </trkpt>
      <trkpt lat="43.39501" lon="6.7282">
        <ele>48.936555</ele>
        <time>2024-01-31T13:49:43.907Z</time>
      </trkpt>
      <trkpt lat="43.39491" lon="6.72816">
        <ele>48.968059</ele>
        <time>2024-01-31T13:49:46.924Z</time>
      </trkpt>
      <trkpt lat="43.39481" lon="6.72813">
        <ele>48.998892</ele>
        <time>2024-01-31T13:49:49.904Z</time>
      </trkpt>
      <trkpt lat="43.39471" lon="6.72809">
        <ele>49.029653</ele>
        <time>2024-01-31T13:49:52.922Z</time>
      </trkpt>
      <trkpt lat="43.39461" lon="6.72805">
        <ele>49.078706</ele>
        <time>2024-01-31T13:49:55.944Z</time>
      </trkpt>
      <trkpt lat="43.39451" lon="6.72801">
        <ele>49.187725</ele>
        <time>2024-01-31T13:49:58.916Z</time>
      </trkpt>
      <trkpt lat="43.39441" lon="6.72799">
        <ele>49.287351</ele>
        <time>2024-01-31T13:50:01.933Z</time>
      </trkpt>
      <trkpt lat="43.39432" lon="6.72795">
        <ele>49.383421</ele>
        <time>2024-01-31T13:50:04.927Z</time>
      </trkpt>
      <trkpt lat="43.39423" lon="6.72791">
        <ele>49.481738</ele>
        <time>2024-01-31T13:50:07.925Z</time>
      </trkpt>
      <trkpt lat="43.39411" lon="6.72787">
        <ele>49.603798</ele>
        <time>2024-01-31T13:50:11.915Z</time>
      </trkpt>
      <trkpt lat="43.39402" lon="6.72785">
        <ele>49.69601</ele>
        <time>2024-01-31T13:50:14.930Z</time>
      </trkpt>
      <trkpt lat="43.39392" lon="6.72782">
        <ele>49.799919</ele>
        <time>2024-01-31T13:50:18.926Z</time>
      </trkpt>
      <trkpt lat="43.39401" lon="6.72785">
        <ele>49.893695</ele>
        <time>2024-01-31T13:50:49.971Z</time>
      </trkpt>
      <trkpt lat="43.39411" lon="6.72788">
        <ele>49.996311</ele>
        <time>2024-01-31T13:50:53.945Z</time>
      </trkpt>
      <trkpt lat="43.3942" lon="6.72792">
        <ele>50.097993</ele>
        <time>2024-01-31T13:50:58.931Z</time>
      </trkpt>
      <trkpt lat="43.39411" lon="6.72789">
        <ele>50.200233</ele>
        <time>2024-01-31T13:51:24.923Z</time>
      </trkpt>
      <trkpt lat="43.394" lon="6.72786">
        <ele>50.315546</ele>
        <time>2024-01-31T13:51:29.951Z</time>
      </trkpt>
      <trkpt lat="43.39389" lon="6.72783">
        <ele>50.424291</ele>
        <time>2024-01-31T13:51:33.929Z</time>
      </trkpt>
      <trkpt lat="43.39379" lon="6.7279">
        <ele>50.537417</ele>
        <time>2024-01-31T13:51:37.931Z</time>
      </trkpt>
      <trkpt lat="43.39375" lon="6.72802">
        <ele>50.634288</ele>
        <time>2024-01-31T13:51:40.942Z</time>
      </trkpt>
      <trkpt lat="43.39371" lon="6.72815">
        <ele>50.7358</ele>
        <time>2024-01-31T13:51:44.937Z</time>
      </trkpt>
      <trkpt lat="43.39363" lon="6.72822">
        <ele>50.838831</ele>
        <time>2024-01-31T13:51:49.933Z</time>
      </trkpt>
      <trkpt lat="43.39353" lon="6.72822">
        <ele>50.936225</ele>
        <time>2024-01-31T13:51:53.927Z</time>
      </trkpt>
      <trkpt lat="43.39341" lon="6.72821">
        <ele>51.041803</ele>
        <time>2024-01-31T13:51:58.022Z</time>
      </trkpt>
      <trkpt lat="43.39329" lon="6.7282">
        <ele>51.150189</ele>
        <time>2024-01-31T13:52:01.930Z</time>
      </trkpt>
      <trkpt lat="43.39318" lon="6.72819">
        <ele>51.258619</ele>
        <time>2024-01-31T13:52:05.934Z</time>
      </trkpt>
      <trkpt lat="43.39306" lon="6.72818">
        <ele>51.364331</ele>
        <time>2024-01-31T13:52:09.908Z</time>
      </trkpt>
      <trkpt lat="43.39296" lon="6.72817">
        <ele>51.456282</ele>
        <time>2024-01-31T13:52:12.922Z</time>
      </trkpt>
      <trkpt lat="43.39286" lon="6.72815">
        <ele>51.556464</ele>
        <time>2024-01-31T13:52:15.930Z</time>
      </trkpt>
      <trkpt lat="43.39275" lon="6.72814">
        <ele>51.653881</ele>
        <time>2024-01-31T13:52:18.935Z</time>
      </trkpt>
      <trkpt lat="43.39265" lon="6.72812">
        <ele>51.751633</ele>
        <time>2024-01-31T13:52:21.948Z</time>
      </trkpt>
      <trkpt lat="43.39255" lon="6.7281">
        <ele>51.843235</ele>
        <time>2024-01-31T13:52:24.991Z</time>
      </trkpt>
      <trkpt lat="43.39246" lon="6.72808">
        <ele>51.928127</ele>
        <time>2024-01-31T13:52:27.934Z</time>
      </trkpt>
      <trkpt lat="43.39235" lon="6.72803">
        <ele>52.032461</ele>
        <time>2024-01-31T13:52:31.934Z</time>
      </trkpt>
      <trkpt lat="43.39226" lon="6.72801">
        <ele>52.116977</ele>
        <time>2024-01-31T13:52:35.923Z</time>
      </trkpt>
      <trkpt lat="43.39221" lon="6.7279">
        <ele>52.209536</ele>
        <time>2024-01-31T13:52:42.918Z</time>
      </trkpt>
      <trkpt lat="43.39222" lon="6.72775">
        <ele>52.31016</ele>
        <time>2024-01-31T13:52:47.937Z</time>
      </trkpt>
      <trkpt lat="43.39221" lon="6.72761">
        <ele>52.401094</ele>
        <time>2024-01-31T13:52:51.949Z</time>
      </trkpt>
      <trkpt lat="43.39218" lon="6.72789">
        <ele>52.578985</ele>
        <time>2024-01-31T13:53:31.938Z</time>
      </trkpt>
      <trkpt lat="43.39222" lon="6.72777">
        <ele>52.647356</ele>
        <time>2024-01-31T13:53:38.943Z</time>
      </trkpt>
      <trkpt lat="43.3922" lon="6.72762">
        <ele>52.72581</ele>
        <time>2024-01-31T13:53:42.962Z</time>
      </trkpt>
      <trkpt lat="43.39215" lon="6.72749">
        <ele>52.802822</ele>
        <time>2024-01-31T13:53:46.940Z</time>
      </trkpt>
      <trkpt lat="43.39209" lon="6.72736">
        <ele>52.88391</ele>
        <time>2024-01-31T13:53:50.934Z</time>
      </trkpt>
      <trkpt lat="43.392" lon="6.72726">
        <ele>52.96712</ele>
        <time>2024-01-31T13:53:54.921Z</time>
      </trkpt>
      <trkpt lat="43.39192" lon="6.7272">
        <ele>53.033936</ele>
        <time>2024-01-31T13:53:57.927Z</time>
      </trkpt>
      <trkpt lat="43.39184" lon="6.72714">
        <ele>53.100417</ele>
        <time>2024-01-31T13:54:00.933Z</time>
      </trkpt>
      <trkpt lat="43.39174" lon="6.72709">
        <ele>53.176124</ele>
        <time>2024-01-31T13:54:03.924Z</time>
      </trkpt>
      <trkpt lat="43.39163" lon="6.72708">
        <ele>53.254093</ele>
        <time>2024-01-31T13:54:06.929Z</time>
      </trkpt>
      <trkpt lat="43.39154" lon="6.72709">
        <ele>53.324616</ele>
        <time>2024-01-31T13:54:09.929Z</time>
      </trkpt>
      <trkpt lat="43.39145" lon="6.72705">
        <ele>53.391065</ele>
        <time>2024-01-31T13:54:18.919Z</time>
      </trkpt>
      <trkpt lat="43.3915" lon="6.72691">
        <ele>53.475887</ele>
        <time>2024-01-31T13:54:24.996Z</time>
      </trkpt>
      <trkpt lat="43.39153" lon="6.72679">
        <ele>53.541321</ele>
        <time>2024-01-31T13:54:27.925Z</time>
      </trkpt>
      <trkpt lat="43.39156" lon="6.72665">
        <ele>53.618059</ele>
        <time>2024-01-31T13:54:30.943Z</time>
      </trkpt>
      <trkpt lat="43.39152" lon="6.72654">
        <ele>53.684366</ele>
        <time>2024-01-31T13:54:33.926Z</time>
      </trkpt>
      <trkpt lat="43.39142" lon="6.72646">
        <ele>53.763991</ele>
        <time>2024-01-31T13:54:36.919Z</time>
      </trkpt>
      <trkpt lat="43.39133" lon="6.7264">
        <ele>53.841428</ele>
        <time>2024-01-31T13:54:39.931Z</time>
      </trkpt>
      <trkpt lat="43.39123" lon="6.72632">
        <ele>54.024766</ele>
        <time>2024-01-31T13:54:42.930Z</time>
      </trkpt>
      <trkpt lat="43.39114" lon="6.72626">
        <ele>54.207093</ele>
        <time>2024-01-31T13:54:45.932Z</time>
      </trkpt>
      <trkpt lat="43.39106" lon="6.7262">
        <ele>54.369566</ele>
        <time>2024-01-31T13:54:48.954Z</time>
      </trkpt>
      <trkpt lat="43.39098" lon="6.72613">
        <ele>54.533691</ele>
        <time>2024-01-31T13:54:51.942Z</time>
      </trkpt>
      <trkpt lat="43.39089" lon="6.72606">
        <ele>54.717515</ele>
        <time>2024-01-31T13:54:54.925Z</time>
      </trkpt>
      <trkpt lat="43.3908" lon="6.72599">
        <ele>54.899174</ele>
        <time>2024-01-31T13:54:57.927Z</time>
      </trkpt>
      <trkpt lat="43.3907" lon="6.72592">
        <ele>55.095911</ele>
        <time>2024-01-31T13:55:00.937Z</time>
      </trkpt>
      <trkpt lat="43.39059" lon="6.72584">
        <ele>55.305557</ele>
        <time>2024-01-31T13:55:04.927Z</time>
      </trkpt>
      <trkpt lat="43.3905" lon="6.72579">
        <ele>55.473492</ele>
        <time>2024-01-31T13:55:07.935Z</time>
      </trkpt>
      <trkpt lat="43.39042" lon="6.72572">
        <ele>55.647076</ele>
        <time>2024-01-31T13:55:10.922Z</time>
      </trkpt>
      <trkpt lat="43.39033" lon="6.72565">
        <ele>55.827878</ele>
        <time>2024-01-31T13:55:13.939Z</time>
      </trkpt>
      <trkpt lat="43.39023" lon="6.72558">
        <ele>56.024716</ele>
        <time>2024-01-31T13:55:16.931Z</time>
      </trkpt>
      <trkpt lat="43.39012" lon="6.72552">
        <ele>56.227306</ele>
        <time>2024-01-31T13:55:19.926Z</time>
      </trkpt>
      <trkpt lat="43.39003" lon="6.72545">
        <ele>56.411427</ele>
        <time>2024-01-31T13:55:22.933Z</time>
      </trkpt>
      <trkpt lat="43.38994" lon="6.72538">
        <ele>56.601042</ele>
        <time>2024-01-31T13:55:25.940Z</time>
      </trkpt>
      <trkpt lat="43.38984" lon="6.72532">
        <ele>56.78764</ele>
        <time>2024-01-31T13:55:28.930Z</time>
      </trkpt>
      <trkpt lat="43.38974" lon="6.72526">
        <ele>56.980112</ele>
        <time>2024-01-31T13:55:31.946Z</time>
      </trkpt>
      <trkpt lat="43.38966" lon="6.72519">
        <ele>57.15776</ele>
        <time>2024-01-31T13:55:34.938Z</time>
      </trkpt>
      <trkpt lat="43.38957" lon="6.72512">
        <ele>57.348786</ele>
        <time>2024-01-31T13:55:37.930Z</time>
      </trkpt>
      <trkpt lat="43.38947" lon="6.72506">
        <ele>57.537774</ele>
        <time>2024-01-31T13:55:40.926Z</time>
      </trkpt>
      <trkpt lat="43.38937" lon="6.72501">
        <ele>57.750143</ele>
        <time>2024-01-31T13:55:43.932Z</time>
      </trkpt>
      <trkpt lat="43.38928" lon="6.72494">
        <ele>57.93313</ele>
        <time>2024-01-31T13:55:46.919Z</time>
      </trkpt>
      <trkpt lat="43.38919" lon="6.72488">
        <ele>58.119933</ele>
        <time>2024-01-31T13:55:49.930Z</time>
      </trkpt>
      <trkpt lat="43.3891" lon="6.72481">
        <ele>58.311795</ele>
        <time>2024-01-31T13:55:52.928Z</time>
      </trkpt>
      <trkpt lat="43.389" lon="6.72477">
        <ele>58.496008</ele>
        <time>2024-01-31T13:55:55.927Z</time>
      </trkpt>
      <trkpt lat="43.3889" lon="6.72473">
        <ele>58.691693</ele>
        <time>2024-01-31T13:55:58.943Z</time>
      </trkpt>
      <trkpt lat="43.38881" lon="6.72465">
        <ele>58.893418</ele>
        <time>2024-01-31T13:56:01.939Z</time>
      </trkpt>
      <trkpt lat="43.38872" lon="6.72457">
        <ele>59.08183</ele>
        <time>2024-01-31T13:56:04.938Z</time>
      </trkpt>
      <trkpt lat="43.38864" lon="6.72451">
        <ele>59.2641</ele>
        <time>2024-01-31T13:56:07.938Z</time>
      </trkpt>
      <trkpt lat="43.38853" lon="6.72447">
        <ele>59.463196</ele>
        <time>2024-01-31T13:56:10.935Z</time>
      </trkpt>
      <trkpt lat="43.38846" lon="6.72439">
        <ele>59.638587</ele>
        <time>2024-01-31T13:56:13.906Z</time>
      </trkpt>
      <trkpt lat="43.38838" lon="6.72431">
        <ele>59.819013</ele>
        <time>2024-01-31T13:56:17.932Z</time>
      </trkpt>
      <trkpt lat="43.38828" lon="6.72426">
        <ele>60.018541</ele>
        <time>2024-01-31T13:56:23.919Z</time>
      </trkpt>
      <trkpt lat="43.3882" lon="6.72419">
        <ele>60.18873</ele>
        <time>2024-01-31T13:56:27.928Z</time>
      </trkpt>
      <trkpt lat="43.38811" lon="6.72413">
        <ele>60.372751</ele>
        <time>2024-01-31T13:56:31.931Z</time>
      </trkpt>
      <trkpt lat="43.38801" lon="6.72408">
        <ele>60.528696</ele>
        <time>2024-01-31T13:56:35.941Z</time>
      </trkpt>
      <trkpt lat="43.38793" lon="6.72402">
        <ele>60.672895</ele>
        <time>2024-01-31T13:56:38.931Z</time>
      </trkpt>
      <trkpt lat="43.38782" lon="6.72396">
        <ele>60.846239</ele>
        <time>2024-01-31T13:56:42.926Z</time>
      </trkpt>
      <trkpt lat="43.38773" lon="6.72391">
        <ele>60.99078</ele>
        <time>2024-01-31T13:56:46.951Z</time>
      </trkpt>
      <trkpt lat="43.38757" lon="6.7238">
        <ele>61.260268</ele>
        <time>2024-01-31T13:58:28.927Z</time>
      </trkpt>
      <trkpt lat="43.38748" lon="6.72373">
        <ele>61.416514</ele>
        <time>2024-01-31T13:58:32.942Z</time>
      </trkpt>
      <trkpt lat="43.3874" lon="6.72368">
        <ele>61.555101</ele>
        <time>2024-01-31T13:58:35.926Z</time>
      </trkpt>
      <trkpt lat="43.38732" lon="6.72362">
        <ele>61.698468</ele>
        <time>2024-01-31T13:58:38.928Z</time>
      </trkpt>
      <trkpt lat="43.38722" lon="6.72356">
        <ele>61.848938</ele>
        <time>2024-01-31T13:58:41.909Z</time>
      </trkpt>
      <trkpt lat="43.38714" lon="6.7235">
        <ele>61.993504</ele>
        <time>2024-01-31T13:58:44.934Z</time>
      </trkpt>
      <trkpt lat="43.38705" lon="6.72344">
        <ele>62.143983</ele>
        <time>2024-01-31T13:58:47.937Z</time>
      </trkpt>
      <trkpt lat="43.38696" lon="6.72337">
        <ele>62.298965</ele>
        <time>2024-01-31T13:58:50.932Z</time>
      </trkpt>
      <trkpt lat="43.38689" lon="6.72328">
        <ele>62.451384</ele>
        <time>2024-01-31T13:58:54.928Z</time>
      </trkpt>
      <trkpt lat="43.38669" lon="6.7232">
        <ele>62.753564</ele>
        <time>2024-01-31T14:04:34.951Z</time>
      </trkpt>
      <trkpt lat="43.38662" lon="6.72313">
        <ele>62.889745</ele>
        <time>2024-01-31T14:04:37.926Z</time>
      </trkpt>
      <trkpt lat="43.38652" lon="6.72308">
        <ele>63.05411</ele>
        <time>2024-01-31T14:04:40.908Z</time>
      </trkpt>
      <trkpt lat="43.38642" lon="6.72301">
        <ele>62.9159</ele>
        <time>2024-01-31T14:04:43.955Z</time>
      </trkpt>
      <trkpt lat="43.38633" lon="6.72294">
        <ele>62.776398</ele>
        <time>2024-01-31T14:04:46.937Z</time>
      </trkpt>
      <trkpt lat="43.38624" lon="6.72288">
        <ele>62.631499</ele>
        <time>2024-01-31T14:04:50.931Z</time>
      </trkpt>
      <trkpt lat="43.38614" lon="6.72285">
        <ele>62.496738</ele>
        <time>2024-01-31T14:04:55.922Z</time>
      </trkpt>
      <trkpt lat="43.38604" lon="6.72279">
        <ele>62.337304</ele>
        <time>2024-01-31T14:05:01.929Z</time>
      </trkpt>
      <trkpt lat="43.38593" lon="6.72275">
        <ele>62.191979</ele>
        <time>2024-01-31T14:05:05.943Z</time>
      </trkpt>
      <trkpt lat="43.38584" lon="6.7227">
        <ele>62.058103</ele>
        <time>2024-01-31T14:05:08.946Z</time>
      </trkpt>
      <trkpt lat="43.38575" lon="6.72266">
        <ele>61.925511</ele>
        <time>2024-01-31T14:05:11.933Z</time>
      </trkpt>
      <trkpt lat="43.38565" lon="6.72261">
        <ele>61.773776</ele>
        <time>2024-01-31T14:05:14.935Z</time>
      </trkpt>
      <trkpt lat="43.38554" lon="6.72258">
        <ele>61.62317</ele>
        <time>2024-01-31T14:05:17.915Z</time>
      </trkpt>
      <trkpt lat="43.38543" lon="6.72254">
        <ele>61.47096</ele>
        <time>2024-01-31T14:05:21.936Z</time>
      </trkpt>
      <trkpt lat="43.38531" lon="6.72249">
        <ele>61.297234</ele>
        <time>2024-01-31T14:05:25.917Z</time>
      </trkpt>
      <trkpt lat="43.3852" lon="6.72246">
        <ele>61.142972</ele>
        <time>2024-01-31T14:05:28.929Z</time>
      </trkpt>
      <trkpt lat="43.38511" lon="6.72241">
        <ele>61.006165</ele>
        <time>2024-01-31T14:05:32.930Z</time>
      </trkpt>
      <trkpt lat="43.38501" lon="6.72241">
        <ele>60.865548</ele>
        <time>2024-01-31T14:05:41.918Z</time>
      </trkpt>
      <trkpt lat="43.3849" lon="6.72238">
        <ele>60.710464</ele>
        <time>2024-01-31T14:05:45.936Z</time>
      </trkpt>
      <trkpt lat="43.38479" lon="6.72233">
        <ele>60.558582</ele>
        <time>2024-01-31T14:05:49.935Z</time>
      </trkpt>
      <trkpt lat="43.3847" lon="6.72228">
        <ele>60.465972</ele>
        <time>2024-01-31T14:05:53.941Z</time>
      </trkpt>
      <trkpt lat="43.38462" lon="6.7222">
        <ele>60.367838</ele>
        <time>2024-01-31T14:05:59.947Z</time>
      </trkpt>
      <trkpt lat="43.38454" lon="6.72215">
        <ele>60.278027</ele>
        <time>2024-01-31T14:06:03.943Z</time>
      </trkpt>
      <trkpt lat="43.38444" lon="6.7221">
        <ele>60.17525</ele>
        <time>2024-01-31T14:06:08.905Z</time>
      </trkpt>
      <trkpt lat="43.38434" lon="6.7221">
        <ele>60.082376</ele>
        <time>2024-01-31T14:06:12.947Z</time>
      </trkpt>
      <trkpt lat="43.38423" lon="6.72211">
        <ele>59.972647</ele>
        <time>2024-01-31T14:06:16.954Z</time>
      </trkpt>
      <trkpt lat="43.38411" lon="6.7221">
        <ele>59.854083</ele>
        <time>2024-01-31T14:06:20.933Z</time>
      </trkpt>
      <trkpt lat="43.38401" lon="6.72211">
        <ele>59.756006</ele>
        <time>2024-01-31T14:06:23.945Z</time>
      </trkpt>
      <trkpt lat="43.38391" lon="6.72212">
        <ele>59.655218</ele>
        <time>2024-01-31T14:06:26.932Z</time>
      </trkpt>
      <trkpt lat="43.38381" lon="6.72212">
        <ele>59.55444</ele>
        <time>2024-01-31T14:06:29.934Z</time>
      </trkpt>
      <trkpt lat="43.38371" lon="6.72213">
        <ele>59.452179</ele>
        <time>2024-01-31T14:06:32.927Z</time>
      </trkpt>
      <trkpt lat="43.38359" lon="6.72214">
        <ele>59.3385</ele>
        <time>2024-01-31T14:06:35.933Z</time>
      </trkpt>
      <trkpt lat="43.38347" lon="6.72214">
        <ele>59.214979</ele>
        <time>2024-01-31T14:06:38.935Z</time>
      </trkpt>
      <trkpt lat="43.38337" lon="6.72214">
        <ele>59.116153</ele>
        <time>2024-01-31T14:06:40.949Z</time>
      </trkpt>
      <trkpt lat="43.38328" lon="6.72215">
        <ele>59.026198</ele>
        <time>2024-01-31T14:06:42.916Z</time>
      </trkpt>
      <trkpt lat="43.38318" lon="6.72216">
        <ele>58.932004</ele>
        <time>2024-01-31T14:06:44.930Z</time>
      </trkpt>
      <trkpt lat="43.38309" lon="6.72217">
        <ele>58.837606</ele>
        <time>2024-01-31T14:06:46.937Z</time>
      </trkpt>
      <trkpt lat="43.38297" lon="6.72217">
        <ele>58.681904</ele>
        <time>2024-01-31T14:06:49.943Z</time>
      </trkpt>
      <trkpt lat="43.38286" lon="6.72216">
        <ele>58.520059</ele>
        <time>2024-01-31T14:06:55.935Z</time>
      </trkpt>
      <trkpt lat="43.38276" lon="6.72215">
        <ele>58.373372</ele>
        <time>2024-01-31T14:06:59.936Z</time>
      </trkpt>
      <trkpt lat="43.38267" lon="6.72214">
        <ele>58.231576</ele>
        <time>2024-01-31T14:07:02.939Z</time>
      </trkpt>
      <trkpt lat="43.38256" lon="6.72212">
        <ele>58.078127</ele>
        <time>2024-01-31T14:07:05.938Z</time>
      </trkpt>
      <trkpt lat="43.38246" lon="6.7221">
        <ele>57.924017</ele>
        <time>2024-01-31T14:07:08.952Z</time>
      </trkpt>
      <trkpt lat="43.38235" lon="6.72205">
        <ele>57.757281</ele>
        <time>2024-01-31T14:07:12.026Z</time>
      </trkpt>
      <trkpt lat="43.38225" lon="6.72201">
        <ele>57.590208</ele>
        <time>2024-01-31T14:07:14.930Z</time>
      </trkpt>
      <trkpt lat="43.38216" lon="6.72196">
        <ele>57.44941</ele>
        <time>2024-01-31T14:07:18.949Z</time>
      </trkpt>
      <trkpt lat="43.38207" lon="6.72194">
        <ele>57.313591</ele>
        <time>2024-01-31T14:07:22.937Z</time>
      </trkpt>
      <trkpt lat="43.38197" lon="6.72193">
        <ele>57.169095</ele>
        <time>2024-01-31T14:07:25.934Z</time>
      </trkpt>
      <trkpt lat="43.38186" lon="6.7219">
        <ele>57.006274</ele>
        <time>2024-01-31T14:07:28.928Z</time>
      </trkpt>
      <trkpt lat="43.38175" lon="6.72185">
        <ele>56.831688</ele>
        <time>2024-01-31T14:07:31.937Z</time>
      </trkpt>
      <trkpt lat="43.38165" lon="6.72184">
        <ele>56.68435</ele>
        <time>2024-01-31T14:07:35.916Z</time>
      </trkpt>
      <trkpt lat="43.38154" lon="6.72176">
        <ele>56.50512</ele>
        <time>2024-01-31T14:07:39.928Z</time>
      </trkpt>
      <trkpt lat="43.38143" lon="6.72172">
        <ele>56.330276</ele>
        <time>2024-01-31T14:07:42.923Z</time>
      </trkpt>
      <trkpt lat="43.38132" lon="6.72168">
        <ele>56.158293</ele>
        <time>2024-01-31T14:07:45.927Z</time>
      </trkpt>
      <trkpt lat="43.38119" lon="6.72162">
        <ele>56.168548</ele>
        <time>2024-01-31T14:07:48.925Z</time>
      </trkpt>
      <trkpt lat="43.38111" lon="6.72156">
        <ele>56.191247</ele>
        <time>2024-01-31T14:07:50.932Z</time>
      </trkpt>
      <trkpt lat="43.38103" lon="6.7215">
        <ele>56.214668</ele>
        <time>2024-01-31T14:07:52.940Z</time>
      </trkpt>
      <trkpt lat="43.38096" lon="6.72141">
        <ele>56.236987</ele>
        <time>2024-01-31T14:07:54.938Z</time>
      </trkpt>
      <trkpt lat="43.38089" lon="6.72132">
        <ele>56.260126</ele>
        <time>2024-01-31T14:07:56.936Z</time>
      </trkpt>
      <trkpt lat="43.38082" lon="6.72123">
        <ele>56.282018</ele>
        <time>2024-01-31T14:07:58.934Z</time>
      </trkpt>
      <trkpt lat="43.38076" lon="6.72114">
        <ele>56.3045</ele>
        <time>2024-01-31T14:08:00.927Z</time>
      </trkpt>
      <trkpt lat="43.38071" lon="6.72104">
        <ele>56.326653</ele>
        <time>2024-01-31T14:08:02.927Z</time>
      </trkpt>
      <trkpt lat="43.38064" lon="6.72088">
        <ele>56.358836</ele>
        <time>2024-01-31T14:08:05.948Z</time>
      </trkpt>
      <trkpt lat="43.38056" lon="6.72074">
        <ele>56.388798</ele>
        <time>2024-01-31T14:08:08.938Z</time>
      </trkpt>
      <trkpt lat="43.38049" lon="6.7206">
        <ele>56.419074</ele>
        <time>2024-01-31T14:08:11.937Z</time>
      </trkpt>
      <trkpt lat="43.38043" lon="6.72044">
        <ele>56.451307</ele>
        <time>2024-01-31T14:08:14.931Z</time>
      </trkpt>
      <trkpt lat="43.38038" lon="6.72033">
        <ele>56.473805</ele>
        <time>2024-01-31T14:08:16.928Z</time>
      </trkpt>
      <trkpt lat="43.38031" lon="6.72017">
        <ele>56.506436</ele>
        <time>2024-01-31T14:08:19.935Z</time>
      </trkpt>
      <trkpt lat="43.38026" lon="6.72006">
        <ele>56.528684</ele>
        <time>2024-01-31T14:08:21.933Z</time>
      </trkpt>
      <trkpt lat="43.38019" lon="6.71992">
        <ele>56.558271</ele>
        <time>2024-01-31T14:08:24.933Z</time>
      </trkpt>
      <trkpt lat="43.38014" lon="6.7198">
        <ele>56.598319</ele>
        <time>2024-01-31T14:08:27.940Z</time>
      </trkpt>
      <trkpt lat="43.38008" lon="6.71968">
        <ele>56.660104</ele>
        <time>2024-01-31T14:08:31.929Z</time>
      </trkpt>
      <trkpt lat="43.38001" lon="6.71958">
        <ele>56.71783</ele>
        <time>2024-01-31T14:08:34.919Z</time>
      </trkpt>
      <trkpt lat="43.37993" lon="6.71947">
        <ele>56.785989</ele>
        <time>2024-01-31T14:08:37.931Z</time>
      </trkpt>
      <trkpt lat="43.37984" lon="6.71936">
        <ele>56.856704</ele>
        <time>2024-01-31T14:08:40.942Z</time>
      </trkpt>
      <trkpt lat="43.37975" lon="6.71926">
        <ele>56.928432</ele>
        <time>2024-01-31T14:08:43.930Z</time>
      </trkpt>
      <trkpt lat="43.37965" lon="6.71915">
        <ele>57.003528</ele>
        <time>2024-01-31T14:08:46.931Z</time>
      </trkpt>
      <trkpt lat="43.37954" lon="6.71906">
        <ele>57.078694</ele>
        <time>2024-01-31T14:08:49.951Z</time>
      </trkpt>
      <trkpt lat="43.37942" lon="6.71898">
        <ele>57.155137</ele>
        <time>2024-01-31T14:08:52.934Z</time>
      </trkpt>
      <trkpt lat="43.37931" lon="6.71892">
        <ele>57.229866</ele>
        <time>2024-01-31T14:08:55.980Z</time>
      </trkpt>
      <trkpt lat="43.37919" lon="6.71886">
        <ele>57.30097</ele>
        <time>2024-01-31T14:08:58.946Z</time>
      </trkpt>
      <trkpt lat="43.37908" lon="6.71881">
        <ele>57.372991</ele>
        <time>2024-01-31T14:09:01.927Z</time>
      </trkpt>
      <trkpt lat="43.37896" lon="6.71876">
        <ele>57.444974</ele>
        <time>2024-01-31T14:09:04.924Z</time>
      </trkpt>
      <trkpt lat="43.37884" lon="6.71872">
        <ele>57.519436</ele>
        <time>2024-01-31T14:09:07.937Z</time>
      </trkpt>
      <trkpt lat="43.37872" lon="6.71869">
        <ele>57.592735</ele>
        <time>2024-01-31T14:09:10.943Z</time>
      </trkpt>
      <trkpt lat="43.3786" lon="6.71866">
        <ele>57.745987</ele>
        <time>2024-01-31T14:09:13.941Z</time>
      </trkpt>
      <trkpt lat="43.37846" lon="6.71864">
        <ele>58.076261</ele>
        <time>2024-01-31T14:09:16.938Z</time>
      </trkpt>
      <trkpt lat="43.37836" lon="6.71862">
        <ele>58.324982</ele>
        <time>2024-01-31T14:09:18.943Z</time>
      </trkpt>
      <trkpt lat="43.37826" lon="6.71862">
        <ele>58.563637</ele>
        <time>2024-01-31T14:09:20.923Z</time>
      </trkpt>
      <trkpt lat="43.37817" lon="6.71859">
        <ele>58.79095</ele>
        <time>2024-01-31T14:09:22.938Z</time>
      </trkpt>
      <trkpt lat="43.37807" lon="6.71856">
        <ele>59.026354</ele>
        <time>2024-01-31T14:09:24.931Z</time>
      </trkpt>
      <trkpt lat="43.37798" lon="6.71854">
        <ele>59.25732</ele>
        <time>2024-01-31T14:09:26.933Z</time>
      </trkpt>
      <trkpt lat="43.37788" lon="6.71854">
        <ele>59.490754</ele>
        <time>2024-01-31T14:09:28.917Z</time>
      </trkpt>
      <trkpt lat="43.37779" lon="6.71852">
        <ele>59.713773</ele>
        <time>2024-01-31T14:09:30.952Z</time>
      </trkpt>
      <trkpt lat="43.3777" lon="6.71849">
        <ele>59.93653</ele>
        <time>2024-01-31T14:09:32.937Z</time>
      </trkpt>
      <trkpt lat="43.37758" lon="6.71845">
        <ele>60.248919</ele>
        <time>2024-01-31T14:09:35.939Z</time>
      </trkpt>
      <trkpt lat="43.37746" lon="6.71843">
        <ele>60.544512</ele>
        <time>2024-01-31T14:09:38.927Z</time>
      </trkpt>
      <trkpt lat="43.37734" lon="6.71839">
        <ele>60.836552</ele>
        <time>2024-01-31T14:09:41.937Z</time>
      </trkpt>
      <trkpt lat="43.37725" lon="6.71838">
        <ele>61.05764</ele>
        <time>2024-01-31T14:09:44.923Z</time>
      </trkpt>
      <trkpt lat="43.37715" lon="6.71836">
        <ele>61.307863</ele>
        <time>2024-01-31T14:09:48.938Z</time>
      </trkpt>
      <trkpt lat="43.37703" lon="6.71833">
        <ele>61.599991</ele>
        <time>2024-01-31T14:09:52.911Z</time>
      </trkpt>
      <trkpt lat="43.37693" lon="6.71831">
        <ele>61.850457</ele>
        <time>2024-01-31T14:09:55.927Z</time>
      </trkpt>
      <trkpt lat="43.37684" lon="6.71827">
        <ele>62.077683</ele>
        <time>2024-01-31T14:09:58.921Z</time>
      </trkpt>
      <trkpt lat="43.37674" lon="6.71822">
        <ele>62.275339</ele>
        <time>2024-01-31T14:10:01.929Z</time>
      </trkpt>
      <trkpt lat="43.37664" lon="6.71815">
        <ele>62.513276</ele>
        <time>2024-01-31T14:10:05.930Z</time>
      </trkpt>
      <trkpt lat="43.37655" lon="6.71807">
        <ele>62.710836</ele>
        <time>2024-01-31T14:10:08.921Z</time>
      </trkpt>
      <trkpt lat="43.37647" lon="6.718">
        <ele>62.912756</ele>
        <time>2024-01-31T14:10:11.941Z</time>
      </trkpt>
      <trkpt lat="43.37639" lon="6.71792">
        <ele>63.112788</ele>
        <time>2024-01-31T14:10:14.926Z</time>
      </trkpt>
      <trkpt lat="43.37629" lon="6.71784">
        <ele>63.330952</ele>
        <time>2024-01-31T14:10:17.933Z</time>
      </trkpt>
      <trkpt lat="43.3762" lon="6.71776">
        <ele>63.548426</ele>
        <time>2024-01-31T14:10:20.929Z</time>
      </trkpt>
      <trkpt lat="43.3761" lon="6.71769">
        <ele>63.766996</ele>
        <time>2024-01-31T14:10:23.931Z</time>
      </trkpt>
      <trkpt lat="43.37601" lon="6.71761">
        <ele>63.983698</ele>
        <time>2024-01-31T14:10:26.930Z</time>
      </trkpt>
      <trkpt lat="43.37592" lon="6.71754">
        <ele>64.20184</ele>
        <time>2024-01-31T14:10:29.934Z</time>
      </trkpt>
      <trkpt lat="43.37582" lon="6.71745">
        <ele>64.426561</ele>
        <time>2024-01-31T14:10:32.943Z</time>
      </trkpt>
      <trkpt lat="43.37573" lon="6.71736">
        <ele>64.662855</ele>
        <time>2024-01-31T14:10:35.935Z</time>
      </trkpt>
      <trkpt lat="43.37563" lon="6.71728">
        <ele>64.888095</ele>
        <time>2024-01-31T14:10:38.937Z</time>
      </trkpt>
      <trkpt lat="43.37554" lon="6.7172">
        <ele>65.10129</ele>
        <time>2024-01-31T14:10:41.928Z</time>
      </trkpt>
      <trkpt lat="43.37546" lon="6.71712">
        <ele>65.29982</ele>
        <time>2024-01-31T14:10:44.931Z</time>
      </trkpt>
      <trkpt lat="43.37537" lon="6.71706">
        <ele>65.500791</ele>
        <time>2024-01-31T14:10:47.943Z</time>
      </trkpt>
      <trkpt lat="43.37529" lon="6.71699">
        <ele>65.598668</ele>
        <time>2024-01-31T14:10:50.939Z</time>
      </trkpt>
      <trkpt lat="43.37519" lon="6.71691">
        <ele>65.568343</ele>
        <time>2024-01-31T14:10:54.932Z</time>
      </trkpt>
      <trkpt lat="43.37511" lon="6.71685">
        <ele>65.542707</ele>
        <time>2024-01-31T14:10:57.934Z</time>
      </trkpt>
      <trkpt lat="43.37503" lon="6.71677">
        <ele>65.515642</ele>
        <time>2024-01-31T14:11:00.924Z</time>
      </trkpt>
      <trkpt lat="43.37494" lon="6.71669">
        <ele>65.488127</ele>
        <time>2024-01-31T14:11:03.937Z</time>
      </trkpt>
      <trkpt lat="43.37485" lon="6.71662">
        <ele>65.460135</ele>
        <time>2024-01-31T14:11:06.919Z</time>
      </trkpt>
      <trkpt lat="43.37475" lon="6.71655">
        <ele>65.431083</ele>
        <time>2024-01-31T14:11:09.947Z</time>
      </trkpt>
      <trkpt lat="43.37466" lon="6.71647">
        <ele>65.403219</ele>
        <time>2024-01-31T14:11:12.934Z</time>
      </trkpt>
      <trkpt lat="43.37457" lon="6.7164">
        <ele>65.373915</ele>
        <time>2024-01-31T14:11:15.933Z</time>
      </trkpt>
      <trkpt lat="43.37449" lon="6.71633">
        <ele>65.348498</ele>
        <time>2024-01-31T14:11:18.942Z</time>
      </trkpt>
      <trkpt lat="43.37441" lon="6.71626">
        <ele>65.322542</ele>
        <time>2024-01-31T14:11:21.927Z</time>
      </trkpt>
      <trkpt lat="43.37435" lon="6.71614">
        <ele>65.295542</ele>
        <time>2024-01-31T14:11:24.934Z</time>
      </trkpt>
      <trkpt lat="43.37428" lon="6.71604">
        <ele>65.268134</ele>
        <time>2024-01-31T14:11:27.930Z</time>
      </trkpt>
      <trkpt lat="43.37423" lon="6.71593">
        <ele>65.242994</ele>
        <time>2024-01-31T14:11:30.937Z</time>
      </trkpt>
      <trkpt lat="43.37417" lon="6.71582">
        <ele>65.216152</ele>
        <time>2024-01-31T14:11:33.924Z</time>
      </trkpt>
      <trkpt lat="43.37412" lon="6.7157">
        <ele>65.188902</ele>
        <time>2024-01-31T14:11:36.924Z</time>
      </trkpt>
      <trkpt lat="43.37407" lon="6.71557">
        <ele>65.160605</ele>
        <time>2024-01-31T14:11:39.933Z</time>
      </trkpt>
      <trkpt lat="43.37403" lon="6.71544">
        <ele>65.133567</ele>
        <time>2024-01-31T14:11:42.911Z</time>
      </trkpt>
      <trkpt lat="43.374" lon="6.7153">
        <ele>64.914364</ele>
        <time>2024-01-31T14:11:45.972Z</time>
      </trkpt>
      <trkpt lat="43.37399" lon="6.71517">
        <ele>64.665488</ele>
        <time>2024-01-31T14:11:48.933Z</time>
      </trkpt>
      <trkpt lat="43.37396" lon="6.71501">
        <ele>64.368888</ele>
        <time>2024-01-31T14:11:52.926Z</time>
      </trkpt>
      <trkpt lat="43.37394" lon="6.71486">
        <ele>64.079611</ele>
        <time>2024-01-31T14:11:56.925Z</time>
      </trkpt>
      <trkpt lat="43.37393" lon="6.71471">
        <ele>63.79075</ele>
        <time>2024-01-31T14:12:00.913Z</time>
      </trkpt>
      <trkpt lat="43.37391" lon="6.71456">
        <ele>63.511026</ele>
        <time>2024-01-31T14:12:04.922Z</time>
      </trkpt>
      <trkpt lat="43.37389" lon="6.71442">
        <ele>63.255466</ele>
        <time>2024-01-31T14:12:08.934Z</time>
      </trkpt>
      <trkpt lat="43.37388" lon="6.71427">
        <ele>62.97968</ele>
        <time>2024-01-31T14:12:12.930Z</time>
      </trkpt>
      <trkpt lat="43.37386" lon="6.71415">
        <ele>62.750096</ele>
        <time>2024-01-31T14:12:15.928Z</time>
      </trkpt>
      <trkpt lat="43.37385" lon="6.714">
        <ele>62.46489</ele>
        <time>2024-01-31T14:12:19.933Z</time>
      </trkpt>
      <trkpt lat="43.37377" lon="6.71391">
        <ele>62.21766</ele>
        <time>2024-01-31T14:12:25.929Z</time>
      </trkpt>
      <trkpt lat="43.37367" lon="6.71392">
        <ele>61.959033</ele>
        <time>2024-01-31T14:12:31.915Z</time>
      </trkpt>
      <trkpt lat="43.37356" lon="6.71393">
        <ele>61.665754</ele>
        <time>2024-01-31T14:12:34.944Z</time>
      </trkpt>
      <trkpt lat="43.37346" lon="6.71393">
        <ele>61.418593</ele>
        <time>2024-01-31T14:12:36.944Z</time>
      </trkpt>
      <trkpt lat="43.37336" lon="6.71394">
        <ele>61.171211</ele>
        <time>2024-01-31T14:12:38.992Z</time>
      </trkpt>
      <trkpt lat="43.37327" lon="6.71396">
        <ele>60.91693</ele>
        <time>2024-01-31T14:12:40.932Z</time>
      </trkpt>
      <trkpt lat="43.37317" lon="6.71398">
        <ele>60.680177</ele>
        <time>2024-01-31T14:12:42.942Z</time>
      </trkpt>
      <trkpt lat="43.37307" lon="6.71399">
        <ele>60.546071</ele>
        <time>2024-01-31T14:12:45.927Z</time>
      </trkpt>
      <trkpt lat="43.37296" lon="6.71394">
        <ele>60.546071</ele>
        <time>2024-01-31T14:12:49.930Z</time>
      </trkpt>
      <trkpt lat="43.37292" lon="6.7138">
        <ele>60.546071</ele>
        <time>2024-01-31T14:12:52.925Z</time>
      </trkpt>
      <trkpt lat="43.37283" lon="6.71365">
        <ele>60.546071</ele>
        <time>2024-01-31T14:12:55.930Z</time>
      </trkpt>
      <trkpt lat="43.37275" lon="6.71357">
        <ele>60.546071</ele>
        <time>2024-01-31T14:12:57.918Z</time>
      </trkpt>
      <trkpt lat="43.37267" lon="6.7135">
        <ele>60.546071</ele>
        <time>2024-01-31T14:12:59.938Z</time>
      </trkpt>
      <trkpt lat="43.37255" lon="6.71345">
        <ele>60.546071</ele>
        <time>2024-01-31T14:13:02.923Z</time>
      </trkpt>
      <trkpt lat="43.37247" lon="6.7134">
        <ele>60.546071</ele>
        <time>2024-01-31T14:13:05.913Z</time>
      </trkpt>
      <trkpt lat="43.37243" lon="6.71328">
        <ele>60.546071</ele>
        <time>2024-01-31T14:13:17.913Z</time>
      </trkpt>
      <trkpt lat="43.37239" lon="6.71315">
        <ele>60.546071</ele>
        <time>2024-01-31T14:13:25.913Z</time>
      </trkpt>
    </trkseg>
  </trk>
</gpx>